<?xml version="1.0" encoding="UTF-8" ?>
<gpx xmlns="http://www.topografix.com/GPX/1/1" version="1.1" creator="osmtracker-android" xmlns:xsi="http://www.w3.org/2001/XMLSchema-instance" xsi:schemaLocation="http://www.topografix.com/GPX/1/1 http://www.topografix.com/GPX/1/1/gpx.xsd ">
	<trk>
		<name><![CDATA[Aufgezeichnet mit OSMTracker für Android™]]></name>
		<trkseg>
			<trkpt lat="50.87138359244977" lon="6.687722182132626">
				<ele>173.0</ele>
				<time>2011-02-17T15:37:43Z</time>
			</trkpt>
			<trkpt lat="50.87138359244977" lon="6.687722182132626">
				<ele>173.0</ele>
				<time>2011-02-17T15:37:44Z</time>
			</trkpt>
			<trkpt lat="50.87138359244977" lon="6.687722182132626">
				<ele>173.0</ele>
				<time>2011-02-17T15:37:45Z</time>
			</trkpt>
			<trkpt lat="50.87138359244977" lon="6.687722182132626">
				<ele>173.0</ele>
				<time>2011-02-17T15:37:46Z</time>
			</trkpt>
			<trkpt lat="50.8713554718505" lon="6.687708607484002">
				<ele>139.0</ele>
				<time>2011-02-17T15:37:47Z</time>
			</trkpt>
			<trkpt lat="50.8713541386572" lon="6.687706465667408">
				<ele>137.0</ele>
				<time>2011-02-17T15:37:48Z</time>
			</trkpt>
			<trkpt lat="50.871352888211305" lon="6.687706133185482">
				<ele>135.0</ele>
				<time>2011-02-17T15:37:49Z</time>
			</trkpt>
			<trkpt lat="50.871351577697304" lon="6.687705413637959">
				<ele>133.0</ele>
				<time>2011-02-17T15:37:50Z</time>
			</trkpt>
			<trkpt lat="50.871350657975746" lon="6.687704103782879">
				<ele>131.0</ele>
				<time>2011-02-17T15:37:51Z</time>
			</trkpt>
			<trkpt lat="50.87135026428446" lon="6.687702283994574">
				<ele>130.0</ele>
				<time>2011-02-17T15:37:52Z</time>
			</trkpt>
			<trkpt lat="50.87135009902501" lon="6.687700192529112">
				<ele>130.0</ele>
				<time>2011-02-17T15:37:53Z</time>
			</trkpt>
			<trkpt lat="50.87135037173345" lon="6.6876984298273126">
				<ele>130.0</ele>
				<time>2011-02-17T15:37:54Z</time>
			</trkpt>
			<trkpt lat="50.87135108099043" lon="6.687697157541028">
				<ele>130.0</ele>
				<time>2011-02-17T15:37:55Z</time>
			</trkpt>
			<trkpt lat="50.87135182502464" lon="6.687696661376472">
				<ele>130.0</ele>
				<time>2011-02-17T15:37:56Z</time>
			</trkpt>
			<trkpt lat="50.87135200599436" lon="6.687696240786244">
				<ele>130.0</ele>
				<time>2011-02-17T15:37:57Z</time>
			</trkpt>
			<trkpt lat="50.871352558518836" lon="6.687696055705707">
				<ele>130.0</ele>
				<time>2011-02-17T15:37:58Z</time>
			</trkpt>
			<trkpt lat="50.87135334450834" lon="6.687695882156141">
				<ele>130.0</ele>
				<time>2011-02-17T15:37:59Z</time>
			</trkpt>
			<trkpt lat="50.87135383298714" lon="6.687695397025556">
				<ele>130.0</ele>
				<time>2011-02-17T15:38:00Z</time>
			</trkpt>
			<trkpt lat="50.87135438574138" lon="6.687694882320764">
				<ele>130.0</ele>
				<time>2011-02-17T15:38:01Z</time>
			</trkpt>
			<trkpt lat="50.87135533892895" lon="6.687694248154366">
				<ele>130.0</ele>
				<time>2011-02-17T15:38:02Z</time>
			</trkpt>
			<trkpt lat="50.87135636060295" lon="6.687693385258018">
				<ele>130.0</ele>
				<time>2011-02-17T15:38:03Z</time>
			</trkpt>
			<trkpt lat="50.87135749784413" lon="6.6876917687761">
				<ele>130.0</ele>
				<time>2011-02-17T15:38:04Z</time>
			</trkpt>
			<trkpt lat="50.871359024017266" lon="6.687689694866115">
				<ele>130.0</ele>
				<time>2011-02-17T15:38:05Z</time>
			</trkpt>
			<trkpt lat="50.87136086347805" lon="6.687687122956057">
				<ele>130.0</ele>
				<time>2011-02-17T15:38:06Z</time>
			</trkpt>
			<trkpt lat="50.871362905029336" lon="6.687684477062513">
				<ele>130.0</ele>
				<time>2011-02-17T15:38:07Z</time>
			</trkpt>
			<trkpt lat="50.871365434361294" lon="6.687681746193167">
				<ele>130.0</ele>
				<time>2011-02-17T15:38:08Z</time>
			</trkpt>
			<trkpt lat="50.871367946833125" lon="6.6876789990616885">
				<ele>130.0</ele>
				<time>2011-02-17T15:38:09Z</time>
			</trkpt>
			<trkpt lat="50.87137085607629" lon="6.68767593203274">
				<ele>130.0</ele>
				<time>2011-02-17T15:38:10Z</time>
			</trkpt>
			<trkpt lat="50.87137339876491" lon="6.68767307641701">
				<ele>130.0</ele>
				<time>2011-02-17T15:38:11Z</time>
			</trkpt>
			<trkpt lat="50.87137622583735" lon="6.687669662324535">
				<ele>130.0</ele>
				<time>2011-02-17T15:38:12Z</time>
			</trkpt>
			<trkpt lat="50.87137871736133" lon="6.687666489046283">
				<ele>130.0</ele>
				<time>2011-02-17T15:38:13Z</time>
			</trkpt>
			<trkpt lat="50.87138114751339" lon="6.687663593584661">
				<ele>130.0</ele>
				<time>2011-02-17T15:38:14Z</time>
			</trkpt>
			<trkpt lat="50.871383392034794" lon="6.687661644408784">
				<ele>130.0</ele>
				<time>2011-02-17T15:38:15Z</time>
			</trkpt>
			<trkpt lat="50.87138548868119" lon="6.687659703397393">
				<ele>130.0</ele>
				<time>2011-02-17T15:38:16Z</time>
			</trkpt>
			<trkpt lat="50.87138226881347" lon="6.687645386629083">
				<ele>130.0</ele>
				<time>2011-02-17T15:38:17Z</time>
			</trkpt>
			<trkpt lat="50.87136657487456" lon="6.687612183960018">
				<ele>130.0</ele>
				<time>2011-02-17T15:38:18Z</time>
			</trkpt>
			<trkpt lat="50.871348650978895" lon="6.687585982992316">
				<ele>130.0</ele>
				<time>2011-02-17T15:38:19Z</time>
			</trkpt>
			<trkpt lat="50.87132200744862" lon="6.687573786958892">
				<ele>131.0</ele>
				<time>2011-02-17T15:38:20Z</time>
			</trkpt>
			<trkpt lat="50.87129456365361" lon="6.687571488463758">
				<ele>131.0</ele>
				<time>2011-02-17T15:38:21Z</time>
			</trkpt>
			<trkpt lat="50.871266720965195" lon="6.687581852170061">
				<ele>131.0</ele>
				<time>2011-02-17T15:38:22Z</time>
			</trkpt>
			<trkpt lat="50.87124970386216" lon="6.687597999078129">
				<ele>131.0</ele>
				<time>2011-02-17T15:38:23Z</time>
			</trkpt>
			<trkpt lat="50.871239697789" lon="6.687615977498359">
				<ele>131.0</ele>
				<time>2011-02-17T15:38:24Z</time>
			</trkpt>
			<trkpt lat="50.87123394265818" lon="6.687632951756799">
				<ele>131.0</ele>
				<time>2011-02-17T15:38:25Z</time>
			</trkpt>
			<trkpt lat="50.8712349937391" lon="6.687647290931264">
				<ele>131.0</ele>
				<time>2011-02-17T15:38:26Z</time>
			</trkpt>
			<trkpt lat="50.87123567103453" lon="6.68765841282959">
				<ele>131.0</ele>
				<time>2011-02-17T15:38:27Z</time>
			</trkpt>
			<trkpt lat="50.87123601448099" lon="6.687663826009654">
				<ele>131.0</ele>
				<time>2011-02-17T15:38:28Z</time>
			</trkpt>
			<trkpt lat="50.87123381966547" lon="6.6876714476366175">
				<ele>131.0</ele>
				<time>2011-02-17T15:38:29Z</time>
			</trkpt>
			<trkpt lat="50.87121800925766" lon="6.687690005462261">
				<ele>131.0</ele>
				<time>2011-02-17T15:38:30Z</time>
			</trkpt>
			<trkpt lat="50.87119642946518" lon="6.687718942545022">
				<ele>131.0</ele>
				<time>2011-02-17T15:38:31Z</time>
			</trkpt>
			<trkpt lat="50.87117948402658" lon="6.687755083367541">
				<ele>131.0</ele>
				<time>2011-02-17T15:38:32Z</time>
			</trkpt>
			<trkpt lat="50.87116659120108" lon="6.687806133527891">
				<ele>131.0</ele>
				<time>2011-02-17T15:38:33Z</time>
			</trkpt>
			<trkpt lat="50.87116719721517" lon="6.687870407670827">
				<ele>131.0</ele>
				<time>2011-02-17T15:38:34Z</time>
			</trkpt>
			<trkpt lat="50.87117420909465" lon="6.6879764788668">
				<ele>130.0</ele>
				<time>2011-02-17T15:38:35Z</time>
			</trkpt>
			<trkpt lat="50.871196402447424" lon="6.688091240069795">
				<ele>130.0</ele>
				<time>2011-02-17T15:38:36Z</time>
			</trkpt>
			<trkpt lat="50.87120747714647" lon="6.6881975288918145">
				<ele>130.0</ele>
				<time>2011-02-17T15:38:37Z</time>
			</trkpt>
			<trkpt lat="50.87124778785764" lon="6.688296833711902">
				<ele>131.0</ele>
				<time>2011-02-17T15:38:38Z</time>
			</trkpt>
			<trkpt lat="50.87128347598898" lon="6.688392757971235">
				<ele>132.0</ele>
				<time>2011-02-17T15:38:39Z</time>
			</trkpt>
			<trkpt lat="50.871316779424575" lon="6.6884790319628395">
				<ele>132.0</ele>
				<time>2011-02-17T15:38:40Z</time>
			</trkpt>
			<trkpt lat="50.871347065115025" lon="6.6885625145927765">
				<ele>133.0</ele>
				<time>2011-02-17T15:38:41Z</time>
			</trkpt>
			<trkpt lat="50.87137487039736" lon="6.688641562482493">
				<ele>133.0</ele>
				<time>2011-02-17T15:38:42Z</time>
			</trkpt>
			<trkpt lat="50.87139952655553" lon="6.688718816128401">
				<ele>134.0</ele>
				<time>2011-02-17T15:38:43Z</time>
			</trkpt>
			<trkpt lat="50.87142277617805" lon="6.688793697506491">
				<ele>134.0</ele>
				<time>2011-02-17T15:38:44Z</time>
			</trkpt>
			<trkpt lat="50.87144467281423" lon="6.68886541881672">
				<ele>134.0</ele>
				<time>2011-02-17T15:38:45Z</time>
			</trkpt>
			<trkpt lat="50.87146682100001" lon="6.688935566615728">
				<ele>134.0</ele>
				<time>2011-02-17T15:38:46Z</time>
			</trkpt>
			<trkpt lat="50.871488206847054" lon="6.689004776619454">
				<ele>134.0</ele>
				<time>2011-02-17T15:38:47Z</time>
			</trkpt>
			<trkpt lat="50.87150777773472" lon="6.689067365649239">
				<ele>134.0</ele>
				<time>2011-02-17T15:38:48Z</time>
			</trkpt>
			<trkpt lat="50.871523652821004" lon="6.689124757683843">
				<ele>134.0</ele>
				<time>2011-02-17T15:38:49Z</time>
			</trkpt>
			<trkpt lat="50.871537405574145" lon="6.689173679614974">
				<ele>134.0</ele>
				<time>2011-02-17T15:38:50Z</time>
			</trkpt>
			<trkpt lat="50.87154938815134" lon="6.689215685849443">
				<ele>134.0</ele>
				<time>2011-02-17T15:38:51Z</time>
			</trkpt>
			<trkpt lat="50.87156037693306" lon="6.689253830031299">
				<ele>134.0</ele>
				<time>2011-02-17T15:38:52Z</time>
			</trkpt>
			<trkpt lat="50.871571640224175" lon="6.689291164569207">
				<ele>134.0</ele>
				<time>2011-02-17T15:38:53Z</time>
			</trkpt>
			<trkpt lat="50.871586391757944" lon="6.689333439427225">
				<ele>134.0</ele>
				<time>2011-02-17T15:38:54Z</time>
			</trkpt>
			<trkpt lat="50.87162604082462" lon="6.689361246595">
				<ele>134.0</ele>
				<time>2011-02-17T15:38:55Z</time>
			</trkpt>
			<trkpt lat="50.87166765717968" lon="6.6893851319144515">
				<ele>134.0</ele>
				<time>2011-02-17T15:38:56Z</time>
			</trkpt>
			<trkpt lat="50.87171050493688" lon="6.689389618804906">
				<ele>133.0</ele>
				<time>2011-02-17T15:38:57Z</time>
			</trkpt>
			<trkpt lat="50.87175091649943" lon="6.689380601023176">
				<ele>133.0</ele>
				<time>2011-02-17T15:38:58Z</time>
			</trkpt>
			<trkpt lat="50.871781847947325" lon="6.689353178490855">
				<ele>133.0</ele>
				<time>2011-02-17T15:38:59Z</time>
			</trkpt>
			<trkpt lat="50.87180420918707" lon="6.689331615112905">
				<ele>133.0</ele>
				<time>2011-02-17T15:39:00Z</time>
			</trkpt>
			<trkpt lat="50.87181972610446" lon="6.6893163122969845">
				<ele>133.0</ele>
				<time>2011-02-17T15:39:01Z</time>
			</trkpt>
			<trkpt lat="50.87181972610446" lon="6.6893163122969845">
				<ele>133.0</ele>
				<time>2011-02-17T15:39:02Z</time>
			</trkpt>
			<trkpt lat="50.87181972610446" lon="6.6893163122969845">
				<ele>133.0</ele>
				<time>2011-02-17T15:39:03Z</time>
			</trkpt>
			<trkpt lat="50.87181972610446" lon="6.6893163122969845">
				<ele>133.0</ele>
				<time>2011-02-17T15:39:04Z</time>
			</trkpt>
			<trkpt lat="50.87181972610446" lon="6.6893163122969845">
				<ele>133.0</ele>
				<time>2011-02-17T15:39:05Z</time>
			</trkpt>
			<trkpt lat="50.87181972610446" lon="6.6893163122969845">
				<ele>133.0</ele>
				<time>2011-02-17T15:39:06Z</time>
			</trkpt>
			<trkpt lat="50.87181972610446" lon="6.6893163122969845">
				<ele>133.0</ele>
				<time>2011-02-17T15:39:07Z</time>
			</trkpt>
			<trkpt lat="50.87181972610446" lon="6.6893163122969845">
				<ele>133.0</ele>
				<time>2011-02-17T15:39:08Z</time>
			</trkpt>
			<trkpt lat="50.87184024492416" lon="6.689295765925154">
				<ele>133.0</ele>
				<time>2011-02-17T15:39:09Z</time>
			</trkpt>
			<trkpt lat="50.871863521780654" lon="6.689268924874071">
				<ele>133.0</ele>
				<time>2011-02-17T15:39:10Z</time>
			</trkpt>
			<trkpt lat="50.87188615580407" lon="6.6892397189916775">
				<ele>132.0</ele>
				<time>2011-02-17T15:39:11Z</time>
			</trkpt>
			<trkpt lat="50.87190536297455" lon="6.6891957984347">
				<ele>132.0</ele>
				<time>2011-02-17T15:39:12Z</time>
			</trkpt>
			<trkpt lat="50.871911801278706" lon="6.689139170692744">
				<ele>132.0</ele>
				<time>2011-02-17T15:39:13Z</time>
			</trkpt>
			<trkpt lat="50.871902517944584" lon="6.689081423226789">
				<ele>131.0</ele>
				<time>2011-02-17T15:39:14Z</time>
			</trkpt>
			<trkpt lat="50.87187776884037" lon="6.689032168970882">
				<ele>130.0</ele>
				<time>2011-02-17T15:39:15Z</time>
			</trkpt>
			<trkpt lat="50.87184374499521" lon="6.688996180935782">
				<ele>130.0</ele>
				<time>2011-02-17T15:39:16Z</time>
			</trkpt>
			<trkpt lat="50.87180413851676" lon="6.688979803007299">
				<ele>129.0</ele>
				<time>2011-02-17T15:39:17Z</time>
			</trkpt>
			<trkpt lat="50.87176319898508" lon="6.688971193936111">
				<ele>129.0</ele>
				<time>2011-02-17T15:39:18Z</time>
			</trkpt>
			<trkpt lat="50.87172227801719" lon="6.688984921819757">
				<ele>129.0</ele>
				<time>2011-02-17T15:39:19Z</time>
			</trkpt>
			<trkpt lat="50.87168190638058" lon="6.689002085938566">
				<ele>128.0</ele>
				<time>2011-02-17T15:39:20Z</time>
			</trkpt>
			<trkpt lat="50.87164852514845" lon="6.6890204899205585">
				<ele>128.0</ele>
				<time>2011-02-17T15:39:21Z</time>
			</trkpt>
			<trkpt lat="50.871619709455544" lon="6.6890388823780755">
				<ele>128.0</ele>
				<time>2011-02-17T15:39:22Z</time>
			</trkpt>
			<trkpt lat="50.8715917560403" lon="6.689060215085094">
				<ele>128.0</ele>
				<time>2011-02-17T15:39:23Z</time>
			</trkpt>
			<trkpt lat="50.87156698128468" lon="6.689106361164558">
				<ele>128.0</ele>
				<time>2011-02-17T15:39:24Z</time>
			</trkpt>
			<trkpt lat="50.87155914430605" lon="6.689166300423959">
				<ele>128.0</ele>
				<time>2011-02-17T15:39:25Z</time>
			</trkpt>
			<trkpt lat="50.871568396458315" lon="6.6892264162180135">
				<ele>128.0</ele>
				<time>2011-02-17T15:39:26Z</time>
			</trkpt>
			<trkpt lat="50.871581794317656" lon="6.689289461820522">
				<ele>128.0</ele>
				<time>2011-02-17T15:39:27Z</time>
			</trkpt>
			<trkpt lat="50.87159552666107" lon="6.689352634116211">
				<ele>128.0</ele>
				<time>2011-02-17T15:39:28Z</time>
			</trkpt>
			<trkpt lat="50.871606620608205" lon="6.689415725740883">
				<ele>128.0</ele>
				<time>2011-02-17T15:39:29Z</time>
			</trkpt>
			<trkpt lat="50.87160125903191" lon="6.689474370218588">
				<ele>129.0</ele>
				<time>2011-02-17T15:39:30Z</time>
			</trkpt>
			<trkpt lat="50.87157817760396" lon="6.689518085064965">
				<ele>129.0</ele>
				<time>2011-02-17T15:39:31Z</time>
			</trkpt>
			<trkpt lat="50.87155317177723" lon="6.689541679646502">
				<ele>129.0</ele>
				<time>2011-02-17T15:39:32Z</time>
			</trkpt>
			<trkpt lat="50.87154606489993" lon="6.6895479040846455">
				<ele>129.0</ele>
				<time>2011-02-17T15:39:33Z</time>
			</trkpt>
			<trkpt lat="50.87154606489993" lon="6.6895479040846455">
				<ele>129.0</ele>
				<time>2011-02-17T15:39:34Z</time>
			</trkpt>
			<trkpt lat="50.87153754830068" lon="6.6895572958724046">
				<ele>129.0</ele>
				<time>2011-02-17T15:39:35Z</time>
			</trkpt>
			<trkpt lat="50.87153031114018" lon="6.689562593299388">
				<ele>129.0</ele>
				<time>2011-02-17T15:39:36Z</time>
			</trkpt>
			<trkpt lat="50.87153031114018" lon="6.689562593299388">
				<ele>129.0</ele>
				<time>2011-02-17T15:39:37Z</time>
			</trkpt>
			<trkpt lat="50.87153031114018" lon="6.689562593299388">
				<ele>129.0</ele>
				<time>2011-02-17T15:39:38Z</time>
			</trkpt>
			<trkpt lat="50.87153031114018" lon="6.689562593299388">
				<ele>129.0</ele>
				<time>2011-02-17T15:39:39Z</time>
			</trkpt>
			<trkpt lat="50.87153031114018" lon="6.689562593299388">
				<ele>129.0</ele>
				<time>2011-02-17T15:39:40Z</time>
			</trkpt>
			<trkpt lat="50.87148913116182" lon="6.689595285559078">
				<ele>129.0</ele>
				<time>2011-02-17T15:39:41Z</time>
			</trkpt>
			<trkpt lat="50.871461020855634" lon="6.689619273515314">
				<ele>129.0</ele>
				<time>2011-02-17T15:39:42Z</time>
			</trkpt>
			<trkpt lat="50.87142616394948" lon="6.689648807581413">
				<ele>129.0</ele>
				<time>2011-02-17T15:39:43Z</time>
			</trkpt>
			<trkpt lat="50.8713812551268" lon="6.68968751174383">
				<ele>129.0</ele>
				<time>2011-02-17T15:39:44Z</time>
			</trkpt>
			<trkpt lat="50.87133150254472" lon="6.689729832227743">
				<ele>130.0</ele>
				<time>2011-02-17T15:39:45Z</time>
			</trkpt>
			<trkpt lat="50.87127830941935" lon="6.689773521521938">
				<ele>130.0</ele>
				<time>2011-02-17T15:39:46Z</time>
			</trkpt>
			<trkpt lat="50.87122265476144" lon="6.689816935839642">
				<ele>130.0</ele>
				<time>2011-02-17T15:39:47Z</time>
			</trkpt>
			<trkpt lat="50.871166996506126" lon="6.68985978534185">
				<ele>129.0</ele>
				<time>2011-02-17T15:39:48Z</time>
			</trkpt>
			<trkpt lat="50.87110718710449" lon="6.689905314388074">
				<ele>129.0</ele>
				<time>2011-02-17T15:39:49Z</time>
			</trkpt>
			<trkpt lat="50.87104579111196" lon="6.689951664689372">
				<ele>129.0</ele>
				<time>2011-02-17T15:39:50Z</time>
			</trkpt>
			<trkpt lat="50.87098246873929" lon="6.689999557423752">
				<ele>129.0</ele>
				<time>2011-02-17T15:39:51Z</time>
			</trkpt>
			<trkpt lat="50.87091938618288" lon="6.690046671099994">
				<ele>130.0</ele>
				<time>2011-02-17T15:39:52Z</time>
			</trkpt>
			<trkpt lat="50.870858397077725" lon="6.69009227896968">
				<ele>130.0</ele>
				<time>2011-02-17T15:39:53Z</time>
			</trkpt>
			<trkpt lat="50.87079923832965" lon="6.690135744640417">
				<ele>130.0</ele>
				<time>2011-02-17T15:39:54Z</time>
			</trkpt>
			<trkpt lat="50.87074189862844" lon="6.690178112823995">
				<ele>130.0</ele>
				<time>2011-02-17T15:39:55Z</time>
			</trkpt>
			<trkpt lat="50.87068432874315" lon="6.690220112676421">
				<ele>130.0</ele>
				<time>2011-02-17T15:39:56Z</time>
			</trkpt>
			<trkpt lat="50.870628573009704" lon="6.690257895735856">
				<ele>130.0</ele>
				<time>2011-02-17T15:39:57Z</time>
			</trkpt>
			<trkpt lat="50.87059091454277" lon="6.690280568548061">
				<ele>130.0</ele>
				<time>2011-02-17T15:39:58Z</time>
			</trkpt>
			<trkpt lat="50.870573727699835" lon="6.690291602860678">
				<ele>130.0</ele>
				<time>2011-02-17T15:39:59Z</time>
			</trkpt>
			<trkpt lat="50.870573727699835" lon="6.690291602860678">
				<ele>130.0</ele>
				<time>2011-02-17T15:40:00Z</time>
			</trkpt>
			<trkpt lat="50.870573727699835" lon="6.690291602860678">
				<ele>130.0</ele>
				<time>2011-02-17T15:40:01Z</time>
			</trkpt>
			<trkpt lat="50.870573727699835" lon="6.690291602860678">
				<ele>130.0</ele>
				<time>2011-02-17T15:40:02Z</time>
			</trkpt>
			<trkpt lat="50.870573727699835" lon="6.690291602860678">
				<ele>130.0</ele>
				<time>2011-02-17T15:40:03Z</time>
			</trkpt>
			<trkpt lat="50.870573727699835" lon="6.690291602860678">
				<ele>130.0</ele>
				<time>2011-02-17T15:40:04Z</time>
			</trkpt>
			<trkpt lat="50.87054198418852" lon="6.690316561046745">
				<ele>130.0</ele>
				<time>2011-02-17T15:40:05Z</time>
			</trkpt>
			<trkpt lat="50.87051300451225" lon="6.690343259059292">
				<ele>130.0</ele>
				<time>2011-02-17T15:40:06Z</time>
			</trkpt>
			<trkpt lat="50.870479629816934" lon="6.69037183094603">
				<ele>130.0</ele>
				<time>2011-02-17T15:40:07Z</time>
			</trkpt>
			<trkpt lat="50.870438239880386" lon="6.690407357991953">
				<ele>131.0</ele>
				<time>2011-02-17T15:40:08Z</time>
			</trkpt>
			<trkpt lat="50.87039832368772" lon="6.6904405920802645">
				<ele>131.0</ele>
				<time>2011-02-17T15:40:09Z</time>
			</trkpt>
			<trkpt lat="50.870358458056856" lon="6.690468658648101">
				<ele>131.0</ele>
				<time>2011-02-17T15:40:10Z</time>
			</trkpt>
			<trkpt lat="50.87032698417941" lon="6.690471000268763">
				<ele>131.0</ele>
				<time>2011-02-17T15:40:11Z</time>
			</trkpt>
			<trkpt lat="50.87030056488272" lon="6.6904633917321865">
				<ele>131.0</ele>
				<time>2011-02-17T15:40:12Z</time>
			</trkpt>
			<trkpt lat="50.87027589872482" lon="6.690443768138586">
				<ele>131.0</ele>
				<time>2011-02-17T15:40:13Z</time>
			</trkpt>
			<trkpt lat="50.87025477946296" lon="6.690398776569128">
				<ele>131.0</ele>
				<time>2011-02-17T15:40:14Z</time>
			</trkpt>
			<trkpt lat="50.87023058013276" lon="6.690328313260785">
				<ele>132.0</ele>
				<time>2011-02-17T15:40:15Z</time>
			</trkpt>
			<trkpt lat="50.87020410370449" lon="6.690238036760069">
				<ele>132.0</ele>
				<time>2011-02-17T15:40:16Z</time>
			</trkpt>
			<trkpt lat="50.8701783568484" lon="6.690144181124435">
				<ele>132.0</ele>
				<time>2011-02-17T15:40:17Z</time>
			</trkpt>
			<trkpt lat="50.870152174987886" lon="6.69003861388141">
				<ele>131.0</ele>
				<time>2011-02-17T15:40:18Z</time>
			</trkpt>
			<trkpt lat="50.87012530097922" lon="6.689924688598924">
				<ele>131.0</ele>
				<time>2011-02-17T15:40:19Z</time>
			</trkpt>
			<trkpt lat="50.87010016636109" lon="6.689804430266329">
				<ele>131.0</ele>
				<time>2011-02-17T15:40:20Z</time>
			</trkpt>
			<trkpt lat="50.870075641616296" lon="6.689678868219315">
				<ele>131.0</ele>
				<time>2011-02-17T15:40:21Z</time>
			</trkpt>
			<trkpt lat="50.87005214023418" lon="6.689544941474418">
				<ele>131.0</ele>
				<time>2011-02-17T15:40:22Z</time>
			</trkpt>
			<trkpt lat="50.87002773322387" lon="6.689409001634411">
				<ele>131.0</ele>
				<time>2011-02-17T15:40:23Z</time>
			</trkpt>
			<trkpt lat="50.87000221924696" lon="6.6892737968414995">
				<ele>131.0</ele>
				<time>2011-02-17T15:40:24Z</time>
			</trkpt>
			<trkpt lat="50.86997373816808" lon="6.689140739267917">
				<ele>131.0</ele>
				<time>2011-02-17T15:40:25Z</time>
			</trkpt>
			<trkpt lat="50.86994562541069" lon="6.689009279436457">
				<ele>131.0</ele>
				<time>2011-02-17T15:40:26Z</time>
			</trkpt>
			<trkpt lat="50.869916700011636" lon="6.688881190240373">
				<ele>131.0</ele>
				<time>2011-02-17T15:40:27Z</time>
			</trkpt>
			<trkpt lat="50.869888722754546" lon="6.688754047867028">
				<ele>130.0</ele>
				<time>2011-02-17T15:40:28Z</time>
			</trkpt>
			<trkpt lat="50.869859988486425" lon="6.688628801094562">
				<ele>130.0</ele>
				<time>2011-02-17T15:40:29Z</time>
			</trkpt>
			<trkpt lat="50.86983182924242" lon="6.688507001196989">
				<ele>130.0</ele>
				<time>2011-02-17T15:40:30Z</time>
			</trkpt>
			<trkpt lat="50.86980436807933" lon="6.688387044696987">
				<ele>130.0</ele>
				<time>2011-02-17T15:40:31Z</time>
			</trkpt>
			<trkpt lat="50.86977696122369" lon="6.688266751473471">
				<ele>130.0</ele>
				<time>2011-02-17T15:40:32Z</time>
			</trkpt>
			<trkpt lat="50.869752002795884" lon="6.6881468936717825">
				<ele>130.0</ele>
				<time>2011-02-17T15:40:33Z</time>
			</trkpt>
			<trkpt lat="50.869727854046126" lon="6.688029051066112">
				<ele>129.0</ele>
				<time>2011-02-17T15:40:34Z</time>
			</trkpt>
			<trkpt lat="50.86970366720932" lon="6.687912108108478">
				<ele>129.0</ele>
				<time>2011-02-17T15:40:35Z</time>
			</trkpt>
			<trkpt lat="50.86968029237948" lon="6.68779590546614">
				<ele>129.0</ele>
				<time>2011-02-17T15:40:36Z</time>
			</trkpt>
			<trkpt lat="50.86965653653201" lon="6.687680315631845">
				<ele>129.0</ele>
				<time>2011-02-17T15:40:37Z</time>
			</trkpt>
			<trkpt lat="50.86963159194572" lon="6.687560514164111">
				<ele>128.0</ele>
				<time>2011-02-17T15:40:38Z</time>
			</trkpt>
			<trkpt lat="50.869606161797236" lon="6.687440614277216">
				<ele>128.0</ele>
				<time>2011-02-17T15:40:39Z</time>
			</trkpt>
			<trkpt lat="50.86958063326567" lon="6.687322016456049">
				<ele>128.0</ele>
				<time>2011-02-17T15:40:40Z</time>
			</trkpt>
			<trkpt lat="50.869555210738845" lon="6.68720503525389">
				<ele>128.0</ele>
				<time>2011-02-17T15:40:41Z</time>
			</trkpt>
			<trkpt lat="50.86953033444123" lon="6.687092041328696">
				<ele>127.0</ele>
				<time>2011-02-17T15:40:42Z</time>
			</trkpt>
			<trkpt lat="50.869505847585955" lon="6.686983140680839">
				<ele>127.0</ele>
				<time>2011-02-17T15:40:43Z</time>
			</trkpt>
			<trkpt lat="50.86948240390172" lon="6.686879014178594">
				<ele>127.0</ele>
				<time>2011-02-17T15:40:44Z</time>
			</trkpt>
			<trkpt lat="50.86945975664267" lon="6.686778473727261">
				<ele>127.0</ele>
				<time>2011-02-17T15:40:45Z</time>
			</trkpt>
			<trkpt lat="50.86943758472947" lon="6.686685680051129">
				<ele>127.0</ele>
				<time>2011-02-17T15:40:46Z</time>
			</trkpt>
			<trkpt lat="50.869418517657216" lon="6.6866056418686455">
				<ele>127.0</ele>
				<time>2011-02-17T15:40:47Z</time>
			</trkpt>
			<trkpt lat="50.86940213245867" lon="6.6865340543774945">
				<ele>127.0</ele>
				<time>2011-02-17T15:40:48Z</time>
			</trkpt>
			<trkpt lat="50.86938676842065" lon="6.686459568562327">
				<ele>127.0</ele>
				<time>2011-02-17T15:40:49Z</time>
			</trkpt>
			<trkpt lat="50.869365274160195" lon="6.686357943195632">
				<ele>126.0</ele>
				<time>2011-02-17T15:40:50Z</time>
			</trkpt>
			<trkpt lat="50.86934085263281" lon="6.6862439516483505">
				<ele>126.0</ele>
				<time>2011-02-17T15:40:51Z</time>
			</trkpt>
			<trkpt lat="50.869313836032475" lon="6.686125670216565">
				<ele>126.0</ele>
				<time>2011-02-17T15:40:52Z</time>
			</trkpt>
			<trkpt lat="50.8692834105125" lon="6.685994759601172">
				<ele>126.0</ele>
				<time>2011-02-17T15:40:53Z</time>
			</trkpt>
			<trkpt lat="50.86924862648968" lon="6.685847120019259">
				<ele>127.0</ele>
				<time>2011-02-17T15:40:54Z</time>
			</trkpt>
			<trkpt lat="50.86921428627025" lon="6.685700906750334">
				<ele>127.0</ele>
				<time>2011-02-17T15:40:55Z</time>
			</trkpt>
			<trkpt lat="50.86918028420408" lon="6.685554525509296">
				<ele>127.0</ele>
				<time>2011-02-17T15:40:56Z</time>
			</trkpt>
			<trkpt lat="50.86914649200217" lon="6.685407740716839">
				<ele>127.0</ele>
				<time>2011-02-17T15:40:57Z</time>
			</trkpt>
			<trkpt lat="50.86911298940696" lon="6.685262146925792">
				<ele>127.0</ele>
				<time>2011-02-17T15:40:58Z</time>
			</trkpt>
			<trkpt lat="50.869079325554544" lon="6.685119128443589">
				<ele>127.0</ele>
				<time>2011-02-17T15:40:59Z</time>
			</trkpt>
			<trkpt lat="50.86904364007545" lon="6.684981030530511">
				<ele>127.0</ele>
				<time>2011-02-17T15:41:00Z</time>
			</trkpt>
			<trkpt lat="50.869008654533914" lon="6.684847422982568">
				<ele>127.0</ele>
				<time>2011-02-17T15:41:01Z</time>
			</trkpt>
			<trkpt lat="50.868973869710636" lon="6.684716128492065">
				<ele>127.0</ele>
				<time>2011-02-17T15:41:02Z</time>
			</trkpt>
			<trkpt lat="50.86893721746343" lon="6.684587117938884">
				<ele>127.0</ele>
				<time>2011-02-17T15:41:03Z</time>
			</trkpt>
			<trkpt lat="50.8688987885415" lon="6.684457869609241">
				<ele>127.0</ele>
				<time>2011-02-17T15:41:04Z</time>
			</trkpt>
			<trkpt lat="50.868859348753375" lon="6.684327807185121">
				<ele>127.0</ele>
				<time>2011-02-17T15:41:05Z</time>
			</trkpt>
			<trkpt lat="50.86881720374009" lon="6.684196856401712">
				<ele>127.0</ele>
				<time>2011-02-17T15:41:06Z</time>
			</trkpt>
			<trkpt lat="50.868775883651644" lon="6.6840683292843766">
				<ele>127.0</ele>
				<time>2011-02-17T15:41:07Z</time>
			</trkpt>
			<trkpt lat="50.868735754486906" lon="6.6839406513812145">
				<ele>127.0</ele>
				<time>2011-02-17T15:41:08Z</time>
			</trkpt>
			<trkpt lat="50.86869552576362" lon="6.683810963701955">
				<ele>127.0</ele>
				<time>2011-02-17T15:41:09Z</time>
			</trkpt>
			<trkpt lat="50.868653338431905" lon="6.683685208610467">
				<ele>127.0</ele>
				<time>2011-02-17T15:41:10Z</time>
			</trkpt>
			<trkpt lat="50.86861052375857" lon="6.68356956428578">
				<ele>127.0</ele>
				<time>2011-02-17T15:41:11Z</time>
			</trkpt>
			<trkpt lat="50.86857135380725" lon="6.683491967055903">
				<ele>127.0</ele>
				<time>2011-02-17T15:41:12Z</time>
			</trkpt>
			<trkpt lat="50.868540659151755" lon="6.683435089900217">
				<ele>126.0</ele>
				<time>2011-02-17T15:41:13Z</time>
			</trkpt>
			<trkpt lat="50.868525626507505" lon="6.683402346381563">
				<ele>126.0</ele>
				<time>2011-02-17T15:41:14Z</time>
			</trkpt>
			<trkpt lat="50.868515574549335" lon="6.683377479117637">
				<ele>126.0</ele>
				<time>2011-02-17T15:41:15Z</time>
			</trkpt>
			<trkpt lat="50.86850587771848" lon="6.683350754456469">
				<ele>126.0</ele>
				<time>2011-02-17T15:41:16Z</time>
			</trkpt>
			<trkpt lat="50.86849368110499" lon="6.683319816933684">
				<ele>126.0</ele>
				<time>2011-02-17T15:41:17Z</time>
			</trkpt>
			<trkpt lat="50.86847922767438" lon="6.683287400939399">
				<ele>126.0</ele>
				<time>2011-02-17T15:41:18Z</time>
			</trkpt>
			<trkpt lat="50.868457874575185" lon="6.683259405293651">
				<ele>126.0</ele>
				<time>2011-02-17T15:41:19Z</time>
			</trkpt>
			<trkpt lat="50.86842443921382" lon="6.683239133418586">
				<ele>126.0</ele>
				<time>2011-02-17T15:41:20Z</time>
			</trkpt>
			<trkpt lat="50.86838471881468" lon="6.6832389643601635">
				<ele>126.0</ele>
				<time>2011-02-17T15:41:21Z</time>
			</trkpt>
			<trkpt lat="50.868344853452136" lon="6.683241309544321">
				<ele>126.0</ele>
				<time>2011-02-17T15:41:22Z</time>
			</trkpt>
			<trkpt lat="50.86829841271118" lon="6.683247679914705">
				<ele>126.0</ele>
				<time>2011-02-17T15:41:23Z</time>
			</trkpt>
			<trkpt lat="50.86824156217158" lon="6.683260831417659">
				<ele>126.0</ele>
				<time>2011-02-17T15:41:24Z</time>
			</trkpt>
			<trkpt lat="50.868184854313384" lon="6.6832781101793985">
				<ele>126.0</ele>
				<time>2011-02-17T15:41:25Z</time>
			</trkpt>
			<trkpt lat="50.868129385052995" lon="6.683299163328077">
				<ele>126.0</ele>
				<time>2011-02-17T15:41:26Z</time>
			</trkpt>
			<trkpt lat="50.8680761280992" lon="6.683323072963762">
				<ele>127.0</ele>
				<time>2011-02-17T15:41:27Z</time>
			</trkpt>
			<trkpt lat="50.86803121976841" lon="6.683342409781852">
				<ele>127.0</ele>
				<time>2011-02-17T15:41:28Z</time>
			</trkpt>
			<trkpt lat="50.86799325087897" lon="6.6833589900357655">
				<ele>127.0</ele>
				<time>2011-02-17T15:41:29Z</time>
			</trkpt>
			<trkpt lat="50.867962066897405" lon="6.6833674177132">
				<ele>127.0</ele>
				<time>2011-02-17T15:41:30Z</time>
			</trkpt>
			<trkpt lat="50.867942642645076" lon="6.683367504098801">
				<ele>127.0</ele>
				<time>2011-02-17T15:41:31Z</time>
			</trkpt>
			<trkpt lat="50.86793074071947" lon="6.683367157373756">
				<ele>127.0</ele>
				<time>2011-02-17T15:41:32Z</time>
			</trkpt>
			<trkpt lat="50.86793074071947" lon="6.683367157373756">
				<ele>127.0</ele>
				<time>2011-02-17T15:41:33Z</time>
			</trkpt>
			<trkpt lat="50.86793074071947" lon="6.683367157373756">
				<ele>127.0</ele>
				<time>2011-02-17T15:41:34Z</time>
			</trkpt>
			<trkpt lat="50.86793074071947" lon="6.683367157373756">
				<ele>127.0</ele>
				<time>2011-02-17T15:41:35Z</time>
			</trkpt>
			<trkpt lat="50.86793074071947" lon="6.683367157373756">
				<ele>127.0</ele>
				<time>2011-02-17T15:41:36Z</time>
			</trkpt>
			<trkpt lat="50.86787685344859" lon="6.6833507927526306">
				<ele>127.0</ele>
				<time>2011-02-17T15:41:37Z</time>
			</trkpt>
			<trkpt lat="50.86785630980842" lon="6.683318751710691">
				<ele>127.0</ele>
				<time>2011-02-17T15:41:38Z</time>
			</trkpt>
			<trkpt lat="50.867841284591705" lon="6.683269440477397">
				<ele>127.0</ele>
				<time>2011-02-17T15:41:39Z</time>
			</trkpt>
			<trkpt lat="50.867824087821546" lon="6.683199670436166">
				<ele>127.0</ele>
				<time>2011-02-17T15:41:40Z</time>
			</trkpt>
			<trkpt lat="50.86780488093277" lon="6.68310338118959">
				<ele>127.0</ele>
				<time>2011-02-17T15:41:41Z</time>
			</trkpt>
			<trkpt lat="50.86778638284869" lon="6.682996869107759">
				<ele>127.0</ele>
				<time>2011-02-17T15:41:42Z</time>
			</trkpt>
			<trkpt lat="50.86776661514297" lon="6.68288303720801">
				<ele>127.0</ele>
				<time>2011-02-17T15:41:43Z</time>
			</trkpt>
			<trkpt lat="50.86774384951795" lon="6.682752245874812">
				<ele>126.0</ele>
				<time>2011-02-17T15:41:44Z</time>
			</trkpt>
			<trkpt lat="50.867721018934525" lon="6.682611181429148">
				<ele>126.0</ele>
				<time>2011-02-17T15:41:45Z</time>
			</trkpt>
			<trkpt lat="50.86769688673162" lon="6.682465506939806">
				<ele>126.0</ele>
				<time>2011-02-17T15:41:46Z</time>
			</trkpt>
			<trkpt lat="50.86766918933019" lon="6.682311074187026">
				<ele>126.0</ele>
				<time>2011-02-17T15:41:47Z</time>
			</trkpt>
			<trkpt lat="50.867640812825314" lon="6.682151774018178">
				<ele>126.0</ele>
				<time>2011-02-17T15:41:48Z</time>
			</trkpt>
			<trkpt lat="50.86761397516683" lon="6.681987743345551">
				<ele>126.0</ele>
				<time>2011-02-17T15:41:49Z</time>
			</trkpt>
			<trkpt lat="50.86758702276477" lon="6.6818235664401655">
				<ele>125.0</ele>
				<time>2011-02-17T15:41:50Z</time>
			</trkpt>
			<trkpt lat="50.86755973179274" lon="6.681658551983885">
				<ele>125.0</ele>
				<time>2011-02-17T15:41:51Z</time>
			</trkpt>
			<trkpt lat="50.86753405297438" lon="6.681490773146334">
				<ele>125.0</ele>
				<time>2011-02-17T15:41:52Z</time>
			</trkpt>
			<trkpt lat="50.867508096090226" lon="6.681322959218828">
				<ele>125.0</ele>
				<time>2011-02-17T15:41:53Z</time>
			</trkpt>
			<trkpt lat="50.867480157514066" lon="6.681156968915868">
				<ele>125.0</ele>
				<time>2011-02-17T15:41:54Z</time>
			</trkpt>
			<trkpt lat="50.86745231468366" lon="6.680992085991733">
				<ele>125.0</ele>
				<time>2011-02-17T15:41:55Z</time>
			</trkpt>
			<trkpt lat="50.86742492881446" lon="6.6808311108727105">
				<ele>125.0</ele>
				<time>2011-02-17T15:41:56Z</time>
			</trkpt>
			<trkpt lat="50.86739825546081" lon="6.680673614999568">
				<ele>125.0</ele>
				<time>2011-02-17T15:41:57Z</time>
			</trkpt>
			<trkpt lat="50.867372171812626" lon="6.680518752944548">
				<ele>125.0</ele>
				<time>2011-02-17T15:41:58Z</time>
			</trkpt>
			<trkpt lat="50.86734667631136" lon="6.680365958075925">
				<ele>125.0</ele>
				<time>2011-02-17T15:41:59Z</time>
			</trkpt>
			<trkpt lat="50.86732286073907" lon="6.680213647057005">
				<ele>125.0</ele>
				<time>2011-02-17T15:42:00Z</time>
			</trkpt>
			<trkpt lat="50.86729904660773" lon="6.680059892042568">
				<ele>125.0</ele>
				<time>2011-02-17T15:42:01Z</time>
			</trkpt>
			<trkpt lat="50.867275236782916" lon="6.679904312519348">
				<ele>125.0</ele>
				<time>2011-02-17T15:42:02Z</time>
			</trkpt>
			<trkpt lat="50.867251717652564" lon="6.679750151267243">
				<ele>125.0</ele>
				<time>2011-02-17T15:42:03Z</time>
			</trkpt>
			<trkpt lat="50.867230181108155" lon="6.679596193583733">
				<ele>125.0</ele>
				<time>2011-02-17T15:42:04Z</time>
			</trkpt>
			<trkpt lat="50.86720827766341" lon="6.679443413175604">
				<ele>125.0</ele>
				<time>2011-02-17T15:42:05Z</time>
			</trkpt>
			<trkpt lat="50.86718290848334" lon="6.679288915370473">
				<ele>125.0</ele>
				<time>2011-02-17T15:42:06Z</time>
			</trkpt>
			<trkpt lat="50.86715794639416" lon="6.679134557601726">
				<ele>125.0</ele>
				<time>2011-02-17T15:42:07Z</time>
			</trkpt>
			<trkpt lat="50.86713350470164" lon="6.678980488373396">
				<ele>125.0</ele>
				<time>2011-02-17T15:42:08Z</time>
			</trkpt>
			<trkpt lat="50.86711119770589" lon="6.6788271566837665">
				<ele>125.0</ele>
				<time>2011-02-17T15:42:09Z</time>
			</trkpt>
			<trkpt lat="50.867089113982146" lon="6.67867697921825">
				<ele>125.0</ele>
				<time>2011-02-17T15:42:10Z</time>
			</trkpt>
			<trkpt lat="50.867067345400336" lon="6.678529578156435">
				<ele>124.0</ele>
				<time>2011-02-17T15:42:11Z</time>
			</trkpt>
			<trkpt lat="50.86704600587257" lon="6.678385627058421">
				<ele>124.0</ele>
				<time>2011-02-17T15:42:12Z</time>
			</trkpt>
			<trkpt lat="50.867026198506466" lon="6.6782511486445655">
				<ele>124.0</ele>
				<time>2011-02-17T15:42:13Z</time>
			</trkpt>
			<trkpt lat="50.86700769503539" lon="6.678122571239063">
				<ele>124.0</ele>
				<time>2011-02-17T15:42:14Z</time>
			</trkpt>
			<trkpt lat="50.86699062929042" lon="6.677997637995662">
				<ele>124.0</ele>
				<time>2011-02-17T15:42:15Z</time>
			</trkpt>
			<trkpt lat="50.86697634689034" lon="6.677882127268529">
				<ele>124.0</ele>
				<time>2011-02-17T15:42:16Z</time>
			</trkpt>
			<trkpt lat="50.86696285359197" lon="6.67776678744745">
				<ele>124.0</ele>
				<time>2011-02-17T15:42:17Z</time>
			</trkpt>
			<trkpt lat="50.866949655336654" lon="6.677653312186847">
				<ele>124.0</ele>
				<time>2011-02-17T15:42:18Z</time>
			</trkpt>
			<trkpt lat="50.866935069996416" lon="6.677536766667955">
				<ele>124.0</ele>
				<time>2011-02-17T15:42:19Z</time>
			</trkpt>
			<trkpt lat="50.86691803069552" lon="6.677416258252938">
				<ele>124.0</ele>
				<time>2011-02-17T15:42:20Z</time>
			</trkpt>
			<trkpt lat="50.866899021274826" lon="6.677286345761881">
				<ele>124.0</ele>
				<time>2011-02-17T15:42:21Z</time>
			</trkpt>
			<trkpt lat="50.86687807547077" lon="6.677147358642405">
				<ele>124.0</ele>
				<time>2011-02-17T15:42:22Z</time>
			</trkpt>
			<trkpt lat="50.866853386493624" lon="6.677004632250314">
				<ele>124.0</ele>
				<time>2011-02-17T15:42:23Z</time>
			</trkpt>
			<trkpt lat="50.86682790615832" lon="6.676858499504278">
				<ele>124.0</ele>
				<time>2011-02-17T15:42:24Z</time>
			</trkpt>
			<trkpt lat="50.86680056304676" lon="6.676714371673348">
				<ele>124.0</ele>
				<time>2011-02-17T15:42:25Z</time>
			</trkpt>
			<trkpt lat="50.86677297689408" lon="6.676571843596585">
				<ele>124.0</ele>
				<time>2011-02-17T15:42:26Z</time>
			</trkpt>
			<trkpt lat="50.866745407439126" lon="6.676429756258654">
				<ele>124.0</ele>
				<time>2011-02-17T15:42:27Z</time>
			</trkpt>
			<trkpt lat="50.86671869856698" lon="6.676288020175751">
				<ele>123.0</ele>
				<time>2011-02-17T15:42:28Z</time>
			</trkpt>
			<trkpt lat="50.86669732398506" lon="6.676150257404233">
				<ele>123.0</ele>
				<time>2011-02-17T15:42:29Z</time>
			</trkpt>
			<trkpt lat="50.8666786138105" lon="6.676009152246708">
				<ele>123.0</ele>
				<time>2011-02-17T15:42:30Z</time>
			</trkpt>
			<trkpt lat="50.866661117541135" lon="6.675872089023801">
				<ele>123.0</ele>
				<time>2011-02-17T15:42:31Z</time>
			</trkpt>
			<trkpt lat="50.866643434752646" lon="6.675735916028976">
				<ele>123.0</ele>
				<time>2011-02-17T15:42:32Z</time>
			</trkpt>
			<trkpt lat="50.866623995391144" lon="6.6755939762256835">
				<ele>123.0</ele>
				<time>2011-02-17T15:42:33Z</time>
			</trkpt>
			<trkpt lat="50.86660230136493" lon="6.675444368527147">
				<ele>123.0</ele>
				<time>2011-02-17T15:42:34Z</time>
			</trkpt>
			<trkpt lat="50.866579872552784" lon="6.675294874276811">
				<ele>123.0</ele>
				<time>2011-02-17T15:42:35Z</time>
			</trkpt>
			<trkpt lat="50.86655803126911" lon="6.6751474369584685">
				<ele>123.0</ele>
				<time>2011-02-17T15:42:36Z</time>
			</trkpt>
			<trkpt lat="50.86653645964745" lon="6.675001840113504">
				<ele>123.0</ele>
				<time>2011-02-17T15:42:37Z</time>
			</trkpt>
			<trkpt lat="50.866513331902226" lon="6.67486018969242">
				<ele>123.0</ele>
				<time>2011-02-17T15:42:38Z</time>
			</trkpt>
			<trkpt lat="50.86648996576135" lon="6.674720411966476">
				<ele>123.0</ele>
				<time>2011-02-17T15:42:39Z</time>
			</trkpt>
			<trkpt lat="50.86646250245558" lon="6.674583985919881">
				<ele>123.0</ele>
				<time>2011-02-17T15:42:40Z</time>
			</trkpt>
			<trkpt lat="50.86643485610539" lon="6.674449001781894">
				<ele>123.0</ele>
				<time>2011-02-17T15:42:41Z</time>
			</trkpt>
			<trkpt lat="50.866408602346986" lon="6.674313677535585">
				<ele>124.0</ele>
				<time>2011-02-17T15:42:42Z</time>
			</trkpt>
			<trkpt lat="50.86638537923448" lon="6.674179898555857">
				<ele>124.0</ele>
				<time>2011-02-17T15:42:43Z</time>
			</trkpt>
			<trkpt lat="50.8663633629355" lon="6.674041021353798">
				<ele>124.0</ele>
				<time>2011-02-17T15:42:44Z</time>
			</trkpt>
			<trkpt lat="50.866341412422905" lon="6.673898764551826">
				<ele>124.0</ele>
				<time>2011-02-17T15:42:45Z</time>
			</trkpt>
			<trkpt lat="50.8663197940932" lon="6.673757789584717">
				<ele>124.0</ele>
				<time>2011-02-17T15:42:46Z</time>
			</trkpt>
			<trkpt lat="50.866296665744365" lon="6.673607695740506">
				<ele>124.0</ele>
				<time>2011-02-17T15:42:47Z</time>
			</trkpt>
			<trkpt lat="50.86627433318074" lon="6.673453489410377">
				<ele>124.0</ele>
				<time>2011-02-17T15:42:48Z</time>
			</trkpt>
			<trkpt lat="50.866251527793615" lon="6.673298856950369">
				<ele>124.0</ele>
				<time>2011-02-17T15:42:49Z</time>
			</trkpt>
			<trkpt lat="50.86622844965949" lon="6.673142356909619">
				<ele>124.0</ele>
				<time>2011-02-17T15:42:50Z</time>
			</trkpt>
			<trkpt lat="50.86620495175756" lon="6.672984387688406">
				<ele>124.0</ele>
				<time>2011-02-17T15:42:51Z</time>
			</trkpt>
			<trkpt lat="50.866181800533646" lon="6.672829104927662">
				<ele>124.0</ele>
				<time>2011-02-17T15:42:52Z</time>
			</trkpt>
			<trkpt lat="50.86615902104659" lon="6.672676253134488">
				<ele>124.0</ele>
				<time>2011-02-17T15:42:53Z</time>
			</trkpt>
			<trkpt lat="50.86613645290557" lon="6.672525909634845">
				<ele>124.0</ele>
				<time>2011-02-17T15:42:54Z</time>
			</trkpt>
			<trkpt lat="50.866113739995484" lon="6.672377470210716">
				<ele>124.0</ele>
				<time>2011-02-17T15:42:55Z</time>
			</trkpt>
			<trkpt lat="50.86608978648289" lon="6.672229244033935">
				<ele>124.0</ele>
				<time>2011-02-17T15:42:56Z</time>
			</trkpt>
			<trkpt lat="50.86606450663628" lon="6.672077893047711">
				<ele>124.0</ele>
				<time>2011-02-17T15:42:57Z</time>
			</trkpt>
			<trkpt lat="50.8660370684285" lon="6.671927436910582">
				<ele>124.0</ele>
				<time>2011-02-17T15:42:58Z</time>
			</trkpt>
			<trkpt lat="50.866009488356525" lon="6.671772661455103">
				<ele>125.0</ele>
				<time>2011-02-17T15:42:59Z</time>
			</trkpt>
			<trkpt lat="50.86598528244684" lon="6.671619283765422">
				<ele>125.0</ele>
				<time>2011-02-17T15:43:00Z</time>
			</trkpt>
			<trkpt lat="50.86596778364796" lon="6.671469520149054">
				<ele>125.0</ele>
				<time>2011-02-17T15:43:01Z</time>
			</trkpt>
			<trkpt lat="50.865954415979445" lon="6.67134294847322">
				<ele>125.0</ele>
				<time>2011-02-17T15:43:02Z</time>
			</trkpt>
			<trkpt lat="50.865944833521716" lon="6.6712384841730366">
				<ele>125.0</ele>
				<time>2011-02-17T15:43:03Z</time>
			</trkpt>
			<trkpt lat="50.86593632633246" lon="6.671162990167324">
				<ele>125.0</ele>
				<time>2011-02-17T15:43:04Z</time>
			</trkpt>
			<trkpt lat="50.865929476337485" lon="6.671110815206806">
				<ele>125.0</ele>
				<time>2011-02-17T15:43:05Z</time>
			</trkpt>
			<trkpt lat="50.865924655127955" lon="6.671077528478044">
				<ele>125.0</ele>
				<time>2011-02-17T15:43:06Z</time>
			</trkpt>
			<trkpt lat="50.865924655127955" lon="6.671077528478044">
				<ele>125.0</ele>
				<time>2011-02-17T15:43:07Z</time>
			</trkpt>
			<trkpt lat="50.865924655127955" lon="6.671077528478044">
				<ele>125.0</ele>
				<time>2011-02-17T15:43:08Z</time>
			</trkpt>
			<trkpt lat="50.865924655127955" lon="6.671077528478044">
				<ele>125.0</ele>
				<time>2011-02-17T15:43:09Z</time>
			</trkpt>
			<trkpt lat="50.865924655127955" lon="6.671077528478044">
				<ele>125.0</ele>
				<time>2011-02-17T15:43:10Z</time>
			</trkpt>
			<trkpt lat="50.865924655127955" lon="6.671077528478044">
				<ele>125.0</ele>
				<time>2011-02-17T15:43:11Z</time>
			</trkpt>
			<trkpt lat="50.865924655127955" lon="6.671077528478044">
				<ele>125.0</ele>
				<time>2011-02-17T15:43:12Z</time>
			</trkpt>
			<trkpt lat="50.865924655127955" lon="6.671077528478044">
				<ele>125.0</ele>
				<time>2011-02-17T15:43:13Z</time>
			</trkpt>
			<trkpt lat="50.865924655127955" lon="6.671077528478044">
				<ele>125.0</ele>
				<time>2011-02-17T15:43:14Z</time>
			</trkpt>
			<trkpt lat="50.865924655127955" lon="6.671077528478044">
				<ele>125.0</ele>
				<time>2011-02-17T15:43:15Z</time>
			</trkpt>
			<trkpt lat="50.865924655127955" lon="6.671077528478044">
				<ele>125.0</ele>
				<time>2011-02-17T15:43:16Z</time>
			</trkpt>
			<trkpt lat="50.865924655127955" lon="6.671077528478044">
				<ele>125.0</ele>
				<time>2011-02-17T15:43:17Z</time>
			</trkpt>
			<trkpt lat="50.865924655127955" lon="6.671077528478044">
				<ele>125.0</ele>
				<time>2011-02-17T15:43:18Z</time>
			</trkpt>
			<trkpt lat="50.865924655127955" lon="6.671077528478044">
				<ele>125.0</ele>
				<time>2011-02-17T15:43:19Z</time>
			</trkpt>
			<trkpt lat="50.865924655127955" lon="6.671077528478044">
				<ele>125.0</ele>
				<time>2011-02-17T15:43:20Z</time>
			</trkpt>
			<trkpt lat="50.865924655127955" lon="6.671077528478044">
				<ele>125.0</ele>
				<time>2011-02-17T15:43:21Z</time>
			</trkpt>
			<trkpt lat="50.865924655127955" lon="6.671077528478044">
				<ele>125.0</ele>
				<time>2011-02-17T15:43:22Z</time>
			</trkpt>
			<trkpt lat="50.865924655127955" lon="6.671077528478044">
				<ele>125.0</ele>
				<time>2011-02-17T15:43:23Z</time>
			</trkpt>
			<trkpt lat="50.865924655127955" lon="6.671077528478044">
				<ele>125.0</ele>
				<time>2011-02-17T15:43:24Z</time>
			</trkpt>
			<trkpt lat="50.865924655127955" lon="6.671077528478044">
				<ele>125.0</ele>
				<time>2011-02-17T15:43:25Z</time>
			</trkpt>
			<trkpt lat="50.865924655127955" lon="6.671077528478044">
				<ele>125.0</ele>
				<time>2011-02-17T15:43:26Z</time>
			</trkpt>
			<trkpt lat="50.865924655127955" lon="6.671077528478044">
				<ele>125.0</ele>
				<time>2011-02-17T15:43:27Z</time>
			</trkpt>
			<trkpt lat="50.865924655127955" lon="6.671077528478044">
				<ele>125.0</ele>
				<time>2011-02-17T15:43:28Z</time>
			</trkpt>
			<trkpt lat="50.865924655127955" lon="6.671077528478044">
				<ele>125.0</ele>
				<time>2011-02-17T15:43:29Z</time>
			</trkpt>
			<trkpt lat="50.865924655127955" lon="6.671077528478044">
				<ele>125.0</ele>
				<time>2011-02-17T15:43:30Z</time>
			</trkpt>
			<trkpt lat="50.865924655127955" lon="6.671077528478044">
				<ele>125.0</ele>
				<time>2011-02-17T15:43:31Z</time>
			</trkpt>
			<trkpt lat="50.865924655127955" lon="6.671077528478044">
				<ele>125.0</ele>
				<time>2011-02-17T15:43:32Z</time>
			</trkpt>
			<trkpt lat="50.865924655127955" lon="6.671077528478044">
				<ele>125.0</ele>
				<time>2011-02-17T15:43:33Z</time>
			</trkpt>
			<trkpt lat="50.865924655127955" lon="6.671077528478044">
				<ele>125.0</ele>
				<time>2011-02-17T15:43:34Z</time>
			</trkpt>
			<trkpt lat="50.865924655127955" lon="6.671077528478044">
				<ele>125.0</ele>
				<time>2011-02-17T15:43:35Z</time>
			</trkpt>
			<trkpt lat="50.865924655127955" lon="6.671077528478044">
				<ele>125.0</ele>
				<time>2011-02-17T15:43:36Z</time>
			</trkpt>
			<trkpt lat="50.865924655127955" lon="6.671077528478044">
				<ele>125.0</ele>
				<time>2011-02-17T15:43:37Z</time>
			</trkpt>
			<trkpt lat="50.865924655127955" lon="6.671077528478044">
				<ele>125.0</ele>
				<time>2011-02-17T15:43:38Z</time>
			</trkpt>
			<trkpt lat="50.865924655127955" lon="6.671077528478044">
				<ele>125.0</ele>
				<time>2011-02-17T15:43:39Z</time>
			</trkpt>
			<trkpt lat="50.865924655127955" lon="6.671077528478044">
				<ele>125.0</ele>
				<time>2011-02-17T15:43:40Z</time>
			</trkpt>
			<trkpt lat="50.865924655127955" lon="6.671077528478044">
				<ele>125.0</ele>
				<time>2011-02-17T15:43:41Z</time>
			</trkpt>
			<trkpt lat="50.865924655127955" lon="6.671077528478044">
				<ele>125.0</ele>
				<time>2011-02-17T15:43:42Z</time>
			</trkpt>
			<trkpt lat="50.865924655127955" lon="6.671077528478044">
				<ele>125.0</ele>
				<time>2011-02-17T15:43:43Z</time>
			</trkpt>
			<trkpt lat="50.865924655127955" lon="6.671077528478044">
				<ele>125.0</ele>
				<time>2011-02-17T15:43:44Z</time>
			</trkpt>
			<trkpt lat="50.865924655127955" lon="6.671077528478044">
				<ele>125.0</ele>
				<time>2011-02-17T15:43:45Z</time>
			</trkpt>
			<trkpt lat="50.865924655127955" lon="6.671077528478044">
				<ele>125.0</ele>
				<time>2011-02-17T15:43:46Z</time>
			</trkpt>
			<trkpt lat="50.865924655127955" lon="6.671077528478044">
				<ele>125.0</ele>
				<time>2011-02-17T15:43:47Z</time>
			</trkpt>
			<trkpt lat="50.865924655127955" lon="6.671077528478044">
				<ele>125.0</ele>
				<time>2011-02-17T15:43:48Z</time>
			</trkpt>
			<trkpt lat="50.865924655127955" lon="6.671077528478044">
				<ele>125.0</ele>
				<time>2011-02-17T15:43:49Z</time>
			</trkpt>
			<trkpt lat="50.865924655127955" lon="6.671077528478044">
				<ele>125.0</ele>
				<time>2011-02-17T15:43:50Z</time>
			</trkpt>
			<trkpt lat="50.865924655127955" lon="6.671077528478044">
				<ele>125.0</ele>
				<time>2011-02-17T15:43:51Z</time>
			</trkpt>
			<trkpt lat="50.865924655127955" lon="6.671077528478044">
				<ele>125.0</ele>
				<time>2011-02-17T15:43:52Z</time>
			</trkpt>
			<trkpt lat="50.865924655127955" lon="6.671077528478044">
				<ele>125.0</ele>
				<time>2011-02-17T15:43:53Z</time>
			</trkpt>
			<trkpt lat="50.865924655127955" lon="6.671077528478044">
				<ele>125.0</ele>
				<time>2011-02-17T15:43:54Z</time>
			</trkpt>
			<trkpt lat="50.865924655127955" lon="6.671077528478044">
				<ele>125.0</ele>
				<time>2011-02-17T15:43:55Z</time>
			</trkpt>
			<trkpt lat="50.865924655127955" lon="6.671077528478044">
				<ele>125.0</ele>
				<time>2011-02-17T15:43:56Z</time>
			</trkpt>
			<trkpt lat="50.865924655127955" lon="6.671077528478044">
				<ele>125.0</ele>
				<time>2011-02-17T15:43:57Z</time>
			</trkpt>
			<trkpt lat="50.865924655127955" lon="6.671077528478044">
				<ele>125.0</ele>
				<time>2011-02-17T15:43:58Z</time>
			</trkpt>
			<trkpt lat="50.865924655127955" lon="6.671077528478044">
				<ele>125.0</ele>
				<time>2011-02-17T15:43:59Z</time>
			</trkpt>
			<trkpt lat="50.865924655127955" lon="6.671077528478044">
				<ele>125.0</ele>
				<time>2011-02-17T15:44:00Z</time>
			</trkpt>
			<trkpt lat="50.865924655127955" lon="6.671077528478044">
				<ele>125.0</ele>
				<time>2011-02-17T15:44:01Z</time>
			</trkpt>
			<trkpt lat="50.865924655127955" lon="6.671077528478044">
				<ele>125.0</ele>
				<time>2011-02-17T15:44:02Z</time>
			</trkpt>
			<trkpt lat="50.865924655127955" lon="6.671077528478044">
				<ele>125.0</ele>
				<time>2011-02-17T15:44:03Z</time>
			</trkpt>
			<trkpt lat="50.865924655127955" lon="6.671077528478044">
				<ele>125.0</ele>
				<time>2011-02-17T15:44:04Z</time>
			</trkpt>
			<trkpt lat="50.865924655127955" lon="6.671077528478044">
				<ele>125.0</ele>
				<time>2011-02-17T15:44:05Z</time>
			</trkpt>
			<trkpt lat="50.865924655127955" lon="6.671077528478044">
				<ele>125.0</ele>
				<time>2011-02-17T15:44:06Z</time>
			</trkpt>
			<trkpt lat="50.865924655127955" lon="6.671077528478044">
				<ele>125.0</ele>
				<time>2011-02-17T15:44:07Z</time>
			</trkpt>
			<trkpt lat="50.865924655127955" lon="6.671077528478044">
				<ele>125.0</ele>
				<time>2011-02-17T15:44:08Z</time>
			</trkpt>
			<trkpt lat="50.865924655127955" lon="6.671077528478044">
				<ele>125.0</ele>
				<time>2011-02-17T15:44:09Z</time>
			</trkpt>
			<trkpt lat="50.865924655127955" lon="6.671077528478044">
				<ele>125.0</ele>
				<time>2011-02-17T15:44:10Z</time>
			</trkpt>
			<trkpt lat="50.86591941356755" lon="6.671018668300645">
				<ele>126.0</ele>
				<time>2011-02-17T15:44:11Z</time>
			</trkpt>
			<trkpt lat="50.86591157520863" lon="6.670972235913927">
				<ele>127.0</ele>
				<time>2011-02-17T15:44:12Z</time>
			</trkpt>
			<trkpt lat="50.86590055740433" lon="6.670916245900807">
				<ele>128.0</ele>
				<time>2011-02-17T15:44:13Z</time>
			</trkpt>
			<trkpt lat="50.865884004493914" lon="6.67085041590048">
				<ele>129.0</ele>
				<time>2011-02-17T15:44:14Z</time>
			</trkpt>
			<trkpt lat="50.86586137936442" lon="6.670756124921847">
				<ele>130.0</ele>
				<time>2011-02-17T15:44:15Z</time>
			</trkpt>
			<trkpt lat="50.86583988258879" lon="6.670653650670655">
				<ele>130.0</ele>
				<time>2011-02-17T15:44:16Z</time>
			</trkpt>
			<trkpt lat="50.86581730649328" lon="6.67053536104211">
				<ele>130.0</ele>
				<time>2011-02-17T15:44:17Z</time>
			</trkpt>
			<trkpt lat="50.86579227123912" lon="6.670403769968532">
				<ele>131.0</ele>
				<time>2011-02-17T15:44:18Z</time>
			</trkpt>
			<trkpt lat="50.865764385503596" lon="6.670257242224226">
				<ele>131.0</ele>
				<time>2011-02-17T15:44:19Z</time>
			</trkpt>
			<trkpt lat="50.86573625851578" lon="6.6700991047086164">
				<ele>131.0</ele>
				<time>2011-02-17T15:44:20Z</time>
			</trkpt>
			<trkpt lat="50.86570954072835" lon="6.66993578278314">
				<ele>131.0</ele>
				<time>2011-02-17T15:44:21Z</time>
			</trkpt>
			<trkpt lat="50.865681782147625" lon="6.669763261654458">
				<ele>131.0</ele>
				<time>2011-02-17T15:44:22Z</time>
			</trkpt>
			<trkpt lat="50.86565484058001" lon="6.669581780051711">
				<ele>131.0</ele>
				<time>2011-02-17T15:44:23Z</time>
			</trkpt>
			<trkpt lat="50.8656277179382" lon="6.669395521086133">
				<ele>131.0</ele>
				<time>2011-02-17T15:44:24Z</time>
			</trkpt>
			<trkpt lat="50.86560030084747" lon="6.669203147279805">
				<ele>132.0</ele>
				<time>2011-02-17T15:44:25Z</time>
			</trkpt>
			<trkpt lat="50.86557543366273" lon="6.669006646961906">
				<ele>132.0</ele>
				<time>2011-02-17T15:44:26Z</time>
			</trkpt>
			<trkpt lat="50.86555030790214" lon="6.6688123216609805">
				<ele>132.0</ele>
				<time>2011-02-17T15:44:27Z</time>
			</trkpt>
			<trkpt lat="50.86552524257383" lon="6.668620459928062">
				<ele>132.0</ele>
				<time>2011-02-17T15:44:28Z</time>
			</trkpt>
			<trkpt lat="50.865500559467264" lon="6.668433929725417">
				<ele>132.0</ele>
				<time>2011-02-17T15:44:29Z</time>
			</trkpt>
			<trkpt lat="50.86547528981475" lon="6.668252055354734">
				<ele>133.0</ele>
				<time>2011-02-17T15:44:30Z</time>
			</trkpt>
			<trkpt lat="50.86545017625277" lon="6.668077844745818">
				<ele>133.0</ele>
				<time>2011-02-17T15:44:31Z</time>
			</trkpt>
			<trkpt lat="50.86542558575369" lon="6.667922993110022">
				<ele>133.0</ele>
				<time>2011-02-17T15:44:32Z</time>
			</trkpt>
			<trkpt lat="50.86540221509033" lon="6.667773858800916">
				<ele>133.0</ele>
				<time>2011-02-17T15:44:33Z</time>
			</trkpt>
			<trkpt lat="50.86537968054148" lon="6.667626748076473">
				<ele>133.0</ele>
				<time>2011-02-17T15:44:34Z</time>
			</trkpt>
			<trkpt lat="50.86535904207365" lon="6.667490020902056">
				<ele>133.0</ele>
				<time>2011-02-17T15:44:35Z</time>
			</trkpt>
			<trkpt lat="50.86533922433707" lon="6.667356189432138">
				<ele>133.0</ele>
				<time>2011-02-17T15:44:36Z</time>
			</trkpt>
			<trkpt lat="50.86532199120497" lon="6.667238837137907">
				<ele>133.0</ele>
				<time>2011-02-17T15:44:37Z</time>
			</trkpt>
			<trkpt lat="50.86530872777319" lon="6.667142452932718">
				<ele>133.0</ele>
				<time>2011-02-17T15:44:38Z</time>
			</trkpt>
			<trkpt lat="50.86530667045472" lon="6.667054449731876">
				<ele>134.0</ele>
				<time>2011-02-17T15:44:39Z</time>
			</trkpt>
			<trkpt lat="50.865309665909166" lon="6.666965260487585">
				<ele>134.0</ele>
				<time>2011-02-17T15:44:40Z</time>
			</trkpt>
			<trkpt lat="50.86531686114326" lon="6.6668760392739586">
				<ele>134.0</ele>
				<time>2011-02-17T15:44:41Z</time>
			</trkpt>
			<trkpt lat="50.86531883853791" lon="6.666786109585476">
				<ele>134.0</ele>
				<time>2011-02-17T15:44:42Z</time>
			</trkpt>
			<trkpt lat="50.86530086423161" lon="6.666701158055075">
				<ele>134.0</ele>
				<time>2011-02-17T15:44:43Z</time>
			</trkpt>
			<trkpt lat="50.86526683189228" lon="6.666619523934019">
				<ele>134.0</ele>
				<time>2011-02-17T15:44:44Z</time>
			</trkpt>
			<trkpt lat="50.86522684165011" lon="6.6665242562198985">
				<ele>135.0</ele>
				<time>2011-02-17T15:44:45Z</time>
			</trkpt>
			<trkpt lat="50.86520039893787" lon="6.666403870062019">
				<ele>135.0</ele>
				<time>2011-02-17T15:44:46Z</time>
			</trkpt>
			<trkpt lat="50.865173359099835" lon="6.666269309375935">
				<ele>135.0</ele>
				<time>2011-02-17T15:44:47Z</time>
			</trkpt>
			<trkpt lat="50.86514492951951" lon="6.666118874299555">
				<ele>135.0</ele>
				<time>2011-02-17T15:44:48Z</time>
			</trkpt>
			<trkpt lat="50.86511717333958" lon="6.665955460090144">
				<ele>135.0</ele>
				<time>2011-02-17T15:44:49Z</time>
			</trkpt>
			<trkpt lat="50.86508933290461" lon="6.6657902514609555">
				<ele>135.0</ele>
				<time>2011-02-17T15:44:50Z</time>
			</trkpt>
			<trkpt lat="50.86506247434363" lon="6.665616562957445">
				<ele>135.0</ele>
				<time>2011-02-17T15:44:51Z</time>
			</trkpt>
			<trkpt lat="50.86503302912668" lon="6.665428285981565">
				<ele>135.0</ele>
				<time>2011-02-17T15:44:52Z</time>
			</trkpt>
			<trkpt lat="50.865002325244774" lon="6.665234466360962">
				<ele>135.0</ele>
				<time>2011-02-17T15:44:53Z</time>
			</trkpt>
			<trkpt lat="50.86496893190866" lon="6.66502921067978">
				<ele>135.0</ele>
				<time>2011-02-17T15:44:54Z</time>
			</trkpt>
			<trkpt lat="50.86493381464044" lon="6.664815250767385">
				<ele>135.0</ele>
				<time>2011-02-17T15:44:55Z</time>
			</trkpt>
			<trkpt lat="50.86489781560909" lon="6.66459397207709">
				<ele>135.0</ele>
				<time>2011-02-17T15:44:56Z</time>
			</trkpt>
			<trkpt lat="50.86486169815903" lon="6.6643726191788275">
				<ele>135.0</ele>
				<time>2011-02-17T15:44:57Z</time>
			</trkpt>
			<trkpt lat="50.86482605306359" lon="6.6641539909492264">
				<ele>135.0</ele>
				<time>2011-02-17T15:44:58Z</time>
			</trkpt>
			<trkpt lat="50.86479020913465" lon="6.663934949064037">
				<ele>135.0</ele>
				<time>2011-02-17T15:44:59Z</time>
			</trkpt>
			<trkpt lat="50.86475385495081" lon="6.663711231614013">
				<ele>135.0</ele>
				<time>2011-02-17T15:45:00Z</time>
			</trkpt>
			<trkpt lat="50.864717045495134" lon="6.663487841907926">
				<ele>135.0</ele>
				<time>2011-02-17T15:45:01Z</time>
			</trkpt>
			<trkpt lat="50.86467969063204" lon="6.663263130883006">
				<ele>136.0</ele>
				<time>2011-02-17T15:45:02Z</time>
			</trkpt>
			<trkpt lat="50.864642190305766" lon="6.663037343055047">
				<ele>136.0</ele>
				<time>2011-02-17T15:45:03Z</time>
			</trkpt>
			<trkpt lat="50.864604343905626" lon="6.662807585236146">
				<ele>136.0</ele>
				<time>2011-02-17T15:45:04Z</time>
			</trkpt>
			<trkpt lat="50.86456681791959" lon="6.662578367987081">
				<ele>136.0</ele>
				<time>2011-02-17T15:45:05Z</time>
			</trkpt>
			<trkpt lat="50.86453173909417" lon="6.662349514885636">
				<ele>136.0</ele>
				<time>2011-02-17T15:45:06Z</time>
			</trkpt>
			<trkpt lat="50.86449685275397" lon="6.662122033533252">
				<ele>136.0</ele>
				<time>2011-02-17T15:45:07Z</time>
			</trkpt>
			<trkpt lat="50.864461618697405" lon="6.661894252895997">
				<ele>136.0</ele>
				<time>2011-02-17T15:45:08Z</time>
			</trkpt>
			<trkpt lat="50.864426319895394" lon="6.661666361595635">
				<ele>136.0</ele>
				<time>2011-02-17T15:45:09Z</time>
			</trkpt>
			<trkpt lat="50.86439118753742" lon="6.661437768676861">
				<ele>136.0</ele>
				<time>2011-02-17T15:45:10Z</time>
			</trkpt>
			<trkpt lat="50.8643562276678" lon="6.661208980145292">
				<ele>136.0</ele>
				<time>2011-02-17T15:45:11Z</time>
			</trkpt>
			<trkpt lat="50.864321488373" lon="6.660981150217383">
				<ele>136.0</ele>
				<time>2011-02-17T15:45:12Z</time>
			</trkpt>
			<trkpt lat="50.86428342009281" lon="6.660752577347778">
				<ele>136.0</ele>
				<time>2011-02-17T15:45:13Z</time>
			</trkpt>
			<trkpt lat="50.86424556159261" lon="6.660523320693494">
				<ele>136.0</ele>
				<time>2011-02-17T15:45:14Z</time>
			</trkpt>
			<trkpt lat="50.86420834200611" lon="6.660293488895882">
				<ele>136.0</ele>
				<time>2011-02-17T15:45:15Z</time>
			</trkpt>
			<trkpt lat="50.864171315439656" lon="6.660063589976871">
				<ele>136.0</ele>
				<time>2011-02-17T15:45:16Z</time>
			</trkpt>
			<trkpt lat="50.864134034268815" lon="6.659834770189119">
				<ele>136.0</ele>
				<time>2011-02-17T15:45:17Z</time>
			</trkpt>
			<trkpt lat="50.86409655341389" lon="6.659605471971073">
				<ele>136.0</ele>
				<time>2011-02-17T15:45:18Z</time>
			</trkpt>
			<trkpt lat="50.86405905971978" lon="6.659370529160155">
				<ele>136.0</ele>
				<time>2011-02-17T15:45:19Z</time>
			</trkpt>
			<trkpt lat="50.864023817815465" lon="6.659132095173603">
				<ele>136.0</ele>
				<time>2011-02-17T15:45:20Z</time>
			</trkpt>
			<trkpt lat="50.863988123674375" lon="6.658892457666202">
				<ele>136.0</ele>
				<time>2011-02-17T15:45:21Z</time>
			</trkpt>
			<trkpt lat="50.863951485037646" lon="6.658650370929963">
				<ele>136.0</ele>
				<time>2011-02-17T15:45:22Z</time>
			</trkpt>
			<trkpt lat="50.863914589959194" lon="6.658407708361409">
				<ele>136.0</ele>
				<time>2011-02-17T15:45:23Z</time>
			</trkpt>
			<trkpt lat="50.86387828946183" lon="6.658168142403201">
				<ele>136.0</ele>
				<time>2011-02-17T15:45:24Z</time>
			</trkpt>
			<trkpt lat="50.86384252502642" lon="6.657931019067574">
				<ele>136.0</ele>
				<time>2011-02-17T15:45:25Z</time>
			</trkpt>
			<trkpt lat="50.86380739750824" lon="6.657696316830362">
				<ele>136.0</ele>
				<time>2011-02-17T15:45:26Z</time>
			</trkpt>
			<trkpt lat="50.86377281893806" lon="6.657466991389771">
				<ele>136.0</ele>
				<time>2011-02-17T15:45:27Z</time>
			</trkpt>
			<trkpt lat="50.863736259209695" lon="6.657244954646884">
				<ele>136.0</ele>
				<time>2011-02-17T15:45:28Z</time>
			</trkpt>
			<trkpt lat="50.86370062173337" lon="6.657029873347386">
				<ele>136.0</ele>
				<time>2011-02-17T15:45:29Z</time>
			</trkpt>
			<trkpt lat="50.863666505895075" lon="6.656822462933491">
				<ele>136.0</ele>
				<time>2011-02-17T15:45:30Z</time>
			</trkpt>
			<trkpt lat="50.863632916310785" lon="6.656617346649535">
				<ele>136.0</ele>
				<time>2011-02-17T15:45:31Z</time>
			</trkpt>
			<trkpt lat="50.86360041682653" lon="6.65642170697453">
				<ele>136.0</ele>
				<time>2011-02-17T15:45:32Z</time>
			</trkpt>
			<trkpt lat="50.8635689499637" lon="6.6562295388800825">
				<ele>136.0</ele>
				<time>2011-02-17T15:45:33Z</time>
			</trkpt>
			<trkpt lat="50.863544371011216" lon="6.656044933471772">
				<ele>136.0</ele>
				<time>2011-02-17T15:45:34Z</time>
			</trkpt>
			<trkpt lat="50.863527603639156" lon="6.655861280198957">
				<ele>137.0</ele>
				<time>2011-02-17T15:45:35Z</time>
			</trkpt>
			<trkpt lat="50.86351899860589" lon="6.65567659293961">
				<ele>137.0</ele>
				<time>2011-02-17T15:45:36Z</time>
			</trkpt>
			<trkpt lat="50.86351829650207" lon="6.655490555213138">
				<ele>137.0</ele>
				<time>2011-02-17T15:45:37Z</time>
			</trkpt>
			<trkpt lat="50.8635254028014" lon="6.65530717582835">
				<ele>136.0</ele>
				<time>2011-02-17T15:45:38Z</time>
			</trkpt>
			<trkpt lat="50.863538211093214" lon="6.655122165916998">
				<ele>136.0</ele>
				<time>2011-02-17T15:45:39Z</time>
			</trkpt>
			<trkpt lat="50.8635573797753" lon="6.654931834835985">
				<ele>136.0</ele>
				<time>2011-02-17T15:45:40Z</time>
			</trkpt>
			<trkpt lat="50.863579977273346" lon="6.654743327363162">
				<ele>137.0</ele>
				<time>2011-02-17T15:45:41Z</time>
			</trkpt>
			<trkpt lat="50.863602924098295" lon="6.654552432081649">
				<ele>137.0</ele>
				<time>2011-02-17T15:45:42Z</time>
			</trkpt>
			<trkpt lat="50.86362690139851" lon="6.654364096688666">
				<ele>137.0</ele>
				<time>2011-02-17T15:45:43Z</time>
			</trkpt>
			<trkpt lat="50.863649353487325" lon="6.654180179688951">
				<ele>137.0</ele>
				<time>2011-02-17T15:45:44Z</time>
			</trkpt>
			<trkpt lat="50.863671831451775" lon="6.65399774628835">
				<ele>138.0</ele>
				<time>2011-02-17T15:45:45Z</time>
			</trkpt>
			<trkpt lat="50.863692384678856" lon="6.653818706709044">
				<ele>138.0</ele>
				<time>2011-02-17T15:45:46Z</time>
			</trkpt>
			<trkpt lat="50.863712436636376" lon="6.653637030751131">
				<ele>138.0</ele>
				<time>2011-02-17T15:45:47Z</time>
			</trkpt>
			<trkpt lat="50.863731650598055" lon="6.653454454655053">
				<ele>138.0</ele>
				<time>2011-02-17T15:45:48Z</time>
			</trkpt>
			<trkpt lat="50.863750473245474" lon="6.653273904880932">
				<ele>138.0</ele>
				<time>2011-02-17T15:45:49Z</time>
			</trkpt>
			<trkpt lat="50.86376856854894" lon="6.653096061872033">
				<ele>138.0</ele>
				<time>2011-02-17T15:45:50Z</time>
			</trkpt>
			<trkpt lat="50.863786848758146" lon="6.652923006326458">
				<ele>138.0</ele>
				<time>2011-02-17T15:45:51Z</time>
			</trkpt>
			<trkpt lat="50.86380400129112" lon="6.652749116888883">
				<ele>138.0</ele>
				<time>2011-02-17T15:45:52Z</time>
			</trkpt>
			<trkpt lat="50.8638126036053" lon="6.652570577646472">
				<ele>138.0</ele>
				<time>2011-02-17T15:45:53Z</time>
			</trkpt>
			<trkpt lat="50.86381212269201" lon="6.652392788101186">
				<ele>138.0</ele>
				<time>2011-02-17T15:45:54Z</time>
			</trkpt>
			<trkpt lat="50.86380141841237" lon="6.652218070067665">
				<ele>138.0</ele>
				<time>2011-02-17T15:45:55Z</time>
			</trkpt>
			<trkpt lat="50.86378110144614" lon="6.652048171568629">
				<ele>138.0</ele>
				<time>2011-02-17T15:45:56Z</time>
			</trkpt>
			<trkpt lat="50.86375311596135" lon="6.651883992749697">
				<ele>138.0</ele>
				<time>2011-02-17T15:45:57Z</time>
			</trkpt>
			<trkpt lat="50.863719832876036" lon="6.651721867452866">
				<ele>138.0</ele>
				<time>2011-02-17T15:45:58Z</time>
			</trkpt>
			<trkpt lat="50.86368422316423" lon="6.651565273951347">
				<ele>138.0</ele>
				<time>2011-02-17T15:45:59Z</time>
			</trkpt>
			<trkpt lat="50.8636468550717" lon="6.651409392533446">
				<ele>138.0</ele>
				<time>2011-02-17T15:46:00Z</time>
			</trkpt>
			<trkpt lat="50.86361024290708" lon="6.651256729992756">
				<ele>137.0</ele>
				<time>2011-02-17T15:46:01Z</time>
			</trkpt>
			<trkpt lat="50.86357147888008" lon="6.6511098581701615">
				<ele>137.0</ele>
				<time>2011-02-17T15:46:02Z</time>
			</trkpt>
			<trkpt lat="50.86353369490841" lon="6.650962478571775">
				<ele>137.0</ele>
				<time>2011-02-17T15:46:03Z</time>
			</trkpt>
			<trkpt lat="50.86349754042543" lon="6.650818029288991">
				<ele>137.0</ele>
				<time>2011-02-17T15:46:04Z</time>
			</trkpt>
			<trkpt lat="50.86346297073602" lon="6.650676793413587">
				<ele>137.0</ele>
				<time>2011-02-17T15:46:05Z</time>
			</trkpt>
			<trkpt lat="50.86342920210317" lon="6.650535420005405">
				<ele>137.0</ele>
				<time>2011-02-17T15:46:06Z</time>
			</trkpt>
			<trkpt lat="50.86339693427748" lon="6.6503981522318325">
				<ele>137.0</ele>
				<time>2011-02-17T15:46:07Z</time>
			</trkpt>
			<trkpt lat="50.86336552153336" lon="6.650264740714355">
				<ele>137.0</ele>
				<time>2011-02-17T15:46:08Z</time>
			</trkpt>
			<trkpt lat="50.86333480712062" lon="6.650134500370526">
				<ele>137.0</ele>
				<time>2011-02-17T15:46:09Z</time>
			</trkpt>
			<trkpt lat="50.86330398393047" lon="6.650004102013228">
				<ele>137.0</ele>
				<time>2011-02-17T15:46:10Z</time>
			</trkpt>
			<trkpt lat="50.863273480286" lon="6.6498746266438555">
				<ele>137.0</ele>
				<time>2011-02-17T15:46:11Z</time>
			</trkpt>
			<trkpt lat="50.86324003142457" lon="6.649745036055059">
				<ele>137.0</ele>
				<time>2011-02-17T15:46:12Z</time>
			</trkpt>
			<trkpt lat="50.8632060103013" lon="6.649615732054075">
				<ele>137.0</ele>
				<time>2011-02-17T15:46:13Z</time>
			</trkpt>
			<trkpt lat="50.863172434342104" lon="6.649485510977563">
				<ele>137.0</ele>
				<time>2011-02-17T15:46:14Z</time>
			</trkpt>
			<trkpt lat="50.86313838531424" lon="6.649356690459937">
				<ele>138.0</ele>
				<time>2011-02-17T15:46:15Z</time>
			</trkpt>
			<trkpt lat="50.86310351551462" lon="6.649229776920758">
				<ele>138.0</ele>
				<time>2011-02-17T15:46:16Z</time>
			</trkpt>
			<trkpt lat="50.86307029149085" lon="6.64910458513908">
				<ele>138.0</ele>
				<time>2011-02-17T15:46:17Z</time>
			</trkpt>
			<trkpt lat="50.86303935097111" lon="6.648978652514494">
				<ele>138.0</ele>
				<time>2011-02-17T15:46:18Z</time>
			</trkpt>
			<trkpt lat="50.86300901331676" lon="6.648859859065253">
				<ele>138.0</ele>
				<time>2011-02-17T15:46:19Z</time>
			</trkpt>
			<trkpt lat="50.86297599420653" lon="6.648750239350546">
				<ele>138.0</ele>
				<time>2011-02-17T15:46:20Z</time>
			</trkpt>
			<trkpt lat="50.86294272514486" lon="6.64864272118382">
				<ele>138.0</ele>
				<time>2011-02-17T15:46:21Z</time>
			</trkpt>
			<trkpt lat="50.86290748399366" lon="6.648532893559394">
				<ele>138.0</ele>
				<time>2011-02-17T15:46:22Z</time>
			</trkpt>
			<trkpt lat="50.862870957130994" lon="6.648417386359228">
				<ele>138.0</ele>
				<time>2011-02-17T15:46:23Z</time>
			</trkpt>
			<trkpt lat="50.8628337029834" lon="6.648299530549262">
				<ele>137.0</ele>
				<time>2011-02-17T15:46:24Z</time>
			</trkpt>
			<trkpt lat="50.862794587300066" lon="6.648181843532205">
				<ele>137.0</ele>
				<time>2011-02-17T15:46:25Z</time>
			</trkpt>
			<trkpt lat="50.86275407390287" lon="6.648065512338194">
				<ele>137.0</ele>
				<time>2011-02-17T15:46:26Z</time>
			</trkpt>
			<trkpt lat="50.862713132690516" lon="6.6479486580068405">
				<ele>137.0</ele>
				<time>2011-02-17T15:46:27Z</time>
			</trkpt>
			<trkpt lat="50.862670499332495" lon="6.647833396792607">
				<ele>137.0</ele>
				<time>2011-02-17T15:46:28Z</time>
			</trkpt>
			<trkpt lat="50.86262869761308" lon="6.6477215545762345">
				<ele>137.0</ele>
				<time>2011-02-17T15:46:29Z</time>
			</trkpt>
			<trkpt lat="50.862587943016244" lon="6.647619887271208">
				<ele>137.0</ele>
				<time>2011-02-17T15:46:30Z</time>
			</trkpt>
			<trkpt lat="50.862550128748616" lon="6.64752555353012">
				<ele>137.0</ele>
				<time>2011-02-17T15:46:31Z</time>
			</trkpt>
			<trkpt lat="50.86251604885587" lon="6.6474339576631465">
				<ele>137.0</ele>
				<time>2011-02-17T15:46:32Z</time>
			</trkpt>
			<trkpt lat="50.86248686886361" lon="6.6473507465769135">
				<ele>137.0</ele>
				<time>2011-02-17T15:46:33Z</time>
			</trkpt>
			<trkpt lat="50.862464305204426" lon="6.6472878110350795">
				<ele>137.0</ele>
				<time>2011-02-17T15:46:34Z</time>
			</trkpt>
			<trkpt lat="50.86244935814661" lon="6.647247279196336">
				<ele>137.0</ele>
				<time>2011-02-17T15:46:35Z</time>
			</trkpt>
			<trkpt lat="50.86244935814661" lon="6.647247279196336">
				<ele>137.0</ele>
				<time>2011-02-17T15:46:36Z</time>
			</trkpt>
			<trkpt lat="50.86244935814661" lon="6.647247279196336">
				<ele>137.0</ele>
				<time>2011-02-17T15:46:37Z</time>
			</trkpt>
			<trkpt lat="50.86244935814661" lon="6.647247279196336">
				<ele>137.0</ele>
				<time>2011-02-17T15:46:38Z</time>
			</trkpt>
			<trkpt lat="50.86244935814661" lon="6.647247279196336">
				<ele>137.0</ele>
				<time>2011-02-17T15:46:39Z</time>
			</trkpt>
			<trkpt lat="50.86244935814661" lon="6.647247279196336">
				<ele>137.0</ele>
				<time>2011-02-17T15:46:40Z</time>
			</trkpt>
			<trkpt lat="50.86244935814661" lon="6.647247279196336">
				<ele>137.0</ele>
				<time>2011-02-17T15:46:41Z</time>
			</trkpt>
			<trkpt lat="50.86244935814661" lon="6.647247279196336">
				<ele>137.0</ele>
				<time>2011-02-17T15:46:42Z</time>
			</trkpt>
			<trkpt lat="50.86244935814661" lon="6.647247279196336">
				<ele>137.0</ele>
				<time>2011-02-17T15:46:43Z</time>
			</trkpt>
			<trkpt lat="50.86244935814661" lon="6.647247279196336">
				<ele>137.0</ele>
				<time>2011-02-17T15:46:44Z</time>
			</trkpt>
			<trkpt lat="50.86244935814661" lon="6.647247279196336">
				<ele>137.0</ele>
				<time>2011-02-17T15:46:45Z</time>
			</trkpt>
			<trkpt lat="50.86244935814661" lon="6.647247279196336">
				<ele>137.0</ele>
				<time>2011-02-17T15:46:46Z</time>
			</trkpt>
			<trkpt lat="50.86244935814661" lon="6.647247279196336">
				<ele>137.0</ele>
				<time>2011-02-17T15:46:47Z</time>
			</trkpt>
			<trkpt lat="50.86244935814661" lon="6.647247279196336">
				<ele>137.0</ele>
				<time>2011-02-17T15:46:48Z</time>
			</trkpt>
			<trkpt lat="50.86244935814661" lon="6.647247279196336">
				<ele>137.0</ele>
				<time>2011-02-17T15:46:49Z</time>
			</trkpt>
			<trkpt lat="50.86244935814661" lon="6.647247279196336">
				<ele>137.0</ele>
				<time>2011-02-17T15:46:50Z</time>
			</trkpt>
			<trkpt lat="50.86244935814661" lon="6.647247279196336">
				<ele>137.0</ele>
				<time>2011-02-17T15:46:51Z</time>
			</trkpt>
			<trkpt lat="50.86242312527458" lon="6.647187193063335">
				<ele>137.0</ele>
				<time>2011-02-17T15:46:52Z</time>
			</trkpt>
			<trkpt lat="50.86242312527458" lon="6.647187193063335">
				<ele>137.0</ele>
				<time>2011-02-17T15:46:53Z</time>
			</trkpt>
			<trkpt lat="50.86242312527458" lon="6.647187193063335">
				<ele>137.0</ele>
				<time>2011-02-17T15:46:54Z</time>
			</trkpt>
			<trkpt lat="50.86242312527458" lon="6.647187193063335">
				<ele>137.0</ele>
				<time>2011-02-17T15:46:55Z</time>
			</trkpt>
			<trkpt lat="50.86242312527458" lon="6.647187193063335">
				<ele>137.0</ele>
				<time>2011-02-17T15:46:56Z</time>
			</trkpt>
			<trkpt lat="50.86242312527458" lon="6.647187193063335">
				<ele>137.0</ele>
				<time>2011-02-17T15:46:57Z</time>
			</trkpt>
			<trkpt lat="50.86242312527458" lon="6.647187193063335">
				<ele>137.0</ele>
				<time>2011-02-17T15:46:58Z</time>
			</trkpt>
			<trkpt lat="50.86242312527458" lon="6.647187193063335">
				<ele>137.0</ele>
				<time>2011-02-17T15:46:59Z</time>
			</trkpt>
			<trkpt lat="50.86242312527458" lon="6.647187193063335">
				<ele>137.0</ele>
				<time>2011-02-17T15:47:00Z</time>
			</trkpt>
			<trkpt lat="50.86242312527458" lon="6.647187193063335">
				<ele>137.0</ele>
				<time>2011-02-17T15:47:01Z</time>
			</trkpt>
			<trkpt lat="50.86242312527458" lon="6.647187193063335">
				<ele>137.0</ele>
				<time>2011-02-17T15:47:02Z</time>
			</trkpt>
			<trkpt lat="50.86242312527458" lon="6.647187193063335">
				<ele>137.0</ele>
				<time>2011-02-17T15:47:03Z</time>
			</trkpt>
			<trkpt lat="50.86242312527458" lon="6.647187193063335">
				<ele>137.0</ele>
				<time>2011-02-17T15:47:04Z</time>
			</trkpt>
			<trkpt lat="50.86242312527458" lon="6.647187193063335">
				<ele>137.0</ele>
				<time>2011-02-17T15:47:05Z</time>
			</trkpt>
			<trkpt lat="50.86242312527458" lon="6.647187193063335">
				<ele>137.0</ele>
				<time>2011-02-17T15:47:06Z</time>
			</trkpt>
			<trkpt lat="50.86242312527458" lon="6.647187193063335">
				<ele>137.0</ele>
				<time>2011-02-17T15:47:07Z</time>
			</trkpt>
			<trkpt lat="50.86242312527458" lon="6.647187193063335">
				<ele>137.0</ele>
				<time>2011-02-17T15:47:08Z</time>
			</trkpt>
			<trkpt lat="50.862406427548876" lon="6.647157867507607">
				<ele>136.0</ele>
				<time>2011-02-17T15:47:09Z</time>
			</trkpt>
			<trkpt lat="50.862385642584115" lon="6.647121648126572">
				<ele>136.0</ele>
				<time>2011-02-17T15:47:10Z</time>
			</trkpt>
			<trkpt lat="50.86236403910359" lon="6.6470839221739855">
				<ele>136.0</ele>
				<time>2011-02-17T15:47:11Z</time>
			</trkpt>
			<trkpt lat="50.86234252719479" lon="6.647046764648844">
				<ele>136.0</ele>
				<time>2011-02-17T15:47:12Z</time>
			</trkpt>
			<trkpt lat="50.86232038646546" lon="6.64700819466704">
				<ele>135.0</ele>
				<time>2011-02-17T15:47:13Z</time>
			</trkpt>
			<trkpt lat="50.86227427270807" lon="6.646921416226427">
				<ele>134.0</ele>
				<time>2011-02-17T15:47:14Z</time>
			</trkpt>
			<trkpt lat="50.86222809523" lon="6.646829932174585">
				<ele>133.0</ele>
				<time>2011-02-17T15:47:15Z</time>
			</trkpt>
			<trkpt lat="50.86217963690314" lon="6.64672868163569">
				<ele>133.0</ele>
				<time>2011-02-17T15:47:16Z</time>
			</trkpt>
			<trkpt lat="50.862130655977914" lon="6.64662014802248">
				<ele>132.0</ele>
				<time>2011-02-17T15:47:17Z</time>
			</trkpt>
			<trkpt lat="50.86208079654582" lon="6.646508344672376">
				<ele>132.0</ele>
				<time>2011-02-17T15:47:18Z</time>
			</trkpt>
			<trkpt lat="50.86203000804932" lon="6.646389202368557">
				<ele>132.0</ele>
				<time>2011-02-17T15:47:19Z</time>
			</trkpt>
			<trkpt lat="50.861977366485455" lon="6.646265720575402">
				<ele>132.0</ele>
				<time>2011-02-17T15:47:20Z</time>
			</trkpt>
			<trkpt lat="50.86192484006864" lon="6.646137128609867">
				<ele>132.0</ele>
				<time>2011-02-17T15:47:21Z</time>
			</trkpt>
			<trkpt lat="50.861871470548444" lon="6.6460077728966445">
				<ele>131.0</ele>
				<time>2011-02-17T15:47:22Z</time>
			</trkpt>
			<trkpt lat="50.86181655687668" lon="6.645876658975892">
				<ele>132.0</ele>
				<time>2011-02-17T15:47:23Z</time>
			</trkpt>
			<trkpt lat="50.861763149383975" lon="6.645748738364078">
				<ele>132.0</ele>
				<time>2011-02-17T15:47:24Z</time>
			</trkpt>
			<trkpt lat="50.86171257931407" lon="6.645629043705487">
				<ele>132.0</ele>
				<time>2011-02-17T15:47:25Z</time>
			</trkpt>
			<trkpt lat="50.86166241205288" lon="6.645511232316141">
				<ele>132.0</ele>
				<time>2011-02-17T15:47:26Z</time>
			</trkpt>
			<trkpt lat="50.86161166671029" lon="6.6453920973672975">
				<ele>133.0</ele>
				<time>2011-02-17T15:47:27Z</time>
			</trkpt>
			<trkpt lat="50.86155833059118" lon="6.645267497970284">
				<ele>133.0</ele>
				<time>2011-02-17T15:47:28Z</time>
			</trkpt>
			<trkpt lat="50.86150466761587" lon="6.645142643685484">
				<ele>134.0</ele>
				<time>2011-02-17T15:47:29Z</time>
			</trkpt>
			<trkpt lat="50.86145077915809" lon="6.645018837645735">
				<ele>134.0</ele>
				<time>2011-02-17T15:47:30Z</time>
			</trkpt>
			<trkpt lat="50.86139586460842" lon="6.644892619181588">
				<ele>134.0</ele>
				<time>2011-02-17T15:47:31Z</time>
			</trkpt>
			<trkpt lat="50.86134049646987" lon="6.6447644163802195">
				<ele>134.0</ele>
				<time>2011-02-17T15:47:32Z</time>
			</trkpt>
			<trkpt lat="50.86128624466741" lon="6.644636611299764">
				<ele>135.0</ele>
				<time>2011-02-17T15:47:33Z</time>
			</trkpt>
			<trkpt lat="50.86123058462745" lon="6.6445046076889565">
				<ele>135.0</ele>
				<time>2011-02-17T15:47:34Z</time>
			</trkpt>
			<trkpt lat="50.861173842354624" lon="6.644370338704184">
				<ele>135.0</ele>
				<time>2011-02-17T15:47:35Z</time>
			</trkpt>
			<trkpt lat="50.86111582786686" lon="6.644233670853546">
				<ele>136.0</ele>
				<time>2011-02-17T15:47:36Z</time>
			</trkpt>
			<trkpt lat="50.86105806532543" lon="6.644097658874091">
				<ele>136.0</ele>
				<time>2011-02-17T15:47:37Z</time>
			</trkpt>
			<trkpt lat="50.86099969163075" lon="6.643960033424307">
				<ele>137.0</ele>
				<time>2011-02-17T15:47:38Z</time>
			</trkpt>
			<trkpt lat="50.86094019304668" lon="6.643820045282348">
				<ele>137.0</ele>
				<time>2011-02-17T15:47:39Z</time>
			</trkpt>
			<trkpt lat="50.86087955718101" lon="6.6436774901464775">
				<ele>137.0</ele>
				<time>2011-02-17T15:47:40Z</time>
			</trkpt>
			<trkpt lat="50.86081896965136" lon="6.643534571063239">
				<ele>137.0</ele>
				<time>2011-02-17T15:47:41Z</time>
			</trkpt>
			<trkpt lat="50.86075914383848" lon="6.643393311453888">
				<ele>138.0</ele>
				<time>2011-02-17T15:47:42Z</time>
			</trkpt>
			<trkpt lat="50.860701352744016" lon="6.643252002130515">
				<ele>138.0</ele>
				<time>2011-02-17T15:47:43Z</time>
			</trkpt>
			<trkpt lat="50.86064538328034" lon="6.643116475788777">
				<ele>138.0</ele>
				<time>2011-02-17T15:47:44Z</time>
			</trkpt>
			<trkpt lat="50.86058955812304" lon="6.642981826225738">
				<ele>138.0</ele>
				<time>2011-02-17T15:47:45Z</time>
			</trkpt>
			<trkpt lat="50.86053019950239" lon="6.642846936668819">
				<ele>138.0</ele>
				<time>2011-02-17T15:47:46Z</time>
			</trkpt>
			<trkpt lat="50.86046999471028" lon="6.64270987713851">
				<ele>138.0</ele>
				<time>2011-02-17T15:47:47Z</time>
			</trkpt>
			<trkpt lat="50.860409278416505" lon="6.642571129611249">
				<ele>138.0</ele>
				<time>2011-02-17T15:47:48Z</time>
			</trkpt>
			<trkpt lat="50.86034942120131" lon="6.642433363723291">
				<ele>138.0</ele>
				<time>2011-02-17T15:47:49Z</time>
			</trkpt>
			<trkpt lat="50.86029308738018" lon="6.642303354798013">
				<ele>138.0</ele>
				<time>2011-02-17T15:47:50Z</time>
			</trkpt>
			<trkpt lat="50.860237459404274" lon="6.642172849928538">
				<ele>138.0</ele>
				<time>2011-02-17T15:47:51Z</time>
			</trkpt>
			<trkpt lat="50.86018403345797" lon="6.642041725186851">
				<ele>138.0</ele>
				<time>2011-02-17T15:47:52Z</time>
			</trkpt>
			<trkpt lat="50.86012700243325" lon="6.64190342945698">
				<ele>138.0</ele>
				<time>2011-02-17T15:47:53Z</time>
			</trkpt>
			<trkpt lat="50.860064014377556" lon="6.641758275275738">
				<ele>138.0</ele>
				<time>2011-02-17T15:47:54Z</time>
			</trkpt>
			<trkpt lat="50.85999743720889" lon="6.641603944831292">
				<ele>138.0</ele>
				<time>2011-02-17T15:47:55Z</time>
			</trkpt>
			<trkpt lat="50.85992954597725" lon="6.641436657466795">
				<ele>138.0</ele>
				<time>2011-02-17T15:47:56Z</time>
			</trkpt>
			<trkpt lat="50.85986136417675" lon="6.641265136569754">
				<ele>139.0</ele>
				<time>2011-02-17T15:47:57Z</time>
			</trkpt>
			<trkpt lat="50.8597921695952" lon="6.6410914337657925">
				<ele>139.0</ele>
				<time>2011-02-17T15:47:58Z</time>
			</trkpt>
			<trkpt lat="50.85972213341041" lon="6.64091753276637">
				<ele>139.0</ele>
				<time>2011-02-17T15:47:59Z</time>
			</trkpt>
			<trkpt lat="50.85965307226875" lon="6.640746996982345">
				<ele>139.0</ele>
				<time>2011-02-17T15:48:00Z</time>
			</trkpt>
			<trkpt lat="50.85958409834906" lon="6.640578286691528">
				<ele>139.0</ele>
				<time>2011-02-17T15:48:01Z</time>
			</trkpt>
			<trkpt lat="50.85951455074568" lon="6.640413515679136">
				<ele>139.0</ele>
				<time>2011-02-17T15:48:02Z</time>
			</trkpt>
			<trkpt lat="50.85944593573466" lon="6.640249192702357">
				<ele>139.0</ele>
				<time>2011-02-17T15:48:03Z</time>
			</trkpt>
			<trkpt lat="50.85937872950984" lon="6.640087648639924">
				<ele>139.0</ele>
				<time>2011-02-17T15:48:04Z</time>
			</trkpt>
			<trkpt lat="50.859313329900615" lon="6.639930777404684">
				<ele>140.0</ele>
				<time>2011-02-17T15:48:05Z</time>
			</trkpt>
			<trkpt lat="50.85924896619423" lon="6.6397767187951775">
				<ele>140.0</ele>
				<time>2011-02-17T15:48:06Z</time>
			</trkpt>
			<trkpt lat="50.859187004547174" lon="6.639627370417636">
				<ele>140.0</ele>
				<time>2011-02-17T15:48:07Z</time>
			</trkpt>
			<trkpt lat="50.859127354310395" lon="6.6394833480800575">
				<ele>140.0</ele>
				<time>2011-02-17T15:48:08Z</time>
			</trkpt>
			<trkpt lat="50.859070430437974" lon="6.639345739994168">
				<ele>140.0</ele>
				<time>2011-02-17T15:48:09Z</time>
			</trkpt>
			<trkpt lat="50.859017109696254" lon="6.639212624625718">
				<ele>140.0</ele>
				<time>2011-02-17T15:48:10Z</time>
			</trkpt>
			<trkpt lat="50.85896551045151" lon="6.639084986123569">
				<ele>140.0</ele>
				<time>2011-02-17T15:48:11Z</time>
			</trkpt>
			<trkpt lat="50.858915693750646" lon="6.638962384471442">
				<ele>140.0</ele>
				<time>2011-02-17T15:48:12Z</time>
			</trkpt>
			<trkpt lat="50.85886705942387" lon="6.638843792006461">
				<ele>140.0</ele>
				<time>2011-02-17T15:48:13Z</time>
			</trkpt>
			<trkpt lat="50.8588166449808" lon="6.638729010584399">
				<ele>139.0</ele>
				<time>2011-02-17T15:48:14Z</time>
			</trkpt>
			<trkpt lat="50.85876260168675" lon="6.638606662505123">
				<ele>139.0</ele>
				<time>2011-02-17T15:48:15Z</time>
			</trkpt>
			<trkpt lat="50.858705118430244" lon="6.638476549491958">
				<ele>139.0</ele>
				<time>2011-02-17T15:48:16Z</time>
			</trkpt>
			<trkpt lat="50.858645728071025" lon="6.638341985632329">
				<ele>139.0</ele>
				<time>2011-02-17T15:48:17Z</time>
			</trkpt>
			<trkpt lat="50.85858779888114" lon="6.638204249354205">
				<ele>139.0</ele>
				<time>2011-02-17T15:48:18Z</time>
			</trkpt>
			<trkpt lat="50.85852876214598" lon="6.638064859792161">
				<ele>138.0</ele>
				<time>2011-02-17T15:48:19Z</time>
			</trkpt>
			<trkpt lat="50.85846872573148" lon="6.637923408444618">
				<ele>138.0</ele>
				<time>2011-02-17T15:48:20Z</time>
			</trkpt>
			<trkpt lat="50.85840794454124" lon="6.637779954491948">
				<ele>138.0</ele>
				<time>2011-02-17T15:48:21Z</time>
			</trkpt>
			<trkpt lat="50.85834753754876" lon="6.637636579518181">
				<ele>138.0</ele>
				<time>2011-02-17T15:48:22Z</time>
			</trkpt>
			<trkpt lat="50.85828775265221" lon="6.6374927136800554">
				<ele>138.0</ele>
				<time>2011-02-17T15:48:23Z</time>
			</trkpt>
			<trkpt lat="50.85822915052917" lon="6.637349832193913">
				<ele>138.0</ele>
				<time>2011-02-17T15:48:24Z</time>
			</trkpt>
			<trkpt lat="50.85817212433766" lon="6.637207646039657">
				<ele>138.0</ele>
				<time>2011-02-17T15:48:25Z</time>
			</trkpt>
			<trkpt lat="50.85811567953054" lon="6.637059830040505">
				<ele>139.0</ele>
				<time>2011-02-17T15:48:26Z</time>
			</trkpt>
			<trkpt lat="50.85805967313153" lon="6.636917613214607">
				<ele>139.0</ele>
				<time>2011-02-17T15:48:27Z</time>
			</trkpt>
			<trkpt lat="50.85800473265294" lon="6.6367794476485615">
				<ele>139.0</ele>
				<time>2011-02-17T15:48:28Z</time>
			</trkpt>
			<trkpt lat="50.857951395575505" lon="6.636645837673152">
				<ele>139.0</ele>
				<time>2011-02-17T15:48:29Z</time>
			</trkpt>
			<trkpt lat="50.85789656558283" lon="6.63651446474911">
				<ele>139.0</ele>
				<time>2011-02-17T15:48:30Z</time>
			</trkpt>
			<trkpt lat="50.85784300632499" lon="6.636386386272784">
				<ele>139.0</ele>
				<time>2011-02-17T15:48:31Z</time>
			</trkpt>
			<trkpt lat="50.85779147395672" lon="6.636264334057654">
				<ele>139.0</ele>
				<time>2011-02-17T15:48:32Z</time>
			</trkpt>
			<trkpt lat="50.85774091003785" lon="6.636145441472958">
				<ele>139.0</ele>
				<time>2011-02-17T15:48:33Z</time>
			</trkpt>
			<trkpt lat="50.85769216509455" lon="6.636031852452636">
				<ele>139.0</ele>
				<time>2011-02-17T15:48:34Z</time>
			</trkpt>
			<trkpt lat="50.85764383125296" lon="6.635924522686984">
				<ele>139.0</ele>
				<time>2011-02-17T15:48:35Z</time>
			</trkpt>
			<trkpt lat="50.85759593298608" lon="6.63581731091467">
				<ele>138.0</ele>
				<time>2011-02-17T15:48:36Z</time>
			</trkpt>
			<trkpt lat="50.85754734248065" lon="6.635709712748818">
				<ele>138.0</ele>
				<time>2011-02-17T15:48:37Z</time>
			</trkpt>
			<trkpt lat="50.857496806192394" lon="6.635604382199659">
				<ele>138.0</ele>
				<time>2011-02-17T15:48:38Z</time>
			</trkpt>
			<trkpt lat="50.857444452613834" lon="6.63550180206021">
				<ele>138.0</ele>
				<time>2011-02-17T15:48:39Z</time>
			</trkpt>
			<trkpt lat="50.85739057134826" lon="6.635400913960998">
				<ele>137.0</ele>
				<time>2011-02-17T15:48:40Z</time>
			</trkpt>
			<trkpt lat="50.857332855689556" lon="6.635297994336684">
				<ele>137.0</ele>
				<time>2011-02-17T15:48:41Z</time>
			</trkpt>
			<trkpt lat="50.85727223278037" lon="6.635190535545654">
				<ele>137.0</ele>
				<time>2011-02-17T15:48:42Z</time>
			</trkpt>
			<trkpt lat="50.85721321566846" lon="6.635086890192678">
				<ele>137.0</ele>
				<time>2011-02-17T15:48:43Z</time>
			</trkpt>
			<trkpt lat="50.85715444934522" lon="6.634983112240358">
				<ele>137.0</ele>
				<time>2011-02-17T15:48:44Z</time>
			</trkpt>
			<trkpt lat="50.85709436774641" lon="6.634876887254939">
				<ele>138.0</ele>
				<time>2011-02-17T15:48:45Z</time>
			</trkpt>
			<trkpt lat="50.85703328024928" lon="6.634768297481345">
				<ele>138.0</ele>
				<time>2011-02-17T15:48:46Z</time>
			</trkpt>
			<trkpt lat="50.856967874448536" lon="6.634655520496643">
				<ele>138.0</ele>
				<time>2011-02-17T15:48:47Z</time>
			</trkpt>
			<trkpt lat="50.85689915678857" lon="6.634537151001144">
				<ele>138.0</ele>
				<time>2011-02-17T15:48:48Z</time>
			</trkpt>
			<trkpt lat="50.85682907128516" lon="6.6344173536495115">
				<ele>138.0</ele>
				<time>2011-02-17T15:48:49Z</time>
			</trkpt>
			<trkpt lat="50.85675767470562" lon="6.634300026324098">
				<ele>138.0</ele>
				<time>2011-02-17T15:48:50Z</time>
			</trkpt>
			<trkpt lat="50.85668759462198" lon="6.634183817426757">
				<ele>138.0</ele>
				<time>2011-02-17T15:48:51Z</time>
			</trkpt>
			<trkpt lat="50.856617343026834" lon="6.634066477348128">
				<ele>138.0</ele>
				<time>2011-02-17T15:48:52Z</time>
			</trkpt>
			<trkpt lat="50.85655099441888" lon="6.633951567353295">
				<ele>138.0</ele>
				<time>2011-02-17T15:48:53Z</time>
			</trkpt>
			<trkpt lat="50.85648411870542" lon="6.633836148438981">
				<ele>138.0</ele>
				<time>2011-02-17T15:48:54Z</time>
			</trkpt>
			<trkpt lat="50.85641777813604" lon="6.6337213419184335">
				<ele>138.0</ele>
				<time>2011-02-17T15:48:55Z</time>
			</trkpt>
			<trkpt lat="50.85635464492737" lon="6.63360459728828">
				<ele>138.0</ele>
				<time>2011-02-17T15:48:56Z</time>
			</trkpt>
			<trkpt lat="50.85629319462933" lon="6.633482330290653">
				<ele>137.0</ele>
				<time>2011-02-17T15:48:57Z</time>
			</trkpt>
			<trkpt lat="50.85623057699121" lon="6.6333558276744675">
				<ele>137.0</ele>
				<time>2011-02-17T15:48:58Z</time>
			</trkpt>
			<trkpt lat="50.8561705200956" lon="6.633226532829005">
				<ele>137.0</ele>
				<time>2011-02-17T15:48:59Z</time>
			</trkpt>
			<trkpt lat="50.85611118528462" lon="6.633099513765807">
				<ele>137.0</ele>
				<time>2011-02-17T15:49:00Z</time>
			</trkpt>
			<trkpt lat="50.85604941433904" lon="6.6329736505576635">
				<ele>136.0</ele>
				<time>2011-02-17T15:49:01Z</time>
			</trkpt>
			<trkpt lat="50.85598799988582" lon="6.632848046480515">
				<ele>136.0</ele>
				<time>2011-02-17T15:49:02Z</time>
			</trkpt>
			<trkpt lat="50.85592886521289" lon="6.632720621526009">
				<ele>136.0</ele>
				<time>2011-02-17T15:49:03Z</time>
			</trkpt>
			<trkpt lat="50.85586875139157" lon="6.632596553591742">
				<ele>136.0</ele>
				<time>2011-02-17T15:49:04Z</time>
			</trkpt>
			<trkpt lat="50.85580864762737" lon="6.632476208367875">
				<ele>136.0</ele>
				<time>2011-02-17T15:49:05Z</time>
			</trkpt>
			<trkpt lat="50.85574685599928" lon="6.632362085321202">
				<ele>136.0</ele>
				<time>2011-02-17T15:49:06Z</time>
			</trkpt>
			<trkpt lat="50.855684234759465" lon="6.632254399699222">
				<ele>136.0</ele>
				<time>2011-02-17T15:49:07Z</time>
			</trkpt>
			<trkpt lat="50.85562728292434" lon="6.632153378381334">
				<ele>136.0</ele>
				<time>2011-02-17T15:49:08Z</time>
			</trkpt>
			<trkpt lat="50.85556888657325" lon="6.632056659637492">
				<ele>136.0</ele>
				<time>2011-02-17T15:49:09Z</time>
			</trkpt>
			<trkpt lat="50.85551076326182" lon="6.631960636265292">
				<ele>136.0</ele>
				<time>2011-02-17T15:49:10Z</time>
			</trkpt>
			<trkpt lat="50.85545621957925" lon="6.63186440465473">
				<ele>135.0</ele>
				<time>2011-02-17T15:49:11Z</time>
			</trkpt>
			<trkpt lat="50.85539742829853" lon="6.631769342852353">
				<ele>135.0</ele>
				<time>2011-02-17T15:49:12Z</time>
			</trkpt>
			<trkpt lat="50.85533841508988" lon="6.631674802530575">
				<ele>135.0</ele>
				<time>2011-02-17T15:49:13Z</time>
			</trkpt>
			<trkpt lat="50.85527771209746" lon="6.631581348266686">
				<ele>135.0</ele>
				<time>2011-02-17T15:49:14Z</time>
			</trkpt>
			<trkpt lat="50.85521812293588" lon="6.631489580831046">
				<ele>135.0</ele>
				<time>2011-02-17T15:49:15Z</time>
			</trkpt>
			<trkpt lat="50.85515721600968" lon="6.631401147122193">
				<ele>135.0</ele>
				<time>2011-02-17T15:49:16Z</time>
			</trkpt>
			<trkpt lat="50.85509453072664" lon="6.631314194658972">
				<ele>135.0</ele>
				<time>2011-02-17T15:49:17Z</time>
			</trkpt>
			<trkpt lat="50.85502831903317" lon="6.63122679278093">
				<ele>135.0</ele>
				<time>2011-02-17T15:49:18Z</time>
			</trkpt>
			<trkpt lat="50.8549572395372" lon="6.63113721382435">
				<ele>135.0</ele>
				<time>2011-02-17T15:49:19Z</time>
			</trkpt>
			<trkpt lat="50.8548819350834" lon="6.631050409256683">
				<ele>135.0</ele>
				<time>2011-02-17T15:49:20Z</time>
			</trkpt>
			<trkpt lat="50.85480456497055" lon="6.630962589554843">
				<ele>135.0</ele>
				<time>2011-02-17T15:49:21Z</time>
			</trkpt>
			<trkpt lat="50.85472419903471" lon="6.630881250381603">
				<ele>135.0</ele>
				<time>2011-02-17T15:49:22Z</time>
			</trkpt>
			<trkpt lat="50.854646233175075" lon="6.630800937628732">
				<ele>135.0</ele>
				<time>2011-02-17T15:49:23Z</time>
			</trkpt>
			<trkpt lat="50.8545698739063" lon="6.630720397074457">
				<ele>135.0</ele>
				<time>2011-02-17T15:49:24Z</time>
			</trkpt>
			<trkpt lat="50.85449548982225" lon="6.630640574451628">
				<ele>135.0</ele>
				<time>2011-02-17T15:49:25Z</time>
			</trkpt>
			<trkpt lat="50.8544231558018" lon="6.630563558036872">
				<ele>135.0</ele>
				<time>2011-02-17T15:49:26Z</time>
			</trkpt>
			<trkpt lat="50.854351685276086" lon="6.630492367360539">
				<ele>136.0</ele>
				<time>2011-02-17T15:49:27Z</time>
			</trkpt>
			<trkpt lat="50.85428028253988" lon="6.630421313109727">
				<ele>136.0</ele>
				<time>2011-02-17T15:49:28Z</time>
			</trkpt>
			<trkpt lat="50.854209579865085" lon="6.630346645589719">
				<ele>136.0</ele>
				<time>2011-02-17T15:49:29Z</time>
			</trkpt>
			<trkpt lat="50.854137621279754" lon="6.630274733839901">
				<ele>136.0</ele>
				<time>2011-02-17T15:49:30Z</time>
			</trkpt>
			<trkpt lat="50.85406647338974" lon="6.63020300866553">
				<ele>136.0</ele>
				<time>2011-02-17T15:49:31Z</time>
			</trkpt>
			<trkpt lat="50.853994344235566" lon="6.630136523636295">
				<ele>136.0</ele>
				<time>2011-02-17T15:49:32Z</time>
			</trkpt>
			<trkpt lat="50.85392341067959" lon="6.6300713965294875">
				<ele>136.0</ele>
				<time>2011-02-17T15:49:33Z</time>
			</trkpt>
			<trkpt lat="50.853855584994776" lon="6.630008965002429">
				<ele>136.0</ele>
				<time>2011-02-17T15:49:34Z</time>
			</trkpt>
			<trkpt lat="50.85379214889315" lon="6.629953859043286">
				<ele>136.0</ele>
				<time>2011-02-17T15:49:35Z</time>
			</trkpt>
			<trkpt lat="50.853731883306814" lon="6.62989971896674">
				<ele>136.0</ele>
				<time>2011-02-17T15:49:36Z</time>
			</trkpt>
			<trkpt lat="50.85367223349052" lon="6.629843827453424">
				<ele>136.0</ele>
				<time>2011-02-17T15:49:37Z</time>
			</trkpt>
			<trkpt lat="50.85361092471409" lon="6.629786568715761">
				<ele>136.0</ele>
				<time>2011-02-17T15:49:38Z</time>
			</trkpt>
			<trkpt lat="50.853543938679245" lon="6.6297228878746175">
				<ele>136.0</ele>
				<time>2011-02-17T15:49:39Z</time>
			</trkpt>
			<trkpt lat="50.8534712226382" lon="6.629653574523389">
				<ele>136.0</ele>
				<time>2011-02-17T15:49:40Z</time>
			</trkpt>
			<trkpt lat="50.853394195187384" lon="6.629580107559332">
				<ele>136.0</ele>
				<time>2011-02-17T15:49:41Z</time>
			</trkpt>
			<trkpt lat="50.85331443502381" lon="6.629504509253065">
				<ele>136.0</ele>
				<time>2011-02-17T15:49:42Z</time>
			</trkpt>
			<trkpt lat="50.85323175667934" lon="6.629427761520558">
				<ele>136.0</ele>
				<time>2011-02-17T15:49:43Z</time>
			</trkpt>
			<trkpt lat="50.853151871991045" lon="6.629348756470927">
				<ele>136.0</ele>
				<time>2011-02-17T15:49:44Z</time>
			</trkpt>
			<trkpt lat="50.85307176676152" lon="6.629269558046083">
				<ele>136.0</ele>
				<time>2011-02-17T15:49:45Z</time>
			</trkpt>
			<trkpt lat="50.85299241619833" lon="6.629191797737209">
				<ele>136.0</ele>
				<time>2011-02-17T15:49:46Z</time>
			</trkpt>
			<trkpt lat="50.85291392919884" lon="6.629115640932999">
				<ele>137.0</ele>
				<time>2011-02-17T15:49:47Z</time>
			</trkpt>
			<trkpt lat="50.852836506376356" lon="6.629040339167637">
				<ele>137.0</ele>
				<time>2011-02-17T15:49:48Z</time>
			</trkpt>
			<trkpt lat="50.852759617251834" lon="6.628964842049052">
				<ele>137.0</ele>
				<time>2011-02-17T15:49:49Z</time>
			</trkpt>
			<trkpt lat="50.85268288435202" lon="6.628890770124366">
				<ele>137.0</ele>
				<time>2011-02-17T15:49:50Z</time>
			</trkpt>
			<trkpt lat="50.852606984377374" lon="6.628817066096192">
				<ele>138.0</ele>
				<time>2011-02-17T15:49:51Z</time>
			</trkpt>
			<trkpt lat="50.852531817115306" lon="6.628740251086683">
				<ele>138.0</ele>
				<time>2011-02-17T15:49:52Z</time>
			</trkpt>
			<trkpt lat="50.85245528798009" lon="6.628661637403812">
				<ele>138.0</ele>
				<time>2011-02-17T15:49:53Z</time>
			</trkpt>
			<trkpt lat="50.8523795955272" lon="6.628580240641482">
				<ele>138.0</ele>
				<time>2011-02-17T15:49:54Z</time>
			</trkpt>
			<trkpt lat="50.85230377893538" lon="6.628498125844451">
				<ele>138.0</ele>
				<time>2011-02-17T15:49:55Z</time>
			</trkpt>
			<trkpt lat="50.85222806460147" lon="6.628415939456978">
				<ele>138.0</ele>
				<time>2011-02-17T15:49:56Z</time>
			</trkpt>
			<trkpt lat="50.85215253278038" lon="6.628333945705639">
				<ele>139.0</ele>
				<time>2011-02-17T15:49:57Z</time>
			</trkpt>
			<trkpt lat="50.85207751945869" lon="6.628251914731071">
				<ele>139.0</ele>
				<time>2011-02-17T15:49:58Z</time>
			</trkpt>
			<trkpt lat="50.852003156252806" lon="6.628169976545053">
				<ele>139.0</ele>
				<time>2011-02-17T15:49:59Z</time>
			</trkpt>
			<trkpt lat="50.85193008074185" lon="6.628089090101877">
				<ele>139.0</ele>
				<time>2011-02-17T15:50:00Z</time>
			</trkpt>
			<trkpt lat="50.851859361965" lon="6.628004624453208">
				<ele>139.0</ele>
				<time>2011-02-17T15:50:01Z</time>
			</trkpt>
			<trkpt lat="50.85179338528283" lon="6.6279193730158505">
				<ele>139.0</ele>
				<time>2011-02-17T15:50:02Z</time>
			</trkpt>
			<trkpt lat="50.851733822196316" lon="6.62783268590543">
				<ele>139.0</ele>
				<time>2011-02-17T15:50:03Z</time>
			</trkpt>
			<trkpt lat="50.85167850197208" lon="6.627737284668158">
				<ele>139.0</ele>
				<time>2011-02-17T15:50:04Z</time>
			</trkpt>
			<trkpt lat="50.85162781947301" lon="6.627632277462084">
				<ele>139.0</ele>
				<time>2011-02-17T15:50:05Z</time>
			</trkpt>
			<trkpt lat="50.851580806739406" lon="6.62751581748683">
				<ele>139.0</ele>
				<time>2011-02-17T15:50:06Z</time>
			</trkpt>
			<trkpt lat="50.85153765053625" lon="6.627390674555712">
				<ele>139.0</ele>
				<time>2011-02-17T15:50:07Z</time>
			</trkpt>
			<trkpt lat="50.851497973823534" lon="6.627256822498237">
				<ele>139.0</ele>
				<time>2011-02-17T15:50:08Z</time>
			</trkpt>
			<trkpt lat="50.85146057193891" lon="6.627122858570676">
				<ele>139.0</ele>
				<time>2011-02-17T15:50:09Z</time>
			</trkpt>
			<trkpt lat="50.85142509655205" lon="6.626988519743216">
				<ele>139.0</ele>
				<time>2011-02-17T15:50:10Z</time>
			</trkpt>
			<trkpt lat="50.85139079179588" lon="6.626853625204695">
				<ele>139.0</ele>
				<time>2011-02-17T15:50:11Z</time>
			</trkpt>
			<trkpt lat="50.85135606969573" lon="6.626717485584532">
				<ele>139.0</ele>
				<time>2011-02-17T15:50:12Z</time>
			</trkpt>
			<trkpt lat="50.85132060132603" lon="6.626583404459406">
				<ele>139.0</ele>
				<time>2011-02-17T15:50:13Z</time>
			</trkpt>
			<trkpt lat="50.85128424549698" lon="6.626450718609793">
				<ele>139.0</ele>
				<time>2011-02-17T15:50:14Z</time>
			</trkpt>
			<trkpt lat="50.85124701152359" lon="6.626318367970418">
				<ele>139.0</ele>
				<time>2011-02-17T15:50:15Z</time>
			</trkpt>
			<trkpt lat="50.85120763878341" lon="6.626181706292023">
				<ele>139.0</ele>
				<time>2011-02-17T15:50:16Z</time>
			</trkpt>
			<trkpt lat="50.851164947849774" lon="6.626037932036495">
				<ele>139.0</ele>
				<time>2011-02-17T15:50:17Z</time>
			</trkpt>
			<trkpt lat="50.85111767875185" lon="6.625889740271607">
				<ele>139.0</ele>
				<time>2011-02-17T15:50:18Z</time>
			</trkpt>
			<trkpt lat="50.85106856208089" lon="6.625736154788794">
				<ele>139.0</ele>
				<time>2011-02-17T15:50:19Z</time>
			</trkpt>
			<trkpt lat="50.851019064830034" lon="6.6255807997566025">
				<ele>139.0</ele>
				<time>2011-02-17T15:50:20Z</time>
			</trkpt>
			<trkpt lat="50.85096588247081" lon="6.625415655723881">
				<ele>139.0</ele>
				<time>2011-02-17T15:50:21Z</time>
			</trkpt>
			<trkpt lat="50.85091008191417" lon="6.625250952281773">
				<ele>140.0</ele>
				<time>2011-02-17T15:50:22Z</time>
			</trkpt>
			<trkpt lat="50.85085424903008" lon="6.625085488292606">
				<ele>140.0</ele>
				<time>2011-02-17T15:50:23Z</time>
			</trkpt>
			<trkpt lat="50.85079640778528" lon="6.624914114420388">
				<ele>140.0</ele>
				<time>2011-02-17T15:50:24Z</time>
			</trkpt>
			<trkpt lat="50.85073781778812" lon="6.6247327651551196">
				<ele>140.0</ele>
				<time>2011-02-17T15:50:25Z</time>
			</trkpt>
			<trkpt lat="50.850677882862" lon="6.624548140468348">
				<ele>140.0</ele>
				<time>2011-02-17T15:50:26Z</time>
			</trkpt>
			<trkpt lat="50.850617329152" lon="6.624362326782117">
				<ele>140.0</ele>
				<time>2011-02-17T15:50:27Z</time>
			</trkpt>
			<trkpt lat="50.85055850536967" lon="6.624173423110806">
				<ele>140.0</ele>
				<time>2011-02-17T15:50:28Z</time>
			</trkpt>
			<trkpt lat="50.85049908334688" lon="6.623983614139149">
				<ele>140.0</ele>
				<time>2011-02-17T15:50:29Z</time>
			</trkpt>
			<trkpt lat="50.85043692211966" lon="6.62378479252608">
				<ele>140.0</ele>
				<time>2011-02-17T15:50:30Z</time>
			</trkpt>
			<trkpt lat="50.85037543806592" lon="6.62357592785359">
				<ele>140.0</ele>
				<time>2011-02-17T15:50:31Z</time>
			</trkpt>
			<trkpt lat="50.85031272199276" lon="6.623363351252528">
				<ele>140.0</ele>
				<time>2011-02-17T15:50:32Z</time>
			</trkpt>
			<trkpt lat="50.850247789893324" lon="6.623144545725069">
				<ele>140.0</ele>
				<time>2011-02-17T15:50:33Z</time>
			</trkpt>
			<trkpt lat="50.85018085720497" lon="6.6229211753501485">
				<ele>140.0</ele>
				<time>2011-02-17T15:50:34Z</time>
			</trkpt>
			<trkpt lat="50.85011183068892" lon="6.622692193935249">
				<ele>140.0</ele>
				<time>2011-02-17T15:50:35Z</time>
			</trkpt>
			<trkpt lat="50.85004165326725" lon="6.622460852961488">
				<ele>140.0</ele>
				<time>2011-02-17T15:50:36Z</time>
			</trkpt>
			<trkpt lat="50.84996923949474" lon="6.622221565625893">
				<ele>141.0</ele>
				<time>2011-02-17T15:50:37Z</time>
			</trkpt>
			<trkpt lat="50.84989632187831" lon="6.621981149270303">
				<ele>141.0</ele>
				<time>2011-02-17T15:50:38Z</time>
			</trkpt>
			<trkpt lat="50.849823015603306" lon="6.6217411386964">
				<ele>141.0</ele>
				<time>2011-02-17T15:50:39Z</time>
			</trkpt>
			<trkpt lat="50.84974592875783" lon="6.621501205674324">
				<ele>142.0</ele>
				<time>2011-02-17T15:50:40Z</time>
			</trkpt>
			<trkpt lat="50.84966827840775" lon="6.621259313565064">
				<ele>142.0</ele>
				<time>2011-02-17T15:50:41Z</time>
			</trkpt>
			<trkpt lat="50.84959135668349" lon="6.621015993451929">
				<ele>142.0</ele>
				<time>2011-02-17T15:50:42Z</time>
			</trkpt>
			<trkpt lat="50.849515508835445" lon="6.620775874212757">
				<ele>143.0</ele>
				<time>2011-02-17T15:50:43Z</time>
			</trkpt>
			<trkpt lat="50.84944139335242" lon="6.620541503138151">
				<ele>143.0</ele>
				<time>2011-02-17T15:50:44Z</time>
			</trkpt>
			<trkpt lat="50.8493692158199" lon="6.620312558182692">
				<ele>143.0</ele>
				<time>2011-02-17T15:50:45Z</time>
			</trkpt>
			<trkpt lat="50.84929812930386" lon="6.620087736490726">
				<ele>143.0</ele>
				<time>2011-02-17T15:50:46Z</time>
			</trkpt>
			<trkpt lat="50.84922672233994" lon="6.61986275142333">
				<ele>143.0</ele>
				<time>2011-02-17T15:50:47Z</time>
			</trkpt>
			<trkpt lat="50.8491576539986" lon="6.619645944069675">
				<ele>143.0</ele>
				<time>2011-02-17T15:50:48Z</time>
			</trkpt>
			<trkpt lat="50.84909057108985" lon="6.619435554833828">
				<ele>143.0</ele>
				<time>2011-02-17T15:50:49Z</time>
			</trkpt>
			<trkpt lat="50.84902548868804" lon="6.619231108260501">
				<ele>143.0</ele>
				<time>2011-02-17T15:50:50Z</time>
			</trkpt>
			<trkpt lat="50.84896132280506" lon="6.61902871582515">
				<ele>143.0</ele>
				<time>2011-02-17T15:50:51Z</time>
			</trkpt>
			<trkpt lat="50.848899298646145" lon="6.618830691696196">
				<ele>144.0</ele>
				<time>2011-02-17T15:50:52Z</time>
			</trkpt>
			<trkpt lat="50.848841062590544" lon="6.6186443443495575">
				<ele>144.0</ele>
				<time>2011-02-17T15:50:53Z</time>
			</trkpt>
			<trkpt lat="50.84878533610525" lon="6.618464430113084">
				<ele>144.0</ele>
				<time>2011-02-17T15:50:54Z</time>
			</trkpt>
			<trkpt lat="50.84873050674641" lon="6.618286935803558">
				<ele>145.0</ele>
				<time>2011-02-17T15:50:55Z</time>
			</trkpt>
			<trkpt lat="50.8486782245197" lon="6.618115575093195">
				<ele>145.0</ele>
				<time>2011-02-17T15:50:56Z</time>
			</trkpt>
			<trkpt lat="50.84862983480838" lon="6.617947847186379">
				<ele>145.0</ele>
				<time>2011-02-17T15:50:57Z</time>
			</trkpt>
			<trkpt lat="50.84858312792582" lon="6.617786792827924">
				<ele>145.0</ele>
				<time>2011-02-17T15:50:58Z</time>
			</trkpt>
			<trkpt lat="50.84853785889373" lon="6.61763815686654">
				<ele>145.0</ele>
				<time>2011-02-17T15:50:59Z</time>
			</trkpt>
			<trkpt lat="50.848500286227285" lon="6.61751372204577">
				<ele>145.0</ele>
				<time>2011-02-17T15:51:00Z</time>
			</trkpt>
			<trkpt lat="50.84847349244795" lon="6.617420623022258">
				<ele>145.0</ele>
				<time>2011-02-17T15:51:01Z</time>
			</trkpt>
			<trkpt lat="50.84845808223985" lon="6.61736033984055">
				<ele>145.0</ele>
				<time>2011-02-17T15:51:02Z</time>
			</trkpt>
			<trkpt lat="50.84845089716542" lon="6.617329793828864">
				<ele>145.0</ele>
				<time>2011-02-17T15:51:03Z</time>
			</trkpt>
			<trkpt lat="50.84845089716542" lon="6.617329793828864">
				<ele>145.0</ele>
				<time>2011-02-17T15:51:04Z</time>
			</trkpt>
			<trkpt lat="50.84845089716542" lon="6.617329793828864">
				<ele>145.0</ele>
				<time>2011-02-17T15:51:05Z</time>
			</trkpt>
			<trkpt lat="50.84845089716542" lon="6.617329793828864">
				<ele>145.0</ele>
				<time>2011-02-17T15:51:06Z</time>
			</trkpt>
			<trkpt lat="50.84845089716542" lon="6.617329793828864">
				<ele>145.0</ele>
				<time>2011-02-17T15:51:07Z</time>
			</trkpt>
			<trkpt lat="50.848446706559024" lon="6.617291460746656">
				<ele>145.0</ele>
				<time>2011-02-17T15:51:08Z</time>
			</trkpt>
			<trkpt lat="50.84844593297799" lon="6.617259455677058">
				<ele>145.0</ele>
				<time>2011-02-17T15:51:09Z</time>
			</trkpt>
			<trkpt lat="50.84844707551839" lon="6.617216456041819">
				<ele>145.0</ele>
				<time>2011-02-17T15:51:10Z</time>
			</trkpt>
			<trkpt lat="50.84845214846569" lon="6.617157678546284">
				<ele>145.0</ele>
				<time>2011-02-17T15:51:11Z</time>
			</trkpt>
			<trkpt lat="50.84845993079749" lon="6.617094558930779">
				<ele>146.0</ele>
				<time>2011-02-17T15:51:12Z</time>
			</trkpt>
			<trkpt lat="50.848467197703194" lon="6.617024456200391">
				<ele>146.0</ele>
				<time>2011-02-17T15:51:13Z</time>
			</trkpt>
			<trkpt lat="50.84845521737923" lon="6.616945001568503">
				<ele>146.0</ele>
				<time>2011-02-17T15:51:14Z</time>
			</trkpt>
			<trkpt lat="50.848421307916894" lon="6.616869056723628">
				<ele>146.0</ele>
				<time>2011-02-17T15:51:15Z</time>
			</trkpt>
			<trkpt lat="50.8483776533571" lon="6.616790151282747">
				<ele>147.0</ele>
				<time>2011-02-17T15:51:16Z</time>
			</trkpt>
			<trkpt lat="50.84833022070689" lon="6.616709570481007">
				<ele>147.0</ele>
				<time>2011-02-17T15:51:17Z</time>
			</trkpt>
			<trkpt lat="50.848281330058" lon="6.616619343035756">
				<ele>147.0</ele>
				<time>2011-02-17T15:51:18Z</time>
			</trkpt>
			<trkpt lat="50.84823019306017" lon="6.6165097128542385">
				<ele>147.0</ele>
				<time>2011-02-17T15:51:19Z</time>
			</trkpt>
			<trkpt lat="50.84817847314478" lon="6.616381479270489">
				<ele>147.0</ele>
				<time>2011-02-17T15:51:20Z</time>
			</trkpt>
			<trkpt lat="50.848124759026696" lon="6.6162343235788885">
				<ele>148.0</ele>
				<time>2011-02-17T15:51:21Z</time>
			</trkpt>
			<trkpt lat="50.848071517144945" lon="6.616074959795403">
				<ele>148.0</ele>
				<time>2011-02-17T15:51:22Z</time>
			</trkpt>
			<trkpt lat="50.84801785058088" lon="6.615904212398036">
				<ele>148.0</ele>
				<time>2011-02-17T15:51:23Z</time>
			</trkpt>
			<trkpt lat="50.84796329717153" lon="6.6157295667531715">
				<ele>148.0</ele>
				<time>2011-02-17T15:51:24Z</time>
			</trkpt>
			<trkpt lat="50.84790795943738" lon="6.615542516145306">
				<ele>148.0</ele>
				<time>2011-02-17T15:51:25Z</time>
			</trkpt>
			<trkpt lat="50.847849493013754" lon="6.615347320874153">
				<ele>148.0</ele>
				<time>2011-02-17T15:51:26Z</time>
			</trkpt>
			<trkpt lat="50.84778990578957" lon="6.615142648453419">
				<ele>148.0</ele>
				<time>2011-02-17T15:51:27Z</time>
			</trkpt>
			<trkpt lat="50.847726719134876" lon="6.614930273281249">
				<ele>148.0</ele>
				<time>2011-02-17T15:51:28Z</time>
			</trkpt>
			<trkpt lat="50.84765946370315" lon="6.61470791236373">
				<ele>148.0</ele>
				<time>2011-02-17T15:51:29Z</time>
			</trkpt>
			<trkpt lat="50.84758944776863" lon="6.614478928412959">
				<ele>149.0</ele>
				<time>2011-02-17T15:51:30Z</time>
			</trkpt>
			<trkpt lat="50.84751977016529" lon="6.614251529567769">
				<ele>148.0</ele>
				<time>2011-02-17T15:51:31Z</time>
			</trkpt>
			<trkpt lat="50.847449681502994" lon="6.614023068945587">
				<ele>149.0</ele>
				<time>2011-02-17T15:51:32Z</time>
			</trkpt>
			<trkpt lat="50.8473781390333" lon="6.613791737030751">
				<ele>148.0</ele>
				<time>2011-02-17T15:51:33Z</time>
			</trkpt>
			<trkpt lat="50.84730495120944" lon="6.613557129820724">
				<ele>149.0</ele>
				<time>2011-02-17T15:51:34Z</time>
			</trkpt>
			<trkpt lat="50.8472315416948" lon="6.6133224151669525">
				<ele>148.0</ele>
				<time>2011-02-17T15:51:35Z</time>
			</trkpt>
			<trkpt lat="50.84715752073047" lon="6.613086352877016">
				<ele>149.0</ele>
				<time>2011-02-17T15:51:36Z</time>
			</trkpt>
			<trkpt lat="50.84708341321534" lon="6.612841796686435">
				<ele>149.0</ele>
				<time>2011-02-17T15:51:37Z</time>
			</trkpt>
			<trkpt lat="50.847008005758084" lon="6.612595164602901">
				<ele>149.0</ele>
				<time>2011-02-17T15:51:38Z</time>
			</trkpt>
			<trkpt lat="50.846932197962566" lon="6.612348636527373">
				<ele>149.0</ele>
				<time>2011-02-17T15:51:39Z</time>
			</trkpt>
			<trkpt lat="50.84685539583439" lon="6.612097902802257">
				<ele>149.0</ele>
				<time>2011-02-17T15:51:40Z</time>
			</trkpt>
			<trkpt lat="50.84677553605614" lon="6.611851397425294">
				<ele>150.0</ele>
				<time>2011-02-17T15:51:41Z</time>
			</trkpt>
			<trkpt lat="50.846697235175796" lon="6.6116056119871285">
				<ele>150.0</ele>
				<time>2011-02-17T15:51:42Z</time>
			</trkpt>
			<trkpt lat="50.84662006144053" lon="6.6113618086828385">
				<ele>150.0</ele>
				<time>2011-02-17T15:51:43Z</time>
			</trkpt>
			<trkpt lat="50.84654458522475" lon="6.61111025137521">
				<ele>150.0</ele>
				<time>2011-02-17T15:51:44Z</time>
			</trkpt>
			<trkpt lat="50.84646804030558" lon="6.610855274366467">
				<ele>150.0</ele>
				<time>2011-02-17T15:51:45Z</time>
			</trkpt>
			<trkpt lat="50.846390726860086" lon="6.61059666047506">
				<ele>150.0</ele>
				<time>2011-02-17T15:51:46Z</time>
			</trkpt>
			<trkpt lat="50.84631340799968" lon="6.610338276672915">
				<ele>150.0</ele>
				<time>2011-02-17T15:51:47Z</time>
			</trkpt>
			<trkpt lat="50.84623496248762" lon="6.61007758712971">
				<ele>150.0</ele>
				<time>2011-02-17T15:51:48Z</time>
			</trkpt>
			<trkpt lat="50.846154663021004" lon="6.6098129999015685">
				<ele>150.0</ele>
				<time>2011-02-17T15:51:49Z</time>
			</trkpt>
			<trkpt lat="50.846072908223654" lon="6.6095447200191755">
				<ele>150.0</ele>
				<time>2011-02-17T15:51:50Z</time>
			</trkpt>
			<trkpt lat="50.845990409107934" lon="6.6092746954445465">
				<ele>150.0</ele>
				<time>2011-02-17T15:51:51Z</time>
			</trkpt>
			<trkpt lat="50.84590654715899" lon="6.609001139826479">
				<ele>150.0</ele>
				<time>2011-02-17T15:51:52Z</time>
			</trkpt>
			<trkpt lat="50.84582176505799" lon="6.608725209626736">
				<ele>150.0</ele>
				<time>2011-02-17T15:51:53Z</time>
			</trkpt>
			<trkpt lat="50.845732838713865" lon="6.608449960148192">
				<ele>151.0</ele>
				<time>2011-02-17T15:51:54Z</time>
			</trkpt>
			<trkpt lat="50.84564527006247" lon="6.608177897413896">
				<ele>151.0</ele>
				<time>2011-02-17T15:51:55Z</time>
			</trkpt>
			<trkpt lat="50.84555751610758" lon="6.607907392387807">
				<ele>151.0</ele>
				<time>2011-02-17T15:51:56Z</time>
			</trkpt>
			<trkpt lat="50.84546324833633" lon="6.6076409765683195">
				<ele>152.0</ele>
				<time>2011-02-17T15:51:57Z</time>
			</trkpt>
			<trkpt lat="50.845368942248534" lon="6.6073745809145334">
				<ele>152.0</ele>
				<time>2011-02-17T15:51:58Z</time>
			</trkpt>
			<trkpt lat="50.84527376769711" lon="6.607109233045434">
				<ele>153.0</ele>
				<time>2011-02-17T15:51:59Z</time>
			</trkpt>
			<trkpt lat="50.8451784822244" lon="6.606843397977616">
				<ele>153.0</ele>
				<time>2011-02-17T15:52:00Z</time>
			</trkpt>
			<trkpt lat="50.845085058613954" lon="6.606577110531255">
				<ele>153.0</ele>
				<time>2011-02-17T15:52:01Z</time>
			</trkpt>
			<trkpt lat="50.84499222655873" lon="6.60631259383302">
				<ele>153.0</ele>
				<time>2011-02-17T15:52:02Z</time>
			</trkpt>
			<trkpt lat="50.84489917448202" lon="6.606048086266149">
				<ele>153.0</ele>
				<time>2011-02-17T15:52:03Z</time>
			</trkpt>
			<trkpt lat="50.8448057473376" lon="6.6057839868771495">
				<ele>153.0</ele>
				<time>2011-02-17T15:52:04Z</time>
			</trkpt>
			<trkpt lat="50.84471191831799" lon="6.60552110686682">
				<ele>153.0</ele>
				<time>2011-02-17T15:52:05Z</time>
			</trkpt>
			<trkpt lat="50.84461793317241" lon="6.605261116541815">
				<ele>152.0</ele>
				<time>2011-02-17T15:52:06Z</time>
			</trkpt>
			<trkpt lat="50.84452530362567" lon="6.605005253738268">
				<ele>152.0</ele>
				<time>2011-02-17T15:52:07Z</time>
			</trkpt>
			<trkpt lat="50.84443370034181" lon="6.604752881213078">
				<ele>152.0</ele>
				<time>2011-02-17T15:52:08Z</time>
			</trkpt>
			<trkpt lat="50.844342807227" lon="6.604504804393665">
				<ele>152.0</ele>
				<time>2011-02-17T15:52:09Z</time>
			</trkpt>
			<trkpt lat="50.84425344230647" lon="6.604260771283398">
				<ele>152.0</ele>
				<time>2011-02-17T15:52:10Z</time>
			</trkpt>
			<trkpt lat="50.844165625573474" lon="6.6040220651377926">
				<ele>152.0</ele>
				<time>2011-02-17T15:52:11Z</time>
			</trkpt>
			<trkpt lat="50.84407923929826" lon="6.6037871373093235">
				<ele>152.0</ele>
				<time>2011-02-17T15:52:12Z</time>
			</trkpt>
			<trkpt lat="50.843994510643164" lon="6.603565196388616">
				<ele>152.0</ele>
				<time>2011-02-17T15:52:13Z</time>
			</trkpt>
			<trkpt lat="50.843918489118224" lon="6.603361370240999">
				<ele>152.0</ele>
				<time>2011-02-17T15:52:14Z</time>
			</trkpt>
			<trkpt lat="50.84384430624381" lon="6.603159108924659">
				<ele>152.0</ele>
				<time>2011-02-17T15:52:15Z</time>
			</trkpt>
			<trkpt lat="50.843772094085764" lon="6.602959634783671">
				<ele>152.0</ele>
				<time>2011-02-17T15:52:16Z</time>
			</trkpt>
			<trkpt lat="50.8436994278019" lon="6.60275892167">
				<ele>152.0</ele>
				<time>2011-02-17T15:52:17Z</time>
			</trkpt>
			<trkpt lat="50.84362688197757" lon="6.6025565229983965">
				<ele>152.0</ele>
				<time>2011-02-17T15:52:18Z</time>
			</trkpt>
			<trkpt lat="50.843556132238724" lon="6.602349686943755">
				<ele>153.0</ele>
				<time>2011-02-17T15:52:19Z</time>
			</trkpt>
			<trkpt lat="50.84348270340826" lon="6.602138466191106">
				<ele>153.0</ele>
				<time>2011-02-17T15:52:20Z</time>
			</trkpt>
			<trkpt lat="50.8434057618458" lon="6.601918255464133">
				<ele>153.0</ele>
				<time>2011-02-17T15:52:21Z</time>
			</trkpt>
			<trkpt lat="50.84332789072973" lon="6.601697058205102">
				<ele>153.0</ele>
				<time>2011-02-17T15:52:22Z</time>
			</trkpt>
			<trkpt lat="50.84324745559713" lon="6.601470223507578">
				<ele>153.0</ele>
				<time>2011-02-17T15:52:23Z</time>
			</trkpt>
			<trkpt lat="50.84316508080545" lon="6.601238811001179">
				<ele>153.0</ele>
				<time>2011-02-17T15:52:24Z</time>
			</trkpt>
			<trkpt lat="50.84308248907516" lon="6.601006409402446">
				<ele>153.0</ele>
				<time>2011-02-17T15:52:25Z</time>
			</trkpt>
			<trkpt lat="50.842998104463476" lon="6.600770545680943">
				<ele>153.0</ele>
				<time>2011-02-17T15:52:26Z</time>
			</trkpt>
			<trkpt lat="50.84291328913221" lon="6.600533850139979">
				<ele>153.0</ele>
				<time>2011-02-17T15:52:27Z</time>
			</trkpt>
			<trkpt lat="50.842825991069944" lon="6.6002903257667835">
				<ele>153.0</ele>
				<time>2011-02-17T15:52:28Z</time>
			</trkpt>
			<trkpt lat="50.842738454879054" lon="6.600046725052808">
				<ele>153.0</ele>
				<time>2011-02-17T15:52:29Z</time>
			</trkpt>
			<trkpt lat="50.842650040663614" lon="6.5998014041260475">
				<ele>153.0</ele>
				<time>2011-02-17T15:52:30Z</time>
			</trkpt>
			<trkpt lat="50.84256118963056" lon="6.599555849718971">
				<ele>153.0</ele>
				<time>2011-02-17T15:52:31Z</time>
			</trkpt>
			<trkpt lat="50.84247170150212" lon="6.59930848281286">
				<ele>153.0</ele>
				<time>2011-02-17T15:52:32Z</time>
			</trkpt>
			<trkpt lat="50.84238171044537" lon="6.5990594290490705">
				<ele>153.0</ele>
				<time>2011-02-17T15:52:33Z</time>
			</trkpt>
			<trkpt lat="50.842291414705706" lon="6.598809997101557">
				<ele>153.0</ele>
				<time>2011-02-17T15:52:34Z</time>
			</trkpt>
			<trkpt lat="50.842201398011305" lon="6.598560217106571">
				<ele>153.0</ele>
				<time>2011-02-17T15:52:35Z</time>
			</trkpt>
			<trkpt lat="50.84211059100044" lon="6.598309454914236">
				<ele>153.0</ele>
				<time>2011-02-17T15:52:36Z</time>
			</trkpt>
			<trkpt lat="50.84201955460534" lon="6.598057113433932">
				<ele>153.0</ele>
				<time>2011-02-17T15:52:37Z</time>
			</trkpt>
			<trkpt lat="50.84192870071711" lon="6.597803033210993">
				<ele>153.0</ele>
				<time>2011-02-17T15:52:38Z</time>
			</trkpt>
			<trkpt lat="50.84183683381773" lon="6.597544080051932">
				<ele>153.0</ele>
				<time>2011-02-17T15:52:39Z</time>
			</trkpt>
			<trkpt lat="50.84174458063528" lon="6.597285472706229">
				<ele>153.0</ele>
				<time>2011-02-17T15:52:40Z</time>
			</trkpt>
			<trkpt lat="50.84165156204029" lon="6.597026666163746">
				<ele>153.0</ele>
				<time>2011-02-17T15:52:41Z</time>
			</trkpt>
			<trkpt lat="50.84155793733457" lon="6.596767136235626">
				<ele>154.0</ele>
				<time>2011-02-17T15:52:42Z</time>
			</trkpt>
			<trkpt lat="50.841464550881796" lon="6.596507908595705">
				<ele>154.0</ele>
				<time>2011-02-17T15:52:43Z</time>
			</trkpt>
			<trkpt lat="50.84137111641872" lon="6.596247369682318">
				<ele>154.0</ele>
				<time>2011-02-17T15:52:44Z</time>
			</trkpt>
			<trkpt lat="50.84127787561159" lon="6.595985519160285">
				<ele>154.0</ele>
				<time>2011-02-17T15:52:45Z</time>
			</trkpt>
			<trkpt lat="50.84118472276897" lon="6.595723452635045">
				<ele>154.0</ele>
				<time>2011-02-17T15:52:46Z</time>
			</trkpt>
			<trkpt lat="50.84109158629874" lon="6.5954616050808665">
				<ele>154.0</ele>
				<time>2011-02-17T15:52:47Z</time>
			</trkpt>
			<trkpt lat="50.840999595812896" lon="6.5952029624860655">
				<ele>154.0</ele>
				<time>2011-02-17T15:52:48Z</time>
			</trkpt>
			<trkpt lat="50.8409078661693" lon="6.59494736499446">
				<ele>154.0</ele>
				<time>2011-02-17T15:52:49Z</time>
			</trkpt>
			<trkpt lat="50.840816100715756" lon="6.5946941171039315">
				<ele>154.0</ele>
				<time>2011-02-17T15:52:50Z</time>
			</trkpt>
			<trkpt lat="50.84072220157215" lon="6.594445104712831">
				<ele>154.0</ele>
				<time>2011-02-17T15:52:51Z</time>
			</trkpt>
			<trkpt lat="50.840629488808986" lon="6.5941982907107155">
				<ele>154.0</ele>
				<time>2011-02-17T15:52:52Z</time>
			</trkpt>
			<trkpt lat="50.840540605633485" lon="6.593950737732454">
				<ele>153.0</ele>
				<time>2011-02-17T15:52:53Z</time>
			</trkpt>
			<trkpt lat="50.84045215920847" lon="6.593705122683829">
				<ele>153.0</ele>
				<time>2011-02-17T15:52:54Z</time>
			</trkpt>
			<trkpt lat="50.84036435823877" lon="6.593460146156072">
				<ele>153.0</ele>
				<time>2011-02-17T15:52:55Z</time>
			</trkpt>
			<trkpt lat="50.84027710622224" lon="6.593216128861932">
				<ele>153.0</ele>
				<time>2011-02-17T15:52:56Z</time>
			</trkpt>
			<trkpt lat="50.84019006850723" lon="6.592969587643521">
				<ele>153.0</ele>
				<time>2011-02-17T15:52:57Z</time>
			</trkpt>
			<trkpt lat="50.84010338196925" lon="6.592722823262673">
				<ele>153.0</ele>
				<time>2011-02-17T15:52:58Z</time>
			</trkpt>
			<trkpt lat="50.840016786291805" lon="6.592475895547995">
				<ele>154.0</ele>
				<time>2011-02-17T15:52:59Z</time>
			</trkpt>
			<trkpt lat="50.83992987977511" lon="6.592228392884179">
				<ele>154.0</ele>
				<time>2011-02-17T15:53:00Z</time>
			</trkpt>
			<trkpt lat="50.839842063766135" lon="6.591981493768134">
				<ele>154.0</ele>
				<time>2011-02-17T15:53:01Z</time>
			</trkpt>
			<trkpt lat="50.83975374832458" lon="6.591734064689722">
				<ele>154.0</ele>
				<time>2011-02-17T15:53:02Z</time>
			</trkpt>
			<trkpt lat="50.83966657032872" lon="6.591486177743621">
				<ele>154.0</ele>
				<time>2011-02-17T15:53:03Z</time>
			</trkpt>
			<trkpt lat="50.83957882581982" lon="6.591238256598007">
				<ele>154.0</ele>
				<time>2011-02-17T15:53:04Z</time>
			</trkpt>
			<trkpt lat="50.839491377989" lon="6.59099020172931">
				<ele>154.0</ele>
				<time>2011-02-17T15:53:05Z</time>
			</trkpt>
			<trkpt lat="50.83940340029058" lon="6.590741659876429">
				<ele>154.0</ele>
				<time>2011-02-17T15:53:06Z</time>
			</trkpt>
			<trkpt lat="50.839314656610426" lon="6.59049229034578">
				<ele>154.0</ele>
				<time>2011-02-17T15:53:07Z</time>
			</trkpt>
			<trkpt lat="50.83922581710773" lon="6.590241887569219">
				<ele>154.0</ele>
				<time>2011-02-17T15:53:08Z</time>
			</trkpt>
			<trkpt lat="50.83913533074006" lon="6.589988803597807">
				<ele>154.0</ele>
				<time>2011-02-17T15:53:09Z</time>
			</trkpt>
			<trkpt lat="50.839044372545914" lon="6.589734582635899">
				<ele>154.0</ele>
				<time>2011-02-17T15:53:10Z</time>
			</trkpt>
			<trkpt lat="50.838953328828254" lon="6.589480583725171">
				<ele>154.0</ele>
				<time>2011-02-17T15:53:11Z</time>
			</trkpt>
			<trkpt lat="50.838863785102845" lon="6.589227703557776">
				<ele>155.0</ele>
				<time>2011-02-17T15:53:12Z</time>
			</trkpt>
			<trkpt lat="50.838775262949724" lon="6.58897651461841">
				<ele>155.0</ele>
				<time>2011-02-17T15:53:13Z</time>
			</trkpt>
			<trkpt lat="50.838688125910544" lon="6.58872931202447">
				<ele>155.0</ele>
				<time>2011-02-17T15:53:14Z</time>
			</trkpt>
			<trkpt lat="50.838601138449306" lon="6.588485652640655">
				<ele>154.0</ele>
				<time>2011-02-17T15:53:15Z</time>
			</trkpt>
			<trkpt lat="50.83851524110799" lon="6.588246866435037">
				<ele>154.0</ele>
				<time>2011-02-17T15:53:16Z</time>
			</trkpt>
			<trkpt lat="50.838430903226374" lon="6.588011430352167">
				<ele>155.0</ele>
				<time>2011-02-17T15:53:17Z</time>
			</trkpt>
			<trkpt lat="50.83835062578417" lon="6.587788459933838">
				<ele>155.0</ele>
				<time>2011-02-17T15:53:18Z</time>
			</trkpt>
			<trkpt lat="50.838271843387396" lon="6.587570386533016">
				<ele>155.0</ele>
				<time>2011-02-17T15:53:19Z</time>
			</trkpt>
			<trkpt lat="50.83819426825561" lon="6.587355473525199">
				<ele>155.0</ele>
				<time>2011-02-17T15:53:20Z</time>
			</trkpt>
			<trkpt lat="50.838118266676766" lon="6.5871450956678705">
				<ele>155.0</ele>
				<time>2011-02-17T15:53:21Z</time>
			</trkpt>
			<trkpt lat="50.83804339407714" lon="6.586938541599405">
				<ele>155.0</ele>
				<time>2011-02-17T15:53:22Z</time>
			</trkpt>
			<trkpt lat="50.83797068393171" lon="6.586738058688179">
				<ele>155.0</ele>
				<time>2011-02-17T15:53:23Z</time>
			</trkpt>
			<trkpt lat="50.8378997707854" lon="6.5865419356824395">
				<ele>155.0</ele>
				<time>2011-02-17T15:53:24Z</time>
			</trkpt>
			<trkpt lat="50.83783130177322" lon="6.586351789048316">
				<ele>155.0</ele>
				<time>2011-02-17T15:53:25Z</time>
			</trkpt>
			<trkpt lat="50.837765944571686" lon="6.586175931784028">
				<ele>155.0</ele>
				<time>2011-02-17T15:53:26Z</time>
			</trkpt>
			<trkpt lat="50.83770797014676" lon="6.58601701147837">
				<ele>155.0</ele>
				<time>2011-02-17T15:53:27Z</time>
			</trkpt>
			<trkpt lat="50.83765561914773" lon="6.585865072103374">
				<ele>155.0</ele>
				<time>2011-02-17T15:53:28Z</time>
			</trkpt>
			<trkpt lat="50.83760506208986" lon="6.585716242498361">
				<ele>155.0</ele>
				<time>2011-02-17T15:53:29Z</time>
			</trkpt>
			<trkpt lat="50.83755700615599" lon="6.585567222900236">
				<ele>155.0</ele>
				<time>2011-02-17T15:53:30Z</time>
			</trkpt>
			<trkpt lat="50.83751111378757" lon="6.585427195479016">
				<ele>155.0</ele>
				<time>2011-02-17T15:53:31Z</time>
			</trkpt>
			<trkpt lat="50.83746283504013" lon="6.585290752557299">
				<ele>155.0</ele>
				<time>2011-02-17T15:53:32Z</time>
			</trkpt>
			<trkpt lat="50.8374126940061" lon="6.585160022999235">
				<ele>155.0</ele>
				<time>2011-02-17T15:53:33Z</time>
			</trkpt>
			<trkpt lat="50.837362381548886" lon="6.585031153734843">
				<ele>155.0</ele>
				<time>2011-02-17T15:53:34Z</time>
			</trkpt>
			<trkpt lat="50.8373138366261" lon="6.584906995456913">
				<ele>155.0</ele>
				<time>2011-02-17T15:53:35Z</time>
			</trkpt>
			<trkpt lat="50.83726554424896" lon="6.584781515075029">
				<ele>155.0</ele>
				<time>2011-02-17T15:53:36Z</time>
			</trkpt>
			<trkpt lat="50.837218653277" lon="6.584657543032528">
				<ele>155.0</ele>
				<time>2011-02-17T15:53:37Z</time>
			</trkpt>
			<trkpt lat="50.83717522398496" lon="6.584536278967533">
				<ele>155.0</ele>
				<time>2011-02-17T15:53:38Z</time>
			</trkpt>
			<trkpt lat="50.83713236654516" lon="6.584415825049931">
				<ele>155.0</ele>
				<time>2011-02-17T15:53:39Z</time>
			</trkpt>
			<trkpt lat="50.83709301321201" lon="6.584292778191779">
				<ele>155.0</ele>
				<time>2011-02-17T15:53:40Z</time>
			</trkpt>
			<trkpt lat="50.83705441093718" lon="6.584169562989511">
				<ele>155.0</ele>
				<time>2011-02-17T15:53:41Z</time>
			</trkpt>
			<trkpt lat="50.83701267628911" lon="6.584043881647366">
				<ele>155.0</ele>
				<time>2011-02-17T15:53:42Z</time>
			</trkpt>
			<trkpt lat="50.836965583582476" lon="6.583914789883426">
				<ele>155.0</ele>
				<time>2011-02-17T15:53:43Z</time>
			</trkpt>
			<trkpt lat="50.8369166409825" lon="6.583784609827564">
				<ele>155.0</ele>
				<time>2011-02-17T15:53:44Z</time>
			</trkpt>
			<trkpt lat="50.83686504903759" lon="6.583655129368727">
				<ele>155.0</ele>
				<time>2011-02-17T15:53:45Z</time>
			</trkpt>
			<trkpt lat="50.8368151891678" lon="6.583528362987273">
				<ele>155.0</ele>
				<time>2011-02-17T15:53:46Z</time>
			</trkpt>
			<trkpt lat="50.83676755824779" lon="6.583400357598357">
				<ele>155.0</ele>
				<time>2011-02-17T15:53:47Z</time>
			</trkpt>
			<trkpt lat="50.836720331139524" lon="6.583271037512388">
				<ele>155.0</ele>
				<time>2011-02-17T15:53:48Z</time>
			</trkpt>
			<trkpt lat="50.836673999657386" lon="6.583136999892394">
				<ele>156.0</ele>
				<time>2011-02-17T15:53:49Z</time>
			</trkpt>
			<trkpt lat="50.836627099507254" lon="6.582999369678849">
				<ele>156.0</ele>
				<time>2011-02-17T15:53:50Z</time>
			</trkpt>
			<trkpt lat="50.83658225502933" lon="6.582857903949149">
				<ele>156.0</ele>
				<time>2011-02-17T15:53:51Z</time>
			</trkpt>
			<trkpt lat="50.8365378252044" lon="6.582716268967264">
				<ele>156.0</ele>
				<time>2011-02-17T15:53:52Z</time>
			</trkpt>
			<trkpt lat="50.83649825305461" lon="6.582571317377353">
				<ele>156.0</ele>
				<time>2011-02-17T15:53:53Z</time>
			</trkpt>
			<trkpt lat="50.83646049524822" lon="6.582427792716571">
				<ele>156.0</ele>
				<time>2011-02-17T15:53:54Z</time>
			</trkpt>
			<trkpt lat="50.83642837665779" lon="6.582283648598914">
				<ele>156.0</ele>
				<time>2011-02-17T15:53:55Z</time>
			</trkpt>
			<trkpt lat="50.836400432747006" lon="6.582138480518102">
				<ele>156.0</ele>
				<time>2011-02-17T15:53:56Z</time>
			</trkpt>
			<trkpt lat="50.836376185484376" lon="6.581992139386555">
				<ele>156.0</ele>
				<time>2011-02-17T15:53:57Z</time>
			</trkpt>
			<trkpt lat="50.836356147686445" lon="6.581845088707261">
				<ele>157.0</ele>
				<time>2011-02-17T15:53:58Z</time>
			</trkpt>
			<trkpt lat="50.836339034947535" lon="6.581700806656051">
				<ele>157.0</ele>
				<time>2011-02-17T15:53:59Z</time>
			</trkpt>
			<trkpt lat="50.83632501228137" lon="6.581558208994904">
				<ele>156.0</ele>
				<time>2011-02-17T15:54:00Z</time>
			</trkpt>
			<trkpt lat="50.83631340940192" lon="6.581413008749208">
				<ele>156.0</ele>
				<time>2011-02-17T15:54:01Z</time>
			</trkpt>
			<trkpt lat="50.836303506391836" lon="6.581266883689184">
				<ele>156.0</ele>
				<time>2011-02-17T15:54:02Z</time>
			</trkpt>
			<trkpt lat="50.836295541845246" lon="6.581120505620014">
				<ele>156.0</ele>
				<time>2011-02-17T15:54:03Z</time>
			</trkpt>
			<trkpt lat="50.83628854821376" lon="6.580970507640329">
				<ele>156.0</ele>
				<time>2011-02-17T15:54:04Z</time>
			</trkpt>
			<trkpt lat="50.83628287106352" lon="6.580821891134361">
				<ele>156.0</ele>
				<time>2011-02-17T15:54:05Z</time>
			</trkpt>
			<trkpt lat="50.836276146045265" lon="6.5806722546824945">
				<ele>156.0</ele>
				<time>2011-02-17T15:54:06Z</time>
			</trkpt>
			<trkpt lat="50.836268481335495" lon="6.580520726695177">
				<ele>156.0</ele>
				<time>2011-02-17T15:54:07Z</time>
			</trkpt>
			<trkpt lat="50.83626243941943" lon="6.580371032741198">
				<ele>156.0</ele>
				<time>2011-02-17T15:54:08Z</time>
			</trkpt>
			<trkpt lat="50.836259437311696" lon="6.58021749030371">
				<ele>156.0</ele>
				<time>2011-02-17T15:54:09Z</time>
			</trkpt>
			<trkpt lat="50.836255777431596" lon="6.58006348156821">
				<ele>156.0</ele>
				<time>2011-02-17T15:54:10Z</time>
			</trkpt>
			<trkpt lat="50.836251714076326" lon="6.579909082629058">
				<ele>156.0</ele>
				<time>2011-02-17T15:54:11Z</time>
			</trkpt>
			<trkpt lat="50.8362469694761" lon="6.579754921030729">
				<ele>156.0</ele>
				<time>2011-02-17T15:54:12Z</time>
			</trkpt>
			<trkpt lat="50.83623978555179" lon="6.5796025924427095">
				<ele>156.0</ele>
				<time>2011-02-17T15:54:13Z</time>
			</trkpt>
			<trkpt lat="50.83623259588834" lon="6.579451664336662">
				<ele>156.0</ele>
				<time>2011-02-17T15:54:14Z</time>
			</trkpt>
			<trkpt lat="50.83622535460269" lon="6.579304160070549">
				<ele>156.0</ele>
				<time>2011-02-17T15:54:15Z</time>
			</trkpt>
			<trkpt lat="50.83621561613987" lon="6.579161768994466">
				<ele>156.0</ele>
				<time>2011-02-17T15:54:16Z</time>
			</trkpt>
			<trkpt lat="50.83620402531805" lon="6.579022673329323">
				<ele>156.0</ele>
				<time>2011-02-17T15:54:17Z</time>
			</trkpt>
			<trkpt lat="50.83618899551573" lon="6.578886811530942">
				<ele>156.0</ele>
				<time>2011-02-17T15:54:18Z</time>
			</trkpt>
			<trkpt lat="50.83617246882043" lon="6.578756004966581">
				<ele>156.0</ele>
				<time>2011-02-17T15:54:19Z</time>
			</trkpt>
			<trkpt lat="50.83615546543845" lon="6.578625815010633">
				<ele>156.0</ele>
				<time>2011-02-17T15:54:20Z</time>
			</trkpt>
			<trkpt lat="50.83613375208539" lon="6.578494645867188">
				<ele>156.0</ele>
				<time>2011-02-17T15:54:21Z</time>
			</trkpt>
			<trkpt lat="50.836107812148825" lon="6.578357877872071">
				<ele>156.0</ele>
				<time>2011-02-17T15:54:22Z</time>
			</trkpt>
			<trkpt lat="50.83607729001757" lon="6.578219619789551">
				<ele>156.0</ele>
				<time>2011-02-17T15:54:23Z</time>
			</trkpt>
			<trkpt lat="50.836041844805706" lon="6.578081380936693">
				<ele>156.0</ele>
				<time>2011-02-17T15:54:24Z</time>
			</trkpt>
			<trkpt lat="50.83600108852091" lon="6.577947330553881">
				<ele>156.0</ele>
				<time>2011-02-17T15:54:25Z</time>
			</trkpt>
			<trkpt lat="50.83595520438652" lon="6.577812086047902">
				<ele>156.0</ele>
				<time>2011-02-17T15:54:26Z</time>
			</trkpt>
			<trkpt lat="50.83590513159026" lon="6.577675679000712">
				<ele>156.0</ele>
				<time>2011-02-17T15:54:26Z</time>
			</trkpt>
			<trkpt lat="50.835850867591155" lon="6.577532218553234">
				<ele>156.0</ele>
				<time>2011-02-17T15:54:27Z</time>
			</trkpt>
			<trkpt lat="50.83579493676308" lon="6.577383279044155">
				<ele>156.0</ele>
				<time>2011-02-17T15:54:28Z</time>
			</trkpt>
			<trkpt lat="50.83573500117521" lon="6.577226566617427">
				<ele>156.0</ele>
				<time>2011-02-17T15:54:29Z</time>
			</trkpt>
			<trkpt lat="50.83567342699457" lon="6.577062737948117">
				<ele>156.0</ele>
				<time>2011-02-17T15:54:30Z</time>
			</trkpt>
			<trkpt lat="50.835607370174806" lon="6.576890744344798">
				<ele>156.0</ele>
				<time>2011-02-17T15:54:31Z</time>
			</trkpt>
			<trkpt lat="50.83553816666878" lon="6.576708705672774">
				<ele>157.0</ele>
				<time>2011-02-17T15:54:32Z</time>
			</trkpt>
			<trkpt lat="50.83546782675985" lon="6.576521622381432">
				<ele>157.0</ele>
				<time>2011-02-17T15:54:33Z</time>
			</trkpt>
			<trkpt lat="50.83539562419726" lon="6.576327182724217">
				<ele>157.0</ele>
				<time>2011-02-17T15:54:34Z</time>
			</trkpt>
			<trkpt lat="50.83532173283657" lon="6.576125696836424">
				<ele>157.0</ele>
				<time>2011-02-17T15:54:35Z</time>
			</trkpt>
			<trkpt lat="50.83524593063244" lon="6.575917380801788">
				<ele>157.0</ele>
				<time>2011-02-17T15:54:36Z</time>
			</trkpt>
			<trkpt lat="50.83516760490165" lon="6.575702668774839">
				<ele>157.0</ele>
				<time>2011-02-17T15:54:37Z</time>
			</trkpt>
			<trkpt lat="50.83508789683586" lon="6.575484641787244">
				<ele>157.0</ele>
				<time>2011-02-17T15:54:38Z</time>
			</trkpt>
			<trkpt lat="50.83500678405115" lon="6.575264042844684">
				<ele>157.0</ele>
				<time>2011-02-17T15:54:39Z</time>
			</trkpt>
			<trkpt lat="50.83492596217975" lon="6.5750447047774845">
				<ele>158.0</ele>
				<time>2011-02-17T15:54:40Z</time>
			</trkpt>
			<trkpt lat="50.83484616989961" lon="6.574828189298539">
				<ele>158.0</ele>
				<time>2011-02-17T15:54:41Z</time>
			</trkpt>
			<trkpt lat="50.834767975349926" lon="6.574616446186951">
				<ele>158.0</ele>
				<time>2011-02-17T15:54:42Z</time>
			</trkpt>
			<trkpt lat="50.83469267850058" lon="6.5744130020431335">
				<ele>158.0</ele>
				<time>2011-02-17T15:54:43Z</time>
			</trkpt>
			<trkpt lat="50.8346197638361" lon="6.574216155291662">
				<ele>158.0</ele>
				<time>2011-02-17T15:54:44Z</time>
			</trkpt>
			<trkpt lat="50.83454750932781" lon="6.574021579606637">
				<ele>158.0</ele>
				<time>2011-02-17T15:54:45Z</time>
			</trkpt>
			<trkpt lat="50.83447744400666" lon="6.573832806274258">
				<ele>159.0</ele>
				<time>2011-02-17T15:54:46Z</time>
			</trkpt>
			<trkpt lat="50.83441475631997" lon="6.57366304182357">
				<ele>159.0</ele>
				<time>2011-02-17T15:54:47Z</time>
			</trkpt>
			<trkpt lat="50.834362631159394" lon="6.573516212654267">
				<ele>159.0</ele>
				<time>2011-02-17T15:54:48Z</time>
			</trkpt>
			<trkpt lat="50.83431958977971" lon="6.573393854576929">
				<ele>159.0</ele>
				<time>2011-02-17T15:54:49Z</time>
			</trkpt>
			<trkpt lat="50.834291720267224" lon="6.573309310364601">
				<ele>159.0</ele>
				<time>2011-02-17T15:54:50Z</time>
			</trkpt>
			<trkpt lat="50.834280286097744" lon="6.573243241360608">
				<ele>159.0</ele>
				<time>2011-02-17T15:54:51Z</time>
			</trkpt>
			<trkpt lat="50.834275088452415" lon="6.573182876241778">
				<ele>159.0</ele>
				<time>2011-02-17T15:54:52Z</time>
			</trkpt>
			<trkpt lat="50.83429102706303" lon="6.57316161291207">
				<ele>159.0</ele>
				<time>2011-02-17T15:54:53Z</time>
			</trkpt>
			<trkpt lat="50.83430878478021" lon="6.573155418494974">
				<ele>159.0</ele>
				<time>2011-02-17T15:54:54Z</time>
			</trkpt>
			<trkpt lat="50.83432548969652" lon="6.573150894832712">
				<ele>159.0</ele>
				<time>2011-02-17T15:54:55Z</time>
			</trkpt>
			<trkpt lat="50.83433985842943" lon="6.573153377114061">
				<ele>159.0</ele>
				<time>2011-02-17T15:54:56Z</time>
			</trkpt>
			<trkpt lat="50.83435289356551" lon="6.573155802628846">
				<ele>158.0</ele>
				<time>2011-02-17T15:54:57Z</time>
			</trkpt>
			<trkpt lat="50.83435289356551" lon="6.573155802628846">
				<ele>158.0</ele>
				<time>2011-02-17T15:54:58Z</time>
			</trkpt>
			<trkpt lat="50.83437688361438" lon="6.573154939077163">
				<ele>158.0</ele>
				<time>2011-02-17T15:54:59Z</time>
			</trkpt>
			<trkpt lat="50.83439102789943" lon="6.573149508024547">
				<ele>158.0</ele>
				<time>2011-02-17T15:55:00Z</time>
			</trkpt>
			<trkpt lat="50.834400741030265" lon="6.573144964476987">
				<ele>158.0</ele>
				<time>2011-02-17T15:55:01Z</time>
			</trkpt>
			<trkpt lat="50.834400741030265" lon="6.573144964476987">
				<ele>158.0</ele>
				<time>2011-02-17T15:55:02Z</time>
			</trkpt>
			<trkpt lat="50.834400741030265" lon="6.573144964476987">
				<ele>158.0</ele>
				<time>2011-02-17T15:55:03Z</time>
			</trkpt>
			<trkpt lat="50.834400741030265" lon="6.573144964476987">
				<ele>158.0</ele>
				<time>2011-02-17T15:55:04Z</time>
			</trkpt>
			<trkpt lat="50.834400741030265" lon="6.573144964476987">
				<ele>158.0</ele>
				<time>2011-02-17T15:55:05Z</time>
			</trkpt>
			<trkpt lat="50.834400741030265" lon="6.573144964476987">
				<ele>158.0</ele>
				<time>2011-02-17T15:55:06Z</time>
			</trkpt>
			<trkpt lat="50.834400741030265" lon="6.573144964476987">
				<ele>158.0</ele>
				<time>2011-02-17T15:55:07Z</time>
			</trkpt>
			<trkpt lat="50.834400741030265" lon="6.573144964476987">
				<ele>158.0</ele>
				<time>2011-02-17T15:55:08Z</time>
			</trkpt>
			<trkpt lat="50.834400741030265" lon="6.573144964476987">
				<ele>158.0</ele>
				<time>2011-02-17T15:55:09Z</time>
			</trkpt>
			<trkpt lat="50.834385288444366" lon="6.573157965871414">
				<ele>158.0</ele>
				<time>2011-02-17T15:55:10Z</time>
			</trkpt>
			<trkpt lat="50.834385288444366" lon="6.573157965871414">
				<ele>158.0</ele>
				<time>2011-02-17T15:55:11Z</time>
			</trkpt>
			<trkpt lat="50.834385288444366" lon="6.573157965871414">
				<ele>158.0</ele>
				<time>2011-02-17T15:55:12Z</time>
			</trkpt>
			<trkpt lat="50.834385288444366" lon="6.573157965871414">
				<ele>158.0</ele>
				<time>2011-02-17T15:55:13Z</time>
			</trkpt>
			<trkpt lat="50.834385288444366" lon="6.573157965871414">
				<ele>158.0</ele>
				<time>2011-02-17T15:55:14Z</time>
			</trkpt>
			<trkpt lat="50.834385288444366" lon="6.573157965871414">
				<ele>158.0</ele>
				<time>2011-02-17T15:55:15Z</time>
			</trkpt>
			<trkpt lat="50.834406206963" lon="6.573183481886555">
				<ele>158.0</ele>
				<time>2011-02-17T15:55:16Z</time>
			</trkpt>
			<trkpt lat="50.834406206963" lon="6.573183481886555">
				<ele>158.0</ele>
				<time>2011-02-17T15:55:17Z</time>
			</trkpt>
			<trkpt lat="50.83437037589542" lon="6.573212590556647">
				<ele>158.0</ele>
				<time>2011-02-17T15:55:18Z</time>
			</trkpt>
			<trkpt lat="50.834347954210614" lon="6.57322595225252">
				<ele>158.0</ele>
				<time>2011-02-17T15:55:19Z</time>
			</trkpt>
			<trkpt lat="50.834347954210614" lon="6.57322595225252">
				<ele>158.0</ele>
				<time>2011-02-17T15:55:20Z</time>
			</trkpt>
			<trkpt lat="50.834347954210614" lon="6.57322595225252">
				<ele>158.0</ele>
				<time>2011-02-17T15:55:21Z</time>
			</trkpt>
			<trkpt lat="50.834347954210614" lon="6.57322595225252">
				<ele>158.0</ele>
				<time>2011-02-17T15:55:22Z</time>
			</trkpt>
			<trkpt lat="50.834347954210614" lon="6.57322595225252">
				<ele>158.0</ele>
				<time>2011-02-17T15:55:23Z</time>
			</trkpt>
			<trkpt lat="50.834347954210614" lon="6.57322595225252">
				<ele>158.0</ele>
				<time>2011-02-17T15:55:24Z</time>
			</trkpt>
			<trkpt lat="50.834347954210614" lon="6.57322595225252">
				<ele>158.0</ele>
				<time>2011-02-17T15:55:25Z</time>
			</trkpt>
			<trkpt lat="50.834347954210614" lon="6.57322595225252">
				<ele>158.0</ele>
				<time>2011-02-17T15:55:26Z</time>
			</trkpt>
			<trkpt lat="50.834347954210614" lon="6.57322595225252">
				<ele>158.0</ele>
				<time>2011-02-17T15:55:27Z</time>
			</trkpt>
			<trkpt lat="50.834347954210614" lon="6.57322595225252">
				<ele>158.0</ele>
				<time>2011-02-17T15:55:28Z</time>
			</trkpt>
			<trkpt lat="50.834347954210614" lon="6.57322595225252">
				<ele>158.0</ele>
				<time>2011-02-17T15:55:29Z</time>
			</trkpt>
			<trkpt lat="50.834347954210614" lon="6.57322595225252">
				<ele>158.0</ele>
				<time>2011-02-17T15:55:30Z</time>
			</trkpt>
			<trkpt lat="50.834306890286776" lon="6.5732783229833665">
				<ele>158.0</ele>
				<time>2011-02-17T15:55:31Z</time>
			</trkpt>
			<trkpt lat="50.834295896205006" lon="6.573344275497324">
				<ele>159.0</ele>
				<time>2011-02-17T15:55:32Z</time>
			</trkpt>
			<trkpt lat="50.83430787792692" lon="6.573409751633538">
				<ele>159.0</ele>
				<time>2011-02-17T15:55:33Z</time>
			</trkpt>
			<trkpt lat="50.834328356582866" lon="6.573495789873639">
				<ele>159.0</ele>
				<time>2011-02-17T15:55:34Z</time>
			</trkpt>
			<trkpt lat="50.83435843989217" lon="6.573599973469186">
				<ele>159.0</ele>
				<time>2011-02-17T15:55:35Z</time>
			</trkpt>
			<trkpt lat="50.83439430534267" lon="6.5737081537449935">
				<ele>159.0</ele>
				<time>2011-02-17T15:55:36Z</time>
			</trkpt>
			<trkpt lat="50.834436057525956" lon="6.573825464359573">
				<ele>159.0</ele>
				<time>2011-02-17T15:55:37Z</time>
			</trkpt>
			<trkpt lat="50.83448329654397" lon="6.573958247954511">
				<ele>159.0</ele>
				<time>2011-02-17T15:55:38Z</time>
			</trkpt>
			<trkpt lat="50.83453726124347" lon="6.574103313661293">
				<ele>159.0</ele>
				<time>2011-02-17T15:55:39Z</time>
			</trkpt>
			<trkpt lat="50.83459225682973" lon="6.574252865459515">
				<ele>159.0</ele>
				<time>2011-02-17T15:55:40Z</time>
			</trkpt>
			<trkpt lat="50.83465205100977" lon="6.574411695676578">
				<ele>159.0</ele>
				<time>2011-02-17T15:55:41Z</time>
			</trkpt>
			<trkpt lat="50.83471594301914" lon="6.574583677192764">
				<ele>159.0</ele>
				<time>2011-02-17T15:55:42Z</time>
			</trkpt>
			<trkpt lat="50.8347826941614" lon="6.5747650076900985">
				<ele>159.0</ele>
				<time>2011-02-17T15:55:43Z</time>
			</trkpt>
			<trkpt lat="50.83485355657187" lon="6.574957372868955">
				<ele>159.0</ele>
				<time>2011-02-17T15:55:44Z</time>
			</trkpt>
			<trkpt lat="50.83492666684054" lon="6.575156225536069">
				<ele>159.0</ele>
				<time>2011-02-17T15:55:45Z</time>
			</trkpt>
			<trkpt lat="50.83500075257627" lon="6.575358761079622">
				<ele>159.0</ele>
				<time>2011-02-17T15:55:46Z</time>
			</trkpt>
			<trkpt lat="50.83507597328285" lon="6.57556491192227">
				<ele>159.0</ele>
				<time>2011-02-17T15:55:47Z</time>
			</trkpt>
			<trkpt lat="50.835151668862515" lon="6.575772915099334">
				<ele>159.0</ele>
				<time>2011-02-17T15:55:48Z</time>
			</trkpt>
			<trkpt lat="50.83522707034403" lon="6.575980286174667">
				<ele>159.0</ele>
				<time>2011-02-17T15:55:49Z</time>
			</trkpt>
			<trkpt lat="50.83530275321524" lon="6.576188234842106">
				<ele>158.0</ele>
				<time>2011-02-17T15:55:50Z</time>
			</trkpt>
			<trkpt lat="50.835378794018986" lon="6.576395925071212">
				<ele>158.0</ele>
				<time>2011-02-17T15:55:51Z</time>
			</trkpt>
			<trkpt lat="50.835453842918824" lon="6.5766002577941265">
				<ele>158.0</ele>
				<time>2011-02-17T15:55:52Z</time>
			</trkpt>
			<trkpt lat="50.835527626739946" lon="6.576799441043268">
				<ele>158.0</ele>
				<time>2011-02-17T15:55:53Z</time>
			</trkpt>
			<trkpt lat="50.83559916616639" lon="6.576991203593303">
				<ele>158.0</ele>
				<time>2011-02-17T15:55:54Z</time>
			</trkpt>
			<trkpt lat="50.83566972007413" lon="6.577180777195066">
				<ele>158.0</ele>
				<time>2011-02-17T15:55:55Z</time>
			</trkpt>
			<trkpt lat="50.83573979394872" lon="6.577362859156914">
				<ele>158.0</ele>
				<time>2011-02-17T15:55:56Z</time>
			</trkpt>
			<trkpt lat="50.835808463510425" lon="6.577541861184614">
				<ele>158.0</ele>
				<time>2011-02-17T15:55:57Z</time>
			</trkpt>
			<trkpt lat="50.83587524819116" lon="6.577717006203495">
				<ele>158.0</ele>
				<time>2011-02-17T15:55:58Z</time>
			</trkpt>
			<trkpt lat="50.83593653907273" lon="6.577890737886075">
				<ele>158.0</ele>
				<time>2011-02-17T15:55:59Z</time>
			</trkpt>
			<trkpt lat="50.83598965345668" lon="6.578062157741309">
				<ele>158.0</ele>
				<time>2011-02-17T15:56:00Z</time>
			</trkpt>
			<trkpt lat="50.83603559324231" lon="6.578232645086057">
				<ele>158.0</ele>
				<time>2011-02-17T15:56:01Z</time>
			</trkpt>
			<trkpt lat="50.83607754601589" lon="6.578404496465732">
				<ele>158.0</ele>
				<time>2011-02-17T15:56:02Z</time>
			</trkpt>
			<trkpt lat="50.83611611677861" lon="6.578571287204452">
				<ele>158.0</ele>
				<time>2011-02-17T15:56:03Z</time>
			</trkpt>
			<trkpt lat="50.836151084356544" lon="6.578735296447097">
				<ele>158.0</ele>
				<time>2011-02-17T15:56:04Z</time>
			</trkpt>
			<trkpt lat="50.83618177256776" lon="6.578896414905964">
				<ele>158.0</ele>
				<time>2011-02-17T15:56:05Z</time>
			</trkpt>
			<trkpt lat="50.83620876073693" lon="6.579056994944823">
				<ele>158.0</ele>
				<time>2011-02-17T15:56:06Z</time>
			</trkpt>
			<trkpt lat="50.836231408795065" lon="6.579213138540227">
				<ele>158.0</ele>
				<time>2011-02-17T15:56:07Z</time>
			</trkpt>
			<trkpt lat="50.83625218488518" lon="6.579367157300361">
				<ele>158.0</ele>
				<time>2011-02-17T15:56:08Z</time>
			</trkpt>
			<trkpt lat="50.836270727577784" lon="6.579523532094025">
				<ele>158.0</ele>
				<time>2011-02-17T15:56:09Z</time>
			</trkpt>
			<trkpt lat="50.83628499424287" lon="6.5796858584330655">
				<ele>158.0</ele>
				<time>2011-02-17T15:56:10Z</time>
			</trkpt>
			<trkpt lat="50.83629485968232" lon="6.579852753894399">
				<ele>159.0</ele>
				<time>2011-02-17T15:56:11Z</time>
			</trkpt>
			<trkpt lat="50.836300579213564" lon="6.58002307297854">
				<ele>159.0</ele>
				<time>2011-02-17T15:56:12Z</time>
			</trkpt>
			<trkpt lat="50.83630366231416" lon="6.580196218324294">
				<ele>159.0</ele>
				<time>2011-02-17T15:56:13Z</time>
			</trkpt>
			<trkpt lat="50.83630489540227" lon="6.58036834958276">
				<ele>159.0</ele>
				<time>2011-02-17T15:56:14Z</time>
			</trkpt>
			<trkpt lat="50.83630621200793" lon="6.580535044304812">
				<ele>159.0</ele>
				<time>2011-02-17T15:56:15Z</time>
			</trkpt>
			<trkpt lat="50.83630708857121" lon="6.580697793647685">
				<ele>159.0</ele>
				<time>2011-02-17T15:56:16Z</time>
			</trkpt>
			<trkpt lat="50.83630916481387" lon="6.5808545420706">
				<ele>159.0</ele>
				<time>2011-02-17T15:56:17Z</time>
			</trkpt>
			<trkpt lat="50.836317649984785" lon="6.5809990393959055">
				<ele>159.0</ele>
				<time>2011-02-17T15:56:18Z</time>
			</trkpt>
			<trkpt lat="50.83632555052887" lon="6.581123745516516">
				<ele>159.0</ele>
				<time>2011-02-17T15:56:19Z</time>
			</trkpt>
			<trkpt lat="50.83633012790849" lon="6.581216831174366">
				<ele>159.0</ele>
				<time>2011-02-17T15:56:20Z</time>
			</trkpt>
			<trkpt lat="50.83633370834029" lon="6.581275880395912">
				<ele>159.0</ele>
				<time>2011-02-17T15:56:21Z</time>
			</trkpt>
			<trkpt lat="50.83633549638433" lon="6.581304423865964">
				<ele>159.0</ele>
				<time>2011-02-17T15:56:22Z</time>
			</trkpt>
			<trkpt lat="50.83633549638433" lon="6.581304423865964">
				<ele>159.0</ele>
				<time>2011-02-17T15:56:23Z</time>
			</trkpt>
			<trkpt lat="50.83633549638433" lon="6.581304423865964">
				<ele>159.0</ele>
				<time>2011-02-17T15:56:24Z</time>
			</trkpt>
			<trkpt lat="50.83633549638433" lon="6.581304423865964">
				<ele>159.0</ele>
				<time>2011-02-17T15:56:25Z</time>
			</trkpt>
			<trkpt lat="50.83633549638433" lon="6.581304423865964">
				<ele>159.0</ele>
				<time>2011-02-17T15:56:26Z</time>
			</trkpt>
			<trkpt lat="50.83633549638433" lon="6.581304423865964">
				<ele>159.0</ele>
				<time>2011-02-17T15:56:27Z</time>
			</trkpt>
			<trkpt lat="50.83633549638433" lon="6.581304423865964">
				<ele>159.0</ele>
				<time>2011-02-17T15:56:28Z</time>
			</trkpt>
			<trkpt lat="50.83633549638433" lon="6.581304423865964">
				<ele>159.0</ele>
				<time>2011-02-17T15:56:29Z</time>
			</trkpt>
			<trkpt lat="50.83633549638433" lon="6.581304423865964">
				<ele>159.0</ele>
				<time>2011-02-17T15:56:30Z</time>
			</trkpt>
			<trkpt lat="50.83633549638433" lon="6.581304423865964">
				<ele>159.0</ele>
				<time>2011-02-17T15:56:31Z</time>
			</trkpt>
			<trkpt lat="50.83633549638433" lon="6.581304423865964">
				<ele>159.0</ele>
				<time>2011-02-17T15:56:32Z</time>
			</trkpt>
			<trkpt lat="50.83633549638433" lon="6.581304423865964">
				<ele>159.0</ele>
				<time>2011-02-17T15:56:33Z</time>
			</trkpt>
			<trkpt lat="50.83633549638433" lon="6.581304423865964">
				<ele>159.0</ele>
				<time>2011-02-17T15:56:34Z</time>
			</trkpt>
			<trkpt lat="50.83633549638433" lon="6.581304423865964">
				<ele>159.0</ele>
				<time>2011-02-17T15:56:35Z</time>
			</trkpt>
			<trkpt lat="50.83633549638433" lon="6.581304423865964">
				<ele>159.0</ele>
				<time>2011-02-17T15:56:36Z</time>
			</trkpt>
			<trkpt lat="50.83633549638433" lon="6.581304423865964">
				<ele>159.0</ele>
				<time>2011-02-17T15:56:37Z</time>
			</trkpt>
			<trkpt lat="50.83633549638433" lon="6.581304423865964">
				<ele>159.0</ele>
				<time>2011-02-17T15:56:38Z</time>
			</trkpt>
			<trkpt lat="50.83633549638433" lon="6.581304423865964">
				<ele>159.0</ele>
				<time>2011-02-17T15:56:39Z</time>
			</trkpt>
			<trkpt lat="50.83633549638433" lon="6.581304423865964">
				<ele>159.0</ele>
				<time>2011-02-17T15:56:40Z</time>
			</trkpt>
			<trkpt lat="50.83633549638433" lon="6.581304423865964">
				<ele>159.0</ele>
				<time>2011-02-17T15:56:41Z</time>
			</trkpt>
			<trkpt lat="50.83633549638433" lon="6.581304423865964">
				<ele>159.0</ele>
				<time>2011-02-17T15:56:42Z</time>
			</trkpt>
			<trkpt lat="50.83633549638433" lon="6.581304423865964">
				<ele>159.0</ele>
				<time>2011-02-17T15:56:43Z</time>
			</trkpt>
			<trkpt lat="50.83633549638433" lon="6.581304423865964">
				<ele>159.0</ele>
				<time>2011-02-17T15:56:44Z</time>
			</trkpt>
			<trkpt lat="50.83633549638433" lon="6.581304423865964">
				<ele>159.0</ele>
				<time>2011-02-17T15:56:45Z</time>
			</trkpt>
			<trkpt lat="50.83633549638433" lon="6.581304423865964">
				<ele>159.0</ele>
				<time>2011-02-17T15:56:46Z</time>
			</trkpt>
			<trkpt lat="50.83633549638433" lon="6.581304423865964">
				<ele>159.0</ele>
				<time>2011-02-17T15:56:47Z</time>
			</trkpt>
			<trkpt lat="50.83633549638433" lon="6.581304423865964">
				<ele>159.0</ele>
				<time>2011-02-17T15:56:48Z</time>
			</trkpt>
			<trkpt lat="50.836331629246224" lon="6.581336487157845">
				<ele>159.0</ele>
				<time>2011-02-17T15:56:49Z</time>
			</trkpt>
			<trkpt lat="50.83633194064614" lon="6.581359588903539">
				<ele>159.0</ele>
				<time>2011-02-17T15:56:50Z</time>
			</trkpt>
			<trkpt lat="50.83633242129085" lon="6.5813847932979535">
				<ele>159.0</ele>
				<time>2011-02-17T15:56:51Z</time>
			</trkpt>
			<trkpt lat="50.836333149606794" lon="6.58141301318893">
				<ele>159.0</ele>
				<time>2011-02-17T15:56:52Z</time>
			</trkpt>
			<trkpt lat="50.83633536604037" lon="6.581443355360006">
				<ele>159.0</ele>
				<time>2011-02-17T15:56:53Z</time>
			</trkpt>
			<trkpt lat="50.836352991501634" lon="6.581476807926154">
				<ele>159.0</ele>
				<time>2011-02-17T15:56:54Z</time>
			</trkpt>
			<trkpt lat="50.83638640454582" lon="6.581490751046209">
				<ele>159.0</ele>
				<time>2011-02-17T15:56:55Z</time>
			</trkpt>
			<trkpt lat="50.83642720436957" lon="6.581488916472667">
				<ele>158.0</ele>
				<time>2011-02-17T15:56:56Z</time>
			</trkpt>
			<trkpt lat="50.83647399635496" lon="6.581480803538136">
				<ele>157.0</ele>
				<time>2011-02-17T15:56:57Z</time>
			</trkpt>
			<trkpt lat="50.83653242306224" lon="6.58146353086834">
				<ele>157.0</ele>
				<time>2011-02-17T15:56:58Z</time>
			</trkpt>
			<trkpt lat="50.83659622834461" lon="6.581420401800186">
				<ele>156.0</ele>
				<time>2011-02-17T15:56:59Z</time>
			</trkpt>
			<trkpt lat="50.83666830947839" lon="6.581376459275849">
				<ele>156.0</ele>
				<time>2011-02-17T15:57:00Z</time>
			</trkpt>
			<trkpt lat="50.836753193795786" lon="6.581325970237639">
				<ele>156.0</ele>
				<time>2011-02-17T15:57:01Z</time>
			</trkpt>
			<trkpt lat="50.83683999982753" lon="6.581274894411434">
				<ele>155.0</ele>
				<time>2011-02-17T15:57:02Z</time>
			</trkpt>
			<trkpt lat="50.8369307076034" lon="6.581224325987137">
				<ele>155.0</ele>
				<time>2011-02-17T15:57:03Z</time>
			</trkpt>
			<trkpt lat="50.837025084717084" lon="6.581171450749581">
				<ele>155.0</ele>
				<time>2011-02-17T15:57:04Z</time>
			</trkpt>
			<trkpt lat="50.837122124512234" lon="6.581116588961658">
				<ele>155.0</ele>
				<time>2011-02-17T15:57:05Z</time>
			</trkpt>
			<trkpt lat="50.83721921712877" lon="6.58105936209545">
				<ele>155.0</ele>
				<time>2011-02-17T15:57:06Z</time>
			</trkpt>
			<trkpt lat="50.8373188586469" lon="6.580999553858676">
				<ele>155.0</ele>
				<time>2011-02-17T15:57:07Z</time>
			</trkpt>
			<trkpt lat="50.83741782971303" lon="6.580937070853285">
				<ele>155.0</ele>
				<time>2011-02-17T15:57:08Z</time>
			</trkpt>
			<trkpt lat="50.83751657613388" lon="6.580875604163583">
				<ele>155.0</ele>
				<time>2011-02-17T15:57:09Z</time>
			</trkpt>
			<trkpt lat="50.83761415787801" lon="6.580814398706313">
				<ele>155.0</ele>
				<time>2011-02-17T15:57:10Z</time>
			</trkpt>
			<trkpt lat="50.83771283780373" lon="6.580751206063848">
				<ele>154.0</ele>
				<time>2011-02-17T15:57:11Z</time>
			</trkpt>
			<trkpt lat="50.83780876854395" lon="6.580686657432282">
				<ele>154.0</ele>
				<time>2011-02-17T15:57:12Z</time>
			</trkpt>
			<trkpt lat="50.83790406558987" lon="6.580622382570716">
				<ele>154.0</ele>
				<time>2011-02-17T15:57:13Z</time>
			</trkpt>
			<trkpt lat="50.837999010805696" lon="6.580559434170644">
				<ele>154.0</ele>
				<time>2011-02-17T15:57:14Z</time>
			</trkpt>
			<trkpt lat="50.8380928991384" lon="6.580503215795979">
				<ele>154.0</ele>
				<time>2011-02-17T15:57:15Z</time>
			</trkpt>
			<trkpt lat="50.83818928691777" lon="6.580456194375778">
				<ele>154.0</ele>
				<time>2011-02-17T15:57:16Z</time>
			</trkpt>
			<trkpt lat="50.838291160516654" lon="6.580417352619465">
				<ele>154.0</ele>
				<time>2011-02-17T15:57:17Z</time>
			</trkpt>
			<trkpt lat="50.838394782544974" lon="6.580385835027206">
				<ele>154.0</ele>
				<time>2011-02-17T15:57:18Z</time>
			</trkpt>
			<trkpt lat="50.83849788269225" lon="6.580387300352255">
				<ele>153.0</ele>
				<time>2011-02-17T15:57:19Z</time>
			</trkpt>
			<trkpt lat="50.83858625842879" lon="6.580394222846904">
				<ele>153.0</ele>
				<time>2011-02-17T15:57:20Z</time>
			</trkpt>
			<trkpt lat="50.838655038787216" lon="6.580406112598115">
				<ele>153.0</ele>
				<time>2011-02-17T15:57:21Z</time>
			</trkpt>
			<trkpt lat="50.83870538315461" lon="6.580415948977097">
				<ele>153.0</ele>
				<time>2011-02-17T15:57:22Z</time>
			</trkpt>
			<trkpt lat="50.83873532682009" lon="6.5804200503149675">
				<ele>153.0</ele>
				<time>2011-02-17T15:57:23Z</time>
			</trkpt>
			<trkpt lat="50.83873532682009" lon="6.5804200503149675">
				<ele>153.0</ele>
				<time>2011-02-17T15:57:24Z</time>
			</trkpt>
			<trkpt lat="50.83873532682009" lon="6.5804200503149675">
				<ele>153.0</ele>
				<time>2011-02-17T15:57:25Z</time>
			</trkpt>
			<trkpt lat="50.83873532682009" lon="6.5804200503149675">
				<ele>153.0</ele>
				<time>2011-02-17T15:57:26Z</time>
			</trkpt>
			<trkpt lat="50.83873532682009" lon="6.5804200503149675">
				<ele>153.0</ele>
				<time>2011-02-17T15:57:27Z</time>
			</trkpt>
			<trkpt lat="50.83873532682009" lon="6.5804200503149675">
				<ele>153.0</ele>
				<time>2011-02-17T15:57:28Z</time>
			</trkpt>
			<trkpt lat="50.83873532682009" lon="6.5804200503149675">
				<ele>153.0</ele>
				<time>2011-02-17T15:57:29Z</time>
			</trkpt>
			<trkpt lat="50.838765112086975" lon="6.580424120350047">
				<ele>153.0</ele>
				<time>2011-02-17T15:57:30Z</time>
			</trkpt>
			<trkpt lat="50.838803747653635" lon="6.58042052642117">
				<ele>153.0</ele>
				<time>2011-02-17T15:57:31Z</time>
			</trkpt>
			<trkpt lat="50.838843055316616" lon="6.580420769510985">
				<ele>152.0</ele>
				<time>2011-02-17T15:57:32Z</time>
			</trkpt>
			<trkpt lat="50.838889492298016" lon="6.580420171005671">
				<ele>152.0</ele>
				<time>2011-02-17T15:57:33Z</time>
			</trkpt>
			<trkpt lat="50.83894784072096" lon="6.580415503792224">
				<ele>152.0</ele>
				<time>2011-02-17T15:57:34Z</time>
			</trkpt>
			<trkpt lat="50.83901897531111" lon="6.580404431468828">
				<ele>151.0</ele>
				<time>2011-02-17T15:57:35Z</time>
			</trkpt>
			<trkpt lat="50.83909346598436" lon="6.580389825269495">
				<ele>151.0</ele>
				<time>2011-02-17T15:57:36Z</time>
			</trkpt>
			<trkpt lat="50.839170741940094" lon="6.580370069603678">
				<ele>151.0</ele>
				<time>2011-02-17T15:57:37Z</time>
			</trkpt>
			<trkpt lat="50.839250179644814" lon="6.580345364704849">
				<ele>151.0</ele>
				<time>2011-02-17T15:57:38Z</time>
			</trkpt>
			<trkpt lat="50.839328897498774" lon="6.580312665787111">
				<ele>150.0</ele>
				<time>2011-02-17T15:57:39Z</time>
			</trkpt>
			<trkpt lat="50.83939888168665" lon="6.5802448952423624">
				<ele>150.0</ele>
				<time>2011-02-17T15:57:40Z</time>
			</trkpt>
			<trkpt lat="50.83946559622308" lon="6.580171445339897">
				<ele>150.0</ele>
				<time>2011-02-17T15:57:41Z</time>
			</trkpt>
			<trkpt lat="50.839517110278926" lon="6.580080329514431">
				<ele>150.0</ele>
				<time>2011-02-17T15:57:42Z</time>
			</trkpt>
			<trkpt lat="50.839562785099545" lon="6.579989667632399">
				<ele>150.0</ele>
				<time>2011-02-17T15:57:43Z</time>
			</trkpt>
			<trkpt lat="50.839591427604375" lon="6.57989475776715">
				<ele>151.0</ele>
				<time>2011-02-17T15:57:44Z</time>
			</trkpt>
			<trkpt lat="50.83961825538617" lon="6.579804866676224">
				<ele>151.0</ele>
				<time>2011-02-17T15:57:45Z</time>
			</trkpt>
			<trkpt lat="50.839643083618085" lon="6.579712870859247">
				<ele>152.0</ele>
				<time>2011-02-17T15:57:46Z</time>
			</trkpt>
			<trkpt lat="50.839670042583336" lon="6.5796132006963495">
				<ele>152.0</ele>
				<time>2011-02-17T15:57:47Z</time>
			</trkpt>
			<trkpt lat="50.83970578405568" lon="6.579508479738826">
				<ele>152.0</ele>
				<time>2011-02-17T15:57:48Z</time>
			</trkpt>
			<trkpt lat="50.83975745922294" lon="6.5794116921723855">
				<ele>152.0</ele>
				<time>2011-02-17T15:57:49Z</time>
			</trkpt>
			<trkpt lat="50.839810651322345" lon="6.57931798973459">
				<ele>153.0</ele>
				<time>2011-02-17T15:57:50Z</time>
			</trkpt>
			<trkpt lat="50.8398730442075" lon="6.579245880479774">
				<ele>153.0</ele>
				<time>2011-02-17T15:57:51Z</time>
			</trkpt>
			<trkpt lat="50.839933737060875" lon="6.579176522118289">
				<ele>153.0</ele>
				<time>2011-02-17T15:57:52Z</time>
			</trkpt>
			<trkpt lat="50.839990501448376" lon="6.579113494087056">
				<ele>154.0</ele>
				<time>2011-02-17T15:57:53Z</time>
			</trkpt>
			<trkpt lat="50.840044998095436" lon="6.579051857840775">
				<ele>154.0</ele>
				<time>2011-02-17T15:57:54Z</time>
			</trkpt>
			<trkpt lat="50.84009396150263" lon="6.578997915495316">
				<ele>154.0</ele>
				<time>2011-02-17T15:57:55Z</time>
			</trkpt>
			<trkpt lat="50.84014370900954" lon="6.5789424411374595">
				<ele>155.0</ele>
				<time>2011-02-17T15:57:56Z</time>
			</trkpt>
			<trkpt lat="50.84020538205912" lon="6.578881196059536">
				<ele>155.0</ele>
				<time>2011-02-17T15:57:57Z</time>
			</trkpt>
			<trkpt lat="50.84027236925115" lon="6.578820686739061">
				<ele>155.0</ele>
				<time>2011-02-17T15:57:58Z</time>
			</trkpt>
			<trkpt lat="50.840345612508244" lon="6.578762145826481">
				<ele>155.0</ele>
				<time>2011-02-17T15:57:59Z</time>
			</trkpt>
			<trkpt lat="50.8404226645155" lon="6.578710385770527">
				<ele>155.0</ele>
				<time>2011-02-17T15:58:00Z</time>
			</trkpt>
			<trkpt lat="50.840500818032694" lon="6.578664816614947">
				<ele>155.0</ele>
				<time>2011-02-17T15:58:01Z</time>
			</trkpt>
			<trkpt lat="50.840580421031966" lon="6.5786240811714976">
				<ele>155.0</ele>
				<time>2011-02-17T15:58:02Z</time>
			</trkpt>
			<trkpt lat="50.84067107064228" lon="6.578587184007081">
				<ele>155.0</ele>
				<time>2011-02-17T15:58:03Z</time>
			</trkpt>
			<trkpt lat="50.840763953619636" lon="6.578554352707096">
				<ele>154.0</ele>
				<time>2011-02-17T15:58:04Z</time>
			</trkpt>
			<trkpt lat="50.84085619062654" lon="6.578525464043979">
				<ele>154.0</ele>
				<time>2011-02-17T15:58:05Z</time>
			</trkpt>
			<trkpt lat="50.84095134733231" lon="6.578499880611572">
				<ele>154.0</ele>
				<time>2011-02-17T15:58:06Z</time>
			</trkpt>
			<trkpt lat="50.841051301925305" lon="6.578476886022822">
				<ele>154.0</ele>
				<time>2011-02-17T15:58:07Z</time>
			</trkpt>
			<trkpt lat="50.84115614369202" lon="6.578454913686501">
				<ele>154.0</ele>
				<time>2011-02-17T15:58:08Z</time>
			</trkpt>
			<trkpt lat="50.841263299592676" lon="6.578448003152271">
				<ele>154.0</ele>
				<time>2011-02-17T15:58:09Z</time>
			</trkpt>
			<trkpt lat="50.84137861834123" lon="6.578430696823473">
				<ele>154.0</ele>
				<time>2011-02-17T15:58:10Z</time>
			</trkpt>
			<trkpt lat="50.841496220949175" lon="6.578415121238222">
				<ele>154.0</ele>
				<time>2011-02-17T15:58:11Z</time>
			</trkpt>
			<trkpt lat="50.841618786485256" lon="6.5784013563655535">
				<ele>154.0</ele>
				<time>2011-02-17T15:58:12Z</time>
			</trkpt>
			<trkpt lat="50.84174051585327" lon="6.578388157713245">
				<ele>154.0</ele>
				<time>2011-02-17T15:58:13Z</time>
			</trkpt>
			<trkpt lat="50.84186416052251" lon="6.578377801253077">
				<ele>154.0</ele>
				<time>2011-02-17T15:58:14Z</time>
			</trkpt>
			<trkpt lat="50.84198910577881" lon="6.578366948327085">
				<ele>154.0</ele>
				<time>2011-02-17T15:58:15Z</time>
			</trkpt>
			<trkpt lat="50.84211917953483" lon="6.57836284736903">
				<ele>154.0</ele>
				<time>2011-02-17T15:58:16Z</time>
			</trkpt>
			<trkpt lat="50.84225122347275" lon="6.578367560481308">
				<ele>154.0</ele>
				<time>2011-02-17T15:58:17Z</time>
			</trkpt>
			<trkpt lat="50.84238347523063" lon="6.578377369093388">
				<ele>154.0</ele>
				<time>2011-02-17T15:58:18Z</time>
			</trkpt>
			<trkpt lat="50.84251444748189" lon="6.5783878500939945">
				<ele>154.0</ele>
				<time>2011-02-17T15:58:19Z</time>
			</trkpt>
			<trkpt lat="50.84264840821873" lon="6.578402272553745">
				<ele>154.0</ele>
				<time>2011-02-17T15:58:20Z</time>
			</trkpt>
			<trkpt lat="50.842785424200635" lon="6.578416263912113">
				<ele>154.0</ele>
				<time>2011-02-17T15:58:21Z</time>
			</trkpt>
			<trkpt lat="50.84292391269411" lon="6.5784363506235595">
				<ele>153.0</ele>
				<time>2011-02-17T15:58:22Z</time>
			</trkpt>
			<trkpt lat="50.84306447218922" lon="6.5784642164238765">
				<ele>154.0</ele>
				<time>2011-02-17T15:58:23Z</time>
			</trkpt>
			<trkpt lat="50.843203952435765" lon="6.578502417709384">
				<ele>154.0</ele>
				<time>2011-02-17T15:58:24Z</time>
			</trkpt>
			<trkpt lat="50.8433404184018" lon="6.5785487668494795">
				<ele>154.0</ele>
				<time>2011-02-17T15:58:25Z</time>
			</trkpt>
			<trkpt lat="50.843475930124775" lon="6.578605763745703">
				<ele>153.0</ele>
				<time>2011-02-17T15:58:26Z</time>
			</trkpt>
			<trkpt lat="50.84361265235505" lon="6.57867725791611">
				<ele>153.0</ele>
				<time>2011-02-17T15:58:27Z</time>
			</trkpt>
			<trkpt lat="50.84375094715135" lon="6.57876523046566">
				<ele>153.0</ele>
				<time>2011-02-17T15:58:28Z</time>
			</trkpt>
			<trkpt lat="50.84389030411193" lon="6.578867739911445">
				<ele>153.0</ele>
				<time>2011-02-17T15:58:29Z</time>
			</trkpt>
			<trkpt lat="50.84403099939079" lon="6.578982027638686">
				<ele>153.0</ele>
				<time>2011-02-17T15:58:30Z</time>
			</trkpt>
			<trkpt lat="50.84417374875044" lon="6.579107542023604">
				<ele>153.0</ele>
				<time>2011-02-17T15:58:31Z</time>
			</trkpt>
			<trkpt lat="50.844316844398946" lon="6.579240479090364">
				<ele>153.0</ele>
				<time>2011-02-17T15:58:32Z</time>
			</trkpt>
			<trkpt lat="50.844461366357216" lon="6.579378085763091">
				<ele>154.0</ele>
				<time>2011-02-17T15:58:33Z</time>
			</trkpt>
			<trkpt lat="50.844608312839426" lon="6.57951680883298">
				<ele>154.0</ele>
				<time>2011-02-17T15:58:34Z</time>
			</trkpt>
			<trkpt lat="50.84475559639085" lon="6.579660850034685">
				<ele>154.0</ele>
				<time>2011-02-17T15:58:35Z</time>
			</trkpt>
			<trkpt lat="50.84490463175509" lon="6.579805464786178">
				<ele>154.0</ele>
				<time>2011-02-17T15:58:36Z</time>
			</trkpt>
			<trkpt lat="50.845057447659805" lon="6.579952147039626">
				<ele>154.0</ele>
				<time>2011-02-17T15:58:37Z</time>
			</trkpt>
			<trkpt lat="50.84520937571153" lon="6.5801009197646945">
				<ele>154.0</ele>
				<time>2011-02-17T15:58:38Z</time>
			</trkpt>
			<trkpt lat="50.84536078501114" lon="6.580247240131431">
				<ele>154.0</ele>
				<time>2011-02-17T15:58:39Z</time>
			</trkpt>
			<trkpt lat="50.84551269329691" lon="6.580396335216832">
				<ele>154.0</ele>
				<time>2011-02-17T15:58:40Z</time>
			</trkpt>
			<trkpt lat="50.845667040642574" lon="6.580544253102281">
				<ele>155.0</ele>
				<time>2011-02-17T15:58:41Z</time>
			</trkpt>
			<trkpt lat="50.84582466134233" lon="6.580687684504375">
				<ele>155.0</ele>
				<time>2011-02-17T15:58:42Z</time>
			</trkpt>
			<trkpt lat="50.845985549333484" lon="6.580827893817033">
				<ele>155.0</ele>
				<time>2011-02-17T15:58:43Z</time>
			</trkpt>
			<trkpt lat="50.846151390785714" lon="6.580954980445824">
				<ele>155.0</ele>
				<time>2011-02-17T15:58:44Z</time>
			</trkpt>
			<trkpt lat="50.84632348427597" lon="6.581064612378222">
				<ele>155.0</ele>
				<time>2011-02-17T15:58:45Z</time>
			</trkpt>
			<trkpt lat="50.84649781450584" lon="6.581165158877873">
				<ele>155.0</ele>
				<time>2011-02-17T15:58:46Z</time>
			</trkpt>
			<trkpt lat="50.84667565883331" lon="6.581258344132722">
				<ele>155.0</ele>
				<time>2011-02-17T15:58:47Z</time>
			</trkpt>
			<trkpt lat="50.84685324100307" lon="6.581349897517595">
				<ele>155.0</ele>
				<time>2011-02-17T15:58:48Z</time>
			</trkpt>
			<trkpt lat="50.84703302539527" lon="6.581438055918528">
				<ele>155.0</ele>
				<time>2011-02-17T15:58:49Z</time>
			</trkpt>
			<trkpt lat="50.847213155322514" lon="6.581524882163389">
				<ele>155.0</ele>
				<time>2011-02-17T15:58:50Z</time>
			</trkpt>
			<trkpt lat="50.84739230296779" lon="6.5816124665213485">
				<ele>155.0</ele>
				<time>2011-02-17T15:58:51Z</time>
			</trkpt>
			<trkpt lat="50.847571975373974" lon="6.581698368440226">
				<ele>155.0</ele>
				<time>2011-02-17T15:58:52Z</time>
			</trkpt>
			<trkpt lat="50.84774930028614" lon="6.581782682868812">
				<ele>155.0</ele>
				<time>2011-02-17T15:58:53Z</time>
			</trkpt>
			<trkpt lat="50.8479268169575" lon="6.581865158706288">
				<ele>154.0</ele>
				<time>2011-02-17T15:58:54Z</time>
			</trkpt>
			<trkpt lat="50.84810393709294" lon="6.581947337680188">
				<ele>155.0</ele>
				<time>2011-02-17T15:58:55Z</time>
			</trkpt>
			<trkpt lat="50.84827762230948" lon="6.582029061850952">
				<ele>155.0</ele>
				<time>2011-02-17T15:58:56Z</time>
			</trkpt>
			<trkpt lat="50.848450252132544" lon="6.582110192929667">
				<ele>155.0</ele>
				<time>2011-02-17T15:58:57Z</time>
			</trkpt>
			<trkpt lat="50.848621414982254" lon="6.582191127455836">
				<ele>155.0</ele>
				<time>2011-02-17T15:58:58Z</time>
			</trkpt>
			<trkpt lat="50.84879193037552" lon="6.582271990458264">
				<ele>155.0</ele>
				<time>2011-02-17T15:58:59Z</time>
			</trkpt>
			<trkpt lat="50.84896173850635" lon="6.582351784762896">
				<ele>155.0</ele>
				<time>2011-02-17T15:59:00Z</time>
			</trkpt>
			<trkpt lat="50.8491312951886" lon="6.582431374152957">
				<ele>156.0</ele>
				<time>2011-02-17T15:59:01Z</time>
			</trkpt>
			<trkpt lat="50.8493003485679" lon="6.582510763950044">
				<ele>156.0</ele>
				<time>2011-02-17T15:59:02Z</time>
			</trkpt>
			<trkpt lat="50.84946921453047" lon="6.582590386260273">
				<ele>156.0</ele>
				<time>2011-02-17T15:59:03Z</time>
			</trkpt>
			<trkpt lat="50.849638816650426" lon="6.582670222397946">
				<ele>155.0</ele>
				<time>2011-02-17T15:59:04Z</time>
			</trkpt>
			<trkpt lat="50.849808044993786" lon="6.582749977432072">
				<ele>155.0</ele>
				<time>2011-02-17T15:59:05Z</time>
			</trkpt>
			<trkpt lat="50.84997726593503" lon="6.582830822710932">
				<ele>155.0</ele>
				<time>2011-02-17T15:59:06Z</time>
			</trkpt>
			<trkpt lat="50.85014628268146" lon="6.582910560191257">
				<ele>155.0</ele>
				<time>2011-02-17T15:59:07Z</time>
			</trkpt>
			<trkpt lat="50.850314648883604" lon="6.582990482349683">
				<ele>155.0</ele>
				<time>2011-02-17T15:59:08Z</time>
			</trkpt>
			<trkpt lat="50.85048266306592" lon="6.583070606031092">
				<ele>154.0</ele>
				<time>2011-02-17T15:59:09Z</time>
			</trkpt>
			<trkpt lat="50.850651396538915" lon="6.583151731649058">
				<ele>154.0</ele>
				<time>2011-02-17T15:59:10Z</time>
			</trkpt>
			<trkpt lat="50.85082048819117" lon="6.583232900479413">
				<ele>154.0</ele>
				<time>2011-02-17T15:59:11Z</time>
			</trkpt>
			<trkpt lat="50.850990493590224" lon="6.583314239656658">
				<ele>154.0</ele>
				<time>2011-02-17T15:59:12Z</time>
			</trkpt>
			<trkpt lat="50.851160631816036" lon="6.583396025531216">
				<ele>154.0</ele>
				<time>2011-02-17T15:59:13Z</time>
			</trkpt>
			<trkpt lat="50.85133091891014" lon="6.583477952222914">
				<ele>154.0</ele>
				<time>2011-02-17T15:59:14Z</time>
			</trkpt>
			<trkpt lat="50.8515004760647" lon="6.583558717766516">
				<ele>153.0</ele>
				<time>2011-02-17T15:59:15Z</time>
			</trkpt>
			<trkpt lat="50.85166922535962" lon="6.583638393077961">
				<ele>153.0</ele>
				<time>2011-02-17T15:59:16Z</time>
			</trkpt>
			<trkpt lat="50.85183676622034" lon="6.583717370572143">
				<ele>153.0</ele>
				<time>2011-02-17T15:59:17Z</time>
			</trkpt>
			<trkpt lat="50.85200309901504" lon="6.583796126592477">
				<ele>153.0</ele>
				<time>2011-02-17T15:59:18Z</time>
			</trkpt>
			<trkpt lat="50.852166737438026" lon="6.583874851790221">
				<ele>152.0</ele>
				<time>2011-02-17T15:59:19Z</time>
			</trkpt>
			<trkpt lat="50.85232384709495" lon="6.583951673943137">
				<ele>152.0</ele>
				<time>2011-02-17T15:59:20Z</time>
			</trkpt>
			<trkpt lat="50.852479714931" lon="6.58402688184775">
				<ele>152.0</ele>
				<time>2011-02-17T15:59:21Z</time>
			</trkpt>
			<trkpt lat="50.85263353042993" lon="6.584100329594351">
				<ele>152.0</ele>
				<time>2011-02-17T15:59:22Z</time>
			</trkpt>
			<trkpt lat="50.85278758626238" lon="6.584170575209494">
				<ele>151.0</ele>
				<time>2011-02-17T15:59:23Z</time>
			</trkpt>
			<trkpt lat="50.8529373531658" lon="6.584239532058638">
				<ele>151.0</ele>
				<time>2011-02-17T15:59:24Z</time>
			</trkpt>
			<trkpt lat="50.853084191707076" lon="6.584307852372514">
				<ele>151.0</ele>
				<time>2011-02-17T15:59:25Z</time>
			</trkpt>
			<trkpt lat="50.85322316867115" lon="6.584377080734685">
				<ele>151.0</ele>
				<time>2011-02-17T15:59:26Z</time>
			</trkpt>
			<trkpt lat="50.85336246898853" lon="6.584445528189915">
				<ele>151.0</ele>
				<time>2011-02-17T15:59:27Z</time>
			</trkpt>
			<trkpt lat="50.853499450990554" lon="6.58451251649104">
				<ele>151.0</ele>
				<time>2011-02-17T15:59:28Z</time>
			</trkpt>
			<trkpt lat="50.85363384931507" lon="6.5845781158094265">
				<ele>151.0</ele>
				<time>2011-02-17T15:59:29Z</time>
			</trkpt>
			<trkpt lat="50.85376510078352" lon="6.5846367072862595">
				<ele>151.0</ele>
				<time>2011-02-17T15:59:30Z</time>
			</trkpt>
			<trkpt lat="50.853894670717175" lon="6.584694613642963">
				<ele>151.0</ele>
				<time>2011-02-17T15:59:31Z</time>
			</trkpt>
			<trkpt lat="50.85402246593244" lon="6.584747062450563">
				<ele>151.0</ele>
				<time>2011-02-17T15:59:32Z</time>
			</trkpt>
			<trkpt lat="50.854146902432255" lon="6.584797196401741">
				<ele>151.0</ele>
				<time>2011-02-17T15:59:33Z</time>
			</trkpt>
			<trkpt lat="50.85426968504939" lon="6.584846981779579">
				<ele>150.0</ele>
				<time>2011-02-17T15:59:34Z</time>
			</trkpt>
			<trkpt lat="50.85438525636071" lon="6.584903361538611">
				<ele>150.0</ele>
				<time>2011-02-17T15:59:35Z</time>
			</trkpt>
			<trkpt lat="50.85449636310397" lon="6.584965430927233">
				<ele>150.0</ele>
				<time>2011-02-17T15:59:36Z</time>
			</trkpt>
			<trkpt lat="50.8546057507274" lon="6.585026391353338">
				<ele>150.0</ele>
				<time>2011-02-17T15:59:37Z</time>
			</trkpt>
			<trkpt lat="50.85471484230903" lon="6.585085435614907">
				<ele>150.0</ele>
				<time>2011-02-17T15:59:38Z</time>
			</trkpt>
			<trkpt lat="50.85482113595109" lon="6.585140846798372">
				<ele>150.0</ele>
				<time>2011-02-17T15:59:39Z</time>
			</trkpt>
			<trkpt lat="50.85492609207637" lon="6.585191267765023">
				<ele>150.0</ele>
				<time>2011-02-17T15:59:40Z</time>
			</trkpt>
			<trkpt lat="50.85502982921152" lon="6.585240264507773">
				<ele>150.0</ele>
				<time>2011-02-17T15:59:41Z</time>
			</trkpt>
			<trkpt lat="50.855132241737905" lon="6.585289038859129">
				<ele>150.0</ele>
				<time>2011-02-17T15:59:42Z</time>
			</trkpt>
			<trkpt lat="50.85523387608928" lon="6.585338453511081">
				<ele>150.0</ele>
				<time>2011-02-17T15:59:43Z</time>
			</trkpt>
			<trkpt lat="50.85533322132253" lon="6.585387494209567">
				<ele>149.0</ele>
				<time>2011-02-17T15:59:44Z</time>
			</trkpt>
			<trkpt lat="50.855425970584385" lon="6.585435598318371">
				<ele>149.0</ele>
				<time>2011-02-17T15:59:45Z</time>
			</trkpt>
			<trkpt lat="50.85551935094457" lon="6.585482650149365">
				<ele>149.0</ele>
				<time>2011-02-17T15:59:46Z</time>
			</trkpt>
			<trkpt lat="50.85560839799906" lon="6.585526840882686">
				<ele>149.0</ele>
				<time>2011-02-17T15:59:47Z</time>
			</trkpt>
			<trkpt lat="50.85569798845489" lon="6.58557261422918">
				<ele>149.0</ele>
				<time>2011-02-17T15:59:48Z</time>
			</trkpt>
			<trkpt lat="50.85578430879609" lon="6.585623212519593">
				<ele>149.0</ele>
				<time>2011-02-17T15:59:49Z</time>
			</trkpt>
			<trkpt lat="50.85586972149756" lon="6.585678955106872">
				<ele>149.0</ele>
				<time>2011-02-17T15:59:50Z</time>
			</trkpt>
			<trkpt lat="50.8559547588731" lon="6.5857389073007075">
				<ele>149.0</ele>
				<time>2011-02-17T15:59:51Z</time>
			</trkpt>
			<trkpt lat="50.85603806839363" lon="6.585798197747481">
				<ele>149.0</ele>
				<time>2011-02-17T15:59:52Z</time>
			</trkpt>
			<trkpt lat="50.85612037235148" lon="6.585855493095469">
				<ele>149.0</ele>
				<time>2011-02-17T15:59:53Z</time>
			</trkpt>
			<trkpt lat="50.85620102744811" lon="6.585904210736678">
				<ele>149.0</ele>
				<time>2011-02-17T15:59:54Z</time>
			</trkpt>
			<trkpt lat="50.85628333642537" lon="6.585947839950923">
				<ele>149.0</ele>
				<time>2011-02-17T15:59:55Z</time>
			</trkpt>
			<trkpt lat="50.8563680304947" lon="6.5859842122826855">
				<ele>149.0</ele>
				<time>2011-02-17T15:59:56Z</time>
			</trkpt>
			<trkpt lat="50.8564556968608" lon="6.5860140395280045">
				<ele>149.0</ele>
				<time>2011-02-17T15:59:57Z</time>
			</trkpt>
			<trkpt lat="50.85654556920972" lon="6.5860357404730205">
				<ele>149.0</ele>
				<time>2011-02-17T15:59:58Z</time>
			</trkpt>
			<trkpt lat="50.8566372185372" lon="6.5860501970485394">
				<ele>149.0</ele>
				<time>2011-02-17T15:59:59Z</time>
			</trkpt>
			<trkpt lat="50.85672753039803" lon="6.586059565607143">
				<ele>149.0</ele>
				<time>2011-02-17T16:00:00Z</time>
			</trkpt>
			<trkpt lat="50.85681658703846" lon="6.586072206493081">
				<ele>148.0</ele>
				<time>2011-02-17T16:00:01Z</time>
			</trkpt>
			<trkpt lat="50.85690417181048" lon="6.5860794051496185">
				<ele>148.0</ele>
				<time>2011-02-17T16:00:02Z</time>
			</trkpt>
			<trkpt lat="50.85698965392385" lon="6.586085654904877">
				<ele>147.0</ele>
				<time>2011-02-17T16:00:03Z</time>
			</trkpt>
			<trkpt lat="50.857071811361976" lon="6.586088754540163">
				<ele>147.0</ele>
				<time>2011-02-17T16:00:04Z</time>
			</trkpt>
			<trkpt lat="50.85715249644941" lon="6.586092171331363">
				<ele>147.0</ele>
				<time>2011-02-17T16:00:05Z</time>
			</trkpt>
			<trkpt lat="50.85723378766884" lon="6.586095758127776">
				<ele>146.0</ele>
				<time>2011-02-17T16:00:06Z</time>
			</trkpt>
			<trkpt lat="50.85731617286094" lon="6.586099610171">
				<ele>146.0</ele>
				<time>2011-02-17T16:00:07Z</time>
			</trkpt>
			<trkpt lat="50.85739845614741" lon="6.586105296713861">
				<ele>146.0</ele>
				<time>2011-02-17T16:00:08Z</time>
			</trkpt>
			<trkpt lat="50.85747775703654" lon="6.58611845776609">
				<ele>146.0</ele>
				<time>2011-02-17T16:00:09Z</time>
			</trkpt>
			<trkpt lat="50.85755029995991" lon="6.58613718968219">
				<ele>146.0</ele>
				<time>2011-02-17T16:00:10Z</time>
			</trkpt>
			<trkpt lat="50.85761693319509" lon="6.58616044660987">
				<ele>146.0</ele>
				<time>2011-02-17T16:00:11Z</time>
			</trkpt>
			<trkpt lat="50.857663657031395" lon="6.586203700836837">
				<ele>146.0</ele>
				<time>2011-02-17T16:00:12Z</time>
			</trkpt>
			<trkpt lat="50.85769042127952" lon="6.586257776646143">
				<ele>146.0</ele>
				<time>2011-02-17T16:00:13Z</time>
			</trkpt>
			<trkpt lat="50.85769991142528" lon="6.586313229432725">
				<ele>146.0</ele>
				<time>2011-02-17T16:00:14Z</time>
			</trkpt>
			<trkpt lat="50.85769525456731" lon="6.586368616486709">
				<ele>146.0</ele>
				<time>2011-02-17T16:00:15Z</time>
			</trkpt>
			<trkpt lat="50.857672558863236" lon="6.586427155807125">
				<ele>146.0</ele>
				<time>2011-02-17T16:00:16Z</time>
			</trkpt>
			<trkpt lat="50.85763826473877" lon="6.586508690194104">
				<ele>147.0</ele>
				<time>2011-02-17T16:00:17Z</time>
			</trkpt>
			<trkpt lat="50.85760267115265" lon="6.58660078058178">
				<ele>147.0</ele>
				<time>2011-02-17T16:00:18Z</time>
			</trkpt>
			<trkpt lat="50.85756882778032" lon="6.5866978964584835">
				<ele>147.0</ele>
				<time>2011-02-17T16:00:19Z</time>
			</trkpt>
			<trkpt lat="50.85753195332589" lon="6.586810581505399">
				<ele>147.0</ele>
				<time>2011-02-17T16:00:20Z</time>
			</trkpt>
			<trkpt lat="50.8574935470207" lon="6.586935969680814">
				<ele>147.0</ele>
				<time>2011-02-17T16:00:21Z</time>
			</trkpt>
			<trkpt lat="50.857455092488166" lon="6.587069266641741">
				<ele>147.0</ele>
				<time>2011-02-17T16:00:22Z</time>
			</trkpt>
			<trkpt lat="50.85741718681834" lon="6.587201162694189">
				<ele>147.0</ele>
				<time>2011-02-17T16:00:23Z</time>
			</trkpt>
			<trkpt lat="50.85738073458547" lon="6.587335469269927">
				<ele>147.0</ele>
				<time>2011-02-17T16:00:24Z</time>
			</trkpt>
			<trkpt lat="50.857343132579814" lon="6.58747221462094">
				<ele>148.0</ele>
				<time>2011-02-17T16:00:25Z</time>
			</trkpt>
			<trkpt lat="50.85730587088728" lon="6.587617053563563">
				<ele>148.0</ele>
				<time>2011-02-17T16:00:26Z</time>
			</trkpt>
			<trkpt lat="50.85726928443666" lon="6.58776162709243">
				<ele>148.0</ele>
				<time>2011-02-17T16:00:27Z</time>
			</trkpt>
			<trkpt lat="50.85723594642399" lon="6.587904369603045">
				<ele>149.0</ele>
				<time>2011-02-17T16:00:28Z</time>
			</trkpt>
			<trkpt lat="50.857202910150576" lon="6.588044792682031">
				<ele>149.0</ele>
				<time>2011-02-17T16:00:29Z</time>
			</trkpt>
			<trkpt lat="50.85717244394403" lon="6.588184307693033">
				<ele>149.0</ele>
				<time>2011-02-17T16:00:30Z</time>
			</trkpt>
			<trkpt lat="50.857142380748385" lon="6.588320202450117">
				<ele>149.0</ele>
				<time>2011-02-17T16:00:31Z</time>
			</trkpt>
			<trkpt lat="50.85711398336951" lon="6.588454938364552">
				<ele>149.0</ele>
				<time>2011-02-17T16:00:32Z</time>
			</trkpt>
			<trkpt lat="50.85708612845038" lon="6.588588655102205">
				<ele>150.0</ele>
				<time>2011-02-17T16:00:33Z</time>
			</trkpt>
			<trkpt lat="50.85705930727552" lon="6.588722121621207">
				<ele>150.0</ele>
				<time>2011-02-17T16:00:34Z</time>
			</trkpt>
			<trkpt lat="50.85703249308583" lon="6.588853540185184">
				<ele>150.0</ele>
				<time>2011-02-17T16:00:35Z</time>
			</trkpt>
			<trkpt lat="50.8570060263847" lon="6.588983093235136">
				<ele>150.0</ele>
				<time>2011-02-17T16:00:36Z</time>
			</trkpt>
			<trkpt lat="50.856980217987086" lon="6.5891106582811805">
				<ele>150.0</ele>
				<time>2011-02-17T16:00:37Z</time>
			</trkpt>
			<trkpt lat="50.85695583022088" lon="6.589231436611294">
				<ele>150.0</ele>
				<time>2011-02-17T16:00:38Z</time>
			</trkpt>
			<trkpt lat="50.856933675161805" lon="6.589338919102814">
				<ele>150.0</ele>
				<time>2011-02-17T16:00:39Z</time>
			</trkpt>
			<trkpt lat="50.85691390709293" lon="6.58942823973972">
				<ele>150.0</ele>
				<time>2011-02-17T16:00:40Z</time>
			</trkpt>
			<trkpt lat="50.85689711257398" lon="6.589504572790756">
				<ele>150.0</ele>
				<time>2011-02-17T16:00:41Z</time>
			</trkpt>
			<trkpt lat="50.856879837450656" lon="6.589578585908341">
				<ele>150.0</ele>
				<time>2011-02-17T16:00:42Z</time>
			</trkpt>
			<trkpt lat="50.85686332923392" lon="6.589657330786071">
				<ele>150.0</ele>
				<time>2011-02-17T16:00:43Z</time>
			</trkpt>
			<trkpt lat="50.856846770856386" lon="6.589749963591519">
				<ele>151.0</ele>
				<time>2011-02-17T16:00:44Z</time>
			</trkpt>
			<trkpt lat="50.85682881254954" lon="6.589851071134814">
				<ele>151.0</ele>
				<time>2011-02-17T16:00:45Z</time>
			</trkpt>
			<trkpt lat="50.856806758073844" lon="6.589966807136224">
				<ele>151.0</ele>
				<time>2011-02-17T16:00:46Z</time>
			</trkpt>
			<trkpt lat="50.85677916857298" lon="6.590094232594218">
				<ele>151.0</ele>
				<time>2011-02-17T16:00:47Z</time>
			</trkpt>
			<trkpt lat="50.85674712208411" lon="6.590222849925521">
				<ele>151.0</ele>
				<time>2011-02-17T16:00:48Z</time>
			</trkpt>
			<trkpt lat="50.85671451404734" lon="6.59034919988559">
				<ele>151.0</ele>
				<time>2011-02-17T16:00:49Z</time>
			</trkpt>
			<trkpt lat="50.85668174615059" lon="6.590478017218036">
				<ele>151.0</ele>
				<time>2011-02-17T16:00:50Z</time>
			</trkpt>
			<trkpt lat="50.85664961889654" lon="6.590607318415311">
				<ele>151.0</ele>
				<time>2011-02-17T16:00:51Z</time>
			</trkpt>
			<trkpt lat="50.85662011623354" lon="6.590734456835546">
				<ele>151.0</ele>
				<time>2011-02-17T16:00:52Z</time>
			</trkpt>
			<trkpt lat="50.85659238765228" lon="6.590859204612922">
				<ele>151.0</ele>
				<time>2011-02-17T16:00:53Z</time>
			</trkpt>
			<trkpt lat="50.85657067498431" lon="6.590972122595714">
				<ele>151.0</ele>
				<time>2011-02-17T16:00:54Z</time>
			</trkpt>
			<trkpt lat="50.856549471748984" lon="6.591084384005925">
				<ele>151.0</ele>
				<time>2011-02-17T16:00:55Z</time>
			</trkpt>
			<trkpt lat="50.85652867282362" lon="6.591193598929426">
				<ele>151.0</ele>
				<time>2011-02-17T16:00:56Z</time>
			</trkpt>
			<trkpt lat="50.85650688235673" lon="6.591294589603549">
				<ele>151.0</ele>
				<time>2011-02-17T16:00:57Z</time>
			</trkpt>
			<trkpt lat="50.856484944018916" lon="6.591390036570367">
				<ele>151.0</ele>
				<time>2011-02-17T16:00:58Z</time>
			</trkpt>
			<trkpt lat="50.85646419807596" lon="6.591482096041472">
				<ele>152.0</ele>
				<time>2011-02-17T16:00:59Z</time>
			</trkpt>
			<trkpt lat="50.85644460043326" lon="6.591578524815638">
				<ele>152.0</ele>
				<time>2011-02-17T16:01:00Z</time>
			</trkpt>
			<trkpt lat="50.85642450824433" lon="6.591689865913048">
				<ele>152.0</ele>
				<time>2011-02-17T16:01:01Z</time>
			</trkpt>
			<trkpt lat="50.85640452870787" lon="6.591810499555482">
				<ele>152.0</ele>
				<time>2011-02-17T16:01:02Z</time>
			</trkpt>
			<trkpt lat="50.85638579837983" lon="6.591928456607468">
				<ele>152.0</ele>
				<time>2011-02-17T16:01:03Z</time>
			</trkpt>
			<trkpt lat="50.85637035365145" lon="6.592043445288545">
				<ele>152.0</ele>
				<time>2011-02-17T16:01:04Z</time>
			</trkpt>
			<trkpt lat="50.85635809702741" lon="6.592144690388198">
				<ele>152.0</ele>
				<time>2011-02-17T16:01:05Z</time>
			</trkpt>
			<trkpt lat="50.85635265591795" lon="6.592226589149157">
				<ele>152.0</ele>
				<time>2011-02-17T16:01:06Z</time>
			</trkpt>
			<trkpt lat="50.856359939527266" lon="6.592293691183173">
				<ele>151.0</ele>
				<time>2011-02-17T16:01:07Z</time>
			</trkpt>
			<trkpt lat="50.85637591385806" lon="6.592332957542515">
				<ele>151.0</ele>
				<time>2011-02-17T16:01:08Z</time>
			</trkpt>
			<trkpt lat="50.85639038930406" lon="6.592347972003423">
				<ele>151.0</ele>
				<time>2011-02-17T16:01:09Z</time>
			</trkpt>
			<trkpt lat="50.85639038930406" lon="6.592347972003423">
				<ele>151.0</ele>
				<time>2011-02-17T16:01:10Z</time>
			</trkpt>
			<trkpt lat="50.85639038930406" lon="6.592347972003423">
				<ele>151.0</ele>
				<time>2011-02-17T16:01:11Z</time>
			</trkpt>
			<trkpt lat="50.85639038930406" lon="6.592347972003423">
				<ele>151.0</ele>
				<time>2011-02-17T16:01:12Z</time>
			</trkpt>
			<trkpt lat="50.85639038930406" lon="6.592347972003423">
				<ele>151.0</ele>
				<time>2011-02-17T16:01:13Z</time>
			</trkpt>
			<trkpt lat="50.85639038930406" lon="6.592347972003423">
				<ele>151.0</ele>
				<time>2011-02-17T16:01:14Z</time>
			</trkpt>
			<trkpt lat="50.85638103845901" lon="6.592349665486314">
				<ele>151.0</ele>
				<time>2011-02-17T16:01:15Z</time>
			</trkpt>
			<trkpt lat="50.85638103845901" lon="6.592349665486314">
				<ele>151.0</ele>
				<time>2011-02-17T16:01:16Z</time>
			</trkpt>
			<trkpt lat="50.85637546334369" lon="6.592313037776131">
				<ele>151.0</ele>
				<time>2011-02-17T16:01:17Z</time>
			</trkpt>
			<trkpt lat="50.85637546334369" lon="6.592313037776131">
				<ele>151.0</ele>
				<time>2011-02-17T16:01:18Z</time>
			</trkpt>
			<trkpt lat="50.85637546334369" lon="6.592313037776131">
				<ele>151.0</ele>
				<time>2011-02-17T16:01:19Z</time>
			</trkpt>
			<trkpt lat="50.85635566543939" lon="6.592336229487286">
				<ele>151.0</ele>
				<time>2011-02-17T16:01:20Z</time>
			</trkpt>
			<trkpt lat="50.856353487372225" lon="6.5924056138101275">
				<ele>151.0</ele>
				<time>2011-02-17T16:01:21Z</time>
			</trkpt>
			<trkpt lat="50.85634801389559" lon="6.592495291131939">
				<ele>151.0</ele>
				<time>2011-02-17T16:01:22Z</time>
			</trkpt>
			<trkpt lat="50.856340802682794" lon="6.592607039744497">
				<ele>151.0</ele>
				<time>2011-02-17T16:01:23Z</time>
			</trkpt>
			<trkpt lat="50.85633284574932" lon="6.592725446547528">
				<ele>150.0</ele>
				<time>2011-02-17T16:01:24Z</time>
			</trkpt>
			<trkpt lat="50.85632434556099" lon="6.592861001144101">
				<ele>150.0</ele>
				<time>2011-02-17T16:01:25Z</time>
			</trkpt>
			<trkpt lat="50.85631383612942" lon="6.593008301945225">
				<ele>150.0</ele>
				<time>2011-02-17T16:01:26Z</time>
			</trkpt>
			<trkpt lat="50.85629985889592" lon="6.593156132725621">
				<ele>150.0</ele>
				<time>2011-02-17T16:01:27Z</time>
			</trkpt>
			<trkpt lat="50.856284393104424" lon="6.593307619801046">
				<ele>150.0</ele>
				<time>2011-02-17T16:01:28Z</time>
			</trkpt>
			<trkpt lat="50.85626632626167" lon="6.593455078864816">
				<ele>150.0</ele>
				<time>2011-02-17T16:01:29Z</time>
			</trkpt>
			<trkpt lat="50.85624864664391" lon="6.593597687084017">
				<ele>150.0</ele>
				<time>2011-02-17T16:01:30Z</time>
			</trkpt>
			<trkpt lat="50.856231459714586" lon="6.593735701012595">
				<ele>149.0</ele>
				<time>2011-02-17T16:01:31Z</time>
			</trkpt>
			<trkpt lat="50.856216834338646" lon="6.593869419836075">
				<ele>149.0</ele>
				<time>2011-02-17T16:01:32Z</time>
			</trkpt>
			<trkpt lat="50.85620289708851" lon="6.5939999848883275">
				<ele>149.0</ele>
				<time>2011-02-17T16:01:33Z</time>
			</trkpt>
			<trkpt lat="50.856189950635006" lon="6.594125899437011">
				<ele>149.0</ele>
				<time>2011-02-17T16:01:34Z</time>
			</trkpt>
			<trkpt lat="50.85617868181645" lon="6.594250731422211">
				<ele>149.0</ele>
				<time>2011-02-17T16:01:35Z</time>
			</trkpt>
			<trkpt lat="50.856166745927005" lon="6.594375695619276">
				<ele>150.0</ele>
				<time>2011-02-17T16:01:36Z</time>
			</trkpt>
			<trkpt lat="50.85615573605379" lon="6.594496318447449">
				<ele>150.0</ele>
				<time>2011-02-17T16:01:37Z</time>
			</trkpt>
			<trkpt lat="50.85614678746312" lon="6.5946160384884545">
				<ele>150.0</ele>
				<time>2011-02-17T16:01:38Z</time>
			</trkpt>
			<trkpt lat="50.85613584999567" lon="6.594733631336077">
				<ele>150.0</ele>
				<time>2011-02-17T16:01:39Z</time>
			</trkpt>
			<trkpt lat="50.856122286784824" lon="6.59485049709093">
				<ele>150.0</ele>
				<time>2011-02-17T16:01:40Z</time>
			</trkpt>
			<trkpt lat="50.85610751996263" lon="6.594966133296462">
				<ele>150.0</ele>
				<time>2011-02-17T16:01:41Z</time>
			</trkpt>
			<trkpt lat="50.856090180540455" lon="6.595079887880295">
				<ele>151.0</ele>
				<time>2011-02-17T16:01:42Z</time>
			</trkpt>
			<trkpt lat="50.85607263704045" lon="6.5951967460003855">
				<ele>151.0</ele>
				<time>2011-02-17T16:01:43Z</time>
			</trkpt>
			<trkpt lat="50.85605613277855" lon="6.595319250488512">
				<ele>151.0</ele>
				<time>2011-02-17T16:01:44Z</time>
			</trkpt>
			<trkpt lat="50.8560466560903" lon="6.595442353472253">
				<ele>151.0</ele>
				<time>2011-02-17T16:01:45Z</time>
			</trkpt>
			<trkpt lat="50.85604339948759" lon="6.595564241737932">
				<ele>151.0</ele>
				<time>2011-02-17T16:01:46Z</time>
			</trkpt>
			<trkpt lat="50.85604382996649" lon="6.595676238451527">
				<ele>151.0</ele>
				<time>2011-02-17T16:01:47Z</time>
			</trkpt>
			<trkpt lat="50.85603095778728" lon="6.595783009993736">
				<ele>151.0</ele>
				<time>2011-02-17T16:01:48Z</time>
			</trkpt>
			<trkpt lat="50.85602223412229" lon="6.595885683720821">
				<ele>151.0</ele>
				<time>2011-02-17T16:01:49Z</time>
			</trkpt>
			<trkpt lat="50.85604650177117" lon="6.5959722644554635">
				<ele>151.0</ele>
				<time>2011-02-17T16:01:50Z</time>
			</trkpt>
			<trkpt lat="50.856092648417835" lon="6.596024989664737">
				<ele>151.0</ele>
				<time>2011-02-17T16:01:51Z</time>
			</trkpt>
			<trkpt lat="50.85614251890133" lon="6.596035259704342">
				<ele>150.0</ele>
				<time>2011-02-17T16:01:52Z</time>
			</trkpt>
			<trkpt lat="50.85618280330574" lon="6.595999921941175">
				<ele>150.0</ele>
				<time>2011-02-17T16:01:53Z</time>
			</trkpt>
			<trkpt lat="50.856206998822834" lon="6.595934906116625">
				<ele>150.0</ele>
				<time>2011-02-17T16:01:54Z</time>
			</trkpt>
			<trkpt lat="50.85620507368327" lon="6.595860362388899">
				<ele>150.0</ele>
				<time>2011-02-17T16:01:55Z</time>
			</trkpt>
			<trkpt lat="50.85618428236093" lon="6.5957886897935865">
				<ele>150.0</ele>
				<time>2011-02-17T16:01:56Z</time>
			</trkpt>
			<trkpt lat="50.85615890099882" lon="6.595703279051456">
				<ele>150.0</ele>
				<time>2011-02-17T16:01:57Z</time>
			</trkpt>
			<trkpt lat="50.85613694504554" lon="6.595612764067948">
				<ele>150.0</ele>
				<time>2011-02-17T16:01:58Z</time>
			</trkpt>
			<trkpt lat="50.85613099607614" lon="6.595510499057269">
				<ele>150.0</ele>
				<time>2011-02-17T16:01:59Z</time>
			</trkpt>
			<trkpt lat="50.85612879673679" lon="6.595406441754605">
				<ele>150.0</ele>
				<time>2011-02-17T16:02:00Z</time>
			</trkpt>
			<trkpt lat="50.85613214004803" lon="6.595297838084316">
				<ele>150.0</ele>
				<time>2011-02-17T16:02:01Z</time>
			</trkpt>
			<trkpt lat="50.85614068634194" lon="6.59518291652104">
				<ele>150.0</ele>
				<time>2011-02-17T16:02:02Z</time>
			</trkpt>
			<trkpt lat="50.85615284004906" lon="6.5950598341042435">
				<ele>150.0</ele>
				<time>2011-02-17T16:02:03Z</time>
			</trkpt>
			<trkpt lat="50.85616429753013" lon="6.594931270050888">
				<ele>150.0</ele>
				<time>2011-02-17T16:02:04Z</time>
			</trkpt>
			<trkpt lat="50.85617495993263" lon="6.594801206704221">
				<ele>150.0</ele>
				<time>2011-02-17T16:02:05Z</time>
			</trkpt>
			<trkpt lat="50.856184914239144" lon="6.5946682656195375">
				<ele>150.0</ele>
				<time>2011-02-17T16:02:06Z</time>
			</trkpt>
			<trkpt lat="50.856194743527645" lon="6.594534999969813">
				<ele>150.0</ele>
				<time>2011-02-17T16:02:07Z</time>
			</trkpt>
			<trkpt lat="50.85620578163876" lon="6.5944007035321635">
				<ele>150.0</ele>
				<time>2011-02-17T16:02:08Z</time>
			</trkpt>
			<trkpt lat="50.85621710081179" lon="6.594258007414304">
				<ele>150.0</ele>
				<time>2011-02-17T16:02:09Z</time>
			</trkpt>
			<trkpt lat="50.85622773313908" lon="6.594113746018673">
				<ele>149.0</ele>
				<time>2011-02-17T16:02:10Z</time>
			</trkpt>
			<trkpt lat="50.85624103258195" lon="6.5939638718561175">
				<ele>149.0</ele>
				<time>2011-02-17T16:02:11Z</time>
			</trkpt>
			<trkpt lat="50.8562543920798" lon="6.593815017743148">
				<ele>149.0</ele>
				<time>2011-02-17T16:02:12Z</time>
			</trkpt>
			<trkpt lat="50.85626752972035" lon="6.593663542079784">
				<ele>149.0</ele>
				<time>2011-02-17T16:02:13Z</time>
			</trkpt>
			<trkpt lat="50.856280699340566" lon="6.593506867718196">
				<ele>149.0</ele>
				<time>2011-02-17T16:02:14Z</time>
			</trkpt>
			<trkpt lat="50.85629284681186" lon="6.593351908500685">
				<ele>149.0</ele>
				<time>2011-02-17T16:02:15Z</time>
			</trkpt>
			<trkpt lat="50.85630440275233" lon="6.593200127880681">
				<ele>149.0</ele>
				<time>2011-02-17T16:02:16Z</time>
			</trkpt>
			<trkpt lat="50.856320274584625" lon="6.593052646993558">
				<ele>149.0</ele>
				<time>2011-02-17T16:02:17Z</time>
			</trkpt>
			<trkpt lat="50.856336409459225" lon="6.592908226490347">
				<ele>149.0</ele>
				<time>2011-02-17T16:02:18Z</time>
			</trkpt>
			<trkpt lat="50.85634999569861" lon="6.5927728243510195">
				<ele>149.0</ele>
				<time>2011-02-17T16:02:19Z</time>
			</trkpt>
			<trkpt lat="50.85635755166451" lon="6.592637022151518">
				<ele>149.0</ele>
				<time>2011-02-17T16:02:20Z</time>
			</trkpt>
			<trkpt lat="50.85636416668165" lon="6.592501012648384">
				<ele>149.0</ele>
				<time>2011-02-17T16:02:21Z</time>
			</trkpt>
			<trkpt lat="50.85637185682852" lon="6.59236645315412">
				<ele>150.0</ele>
				<time>2011-02-17T16:02:22Z</time>
			</trkpt>
			<trkpt lat="50.85638232109863" lon="6.592234011426575">
				<ele>150.0</ele>
				<time>2011-02-17T16:02:23Z</time>
			</trkpt>
			<trkpt lat="50.85639465471976" lon="6.592106722192322">
				<ele>150.0</ele>
				<time>2011-02-17T16:02:24Z</time>
			</trkpt>
			<trkpt lat="50.85640934509806" lon="6.591982777139916">
				<ele>150.0</ele>
				<time>2011-02-17T16:02:25Z</time>
			</trkpt>
			<trkpt lat="50.85642381592166" lon="6.5918634114750585">
				<ele>150.0</ele>
				<time>2011-02-17T16:02:26Z</time>
			</trkpt>
			<trkpt lat="50.85644121747645" lon="6.59174750147637">
				<ele>150.0</ele>
				<time>2011-02-17T16:02:27Z</time>
			</trkpt>
			<trkpt lat="50.856459203644974" lon="6.591634426781325">
				<ele>150.0</ele>
				<time>2011-02-17T16:02:28Z</time>
			</trkpt>
			<trkpt lat="50.856483903496375" lon="6.591525867267384">
				<ele>150.0</ele>
				<time>2011-02-17T16:02:29Z</time>
			</trkpt>
			<trkpt lat="50.85650897711199" lon="6.59142127172302">
				<ele>150.0</ele>
				<time>2011-02-17T16:02:30Z</time>
			</trkpt>
			<trkpt lat="50.856533147616645" lon="6.591316796812043">
				<ele>150.0</ele>
				<time>2011-02-17T16:02:31Z</time>
			</trkpt>
			<trkpt lat="50.856555916608535" lon="6.591209689346054">
				<ele>150.0</ele>
				<time>2011-02-17T16:02:32Z</time>
			</trkpt>
			<trkpt lat="50.856577549949385" lon="6.59109280780433">
				<ele>150.0</ele>
				<time>2011-02-17T16:02:33Z</time>
			</trkpt>
			<trkpt lat="50.856601276850334" lon="6.5909635828765465">
				<ele>150.0</ele>
				<time>2011-02-17T16:02:34Z</time>
			</trkpt>
			<trkpt lat="50.856626754110685" lon="6.590835315084209">
				<ele>150.0</ele>
				<time>2011-02-17T16:02:35Z</time>
			</trkpt>
			<trkpt lat="50.856652992506056" lon="6.5907064114582035">
				<ele>150.0</ele>
				<time>2011-02-17T16:02:36Z</time>
			</trkpt>
			<trkpt lat="50.85667994409975" lon="6.590574721619362">
				<ele>150.0</ele>
				<time>2011-02-17T16:02:37Z</time>
			</trkpt>
			<trkpt lat="50.85670613124635" lon="6.590443509878535">
				<ele>150.0</ele>
				<time>2011-02-17T16:02:38Z</time>
			</trkpt>
			<trkpt lat="50.85673227862596" lon="6.590310754913167">
				<ele>150.0</ele>
				<time>2011-02-17T16:02:39Z</time>
			</trkpt>
			<trkpt lat="50.856760640618" lon="6.590180034789134">
				<ele>150.0</ele>
				<time>2011-02-17T16:02:40Z</time>
			</trkpt>
			<trkpt lat="50.856792579956405" lon="6.59005117416974">
				<ele>150.0</ele>
				<time>2011-02-17T16:02:41Z</time>
			</trkpt>
			<trkpt lat="50.856824517227665" lon="6.589923580718141">
				<ele>150.0</ele>
				<time>2011-02-17T16:02:42Z</time>
			</trkpt>
			<trkpt lat="50.8568579960007" lon="6.589796910809233">
				<ele>150.0</ele>
				<time>2011-02-17T16:02:43Z</time>
			</trkpt>
			<trkpt lat="50.856889879282726" lon="6.5896708315076316">
				<ele>150.0</ele>
				<time>2011-02-17T16:02:44Z</time>
			</trkpt>
			<trkpt lat="50.85692109859666" lon="6.58954631728424">
				<ele>150.0</ele>
				<time>2011-02-17T16:02:45Z</time>
			</trkpt>
			<trkpt lat="50.85695255072946" lon="6.589420211427367">
				<ele>150.0</ele>
				<time>2011-02-17T16:02:46Z</time>
			</trkpt>
			<trkpt lat="50.8569840273563" lon="6.58929253614355">
				<ele>150.0</ele>
				<time>2011-02-17T16:02:47Z</time>
			</trkpt>
			<trkpt lat="50.85701709331935" lon="6.589158099187263">
				<ele>150.0</ele>
				<time>2011-02-17T16:02:48Z</time>
			</trkpt>
			<trkpt lat="50.857052355143864" lon="6.5889973431717905">
				<ele>150.0</ele>
				<time>2011-02-17T16:02:49Z</time>
			</trkpt>
			<trkpt lat="50.8570869284019" lon="6.588836335158922">
				<ele>150.0</ele>
				<time>2011-02-17T16:02:50Z</time>
			</trkpt>
			<trkpt lat="50.8571214802508" lon="6.588665076192038">
				<ele>150.0</ele>
				<time>2011-02-17T16:02:51Z</time>
			</trkpt>
			<trkpt lat="50.85715649271905" lon="6.588490552235823">
				<ele>150.0</ele>
				<time>2011-02-17T16:02:52Z</time>
			</trkpt>
			<trkpt lat="50.85719256209252" lon="6.588316675480734">
				<ele>150.0</ele>
				<time>2011-02-17T16:02:53Z</time>
			</trkpt>
			<trkpt lat="50.85722922466672" lon="6.588143129383122">
				<ele>150.0</ele>
				<time>2011-02-17T16:02:54Z</time>
			</trkpt>
			<trkpt lat="50.85726546407555" lon="6.587971195463626">
				<ele>150.0</ele>
				<time>2011-02-17T16:02:55Z</time>
			</trkpt>
			<trkpt lat="50.857301059955226" lon="6.587800547953701">
				<ele>150.0</ele>
				<time>2011-02-17T16:02:56Z</time>
			</trkpt>
			<trkpt lat="50.85733685813782" lon="6.58763138959577">
				<ele>150.0</ele>
				<time>2011-02-17T16:02:57Z</time>
			</trkpt>
			<trkpt lat="50.85737491225316" lon="6.5874661375450785">
				<ele>150.0</ele>
				<time>2011-02-17T16:02:58Z</time>
			</trkpt>
			<trkpt lat="50.85741435791544" lon="6.587305104924943">
				<ele>150.0</ele>
				<time>2011-02-17T16:02:59Z</time>
			</trkpt>
			<trkpt lat="50.857455877934655" lon="6.5871496000812195">
				<ele>150.0</ele>
				<time>2011-02-17T16:03:00Z</time>
			</trkpt>
			<trkpt lat="50.85749626638805" lon="6.587000976278384">
				<ele>150.0</ele>
				<time>2011-02-17T16:03:01Z</time>
			</trkpt>
			<trkpt lat="50.85753697466049" lon="6.586859838137114">
				<ele>150.0</ele>
				<time>2011-02-17T16:03:02Z</time>
			</trkpt>
			<trkpt lat="50.85757615601125" lon="6.586724086683741">
				<ele>150.0</ele>
				<time>2011-02-17T16:03:03Z</time>
			</trkpt>
			<trkpt lat="50.85761607649374" lon="6.58659389609177">
				<ele>151.0</ele>
				<time>2011-02-17T16:03:04Z</time>
			</trkpt>
			<trkpt lat="50.857656912620605" lon="6.586469438969345">
				<ele>150.0</ele>
				<time>2011-02-17T16:03:05Z</time>
			</trkpt>
			<trkpt lat="50.85769841793306" lon="6.586361777720583">
				<ele>150.0</ele>
				<time>2011-02-17T16:03:06Z</time>
			</trkpt>
			<trkpt lat="50.857748640069495" lon="6.586284702129531">
				<ele>150.0</ele>
				<time>2011-02-17T16:03:07Z</time>
			</trkpt>
			<trkpt lat="50.857787992761736" lon="6.586227815988995">
				<ele>150.0</ele>
				<time>2011-02-17T16:03:08Z</time>
			</trkpt>
			<trkpt lat="50.85782686305834" lon="6.586179406639099">
				<ele>150.0</ele>
				<time>2011-02-17T16:03:09Z</time>
			</trkpt>
			<trkpt lat="50.85787158874313" lon="6.586145442168795">
				<ele>150.0</ele>
				<time>2011-02-17T16:03:10Z</time>
			</trkpt>
			<trkpt lat="50.85792216923822" lon="6.586142634834616">
				<ele>150.0</ele>
				<time>2011-02-17T16:03:11Z</time>
			</trkpt>
			<trkpt lat="50.85797214942373" lon="6.58616495069172">
				<ele>150.0</ele>
				<time>2011-02-17T16:03:12Z</time>
			</trkpt>
			<trkpt lat="50.85802806519753" lon="6.58619622774838">
				<ele>150.0</ele>
				<time>2011-02-17T16:03:13Z</time>
			</trkpt>
			<trkpt lat="50.85809183984386" lon="6.5862373986262535">
				<ele>150.0</ele>
				<time>2011-02-17T16:03:14Z</time>
			</trkpt>
			<trkpt lat="50.858155200008646" lon="6.586285389803601">
				<ele>150.0</ele>
				<time>2011-02-17T16:03:15Z</time>
			</trkpt>
			<trkpt lat="50.85822175621901" lon="6.586343401746254">
				<ele>150.0</ele>
				<time>2011-02-17T16:03:16Z</time>
			</trkpt>
			<trkpt lat="50.85828826184649" lon="6.586407125976843">
				<ele>150.0</ele>
				<time>2011-02-17T16:03:17Z</time>
			</trkpt>
			<trkpt lat="50.858356400380586" lon="6.586476010690121">
				<ele>150.0</ele>
				<time>2011-02-17T16:03:18Z</time>
			</trkpt>
			<trkpt lat="50.858425019747564" lon="6.586544819275271">
				<ele>150.0</ele>
				<time>2011-02-17T16:03:19Z</time>
			</trkpt>
			<trkpt lat="50.858493853875295" lon="6.586613305436046">
				<ele>150.0</ele>
				<time>2011-02-17T16:03:20Z</time>
			</trkpt>
			<trkpt lat="50.85856168466297" lon="6.586681638151992">
				<ele>150.0</ele>
				<time>2011-02-17T16:03:21Z</time>
			</trkpt>
			<trkpt lat="50.85862813122214" lon="6.586748807396529">
				<ele>150.0</ele>
				<time>2011-02-17T16:03:22Z</time>
			</trkpt>
			<trkpt lat="50.85869109356767" lon="6.586811359316552">
				<ele>150.0</ele>
				<time>2011-02-17T16:03:23Z</time>
			</trkpt>
			<trkpt lat="50.858753236292266" lon="6.586868072697556">
				<ele>150.0</ele>
				<time>2011-02-17T16:03:24Z</time>
			</trkpt>
			<trkpt lat="50.85881734011785" lon="6.5869162938682795">
				<ele>150.0</ele>
				<time>2011-02-17T16:03:25Z</time>
			</trkpt>
			<trkpt lat="50.858886245582674" lon="6.586940834591865">
				<ele>150.0</ele>
				<time>2011-02-17T16:03:26Z</time>
			</trkpt>
			<trkpt lat="50.85895627949047" lon="6.586960954448318">
				<ele>150.0</ele>
				<time>2011-02-17T16:03:27Z</time>
			</trkpt>
			<trkpt lat="50.85902450069256" lon="6.58697300993716">
				<ele>150.0</ele>
				<time>2011-02-17T16:03:28Z</time>
			</trkpt>
			<trkpt lat="50.859092452083814" lon="6.586956494649279">
				<ele>150.0</ele>
				<time>2011-02-17T16:03:29Z</time>
			</trkpt>
			<trkpt lat="50.8591503563736" lon="6.586906891190691">
				<ele>149.0</ele>
				<time>2011-02-17T16:03:30Z</time>
			</trkpt>
			<trkpt lat="50.85919400910211" lon="6.586837356075441">
				<ele>149.0</ele>
				<time>2011-02-17T16:03:31Z</time>
			</trkpt>
			<trkpt lat="50.859224760688306" lon="6.586751527501107">
				<ele>150.0</ele>
				<time>2011-02-17T16:03:32Z</time>
			</trkpt>
			<trkpt lat="50.85925647279123" lon="6.586646571116454">
				<ele>150.0</ele>
				<time>2011-02-17T16:03:33Z</time>
			</trkpt>
			<trkpt lat="50.85928720168669" lon="6.586530352837333">
				<ele>150.0</ele>
				<time>2011-02-17T16:03:34Z</time>
			</trkpt>
			<trkpt lat="50.859317159728064" lon="6.586410483916932">
				<ele>150.0</ele>
				<time>2011-02-17T16:03:35Z</time>
			</trkpt>
			<trkpt lat="50.859348333937064" lon="6.586284534512653">
				<ele>150.0</ele>
				<time>2011-02-17T16:03:36Z</time>
			</trkpt>
			<trkpt lat="50.8593825118505" lon="6.586147485753033">
				<ele>150.0</ele>
				<time>2011-02-17T16:03:37Z</time>
			</trkpt>
			<trkpt lat="50.85941633149424" lon="6.586010392700273">
				<ele>150.0</ele>
				<time>2011-02-17T16:03:38Z</time>
			</trkpt>
			<trkpt lat="50.859450339762326" lon="6.585873554747878">
				<ele>150.0</ele>
				<time>2011-02-17T16:03:39Z</time>
			</trkpt>
			<trkpt lat="50.85948477847429" lon="6.5857376840993895">
				<ele>150.0</ele>
				<time>2011-02-17T16:03:40Z</time>
			</trkpt>
			<trkpt lat="50.85952006099146" lon="6.585605712509783">
				<ele>151.0</ele>
				<time>2011-02-17T16:03:41Z</time>
			</trkpt>
			<trkpt lat="50.859554630751404" lon="6.585476281320808">
				<ele>150.0</ele>
				<time>2011-02-17T16:03:42Z</time>
			</trkpt>
			<trkpt lat="50.85958784137102" lon="6.585347853108945">
				<ele>150.0</ele>
				<time>2011-02-17T16:03:43Z</time>
			</trkpt>
			<trkpt lat="50.859619211915394" lon="6.585217793366451">
				<ele>150.0</ele>
				<time>2011-02-17T16:03:44Z</time>
			</trkpt>
			<trkpt lat="50.85965078484034" lon="6.585088402549335">
				<ele>150.0</ele>
				<time>2011-02-17T16:03:45Z</time>
			</trkpt>
			<trkpt lat="50.85968346195199" lon="6.584958293909716">
				<ele>150.0</ele>
				<time>2011-02-17T16:03:46Z</time>
			</trkpt>
			<trkpt lat="50.85971595969919" lon="6.584826784088834">
				<ele>150.0</ele>
				<time>2011-02-17T16:03:47Z</time>
			</trkpt>
			<trkpt lat="50.85975147346976" lon="6.5846932888820175">
				<ele>151.0</ele>
				<time>2011-02-17T16:03:48Z</time>
			</trkpt>
			<trkpt lat="50.859788141140356" lon="6.584557369235361">
				<ele>151.0</ele>
				<time>2011-02-17T16:03:49Z</time>
			</trkpt>
			<trkpt lat="50.85982706534089" lon="6.584424185400586">
				<ele>151.0</ele>
				<time>2011-02-17T16:03:50Z</time>
			</trkpt>
			<trkpt lat="50.85986860877208" lon="6.584291234378988">
				<ele>151.0</ele>
				<time>2011-02-17T16:03:51Z</time>
			</trkpt>
			<trkpt lat="50.859911734408215" lon="6.584161058235235">
				<ele>151.0</ele>
				<time>2011-02-17T16:03:52Z</time>
			</trkpt>
			<trkpt lat="50.85995420423884" lon="6.584033987551489">
				<ele>151.0</ele>
				<time>2011-02-17T16:03:53Z</time>
			</trkpt>
			<trkpt lat="50.85999408226058" lon="6.583908783032752">
				<ele>152.0</ele>
				<time>2011-02-17T16:03:54Z</time>
			</trkpt>
			<trkpt lat="50.86002921061341" lon="6.583781521718081">
				<ele>152.0</ele>
				<time>2011-02-17T16:03:55Z</time>
			</trkpt>
			<trkpt lat="50.860063171080874" lon="6.583652279078223">
				<ele>152.0</ele>
				<time>2011-02-17T16:03:56Z</time>
			</trkpt>
			<trkpt lat="50.86009547883555" lon="6.583514718359362">
				<ele>153.0</ele>
				<time>2011-02-17T16:03:57Z</time>
			</trkpt>
			<trkpt lat="50.86012539631686" lon="6.58337511189644">
				<ele>153.0</ele>
				<time>2011-02-17T16:03:58Z</time>
			</trkpt>
			<trkpt lat="50.8601557833187" lon="6.5832327969386135">
				<ele>153.0</ele>
				<time>2011-02-17T16:03:59Z</time>
			</trkpt>
			<trkpt lat="50.86017686471808" lon="6.583104035511661">
				<ele>153.0</ele>
				<time>2011-02-17T16:04:00Z</time>
			</trkpt>
			<trkpt lat="50.86019779522157" lon="6.5829729286543115">
				<ele>153.0</ele>
				<time>2011-02-17T16:04:01Z</time>
			</trkpt>
			<trkpt lat="50.8602155453621" lon="6.582841564066844">
				<ele>153.0</ele>
				<time>2011-02-17T16:04:02Z</time>
			</trkpt>
			<trkpt lat="50.86023311941213" lon="6.582717632028714">
				<ele>153.0</ele>
				<time>2011-02-17T16:04:03Z</time>
			</trkpt>
			<trkpt lat="50.86025027053828" lon="6.582598518002284">
				<ele>153.0</ele>
				<time>2011-02-17T16:04:04Z</time>
			</trkpt>
			<trkpt lat="50.860263868898926" lon="6.58250148551263">
				<ele>153.0</ele>
				<time>2011-02-17T16:04:05Z</time>
			</trkpt>
			<trkpt lat="50.860273474826926" lon="6.582411730957133">
				<ele>153.0</ele>
				<time>2011-02-17T16:04:06Z</time>
			</trkpt>
			<trkpt lat="50.86026447195281" lon="6.582332896834852">
				<ele>152.0</ele>
				<time>2011-02-17T16:04:07Z</time>
			</trkpt>
			<trkpt lat="50.86023991618208" lon="6.5822735663738685">
				<ele>152.0</ele>
				<time>2011-02-17T16:04:08Z</time>
			</trkpt>
			<trkpt lat="50.86019877369773" lon="6.582241478032588">
				<ele>152.0</ele>
				<time>2011-02-17T16:04:09Z</time>
			</trkpt>
			<trkpt lat="50.86015323350673" lon="6.582211824781291">
				<ele>152.0</ele>
				<time>2011-02-17T16:04:10Z</time>
			</trkpt>
			<trkpt lat="50.86010673641281" lon="6.582182560538017">
				<ele>152.0</ele>
				<time>2011-02-17T16:04:11Z</time>
			</trkpt>
			<trkpt lat="50.860060527593646" lon="6.582152784089528">
				<ele>152.0</ele>
				<time>2011-02-17T16:04:12Z</time>
			</trkpt>
			<trkpt lat="50.8600203689752" lon="6.582126175739449">
				<ele>152.0</ele>
				<time>2011-02-17T16:04:13Z</time>
			</trkpt>
			<trkpt lat="50.85998606908564" lon="6.582107202154951">
				<ele>152.0</ele>
				<time>2011-02-17T16:04:14Z</time>
			</trkpt>
			<trkpt lat="50.85995862417839" lon="6.5820920696143475">
				<ele>152.0</ele>
				<time>2011-02-17T16:04:15Z</time>
			</trkpt>
			<trkpt lat="50.85995862417839" lon="6.5820920696143475">
				<ele>152.0</ele>
				<time>2011-02-17T16:04:16Z</time>
			</trkpt>
			<trkpt lat="50.859920553864626" lon="6.582071216788246">
				<ele>152.0</ele>
				<time>2011-02-17T16:04:17Z</time>
			</trkpt>
			<trkpt lat="50.859920553864626" lon="6.582071216788246">
				<ele>152.0</ele>
				<time>2011-02-17T16:04:18Z</time>
			</trkpt>
			<trkpt lat="50.859920553864626" lon="6.582071216788246">
				<ele>152.0</ele>
				<time>2011-02-17T16:04:19Z</time>
			</trkpt>
			<trkpt lat="50.859920553864626" lon="6.582071216788246">
				<ele>152.0</ele>
				<time>2011-02-17T16:04:20Z</time>
			</trkpt>
			<trkpt lat="50.859920553864626" lon="6.582071216788246">
				<ele>152.0</ele>
				<time>2011-02-17T16:04:21Z</time>
			</trkpt>
			<trkpt lat="50.859920553864626" lon="6.582071216788246">
				<ele>152.0</ele>
				<time>2011-02-17T16:04:22Z</time>
			</trkpt>
			<trkpt lat="50.85990787139591" lon="6.582078531091842">
				<ele>152.0</ele>
				<time>2011-02-17T16:04:23Z</time>
			</trkpt>
			<trkpt lat="50.85989614532107" lon="6.582089490223237">
				<ele>152.0</ele>
				<time>2011-02-17T16:04:24Z</time>
			</trkpt>
			<trkpt lat="50.85989614532107" lon="6.582089490223237">
				<ele>152.0</ele>
				<time>2011-02-17T16:04:25Z</time>
			</trkpt>
			<trkpt lat="50.85989614532107" lon="6.582089490223237">
				<ele>152.0</ele>
				<time>2011-02-17T16:04:26Z</time>
			</trkpt>
			<trkpt lat="50.85989614532107" lon="6.582089490223237">
				<ele>152.0</ele>
				<time>2011-02-17T16:04:27Z</time>
			</trkpt>
			<trkpt lat="50.85989614532107" lon="6.582089490223237">
				<ele>152.0</ele>
				<time>2011-02-17T16:04:28Z</time>
			</trkpt>
			<trkpt lat="50.85989614532107" lon="6.582089490223237">
				<ele>152.0</ele>
				<time>2011-02-17T16:04:29Z</time>
			</trkpt>
			<trkpt lat="50.85989614532107" lon="6.582089490223237">
				<ele>152.0</ele>
				<time>2011-02-17T16:04:30Z</time>
			</trkpt>
			<trkpt lat="50.85989614532107" lon="6.582089490223237">
				<ele>152.0</ele>
				<time>2011-02-17T16:04:31Z</time>
			</trkpt>
			<trkpt lat="50.85989614532107" lon="6.582089490223237">
				<ele>152.0</ele>
				<time>2011-02-17T16:04:32Z</time>
			</trkpt>
			<trkpt lat="50.85989614532107" lon="6.582089490223237">
				<ele>152.0</ele>
				<time>2011-02-17T16:04:33Z</time>
			</trkpt>
			<trkpt lat="50.85989614532107" lon="6.582089490223237">
				<ele>152.0</ele>
				<time>2011-02-17T16:04:34Z</time>
			</trkpt>
			<trkpt lat="50.859907709237426" lon="6.582133087758975">
				<ele>153.0</ele>
				<time>2011-02-17T16:04:35Z</time>
			</trkpt>
			<trkpt lat="50.859937108537764" lon="6.582133056200356">
				<ele>153.0</ele>
				<time>2011-02-17T16:04:36Z</time>
			</trkpt>
			<trkpt lat="50.859964892245465" lon="6.582132510129456">
				<ele>153.0</ele>
				<time>2011-02-17T16:04:37Z</time>
			</trkpt>
			<trkpt lat="50.86000653466413" lon="6.5821365270298005">
				<ele>153.0</ele>
				<time>2011-02-17T16:04:38Z</time>
			</trkpt>
			<trkpt lat="50.860056337632976" lon="6.582160379247947">
				<ele>154.0</ele>
				<time>2011-02-17T16:04:39Z</time>
			</trkpt>
			<trkpt lat="50.86010558202129" lon="6.5821844746826565">
				<ele>154.0</ele>
				<time>2011-02-17T16:04:40Z</time>
			</trkpt>
			<trkpt lat="50.86014481935453" lon="6.582205016738737">
				<ele>154.0</ele>
				<time>2011-02-17T16:04:41Z</time>
			</trkpt>
			<trkpt lat="50.860170085156646" lon="6.582216028515191">
				<ele>154.0</ele>
				<time>2011-02-17T16:04:42Z</time>
			</trkpt>
			<trkpt lat="50.860187284774625" lon="6.582223832466422">
				<ele>154.0</ele>
				<time>2011-02-17T16:04:43Z</time>
			</trkpt>
			<trkpt lat="50.860210241560445" lon="6.582225773106745">
				<ele>154.0</ele>
				<time>2011-02-17T16:04:44Z</time>
			</trkpt>
			<trkpt lat="50.86024181516523" lon="6.582203504883166">
				<ele>154.0</ele>
				<time>2011-02-17T16:04:45Z</time>
			</trkpt>
			<trkpt lat="50.86026529842534" lon="6.582154756283355">
				<ele>154.0</ele>
				<time>2011-02-17T16:04:46Z</time>
			</trkpt>
			<trkpt lat="50.86028144966819" lon="6.582086997594315">
				<ele>154.0</ele>
				<time>2011-02-17T16:04:47Z</time>
			</trkpt>
			<trkpt lat="50.860299957666996" lon="6.581996461346782">
				<ele>154.0</ele>
				<time>2011-02-17T16:04:48Z</time>
			</trkpt>
			<trkpt lat="50.860318676300615" lon="6.5818973392881555">
				<ele>154.0</ele>
				<time>2011-02-17T16:04:49Z</time>
			</trkpt>
			<trkpt lat="50.860337283108805" lon="6.581793189510051">
				<ele>153.0</ele>
				<time>2011-02-17T16:04:50Z</time>
			</trkpt>
			<trkpt lat="50.86035033648785" lon="6.581679296618262">
				<ele>153.0</ele>
				<time>2011-02-17T16:04:51Z</time>
			</trkpt>
			<trkpt lat="50.860354794245524" lon="6.581558051602658">
				<ele>153.0</ele>
				<time>2011-02-17T16:04:52Z</time>
			</trkpt>
			<trkpt lat="50.86033050223739" lon="6.581432450500432">
				<ele>153.0</ele>
				<time>2011-02-17T16:04:53Z</time>
			</trkpt>
			<trkpt lat="50.860302227770845" lon="6.5813072161539505">
				<ele>153.0</ele>
				<time>2011-02-17T16:04:54Z</time>
			</trkpt>
			<trkpt lat="50.8602698346634" lon="6.581187514338161">
				<ele>153.0</ele>
				<time>2011-02-17T16:04:55Z</time>
			</trkpt>
			<trkpt lat="50.86023517954577" lon="6.581072716630171">
				<ele>153.0</ele>
				<time>2011-02-17T16:04:56Z</time>
			</trkpt>
			<trkpt lat="50.86019670881248" lon="6.580964651770837">
				<ele>152.0</ele>
				<time>2011-02-17T16:04:57Z</time>
			</trkpt>
			<trkpt lat="50.86015908510273" lon="6.580871163744897">
				<ele>152.0</ele>
				<time>2011-02-17T16:04:58Z</time>
			</trkpt>
			<trkpt lat="50.86013137010389" lon="6.580801320972881">
				<ele>152.0</ele>
				<time>2011-02-17T16:04:59Z</time>
			</trkpt>
			<trkpt lat="50.860113854291825" lon="6.5807526384205195">
				<ele>152.0</ele>
				<time>2011-02-17T16:05:00Z</time>
			</trkpt>
			<trkpt lat="50.860100969061286" lon="6.580716312064341">
				<ele>152.0</ele>
				<time>2011-02-17T16:05:01Z</time>
			</trkpt>
			<trkpt lat="50.860094678115274" lon="6.5806725430836766">
				<ele>152.0</ele>
				<time>2011-02-17T16:05:02Z</time>
			</trkpt>
			<trkpt lat="50.860095932604416" lon="6.580605677259849">
				<ele>152.0</ele>
				<time>2011-02-17T16:05:03Z</time>
			</trkpt>
			<trkpt lat="50.860100865517786" lon="6.58052902046616">
				<ele>152.0</ele>
				<time>2011-02-17T16:05:04Z</time>
			</trkpt>
			<trkpt lat="50.86012877152932" lon="6.580441650425161">
				<ele>152.0</ele>
				<time>2011-02-17T16:05:05Z</time>
			</trkpt>
			<trkpt lat="50.86015933059615" lon="6.580353209304957">
				<ele>152.0</ele>
				<time>2011-02-17T16:05:06Z</time>
			</trkpt>
			<trkpt lat="50.860193390453155" lon="6.580265081154621">
				<ele>152.0</ele>
				<time>2011-02-17T16:05:07Z</time>
			</trkpt>
			<trkpt lat="50.860233223477564" lon="6.580177215048172">
				<ele>152.0</ele>
				<time>2011-02-17T16:05:08Z</time>
			</trkpt>
			<trkpt lat="50.86027484471116" lon="6.580090494107561">
				<ele>152.0</ele>
				<time>2011-02-17T16:05:09Z</time>
			</trkpt>
			<trkpt lat="50.86032000112856" lon="6.580005220245833">
				<ele>151.0</ele>
				<time>2011-02-17T16:05:10Z</time>
			</trkpt>
			<trkpt lat="50.860368271585635" lon="6.579915319841307">
				<ele>151.0</ele>
				<time>2011-02-17T16:05:11Z</time>
			</trkpt>
			<trkpt lat="50.860422373481" lon="6.579817894818093">
				<ele>151.0</ele>
				<time>2011-02-17T16:05:12Z</time>
			</trkpt>
			<trkpt lat="50.86047829295198" lon="6.579720628628627">
				<ele>151.0</ele>
				<time>2011-02-17T16:05:13Z</time>
			</trkpt>
			<trkpt lat="50.86053415479006" lon="6.579622048655015">
				<ele>151.0</ele>
				<time>2011-02-17T16:05:14Z</time>
			</trkpt>
			<trkpt lat="50.86059068740458" lon="6.5795210123707975">
				<ele>151.0</ele>
				<time>2011-02-17T16:05:15Z</time>
			</trkpt>
			<trkpt lat="50.86064949567872" lon="6.579418287212967">
				<ele>150.0</ele>
				<time>2011-02-17T16:05:16Z</time>
			</trkpt>
			<trkpt lat="50.86070979818275" lon="6.579313056198274">
				<ele>150.0</ele>
				<time>2011-02-17T16:05:17Z</time>
			</trkpt>
			<trkpt lat="50.86077195985954" lon="6.5792108322925875">
				<ele>150.0</ele>
				<time>2011-02-17T16:05:18Z</time>
			</trkpt>
			<trkpt lat="50.86083549852582" lon="6.579110207576052">
				<ele>150.0</ele>
				<time>2011-02-17T16:05:19Z</time>
			</trkpt>
			<trkpt lat="50.86090041794486" lon="6.579013104026141">
				<ele>149.0</ele>
				<time>2011-02-17T16:05:20Z</time>
			</trkpt>
			<trkpt lat="50.860966777181304" lon="6.578921138139835">
				<ele>149.0</ele>
				<time>2011-02-17T16:05:21Z</time>
			</trkpt>
			<trkpt lat="50.86103270846987" lon="6.578835086147875">
				<ele>149.0</ele>
				<time>2011-02-17T16:05:22Z</time>
			</trkpt>
			<trkpt lat="50.861099261400135" lon="6.578753892875854">
				<ele>148.0</ele>
				<time>2011-02-17T16:05:23Z</time>
			</trkpt>
			<trkpt lat="50.861163319742424" lon="6.578675875908304">
				<ele>148.0</ele>
				<time>2011-02-17T16:05:24Z</time>
			</trkpt>
			<trkpt lat="50.86122654611227" lon="6.578602410849953">
				<ele>148.0</ele>
				<time>2011-02-17T16:05:25Z</time>
			</trkpt>
			<trkpt lat="50.86128839064545" lon="6.578532244511927">
				<ele>147.0</ele>
				<time>2011-02-17T16:05:26Z</time>
			</trkpt>
			<trkpt lat="50.86135268539963" lon="6.57846415973033">
				<ele>147.0</ele>
				<time>2011-02-17T16:05:27Z</time>
			</trkpt>
			<trkpt lat="50.86141686219392" lon="6.5783955191353085">
				<ele>147.0</ele>
				<time>2011-02-17T16:05:28Z</time>
			</trkpt>
			<trkpt lat="50.86148130955292" lon="6.578326853602619">
				<ele>147.0</ele>
				<time>2011-02-17T16:05:29Z</time>
			</trkpt>
			<trkpt lat="50.86154816865607" lon="6.5782617722617935">
				<ele>146.0</ele>
				<time>2011-02-17T16:05:30Z</time>
			</trkpt>
			<trkpt lat="50.86161567659012" lon="6.578197386617007">
				<ele>146.0</ele>
				<time>2011-02-17T16:05:31Z</time>
			</trkpt>
			<trkpt lat="50.86168245037632" lon="6.578134228326718">
				<ele>146.0</ele>
				<time>2011-02-17T16:05:32Z</time>
			</trkpt>
			<trkpt lat="50.86174922110662" lon="6.578070977103">
				<ele>146.0</ele>
				<time>2011-02-17T16:05:33Z</time>
			</trkpt>
			<trkpt lat="50.86181336023992" lon="6.578009483453082">
				<ele>146.0</ele>
				<time>2011-02-17T16:05:34Z</time>
			</trkpt>
			<trkpt lat="50.86187428916996" lon="6.577944457552626">
				<ele>146.0</ele>
				<time>2011-02-17T16:05:35Z</time>
			</trkpt>
			<trkpt lat="50.86192339899482" lon="6.577863521231558">
				<ele>146.0</ele>
				<time>2011-02-17T16:05:36Z</time>
			</trkpt>
			<trkpt lat="50.861955966571216" lon="6.577770574108906">
				<ele>146.0</ele>
				<time>2011-02-17T16:05:37Z</time>
			</trkpt>
			<trkpt lat="50.861982755010494" lon="6.577672152637804">
				<ele>146.0</ele>
				<time>2011-02-17T16:05:38Z</time>
			</trkpt>
			<trkpt lat="50.86198468800784" lon="6.577564281151684">
				<ele>146.0</ele>
				<time>2011-02-17T16:05:39Z</time>
			</trkpt>
			<trkpt lat="50.861963653236835" lon="6.577460640211772">
				<ele>147.0</ele>
				<time>2011-02-17T16:05:40Z</time>
			</trkpt>
			<trkpt lat="50.86193768268134" lon="6.577355000058799">
				<ele>147.0</ele>
				<time>2011-02-17T16:05:41Z</time>
			</trkpt>
			<trkpt lat="50.861907005242124" lon="6.577252605338069">
				<ele>147.0</ele>
				<time>2011-02-17T16:05:42Z</time>
			</trkpt>
			<trkpt lat="50.86187405884545" lon="6.577154185092412">
				<ele>147.0</ele>
				<time>2011-02-17T16:05:43Z</time>
			</trkpt>
			<trkpt lat="50.86184338096913" lon="6.577063784797458">
				<ele>147.0</ele>
				<time>2011-02-17T16:05:44Z</time>
			</trkpt>
			<trkpt lat="50.86181433017094" lon="6.576977964982804">
				<ele>147.0</ele>
				<time>2011-02-17T16:05:45Z</time>
			</trkpt>
			<trkpt lat="50.86179204632245" lon="6.5769044109995">
				<ele>147.0</ele>
				<time>2011-02-17T16:05:46Z</time>
			</trkpt>
			<trkpt lat="50.861785305052344" lon="6.576838660799204">
				<ele>147.0</ele>
				<time>2011-02-17T16:05:47Z</time>
			</trkpt>
			<trkpt lat="50.861789072308675" lon="6.576775742923792">
				<ele>147.0</ele>
				<time>2011-02-17T16:05:48Z</time>
			</trkpt>
			<trkpt lat="50.861803676799276" lon="6.5767183258814645">
				<ele>147.0</ele>
				<time>2011-02-17T16:05:49Z</time>
			</trkpt>
			<trkpt lat="50.86183140865405" lon="6.576666963269145">
				<ele>147.0</ele>
				<time>2011-02-17T16:05:50Z</time>
			</trkpt>
			<trkpt lat="50.861862626995354" lon="6.576615004073752">
				<ele>147.0</ele>
				<time>2011-02-17T16:05:51Z</time>
			</trkpt>
			<trkpt lat="50.86190496421633" lon="6.576553725757497">
				<ele>147.0</ele>
				<time>2011-02-17T16:05:52Z</time>
			</trkpt>
			<trkpt lat="50.86195368355931" lon="6.576492041167844">
				<ele>147.0</ele>
				<time>2011-02-17T16:05:53Z</time>
			</trkpt>
			<trkpt lat="50.86200866680195" lon="6.576428258957545">
				<ele>147.0</ele>
				<time>2011-02-17T16:05:54Z</time>
			</trkpt>
			<trkpt lat="50.86207084005417" lon="6.576360174682841">
				<ele>148.0</ele>
				<time>2011-02-17T16:05:55Z</time>
			</trkpt>
			<trkpt lat="50.86213646226112" lon="6.576288787232212">
				<ele>148.0</ele>
				<time>2011-02-17T16:05:56Z</time>
			</trkpt>
			<trkpt lat="50.86220644191222" lon="6.5762150463578966">
				<ele>148.0</ele>
				<time>2011-02-17T16:05:57Z</time>
			</trkpt>
			<trkpt lat="50.86228056569924" lon="6.576136176132805">
				<ele>148.0</ele>
				<time>2011-02-17T16:05:58Z</time>
			</trkpt>
			<trkpt lat="50.86235731292936" lon="6.576057475276261">
				<ele>148.0</ele>
				<time>2011-02-17T16:05:59Z</time>
			</trkpt>
			<trkpt lat="50.862437780117006" lon="6.57597525579807">
				<ele>148.0</ele>
				<time>2011-02-17T16:06:00Z</time>
			</trkpt>
			<trkpt lat="50.86251788217454" lon="6.575893568125912">
				<ele>148.0</ele>
				<time>2011-02-17T16:06:01Z</time>
			</trkpt>
			<trkpt lat="50.86260011413219" lon="6.575810042529658">
				<ele>148.0</ele>
				<time>2011-02-17T16:06:02Z</time>
			</trkpt>
			<trkpt lat="50.86268245762861" lon="6.57572703890782">
				<ele>148.0</ele>
				<time>2011-02-17T16:06:03Z</time>
			</trkpt>
			<trkpt lat="50.86276336347718" lon="6.5756455475465145">
				<ele>148.0</ele>
				<time>2011-02-17T16:06:04Z</time>
			</trkpt>
			<trkpt lat="50.862844147379924" lon="6.575565637503421">
				<ele>148.0</ele>
				<time>2011-02-17T16:06:05Z</time>
			</trkpt>
			<trkpt lat="50.86292237289808" lon="6.575483643656326">
				<ele>148.0</ele>
				<time>2011-02-17T16:06:06Z</time>
			</trkpt>
			<trkpt lat="50.86299773827984" lon="6.575400452836484">
				<ele>148.0</ele>
				<time>2011-02-17T16:06:07Z</time>
			</trkpt>
			<trkpt lat="50.863071964058136" lon="6.575327585332883">
				<ele>148.0</ele>
				<time>2011-02-17T16:06:08Z</time>
			</trkpt>
			<trkpt lat="50.86314954793428" lon="6.575257128967635">
				<ele>148.0</ele>
				<time>2011-02-17T16:06:09Z</time>
			</trkpt>
			<trkpt lat="50.86323011612299" lon="6.575184639733992">
				<ele>148.0</ele>
				<time>2011-02-17T16:06:10Z</time>
			</trkpt>
			<trkpt lat="50.86331754803528" lon="6.575110794693178">
				<ele>147.0</ele>
				<time>2011-02-17T16:06:11Z</time>
			</trkpt>
			<trkpt lat="50.86340832728604" lon="6.575033670604955">
				<ele>147.0</ele>
				<time>2011-02-17T16:06:12Z</time>
			</trkpt>
			<trkpt lat="50.8635025352337" lon="6.57495170836331">
				<ele>147.0</ele>
				<time>2011-02-17T16:06:13Z</time>
			</trkpt>
			<trkpt lat="50.863599234136466" lon="6.574864215611059">
				<ele>147.0</ele>
				<time>2011-02-17T16:06:14Z</time>
			</trkpt>
			<trkpt lat="50.863692920634406" lon="6.574772443524761">
				<ele>147.0</ele>
				<time>2011-02-17T16:06:15Z</time>
			</trkpt>
			<trkpt lat="50.86378411897273" lon="6.574682085231645">
				<ele>146.0</ele>
				<time>2011-02-17T16:06:16Z</time>
			</trkpt>
			<trkpt lat="50.86387677536472" lon="6.574590819464813">
				<ele>146.0</ele>
				<time>2011-02-17T16:06:17Z</time>
			</trkpt>
			<trkpt lat="50.86397200648969" lon="6.574497609243876">
				<ele>146.0</ele>
				<time>2011-02-17T16:06:18Z</time>
			</trkpt>
			<trkpt lat="50.86406720008251" lon="6.574404291881018">
				<ele>146.0</ele>
				<time>2011-02-17T16:06:19Z</time>
			</trkpt>
			<trkpt lat="50.86416213409646" lon="6.5743112939863595">
				<ele>146.0</ele>
				<time>2011-02-17T16:06:20Z</time>
			</trkpt>
			<trkpt lat="50.864256948370986" lon="6.574218304388936">
				<ele>146.0</ele>
				<time>2011-02-17T16:06:21Z</time>
			</trkpt>
			<trkpt lat="50.86435105133919" lon="6.574126324102455">
				<ele>146.0</ele>
				<time>2011-02-17T16:06:22Z</time>
			</trkpt>
			<trkpt lat="50.86444714247637" lon="6.574032280759479">
				<ele>146.0</ele>
				<time>2011-02-17T16:06:23Z</time>
			</trkpt>
			<trkpt lat="50.86454642709959" lon="6.573934920077347">
				<ele>146.0</ele>
				<time>2011-02-17T16:06:24Z</time>
			</trkpt>
			<trkpt lat="50.864647863747486" lon="6.573835571295306">
				<ele>146.0</ele>
				<time>2011-02-17T16:06:25Z</time>
			</trkpt>
			<trkpt lat="50.86475342250027" lon="6.573735776426321">
				<ele>146.0</ele>
				<time>2011-02-17T16:06:26Z</time>
			</trkpt>
			<trkpt lat="50.864863336537645" lon="6.57363149757105">
				<ele>146.0</ele>
				<time>2011-02-17T16:06:27Z</time>
			</trkpt>
			<trkpt lat="50.86497596514813" lon="6.573523487291188">
				<ele>146.0</ele>
				<time>2011-02-17T16:06:28Z</time>
			</trkpt>
			<trkpt lat="50.86508893215587" lon="6.573410670760219">
				<ele>146.0</ele>
				<time>2011-02-17T16:06:29Z</time>
			</trkpt>
			<trkpt lat="50.86520248585014" lon="6.573296757035473">
				<ele>146.0</ele>
				<time>2011-02-17T16:06:30Z</time>
			</trkpt>
			<trkpt lat="50.865315325099616" lon="6.573181894479312">
				<ele>146.0</ele>
				<time>2011-02-17T16:06:31Z</time>
			</trkpt>
			<trkpt lat="50.865425204846666" lon="6.573060961476673">
				<ele>147.0</ele>
				<time>2011-02-17T16:06:32Z</time>
			</trkpt>
			<trkpt lat="50.86553304190403" lon="6.572934742550874">
				<ele>147.0</ele>
				<time>2011-02-17T16:06:33Z</time>
			</trkpt>
			<trkpt lat="50.86563888962381" lon="6.572804393595779">
				<ele>147.0</ele>
				<time>2011-02-17T16:06:34Z</time>
			</trkpt>
			<trkpt lat="50.86574144724875" lon="6.572670944107129">
				<ele>147.0</ele>
				<time>2011-02-17T16:06:35Z</time>
			</trkpt>
			<trkpt lat="50.86584054539015" lon="6.572535280783817">
				<ele>147.0</ele>
				<time>2011-02-17T16:06:36Z</time>
			</trkpt>
			<trkpt lat="50.86593711165857" lon="6.57240250439263">
				<ele>147.0</ele>
				<time>2011-02-17T16:06:37Z</time>
			</trkpt>
			<trkpt lat="50.866030579990316" lon="6.5722709012937734">
				<ele>147.0</ele>
				<time>2011-02-17T16:06:38Z</time>
			</trkpt>
			<trkpt lat="50.866120567922444" lon="6.572144380396614">
				<ele>147.0</ele>
				<time>2011-02-17T16:06:39Z</time>
			</trkpt>
			<trkpt lat="50.866198302397" lon="6.572030311467715">
				<ele>147.0</ele>
				<time>2011-02-17T16:06:40Z</time>
			</trkpt>
			<trkpt lat="50.866268707284355" lon="6.571927318788285">
				<ele>147.0</ele>
				<time>2011-02-17T16:06:41Z</time>
			</trkpt>
			<trkpt lat="50.86632893254812" lon="6.571839738899135">
				<ele>148.0</ele>
				<time>2011-02-17T16:06:42Z</time>
			</trkpt>
			<trkpt lat="50.866383105999034" lon="6.57176982461262">
				<ele>148.0</ele>
				<time>2011-02-17T16:06:43Z</time>
			</trkpt>
			<trkpt lat="50.86643533818076" lon="6.571740030141416">
				<ele>148.0</ele>
				<time>2011-02-17T16:06:44Z</time>
			</trkpt>
			<trkpt lat="50.86649161026277" lon="6.57173170693629">
				<ele>148.0</ele>
				<time>2011-02-17T16:06:45Z</time>
			</trkpt>
			<trkpt lat="50.866547674633196" lon="6.5717568311178995">
				<ele>148.0</ele>
				<time>2011-02-17T16:06:46Z</time>
			</trkpt>
			<trkpt lat="50.86659661572257" lon="6.571814224694739">
				<ele>148.0</ele>
				<time>2011-02-17T16:06:47Z</time>
			</trkpt>
			<trkpt lat="50.86664799547161" lon="6.571889494341021">
				<ele>148.0</ele>
				<time>2011-02-17T16:06:48Z</time>
			</trkpt>
			<trkpt lat="50.86669425021296" lon="6.572001375774669">
				<ele>148.0</ele>
				<time>2011-02-17T16:06:49Z</time>
			</trkpt>
			<trkpt lat="50.86674577454384" lon="6.572130817077936">
				<ele>148.0</ele>
				<time>2011-02-17T16:06:50Z</time>
			</trkpt>
			<trkpt lat="50.86679702657181" lon="6.572270891556929">
				<ele>148.0</ele>
				<time>2011-02-17T16:06:51Z</time>
			</trkpt>
			<trkpt lat="50.86685438364543" lon="6.572427418034428">
				<ele>147.0</ele>
				<time>2011-02-17T16:06:52Z</time>
			</trkpt>
			<trkpt lat="50.86690839253188" lon="6.572587061404626">
				<ele>147.0</ele>
				<time>2011-02-17T16:06:53Z</time>
			</trkpt>
			<trkpt lat="50.86696560988956" lon="6.572758867289701">
				<ele>147.0</ele>
				<time>2011-02-17T16:06:54Z</time>
			</trkpt>
			<trkpt lat="50.86702382362366" lon="6.572937969360773">
				<ele>147.0</ele>
				<time>2011-02-17T16:06:55Z</time>
			</trkpt>
			<trkpt lat="50.867085110717994" lon="6.573126990016135">
				<ele>147.0</ele>
				<time>2011-02-17T16:06:56Z</time>
			</trkpt>
			<trkpt lat="50.86714952527952" lon="6.573323863180395">
				<ele>146.0</ele>
				<time>2011-02-17T16:06:57Z</time>
			</trkpt>
			<trkpt lat="50.86721717974028" lon="6.573528646351067">
				<ele>146.0</ele>
				<time>2011-02-17T16:06:58Z</time>
			</trkpt>
			<trkpt lat="50.86728604220679" lon="6.573735451111569">
				<ele>146.0</ele>
				<time>2011-02-17T16:06:59Z</time>
			</trkpt>
			<trkpt lat="50.867357612408924" lon="6.573948649361134">
				<ele>146.0</ele>
				<time>2011-02-17T16:07:00Z</time>
			</trkpt>
			<trkpt lat="50.86742909659803" lon="6.574163076290949">
				<ele>146.0</ele>
				<time>2011-02-17T16:07:01Z</time>
			</trkpt>
			<trkpt lat="50.86750296079133" lon="6.574382808299654">
				<ele>146.0</ele>
				<time>2011-02-17T16:07:02Z</time>
			</trkpt>
			<trkpt lat="50.86757909351238" lon="6.574609007514332">
				<ele>146.0</ele>
				<time>2011-02-17T16:07:03Z</time>
			</trkpt>
			<trkpt lat="50.86765711757121" lon="6.574840771609586">
				<ele>146.0</ele>
				<time>2011-02-17T16:07:04Z</time>
			</trkpt>
			<trkpt lat="50.86773685735406" lon="6.5750778268282115">
				<ele>146.0</ele>
				<time>2011-02-17T16:07:05Z</time>
			</trkpt>
			<trkpt lat="50.8678154915305" lon="6.575322243354884">
				<ele>146.0</ele>
				<time>2011-02-17T16:07:06Z</time>
			</trkpt>
			<trkpt lat="50.867894312892176" lon="6.575569337165556">
				<ele>146.0</ele>
				<time>2011-02-17T16:07:07Z</time>
			</trkpt>
			<trkpt lat="50.86796989643214" lon="6.5758234490429945">
				<ele>146.0</ele>
				<time>2011-02-17T16:07:08Z</time>
			</trkpt>
			<trkpt lat="50.86804622220987" lon="6.576079061251434">
				<ele>146.0</ele>
				<time>2011-02-17T16:07:09Z</time>
			</trkpt>
			<trkpt lat="50.868119467377696" lon="6.576342904868535">
				<ele>145.0</ele>
				<time>2011-02-17T16:07:10Z</time>
			</trkpt>
			<trkpt lat="50.868192413828" lon="6.576608175679051">
				<ele>145.0</ele>
				<time>2011-02-17T16:07:11Z</time>
			</trkpt>
			<trkpt lat="50.8682555439883" lon="6.576881260789305">
				<ele>145.0</ele>
				<time>2011-02-17T16:07:12Z</time>
			</trkpt>
			<trkpt lat="50.868312724131876" lon="6.577156080156823">
				<ele>145.0</ele>
				<time>2011-02-17T16:07:13Z</time>
			</trkpt>
			<trkpt lat="50.86837000731328" lon="6.577429463018139">
				<ele>145.0</ele>
				<time>2011-02-17T16:07:14Z</time>
			</trkpt>
			<trkpt lat="50.86842199751051" lon="6.5777045436137955">
				<ele>145.0</ele>
				<time>2011-02-17T16:07:15Z</time>
			</trkpt>
			<trkpt lat="50.86846912885909" lon="6.577981517291294">
				<ele>145.0</ele>
				<time>2011-02-17T16:07:16Z</time>
			</trkpt>
			<trkpt lat="50.86851143056553" lon="6.578257482880179">
				<ele>145.0</ele>
				<time>2011-02-17T16:07:17Z</time>
			</trkpt>
			<trkpt lat="50.868551696550654" lon="6.5785321255424725">
				<ele>145.0</ele>
				<time>2011-02-17T16:07:18Z</time>
			</trkpt>
			<trkpt lat="50.868582970420846" lon="6.578807097414296">
				<ele>145.0</ele>
				<time>2011-02-17T16:07:19Z</time>
			</trkpt>
			<trkpt lat="50.86861307536643" lon="6.579078675611291">
				<ele>144.0</ele>
				<time>2011-02-17T16:07:20Z</time>
			</trkpt>
			<trkpt lat="50.86864004023799" lon="6.579349720916403">
				<ele>145.0</ele>
				<time>2011-02-17T16:07:21Z</time>
			</trkpt>
			<trkpt lat="50.86866550732823" lon="6.57961795690639">
				<ele>145.0</ele>
				<time>2011-02-17T16:07:22Z</time>
			</trkpt>
			<trkpt lat="50.86869030832274" lon="6.5798848648223">
				<ele>145.0</ele>
				<time>2011-02-17T16:07:23Z</time>
			</trkpt>
			<trkpt lat="50.86871233618322" lon="6.5801543601811785">
				<ele>145.0</ele>
				<time>2011-02-17T16:07:24Z</time>
			</trkpt>
			<trkpt lat="50.86873374352271" lon="6.580424811624145">
				<ele>145.0</ele>
				<time>2011-02-17T16:07:25Z</time>
			</trkpt>
			<trkpt lat="50.86875470647497" lon="6.580695842631606">
				<ele>145.0</ele>
				<time>2011-02-17T16:07:26Z</time>
			</trkpt>
			<trkpt lat="50.868775220534225" lon="6.580971630209043">
				<ele>145.0</ele>
				<time>2011-02-17T16:07:27Z</time>
			</trkpt>
			<trkpt lat="50.86879196249668" lon="6.581252173940613">
				<ele>145.0</ele>
				<time>2011-02-17T16:07:28Z</time>
			</trkpt>
			<trkpt lat="50.86880906534923" lon="6.581533273805837">
				<ele>145.0</ele>
				<time>2011-02-17T16:07:29Z</time>
			</trkpt>
			<trkpt lat="50.86882602910301" lon="6.581814444094992">
				<ele>145.0</ele>
				<time>2011-02-17T16:07:30Z</time>
			</trkpt>
			<trkpt lat="50.86884309653102" lon="6.582095921671484">
				<ele>145.0</ele>
				<time>2011-02-17T16:07:31Z</time>
			</trkpt>
			<trkpt lat="50.86886089716548" lon="6.582376940172051">
				<ele>145.0</ele>
				<time>2011-02-17T16:07:32Z</time>
			</trkpt>
			<trkpt lat="50.86887852684079" lon="6.582656832172613">
				<ele>145.0</ele>
				<time>2011-02-17T16:07:33Z</time>
			</trkpt>
			<trkpt lat="50.86889586085477" lon="6.582935938286929">
				<ele>145.0</ele>
				<time>2011-02-17T16:07:34Z</time>
			</trkpt>
			<trkpt lat="50.86891333562234" lon="6.583214129784056">
				<ele>145.0</ele>
				<time>2011-02-17T16:07:35Z</time>
			</trkpt>
			<trkpt lat="50.868931540152" lon="6.583491740726745">
				<ele>145.0</ele>
				<time>2011-02-17T16:07:36Z</time>
			</trkpt>
			<trkpt lat="50.868953251136496" lon="6.583767416015104">
				<ele>145.0</ele>
				<time>2011-02-17T16:07:37Z</time>
			</trkpt>
			<trkpt lat="50.86897603411661" lon="6.584042094319053">
				<ele>145.0</ele>
				<time>2011-02-17T16:07:38Z</time>
			</trkpt>
			<trkpt lat="50.86900660529487" lon="6.58431195808318">
				<ele>145.0</ele>
				<time>2011-02-17T16:07:39Z</time>
			</trkpt>
			<trkpt lat="50.86904203740682" lon="6.584577432250831">
				<ele>145.0</ele>
				<time>2011-02-17T16:07:40Z</time>
			</trkpt>
			<trkpt lat="50.869078662695856" lon="6.584835491687217">
				<ele>146.0</ele>
				<time>2011-02-17T16:07:41Z</time>
			</trkpt>
			<trkpt lat="50.86912119828168" lon="6.585088933044033">
				<ele>146.0</ele>
				<time>2011-02-17T16:07:42Z</time>
			</trkpt>
			<trkpt lat="50.869170197116965" lon="6.585339001153201">
				<ele>146.0</ele>
				<time>2011-02-17T16:07:43Z</time>
			</trkpt>
			<trkpt lat="50.86922665456955" lon="6.585589123549707">
				<ele>146.0</ele>
				<time>2011-02-17T16:07:44Z</time>
			</trkpt>
			<trkpt lat="50.86928893276976" lon="6.585837442908637">
				<ele>146.0</ele>
				<time>2011-02-17T16:07:45Z</time>
			</trkpt>
			<trkpt lat="50.86935788002417" lon="6.586086750783876">
				<ele>146.0</ele>
				<time>2011-02-17T16:07:46Z</time>
			</trkpt>
			<trkpt lat="50.86943224571518" lon="6.586333488243545">
				<ele>146.0</ele>
				<time>2011-02-17T16:07:47Z</time>
			</trkpt>
			<trkpt lat="50.86951149625881" lon="6.58658052962457">
				<ele>146.0</ele>
				<time>2011-02-17T16:07:48Z</time>
			</trkpt>
			<trkpt lat="50.86959265716557" lon="6.586823841236364">
				<ele>146.0</ele>
				<time>2011-02-17T16:07:49Z</time>
			</trkpt>
			<trkpt lat="50.869673248033735" lon="6.587064999437124">
				<ele>146.0</ele>
				<time>2011-02-17T16:07:50Z</time>
			</trkpt>
			<trkpt lat="50.86975722269217" lon="6.587300217360531">
				<ele>145.0</ele>
				<time>2011-02-17T16:07:51Z</time>
			</trkpt>
			<trkpt lat="50.86984003464595" lon="6.587531772770585">
				<ele>145.0</ele>
				<time>2011-02-17T16:07:52Z</time>
			</trkpt>
			<trkpt lat="50.869923939468705" lon="6.587757697563495">
				<ele>145.0</ele>
				<time>2011-02-17T16:07:53Z</time>
			</trkpt>
			<trkpt lat="50.87000661962634" lon="6.587983078815438">
				<ele>145.0</ele>
				<time>2011-02-17T16:07:54Z</time>
			</trkpt>
			<trkpt lat="50.87008861994656" lon="6.588209001300961">
				<ele>145.0</ele>
				<time>2011-02-17T16:07:55Z</time>
			</trkpt>
			<trkpt lat="50.87016954916379" lon="6.58843425856285">
				<ele>144.0</ele>
				<time>2011-02-17T16:07:56Z</time>
			</trkpt>
			<trkpt lat="50.87024879843921" lon="6.58865894492534">
				<ele>144.0</ele>
				<time>2011-02-17T16:07:57Z</time>
			</trkpt>
			<trkpt lat="50.87032727775457" lon="6.58888321952753">
				<ele>144.0</ele>
				<time>2011-02-17T16:07:58Z</time>
			</trkpt>
			<trkpt lat="50.87040538521576" lon="6.589107000560502">
				<ele>144.0</ele>
				<time>2011-02-17T16:07:59Z</time>
			</trkpt>
			<trkpt lat="50.87048310104613" lon="6.589330500313182">
				<ele>144.0</ele>
				<time>2011-02-17T16:08:00Z</time>
			</trkpt>
			<trkpt lat="50.870560497778136" lon="6.589554919724221">
				<ele>144.0</ele>
				<time>2011-02-17T16:08:01Z</time>
			</trkpt>
			<trkpt lat="50.870637843974244" lon="6.5897793947224175">
				<ele>144.0</ele>
				<time>2011-02-17T16:08:02Z</time>
			</trkpt>
			<trkpt lat="50.87071436651994" lon="6.590003532107927">
				<ele>144.0</ele>
				<time>2011-02-17T16:08:03Z</time>
			</trkpt>
			<trkpt lat="50.870790796408855" lon="6.590227575264673">
				<ele>144.0</ele>
				<time>2011-02-17T16:08:04Z</time>
			</trkpt>
			<trkpt lat="50.87086730423326" lon="6.590451516957141">
				<ele>144.0</ele>
				<time>2011-02-17T16:08:05Z</time>
			</trkpt>
			<trkpt lat="50.87094479089391" lon="6.590676518518142">
				<ele>143.0</ele>
				<time>2011-02-17T16:08:06Z</time>
			</trkpt>
			<trkpt lat="50.87102306006213" lon="6.590902896268457">
				<ele>143.0</ele>
				<time>2011-02-17T16:08:07Z</time>
			</trkpt>
			<trkpt lat="50.871101140300446" lon="6.591127923603824">
				<ele>143.0</ele>
				<time>2011-02-17T16:08:08Z</time>
			</trkpt>
			<trkpt lat="50.8711794645652" lon="6.591353256640511">
				<ele>143.0</ele>
				<time>2011-02-17T16:08:09Z</time>
			</trkpt>
			<trkpt lat="50.87125924747526" lon="6.591583463398355">
				<ele>143.0</ele>
				<time>2011-02-17T16:08:10Z</time>
			</trkpt>
			<trkpt lat="50.871339531960004" lon="6.5918130165378255">
				<ele>143.0</ele>
				<time>2011-02-17T16:08:11Z</time>
			</trkpt>
			<trkpt lat="50.87142427329175" lon="6.592038320640794">
				<ele>143.0</ele>
				<time>2011-02-17T16:08:12Z</time>
			</trkpt>
			<trkpt lat="50.87151285344417" lon="6.5922611938875635">
				<ele>142.0</ele>
				<time>2011-02-17T16:08:13Z</time>
			</trkpt>
			<trkpt lat="50.87160855605761" lon="6.592483522487016">
				<ele>142.0</ele>
				<time>2011-02-17T16:08:14Z</time>
			</trkpt>
			<trkpt lat="50.87171192951729" lon="6.592701108923493">
				<ele>142.0</ele>
				<time>2011-02-17T16:08:15Z</time>
			</trkpt>
			<trkpt lat="50.87182185622169" lon="6.592912372646056">
				<ele>142.0</ele>
				<time>2011-02-17T16:08:16Z</time>
			</trkpt>
			<trkpt lat="50.87193561880393" lon="6.593116541056584">
				<ele>142.0</ele>
				<time>2011-02-17T16:08:17Z</time>
			</trkpt>
			<trkpt lat="50.87205538094958" lon="6.593311231440279">
				<ele>142.0</ele>
				<time>2011-02-17T16:08:18Z</time>
			</trkpt>
			<trkpt lat="50.8721813132364" lon="6.593498273423922">
				<ele>142.0</ele>
				<time>2011-02-17T16:08:19Z</time>
			</trkpt>
			<trkpt lat="50.87231416834255" lon="6.59367962674042">
				<ele>142.0</ele>
				<time>2011-02-17T16:08:20Z</time>
			</trkpt>
			<trkpt lat="50.87245258176449" lon="6.593854347670432">
				<ele>142.0</ele>
				<time>2011-02-17T16:08:21Z</time>
			</trkpt>
			<trkpt lat="50.872597595381606" lon="6.594022140306613">
				<ele>142.0</ele>
				<time>2011-02-17T16:08:22Z</time>
			</trkpt>
			<trkpt lat="50.87275418240251" lon="6.594168430326679">
				<ele>142.0</ele>
				<time>2011-02-17T16:08:23Z</time>
			</trkpt>
			<trkpt lat="50.87291111105782" lon="6.594312924888893">
				<ele>142.0</ele>
				<time>2011-02-17T16:08:24Z</time>
			</trkpt>
			<trkpt lat="50.873066637983946" lon="6.594458674805859">
				<ele>142.0</ele>
				<time>2011-02-17T16:08:25Z</time>
			</trkpt>
			<trkpt lat="50.873221860772844" lon="6.594602306113465">
				<ele>142.0</ele>
				<time>2011-02-17T16:08:26Z</time>
			</trkpt>
			<trkpt lat="50.8733761354001" lon="6.594745892618079">
				<ele>142.0</ele>
				<time>2011-02-17T16:08:27Z</time>
			</trkpt>
			<trkpt lat="50.873527963054585" lon="6.594890993565331">
				<ele>142.0</ele>
				<time>2011-02-17T16:08:28Z</time>
			</trkpt>
			<trkpt lat="50.873675115066106" lon="6.595040852422076">
				<ele>142.0</ele>
				<time>2011-02-17T16:08:29Z</time>
			</trkpt>
			<trkpt lat="50.87381712390409" lon="6.59519797457522">
				<ele>141.0</ele>
				<time>2011-02-17T16:08:30Z</time>
			</trkpt>
			<trkpt lat="50.87395449680079" lon="6.595361090490156">
				<ele>141.0</ele>
				<time>2011-02-17T16:08:31Z</time>
			</trkpt>
			<trkpt lat="50.87408853574957" lon="6.595524894327767">
				<ele>141.0</ele>
				<time>2011-02-17T16:08:32Z</time>
			</trkpt>
			<trkpt lat="50.874219156373165" lon="6.595694984135298">
				<ele>141.0</ele>
				<time>2011-02-17T16:08:33Z</time>
			</trkpt>
			<trkpt lat="50.874346487797595" lon="6.595870322249627">
				<ele>141.0</ele>
				<time>2011-02-17T16:08:34Z</time>
			</trkpt>
			<trkpt lat="50.87447244782723" lon="6.596045001233782">
				<ele>141.0</ele>
				<time>2011-02-17T16:08:35Z</time>
			</trkpt>
			<trkpt lat="50.87459476439219" lon="6.596220716924082">
				<ele>141.0</ele>
				<time>2011-02-17T16:08:36Z</time>
			</trkpt>
			<trkpt lat="50.87471544376489" lon="6.596393096529373">
				<ele>141.0</ele>
				<time>2011-02-17T16:08:37Z</time>
			</trkpt>
			<trkpt lat="50.87483212586992" lon="6.596565071519521">
				<ele>141.0</ele>
				<time>2011-02-17T16:08:38Z</time>
			</trkpt>
			<trkpt lat="50.87494619688696" lon="6.596731815389721">
				<ele>141.0</ele>
				<time>2011-02-17T16:08:39Z</time>
			</trkpt>
			<trkpt lat="50.875059116720124" lon="6.59689523206432">
				<ele>141.0</ele>
				<time>2011-02-17T16:08:40Z</time>
			</trkpt>
			<trkpt lat="50.87517045719814" lon="6.597055489993171">
				<ele>141.0</ele>
				<time>2011-02-17T16:08:41Z</time>
			</trkpt>
			<trkpt lat="50.87527953285109" lon="6.597211851709155">
				<ele>141.0</ele>
				<time>2011-02-17T16:08:42Z</time>
			</trkpt>
			<trkpt lat="50.87538772780711" lon="6.597360935279991">
				<ele>141.0</ele>
				<time>2011-02-17T16:08:43Z</time>
			</trkpt>
			<trkpt lat="50.87549144140426" lon="6.597504757486674">
				<ele>141.0</ele>
				<time>2011-02-17T16:08:44Z</time>
			</trkpt>
			<trkpt lat="50.875592368504925" lon="6.597644866582987">
				<ele>141.0</ele>
				<time>2011-02-17T16:08:45Z</time>
			</trkpt>
			<trkpt lat="50.87568470622028" lon="6.597773588930879">
				<ele>141.0</ele>
				<time>2011-02-17T16:08:46Z</time>
			</trkpt>
			<trkpt lat="50.87576866392398" lon="6.597896976119072">
				<ele>141.0</ele>
				<time>2011-02-17T16:08:47Z</time>
			</trkpt>
			<trkpt lat="50.87585012700604" lon="6.598014547335207">
				<ele>141.0</ele>
				<time>2011-02-17T16:08:48Z</time>
			</trkpt>
			<trkpt lat="50.875923071973396" lon="6.5981180255400895">
				<ele>141.0</ele>
				<time>2011-02-17T16:08:49Z</time>
			</trkpt>
			<trkpt lat="50.87599123753079" lon="6.598207733957979">
				<ele>141.0</ele>
				<time>2011-02-17T16:08:50Z</time>
			</trkpt>
			<trkpt lat="50.87607058441437" lon="6.5982652172120195">
				<ele>141.0</ele>
				<time>2011-02-17T16:08:51Z</time>
			</trkpt>
			<trkpt lat="50.876149089174774" lon="6.5982931235094835">
				<ele>141.0</ele>
				<time>2011-02-17T16:08:52Z</time>
			</trkpt>
			<trkpt lat="50.876232324152944" lon="6.598286478068457">
				<ele>141.0</ele>
				<time>2011-02-17T16:08:53Z</time>
			</trkpt>
			<trkpt lat="50.87631906490358" lon="6.598270359268367">
				<ele>141.0</ele>
				<time>2011-02-17T16:08:54Z</time>
			</trkpt>
			<trkpt lat="50.87641286432438" lon="6.5982464994584635">
				<ele>141.0</ele>
				<time>2011-02-17T16:08:55Z</time>
			</trkpt>
			<trkpt lat="50.876512733149895" lon="6.598218106332736">
				<ele>141.0</ele>
				<time>2011-02-17T16:08:56Z</time>
			</trkpt>
			<trkpt lat="50.876615921780335" lon="6.598183633660262">
				<ele>141.0</ele>
				<time>2011-02-17T16:08:57Z</time>
			</trkpt>
			<trkpt lat="50.876721890416135" lon="6.598147611926681">
				<ele>141.0</ele>
				<time>2011-02-17T16:08:58Z</time>
			</trkpt>
			<trkpt lat="50.876834148064304" lon="6.598108536694982">
				<ele>141.0</ele>
				<time>2011-02-17T16:08:59Z</time>
			</trkpt>
			<trkpt lat="50.876950755749824" lon="6.598062231656367">
				<ele>141.0</ele>
				<time>2011-02-17T16:09:00Z</time>
			</trkpt>
			<trkpt lat="50.877070293576075" lon="6.5980146971844205">
				<ele>141.0</ele>
				<time>2011-02-17T16:09:01Z</time>
			</trkpt>
			<trkpt lat="50.87719159926843" lon="6.5979739923425225">
				<ele>141.0</ele>
				<time>2011-02-17T16:09:02Z</time>
			</trkpt>
			<trkpt lat="50.877317610560155" lon="6.597942987436311">
				<ele>141.0</ele>
				<time>2011-02-17T16:09:03Z</time>
			</trkpt>
			<trkpt lat="50.87744563246057" lon="6.597925198708378">
				<ele>141.0</ele>
				<time>2011-02-17T16:09:04Z</time>
			</trkpt>
			<trkpt lat="50.877576791742804" lon="6.597920943741944">
				<ele>141.0</ele>
				<time>2011-02-17T16:09:05Z</time>
			</trkpt>
			<trkpt lat="50.87770857544401" lon="6.597931163724509">
				<ele>141.0</ele>
				<time>2011-02-17T16:09:06Z</time>
			</trkpt>
			<trkpt lat="50.877838590239975" lon="6.597954565561067">
				<ele>141.0</ele>
				<time>2011-02-17T16:09:07Z</time>
			</trkpt>
			<trkpt lat="50.8779692568324" lon="6.597985847000702">
				<ele>141.0</ele>
				<time>2011-02-17T16:09:08Z</time>
			</trkpt>
			<trkpt lat="50.87809885781959" lon="6.5980214669336075">
				<ele>141.0</ele>
				<time>2011-02-17T16:09:09Z</time>
			</trkpt>
			<trkpt lat="50.878225148298135" lon="6.598059779878322">
				<ele>140.0</ele>
				<time>2011-02-17T16:09:10Z</time>
			</trkpt>
			<trkpt lat="50.87834838865369" lon="6.598104068660473">
				<ele>140.0</ele>
				<time>2011-02-17T16:09:11Z</time>
			</trkpt>
			<trkpt lat="50.878465206427855" lon="6.5981571421913445">
				<ele>140.0</ele>
				<time>2011-02-17T16:09:12Z</time>
			</trkpt>
			<trkpt lat="50.87857654442457" lon="6.598223520500804">
				<ele>140.0</ele>
				<time>2011-02-17T16:09:13Z</time>
			</trkpt>
			<trkpt lat="50.878678263995944" lon="6.598324459925328">
				<ele>141.0</ele>
				<time>2011-02-17T16:09:14Z</time>
			</trkpt>
			<trkpt lat="50.878777589386814" lon="6.598431758679663">
				<ele>141.0</ele>
				<time>2011-02-17T16:09:15Z</time>
			</trkpt>
			<trkpt lat="50.87887605830821" lon="6.598545825103898">
				<ele>141.0</ele>
				<time>2011-02-17T16:09:16Z</time>
			</trkpt>
			<trkpt lat="50.878972767571696" lon="6.598664268735858">
				<ele>140.0</ele>
				<time>2011-02-17T16:09:17Z</time>
			</trkpt>
			<trkpt lat="50.87906946507973" lon="6.598783289853488">
				<ele>140.0</ele>
				<time>2011-02-17T16:09:18Z</time>
			</trkpt>
			<trkpt lat="50.879163912297905" lon="6.598905045603481">
				<ele>140.0</ele>
				<time>2011-02-17T16:09:19Z</time>
			</trkpt>
			<trkpt lat="50.87925579882393" lon="6.599022519200124">
				<ele>140.0</ele>
				<time>2011-02-17T16:09:20Z</time>
			</trkpt>
			<trkpt lat="50.87934669014586" lon="6.5991378555717235">
				<ele>140.0</ele>
				<time>2011-02-17T16:09:21Z</time>
			</trkpt>
			<trkpt lat="50.87943628022188" lon="6.599250751261212">
				<ele>139.0</ele>
				<time>2011-02-17T16:09:22Z</time>
			</trkpt>
			<trkpt lat="50.8795241236234" lon="6.599360648499823">
				<ele>139.0</ele>
				<time>2011-02-17T16:09:23Z</time>
			</trkpt>
			<trkpt lat="50.87961028290143" lon="6.599468082215704">
				<ele>139.0</ele>
				<time>2011-02-17T16:09:24Z</time>
			</trkpt>
			<trkpt lat="50.87969284286795" lon="6.599576340980964">
				<ele>139.0</ele>
				<time>2011-02-17T16:09:25Z</time>
			</trkpt>
			<trkpt lat="50.87977330429458" lon="6.599681698211434">
				<ele>139.0</ele>
				<time>2011-02-17T16:09:26Z</time>
			</trkpt>
			<trkpt lat="50.879849637885144" lon="6.599792512175518">
				<ele>138.0</ele>
				<time>2011-02-17T16:09:27Z</time>
			</trkpt>
			<trkpt lat="50.8799235949995" lon="6.599904879815637">
				<ele>138.0</ele>
				<time>2011-02-17T16:09:28Z</time>
			</trkpt>
			<trkpt lat="50.87999576634677" lon="6.600016243596841">
				<ele>138.0</ele>
				<time>2011-02-17T16:09:29Z</time>
			</trkpt>
			<trkpt lat="50.88006541276749" lon="6.600127808770986">
				<ele>138.0</ele>
				<time>2011-02-17T16:09:30Z</time>
			</trkpt>
			<trkpt lat="50.88013374177001" lon="6.60023643075314">
				<ele>138.0</ele>
				<time>2011-02-17T16:09:31Z</time>
			</trkpt>
			<trkpt lat="50.88020116900608" lon="6.600343313666304">
				<ele>138.0</ele>
				<time>2011-02-17T16:09:32Z</time>
			</trkpt>
			<trkpt lat="50.88026671871169" lon="6.60045196170039">
				<ele>138.0</ele>
				<time>2011-02-17T16:09:33Z</time>
			</trkpt>
			<trkpt lat="50.88033218321685" lon="6.600558793337907">
				<ele>138.0</ele>
				<time>2011-02-17T16:09:34Z</time>
			</trkpt>
			<trkpt lat="50.880398385488235" lon="6.600660477059254">
				<ele>138.0</ele>
				<time>2011-02-17T16:09:35Z</time>
			</trkpt>
			<trkpt lat="50.88046413908567" lon="6.6007600283504955">
				<ele>138.0</ele>
				<time>2011-02-17T16:09:36Z</time>
			</trkpt>
			<trkpt lat="50.88053085883697" lon="6.600850337611762">
				<ele>138.0</ele>
				<time>2011-02-17T16:09:37Z</time>
			</trkpt>
			<trkpt lat="50.8805974605241" lon="6.600928528390835">
				<ele>137.0</ele>
				<time>2011-02-17T16:09:38Z</time>
			</trkpt>
			<trkpt lat="50.88066532776791" lon="6.600995453272302">
				<ele>137.0</ele>
				<time>2011-02-17T16:09:39Z</time>
			</trkpt>
			<trkpt lat="50.88073629798289" lon="6.601053318738321">
				<ele>137.0</ele>
				<time>2011-02-17T16:09:40Z</time>
			</trkpt>
			<trkpt lat="50.88081497199851" lon="6.601080854394913">
				<ele>137.0</ele>
				<time>2011-02-17T16:09:41Z</time>
			</trkpt>
			<trkpt lat="50.880890609576376" lon="6.6011025384471465">
				<ele>137.0</ele>
				<time>2011-02-17T16:09:42Z</time>
			</trkpt>
			<trkpt lat="50.88096351997687" lon="6.601115711803277">
				<ele>137.0</ele>
				<time>2011-02-17T16:09:43Z</time>
			</trkpt>
			<trkpt lat="50.88103695983713" lon="6.601120948984146">
				<ele>137.0</ele>
				<time>2011-02-17T16:09:44Z</time>
			</trkpt>
			<trkpt lat="50.88111026665933" lon="6.601120040185208">
				<ele>137.0</ele>
				<time>2011-02-17T16:09:45Z</time>
			</trkpt>
			<trkpt lat="50.881184482502164" lon="6.601113565671968">
				<ele>137.0</ele>
				<time>2011-02-17T16:09:46Z</time>
			</trkpt>
			<trkpt lat="50.881256360973346" lon="6.6011101567999635">
				<ele>137.0</ele>
				<time>2011-02-17T16:09:47Z</time>
			</trkpt>
			<trkpt lat="50.88132597062535" lon="6.601105829264307">
				<ele>138.0</ele>
				<time>2011-02-17T16:09:48Z</time>
			</trkpt>
			<trkpt lat="50.881395727103936" lon="6.6010985043827475">
				<ele>138.0</ele>
				<time>2011-02-17T16:09:49Z</time>
			</trkpt>
			<trkpt lat="50.88146440536592" lon="6.601090999558722">
				<ele>138.0</ele>
				<time>2011-02-17T16:09:50Z</time>
			</trkpt>
			<trkpt lat="50.88153066562096" lon="6.601083130421878">
				<ele>138.0</ele>
				<time>2011-02-17T16:09:51Z</time>
			</trkpt>
			<trkpt lat="50.88159702303042" lon="6.601073022680794">
				<ele>138.0</ele>
				<time>2011-02-17T16:09:52Z</time>
			</trkpt>
			<trkpt lat="50.881652838133554" lon="6.601073733043919">
				<ele>138.0</ele>
				<time>2011-02-17T16:09:53Z</time>
			</trkpt>
			<trkpt lat="50.881709695261435" lon="6.601079817059951">
				<ele>138.0</ele>
				<time>2011-02-17T16:09:54Z</time>
			</trkpt>
			<trkpt lat="50.881762164047515" lon="6.601092054500388">
				<ele>138.0</ele>
				<time>2011-02-17T16:09:55Z</time>
			</trkpt>
			<trkpt lat="50.88180656706497" lon="6.601124987549862">
				<ele>138.0</ele>
				<time>2011-02-17T16:09:56Z</time>
			</trkpt>
			<trkpt lat="50.88184749556839" lon="6.6011601167056595">
				<ele>138.0</ele>
				<time>2011-02-17T16:09:57Z</time>
			</trkpt>
			<trkpt lat="50.881880267876454" lon="6.601212179932218">
				<ele>138.0</ele>
				<time>2011-02-17T16:09:58Z</time>
			</trkpt>
			<trkpt lat="50.88191200868425" lon="6.601266720204464">
				<ele>138.0</ele>
				<time>2011-02-17T16:09:59Z</time>
			</trkpt>
			<trkpt lat="50.8819384766141" lon="6.601319907976299">
				<ele>138.0</ele>
				<time>2011-02-17T16:10:00Z</time>
			</trkpt>
			<trkpt lat="50.881949918517726" lon="6.601377071193511">
				<ele>138.0</ele>
				<time>2011-02-17T16:10:01Z</time>
			</trkpt>
			<trkpt lat="50.88195953974217" lon="6.601424305051341">
				<ele>138.0</ele>
				<time>2011-02-17T16:10:02Z</time>
			</trkpt>
			<trkpt lat="50.881967818967446" lon="6.601460839978638">
				<ele>138.0</ele>
				<time>2011-02-17T16:10:03Z</time>
			</trkpt>
			<trkpt lat="50.88197277501824" lon="6.601480460833245">
				<ele>138.0</ele>
				<time>2011-02-17T16:10:04Z</time>
			</trkpt>
			<trkpt lat="50.88197277501824" lon="6.601480460833245">
				<ele>138.0</ele>
				<time>2011-02-17T16:10:05Z</time>
			</trkpt>
			<trkpt lat="50.88197277501824" lon="6.601480460833245">
				<ele>138.0</ele>
				<time>2011-02-17T16:10:06Z</time>
			</trkpt>
			<trkpt lat="50.88197277501824" lon="6.601480460833245">
				<ele>138.0</ele>
				<time>2011-02-17T16:10:07Z</time>
			</trkpt>
			<trkpt lat="50.88197277501824" lon="6.601480460833245">
				<ele>138.0</ele>
				<time>2011-02-17T16:10:08Z</time>
			</trkpt>
			<trkpt lat="50.88197277501824" lon="6.601480460833245">
				<ele>138.0</ele>
				<time>2011-02-17T16:10:09Z</time>
			</trkpt>
			<trkpt lat="50.88197277501824" lon="6.601480460833245">
				<ele>138.0</ele>
				<time>2011-02-17T16:10:10Z</time>
			</trkpt>
			<trkpt lat="50.88197277501824" lon="6.601480460833245">
				<ele>138.0</ele>
				<time>2011-02-17T16:10:11Z</time>
			</trkpt>
			<trkpt lat="50.88197277501824" lon="6.601480460833245">
				<ele>138.0</ele>
				<time>2011-02-17T16:10:12Z</time>
			</trkpt>
			<trkpt lat="50.88197277501824" lon="6.601480460833245">
				<ele>138.0</ele>
				<time>2011-02-17T16:10:13Z</time>
			</trkpt>
			<trkpt lat="50.88197277501824" lon="6.601480460833245">
				<ele>138.0</ele>
				<time>2011-02-17T16:10:14Z</time>
			</trkpt>
			<trkpt lat="50.88197277501824" lon="6.601480460833245">
				<ele>138.0</ele>
				<time>2011-02-17T16:10:15Z</time>
			</trkpt>
			<trkpt lat="50.88200102929173" lon="6.601544832327755">
				<ele>139.0</ele>
				<time>2011-02-17T16:10:16Z</time>
			</trkpt>
			<trkpt lat="50.882026629059624" lon="6.6015970648112114">
				<ele>139.0</ele>
				<time>2011-02-17T16:10:17Z</time>
			</trkpt>
			<trkpt lat="50.88205511128078" lon="6.6016554347211915">
				<ele>139.0</ele>
				<time>2011-02-17T16:10:18Z</time>
			</trkpt>
			<trkpt lat="50.88209087759646" lon="6.6017288022126905">
				<ele>139.0</ele>
				<time>2011-02-17T16:10:19Z</time>
			</trkpt>
			<trkpt lat="50.88213237836796" lon="6.601817401258147">
				<ele>139.0</ele>
				<time>2011-02-17T16:10:20Z</time>
			</trkpt>
			<trkpt lat="50.882172959649964" lon="6.601904407028405">
				<ele>139.0</ele>
				<time>2011-02-17T16:10:21Z</time>
			</trkpt>
			<trkpt lat="50.882215790827104" lon="6.601989554772484">
				<ele>139.0</ele>
				<time>2011-02-17T16:10:22Z</time>
			</trkpt>
			<trkpt lat="50.88226176802929" lon="6.6020747229323185">
				<ele>139.0</ele>
				<time>2011-02-17T16:10:23Z</time>
			</trkpt>
			<trkpt lat="50.88231485647472" lon="6.602162567345211">
				<ele>139.0</ele>
				<time>2011-02-17T16:10:24Z</time>
			</trkpt>
			<trkpt lat="50.882376469094226" lon="6.6022531898448875">
				<ele>138.0</ele>
				<time>2011-02-17T16:10:25Z</time>
			</trkpt>
			<trkpt lat="50.88244398732" lon="6.602341929188821">
				<ele>138.0</ele>
				<time>2011-02-17T16:10:26Z</time>
			</trkpt>
			<trkpt lat="50.88251971398269" lon="6.6024342557028195">
				<ele>138.0</ele>
				<time>2011-02-17T16:10:27Z</time>
			</trkpt>
			<trkpt lat="50.88259880348485" lon="6.6025187637197">
				<ele>138.0</ele>
				<time>2011-02-17T16:10:28Z</time>
			</trkpt>
			<trkpt lat="50.88268154334194" lon="6.602596424614514">
				<ele>138.0</ele>
				<time>2011-02-17T16:10:29Z</time>
			</trkpt>
			<trkpt lat="50.882765300822534" lon="6.6026759234829955">
				<ele>138.0</ele>
				<time>2011-02-17T16:10:30Z</time>
			</trkpt>
			<trkpt lat="50.88284987904054" lon="6.6027576646287764">
				<ele>137.0</ele>
				<time>2011-02-17T16:10:31Z</time>
			</trkpt>
			<trkpt lat="50.88293938156724" lon="6.602835744191865">
				<ele>138.0</ele>
				<time>2011-02-17T16:10:32Z</time>
			</trkpt>
			<trkpt lat="50.883026445759846" lon="6.602921040738126">
				<ele>138.0</ele>
				<time>2011-02-17T16:10:33Z</time>
			</trkpt>
			<trkpt lat="50.88311376350095" lon="6.603015154595046">
				<ele>138.0</ele>
				<time>2011-02-17T16:10:34Z</time>
			</trkpt>
			<trkpt lat="50.8832013843839" lon="6.603110749088963">
				<ele>138.0</ele>
				<time>2011-02-17T16:10:35Z</time>
			</trkpt>
			<trkpt lat="50.883293749835374" lon="6.603209496533817">
				<ele>138.0</ele>
				<time>2011-02-17T16:10:36Z</time>
			</trkpt>
			<trkpt lat="50.88338901886598" lon="6.603311426179714">
				<ele>137.0</ele>
				<time>2011-02-17T16:10:37Z</time>
			</trkpt>
			<trkpt lat="50.88348657774874" lon="6.60341562698259">
				<ele>137.0</ele>
				<time>2011-02-17T16:10:38Z</time>
			</trkpt>
			<trkpt lat="50.88358854085299" lon="6.60352430139104">
				<ele>137.0</ele>
				<time>2011-02-17T16:10:39Z</time>
			</trkpt>
			<trkpt lat="50.883689363870246" lon="6.603638855172307">
				<ele>136.0</ele>
				<time>2011-02-17T16:10:40Z</time>
			</trkpt>
			<trkpt lat="50.88379101978047" lon="6.60375443574786">
				<ele>136.0</ele>
				<time>2011-02-17T16:10:41Z</time>
			</trkpt>
			<trkpt lat="50.88389473365057" lon="6.6038724138320175">
				<ele>136.0</ele>
				<time>2011-02-17T16:10:42Z</time>
			</trkpt>
			<trkpt lat="50.883998683200154" lon="6.603990731491921">
				<ele>135.0</ele>
				<time>2011-02-17T16:10:43Z</time>
			</trkpt>
			<trkpt lat="50.88410310049516" lon="6.604109674634059">
				<ele>135.0</ele>
				<time>2011-02-17T16:10:44Z</time>
			</trkpt>
			<trkpt lat="50.88420800096359" lon="6.6042288467497166">
				<ele>135.0</ele>
				<time>2011-02-17T16:10:45Z</time>
			</trkpt>
			<trkpt lat="50.88431113408366" lon="6.604351941069427">
				<ele>134.0</ele>
				<time>2011-02-17T16:10:46Z</time>
			</trkpt>
			<trkpt lat="50.88441585729933" lon="6.604484298506308">
				<ele>135.0</ele>
				<time>2011-02-17T16:10:47Z</time>
			</trkpt>
			<trkpt lat="50.88451872666629" lon="6.6046264590459005">
				<ele>135.0</ele>
				<time>2011-02-17T16:10:48Z</time>
			</trkpt>
			<trkpt lat="50.88461925981352" lon="6.604776771981812">
				<ele>135.0</ele>
				<time>2011-02-17T16:10:49Z</time>
			</trkpt>
			<trkpt lat="50.88471863278223" lon="6.604936254315818">
				<ele>135.0</ele>
				<time>2011-02-17T16:10:50Z</time>
			</trkpt>
			<trkpt lat="50.88481751268573" lon="6.605100534635772">
				<ele>135.0</ele>
				<time>2011-02-17T16:10:51Z</time>
			</trkpt>
			<trkpt lat="50.88491627791635" lon="6.605264701593017">
				<ele>136.0</ele>
				<time>2011-02-17T16:10:52Z</time>
			</trkpt>
			<trkpt lat="50.885011021238476" lon="6.605434479653313">
				<ele>136.0</ele>
				<time>2011-02-17T16:10:53Z</time>
			</trkpt>
			<trkpt lat="50.88510547818104" lon="6.605604874344178">
				<ele>136.0</ele>
				<time>2011-02-17T16:10:54Z</time>
			</trkpt>
			<trkpt lat="50.88519801355085" lon="6.6057761928219945">
				<ele>136.0</ele>
				<time>2011-02-17T16:10:55Z</time>
			</trkpt>
			<trkpt lat="50.8852905697264" lon="6.605944764093956">
				<ele>136.0</ele>
				<time>2011-02-17T16:10:56Z</time>
			</trkpt>
			<trkpt lat="50.88538215857716" lon="6.606109965380315">
				<ele>136.0</ele>
				<time>2011-02-17T16:10:57Z</time>
			</trkpt>
			<trkpt lat="50.88547293314943" lon="6.606272632556044">
				<ele>136.0</ele>
				<time>2011-02-17T16:10:58Z</time>
			</trkpt>
			<trkpt lat="50.88556267598097" lon="6.606433385130939">
				<ele>136.0</ele>
				<time>2011-02-17T16:10:59Z</time>
			</trkpt>
			<trkpt lat="50.885650412164516" lon="6.606590150174579">
				<ele>136.0</ele>
				<time>2011-02-17T16:11:00Z</time>
			</trkpt>
			<trkpt lat="50.88573617503764" lon="6.606742956683546">
				<ele>136.0</ele>
				<time>2011-02-17T16:11:01Z</time>
			</trkpt>
			<trkpt lat="50.88582063998425" lon="6.6068920755964635">
				<ele>136.0</ele>
				<time>2011-02-17T16:11:02Z</time>
			</trkpt>
			<trkpt lat="50.88590211570833" lon="6.607035205827097">
				<ele>136.0</ele>
				<time>2011-02-17T16:11:03Z</time>
			</trkpt>
			<trkpt lat="50.88597485325459" lon="6.607163349664697">
				<ele>136.0</ele>
				<time>2011-02-17T16:11:04Z</time>
			</trkpt>
			<trkpt lat="50.88604118988275" lon="6.6072801083149075">
				<ele>136.0</ele>
				<time>2011-02-17T16:11:05Z</time>
			</trkpt>
			<trkpt lat="50.886103729888696" lon="6.6073907681503306">
				<ele>136.0</ele>
				<time>2011-02-17T16:11:06Z</time>
			</trkpt>
			<trkpt lat="50.88615914216544" lon="6.607499233455295">
				<ele>136.0</ele>
				<time>2011-02-17T16:11:07Z</time>
			</trkpt>
			<trkpt lat="50.88621480250674" lon="6.607607786458349">
				<ele>136.0</ele>
				<time>2011-02-17T16:11:08Z</time>
			</trkpt>
			<trkpt lat="50.886291615237795" lon="6.607679301036897">
				<ele>136.0</ele>
				<time>2011-02-17T16:11:09Z</time>
			</trkpt>
			<trkpt lat="50.886378418218015" lon="6.607724946766816">
				<ele>136.0</ele>
				<time>2011-02-17T16:11:10Z</time>
			</trkpt>
			<trkpt lat="50.886471310848684" lon="6.6077675276489245">
				<ele>136.0</ele>
				<time>2011-02-17T16:11:11Z</time>
			</trkpt>
			<trkpt lat="50.88657197124582" lon="6.60780990983553">
				<ele>136.0</ele>
				<time>2011-02-17T16:11:12Z</time>
			</trkpt>
			<trkpt lat="50.88668283695238" lon="6.607851229463634">
				<ele>136.0</ele>
				<time>2011-02-17T16:11:13Z</time>
			</trkpt>
			<trkpt lat="50.88679658030989" lon="6.60789364276457">
				<ele>136.0</ele>
				<time>2011-02-17T16:11:14Z</time>
			</trkpt>
			<trkpt lat="50.88690915704239" lon="6.607940974559069">
				<ele>136.0</ele>
				<time>2011-02-17T16:11:15Z</time>
			</trkpt>
			<trkpt lat="50.88702716670759" lon="6.607991873727966">
				<ele>136.0</ele>
				<time>2011-02-17T16:11:16Z</time>
			</trkpt>
			<trkpt lat="50.887151939230435" lon="6.6080503868944644">
				<ele>136.0</ele>
				<time>2011-02-17T16:11:17Z</time>
			</trkpt>
			<trkpt lat="50.887280248000906" lon="6.608112111774695">
				<ele>136.0</ele>
				<time>2011-02-17T16:11:18Z</time>
			</trkpt>
			<trkpt lat="50.887415868704146" lon="6.608181911398605">
				<ele>136.0</ele>
				<time>2011-02-17T16:11:19Z</time>
			</trkpt>
			<trkpt lat="50.887557550214005" lon="6.608255443176464">
				<ele>136.0</ele>
				<time>2011-02-17T16:11:20Z</time>
			</trkpt>
			<trkpt lat="50.88770555290021" lon="6.6083318556815325">
				<ele>135.0</ele>
				<time>2011-02-17T16:11:21Z</time>
			</trkpt>
			<trkpt lat="50.88785859517696" lon="6.608411296335566">
				<ele>135.0</ele>
				<time>2011-02-17T16:11:22Z</time>
			</trkpt>
			<trkpt lat="50.888017408515665" lon="6.608493506265158">
				<ele>135.0</ele>
				<time>2011-02-17T16:11:23Z</time>
			</trkpt>
			<trkpt lat="50.888176163097484" lon="6.608576203069275">
				<ele>135.0</ele>
				<time>2011-02-17T16:11:24Z</time>
			</trkpt>
			<trkpt lat="50.88833301145749" lon="6.6086617920345905">
				<ele>135.0</ele>
				<time>2011-02-17T16:11:25Z</time>
			</trkpt>
			<trkpt lat="50.88849314377985" lon="6.608747059230559">
				<ele>134.0</ele>
				<time>2011-02-17T16:11:26Z</time>
			</trkpt>
			<trkpt lat="50.88865605542216" lon="6.60883218796715">
				<ele>134.0</ele>
				<time>2011-02-17T16:11:27Z</time>
			</trkpt>
			<trkpt lat="50.888822176030644" lon="6.608917954069304">
				<ele>134.0</ele>
				<time>2011-02-17T16:11:28Z</time>
			</trkpt>
			<trkpt lat="50.888989447073094" lon="6.60900363125396">
				<ele>134.0</ele>
				<time>2011-02-17T16:11:29Z</time>
			</trkpt>
			<trkpt lat="50.88915861998547" lon="6.6090900509356265">
				<ele>134.0</ele>
				<time>2011-02-17T16:11:30Z</time>
			</trkpt>
			<trkpt lat="50.88932869781507" lon="6.609177297039203">
				<ele>134.0</ele>
				<time>2011-02-17T16:11:31Z</time>
			</trkpt>
			<trkpt lat="50.8894989662276" lon="6.609265246145399">
				<ele>134.0</ele>
				<time>2011-02-17T16:11:32Z</time>
			</trkpt>
			<trkpt lat="50.88966859270226" lon="6.609352194191352">
				<ele>134.0</ele>
				<time>2011-02-17T16:11:33Z</time>
			</trkpt>
			<trkpt lat="50.88983668934208" lon="6.609438085163169">
				<ele>134.0</ele>
				<time>2011-02-17T16:11:34Z</time>
			</trkpt>
			<trkpt lat="50.890004270523065" lon="6.609518876410612">
				<ele>134.0</ele>
				<time>2011-02-17T16:11:35Z</time>
			</trkpt>
			<trkpt lat="50.89016953399843" lon="6.609597939429147">
				<ele>134.0</ele>
				<time>2011-02-17T16:11:36Z</time>
			</trkpt>
			<trkpt lat="50.890330895701744" lon="6.609676605312906">
				<ele>134.0</ele>
				<time>2011-02-17T16:11:37Z</time>
			</trkpt>
			<trkpt lat="50.89049217939398" lon="6.60975572362584">
				<ele>134.0</ele>
				<time>2011-02-17T16:11:38Z</time>
			</trkpt>
			<trkpt lat="50.890651769649644" lon="6.609834511786215">
				<ele>133.0</ele>
				<time>2011-02-17T16:11:39Z</time>
			</trkpt>
			<trkpt lat="50.89080897568675" lon="6.609912152702168">
				<ele>133.0</ele>
				<time>2011-02-17T16:11:40Z</time>
			</trkpt>
			<trkpt lat="50.89096439555331" lon="6.609988825174581">
				<ele>133.0</ele>
				<time>2011-02-17T16:11:41Z</time>
			</trkpt>
			<trkpt lat="50.891118084077554" lon="6.610064393014674">
				<ele>133.0</ele>
				<time>2011-02-17T16:11:42Z</time>
			</trkpt>
			<trkpt lat="50.891267911938534" lon="6.610138104706038">
				<ele>133.0</ele>
				<time>2011-02-17T16:11:43Z</time>
			</trkpt>
			<trkpt lat="50.89141311458297" lon="6.6102082175046135">
				<ele>133.0</ele>
				<time>2011-02-17T16:11:44Z</time>
			</trkpt>
			<trkpt lat="50.891558137498436" lon="6.61027191228989">
				<ele>133.0</ele>
				<time>2011-02-17T16:11:45Z</time>
			</trkpt>
			<trkpt lat="50.8917064740308" lon="6.61033221344568">
				<ele>133.0</ele>
				<time>2011-02-17T16:11:46Z</time>
			</trkpt>
			<trkpt lat="50.89186188886676" lon="6.610394404298229">
				<ele>133.0</ele>
				<time>2011-02-17T16:11:47Z</time>
			</trkpt>
			<trkpt lat="50.89201793223423" lon="6.610451689960682">
				<ele>133.0</ele>
				<time>2011-02-17T16:11:48Z</time>
			</trkpt>
			<trkpt lat="50.892178218422956" lon="6.610511243862584">
				<ele>133.0</ele>
				<time>2011-02-17T16:11:49Z</time>
			</trkpt>
			<trkpt lat="50.89233960722627" lon="6.6105722558100775">
				<ele>133.0</ele>
				<time>2011-02-17T16:11:50Z</time>
			</trkpt>
			<trkpt lat="50.89250824393405" lon="6.6106362239922">
				<ele>133.0</ele>
				<time>2011-02-17T16:11:51Z</time>
			</trkpt>
			<trkpt lat="50.89267844273501" lon="6.610701286250566">
				<ele>133.0</ele>
				<time>2011-02-17T16:11:52Z</time>
			</trkpt>
			<trkpt lat="50.89284847065159" lon="6.610766206777632">
				<ele>133.0</ele>
				<time>2011-02-17T16:11:53Z</time>
			</trkpt>
			<trkpt lat="50.893024543412665" lon="6.610832483569033">
				<ele>133.0</ele>
				<time>2011-02-17T16:11:54Z</time>
			</trkpt>
			<trkpt lat="50.89320027183724" lon="6.61089678634182">
				<ele>133.0</ele>
				<time>2011-02-17T16:11:55Z</time>
			</trkpt>
			<trkpt lat="50.89337746795311" lon="6.610951962707891">
				<ele>133.0</ele>
				<time>2011-02-17T16:11:56Z</time>
			</trkpt>
			<trkpt lat="50.89355200944835" lon="6.611014077712345">
				<ele>133.0</ele>
				<time>2011-02-17T16:11:57Z</time>
			</trkpt>
			<trkpt lat="50.893724082763114" lon="6.611074412941265">
				<ele>133.0</ele>
				<time>2011-02-17T16:11:58Z</time>
			</trkpt>
			<trkpt lat="50.89389276660733" lon="6.6111340450524265">
				<ele>133.0</ele>
				<time>2011-02-17T16:11:59Z</time>
			</trkpt>
			<trkpt lat="50.89405969095508" lon="6.611189226719961">
				<ele>133.0</ele>
				<time>2011-02-17T16:12:00Z</time>
			</trkpt>
			<trkpt lat="50.8942248477845" lon="6.6112430819934325">
				<ele>133.0</ele>
				<time>2011-02-17T16:12:01Z</time>
			</trkpt>
			<trkpt lat="50.89438953877316" lon="6.6112887365118596">
				<ele>133.0</ele>
				<time>2011-02-17T16:12:02Z</time>
			</trkpt>
			<trkpt lat="50.89454860797114" lon="6.611343347277329">
				<ele>133.0</ele>
				<time>2011-02-17T16:12:03Z</time>
			</trkpt>
			<trkpt lat="50.89470314215352" lon="6.61139699155434">
				<ele>133.0</ele>
				<time>2011-02-17T16:12:04Z</time>
			</trkpt>
			<trkpt lat="50.89485489525192" lon="6.611446213979744">
				<ele>133.0</ele>
				<time>2011-02-17T16:12:05Z</time>
			</trkpt>
			<trkpt lat="50.89500117301324" lon="6.611505400079177">
				<ele>133.0</ele>
				<time>2011-02-17T16:12:06Z</time>
			</trkpt>
			<trkpt lat="50.89514684263304" lon="6.611564171460172">
				<ele>133.0</ele>
				<time>2011-02-17T16:12:07Z</time>
			</trkpt>
			<trkpt lat="50.895295149230364" lon="6.611619215528117">
				<ele>132.0</ele>
				<time>2011-02-17T16:12:08Z</time>
			</trkpt>
			<trkpt lat="50.89544465494231" lon="6.611674427122872">
				<ele>132.0</ele>
				<time>2011-02-17T16:12:09Z</time>
			</trkpt>
			<trkpt lat="50.89559542619978" lon="6.611729472253463">
				<ele>132.0</ele>
				<time>2011-02-17T16:12:10Z</time>
			</trkpt>
			<trkpt lat="50.895752699916706" lon="6.611780842364017">
				<ele>132.0</ele>
				<time>2011-02-17T16:12:11Z</time>
			</trkpt>
			<trkpt lat="50.89591498909277" lon="6.6118321952747845">
				<ele>132.0</ele>
				<time>2011-02-17T16:12:12Z</time>
			</trkpt>
			<trkpt lat="50.896086338304116" lon="6.611875007028868">
				<ele>132.0</ele>
				<time>2011-02-17T16:12:13Z</time>
			</trkpt>
			<trkpt lat="50.896266293356156" lon="6.611913039800424">
				<ele>132.0</ele>
				<time>2011-02-17T16:12:14Z</time>
			</trkpt>
			<trkpt lat="50.89645153030552" lon="6.6119503303992335">
				<ele>132.0</ele>
				<time>2011-02-17T16:12:15Z</time>
			</trkpt>
			<trkpt lat="50.8966421581879" lon="6.6119699151032645">
				<ele>132.0</ele>
				<time>2011-02-17T16:12:16Z</time>
			</trkpt>
			<trkpt lat="50.896837678624024" lon="6.611992247465236">
				<ele>132.0</ele>
				<time>2011-02-17T16:12:17Z</time>
			</trkpt>
			<trkpt lat="50.89703657184254" lon="6.612017056984696">
				<ele>132.0</ele>
				<time>2011-02-17T16:12:18Z</time>
			</trkpt>
			<trkpt lat="50.89723815346762" lon="6.612044031052686">
				<ele>132.0</ele>
				<time>2011-02-17T16:12:19Z</time>
			</trkpt>
			<trkpt lat="50.89744054742946" lon="6.612069073035563">
				<ele>132.0</ele>
				<time>2011-02-17T16:12:20Z</time>
			</trkpt>
			<trkpt lat="50.89764220545964" lon="6.612094856773602">
				<ele>132.0</ele>
				<time>2011-02-17T16:12:21Z</time>
			</trkpt>
			<trkpt lat="50.89784417747633" lon="6.6121225037214275">
				<ele>132.0</ele>
				<time>2011-02-17T16:12:22Z</time>
			</trkpt>
			<trkpt lat="50.89804669885933" lon="6.612150559268887">
				<ele>131.0</ele>
				<time>2011-02-17T16:12:23Z</time>
			</trkpt>
			<trkpt lat="50.89825065636769" lon="6.612178291930182">
				<ele>131.0</ele>
				<time>2011-02-17T16:12:24Z</time>
			</trkpt>
			<trkpt lat="50.898456422294494" lon="6.612206490817758">
				<ele>131.0</ele>
				<time>2011-02-17T16:12:25Z</time>
			</trkpt>
			<trkpt lat="50.89866342493825" lon="6.612234873432475">
				<ele>131.0</ele>
				<time>2011-02-17T16:12:26Z</time>
			</trkpt>
			<trkpt lat="50.89887201325457" lon="6.612262220474481">
				<ele>131.0</ele>
				<time>2011-02-17T16:12:27Z</time>
			</trkpt>
			<trkpt lat="50.89908285187099" lon="6.612288709750729">
				<ele>131.0</ele>
				<time>2011-02-17T16:12:28Z</time>
			</trkpt>
			<trkpt lat="50.89929678747717" lon="6.612314489537374">
				<ele>130.0</ele>
				<time>2011-02-17T16:12:29Z</time>
			</trkpt>
			<trkpt lat="50.89951130293322" lon="6.612340317135208">
				<ele>130.0</ele>
				<time>2011-02-17T16:12:30Z</time>
			</trkpt>
			<trkpt lat="50.89972697661414" lon="6.612366862451583">
				<ele>130.0</ele>
				<time>2011-02-17T16:12:31Z</time>
			</trkpt>
			<trkpt lat="50.899943406652454" lon="6.6123920461478205">
				<ele>130.0</ele>
				<time>2011-02-17T16:12:32Z</time>
			</trkpt>
			<trkpt lat="50.90016174776483" lon="6.612417770204958">
				<ele>130.0</ele>
				<time>2011-02-17T16:12:33Z</time>
			</trkpt>
			<trkpt lat="50.900381496133164" lon="6.61244393829793">
				<ele>130.0</ele>
				<time>2011-02-17T16:12:34Z</time>
			</trkpt>
			<trkpt lat="50.90060230247603" lon="6.612470597162915">
				<ele>130.0</ele>
				<time>2011-02-17T16:12:35Z</time>
			</trkpt>
			<trkpt lat="50.90082409367483" lon="6.612497173073862">
				<ele>131.0</ele>
				<time>2011-02-17T16:12:36Z</time>
			</trkpt>
			<trkpt lat="50.90104737068604" lon="6.612524169777374">
				<ele>130.0</ele>
				<time>2011-02-17T16:12:37Z</time>
			</trkpt>
			<trkpt lat="50.90127076915534" lon="6.612551668195329">
				<ele>130.0</ele>
				<time>2011-02-17T16:12:38Z</time>
			</trkpt>
			<trkpt lat="50.90149637596548" lon="6.612578622800751">
				<ele>130.0</ele>
				<time>2011-02-17T16:12:39Z</time>
			</trkpt>
			<trkpt lat="50.90172300901605" lon="6.612605461807624">
				<ele>130.0</ele>
				<time>2011-02-17T16:12:40Z</time>
			</trkpt>
			<trkpt lat="50.901949945061375" lon="6.6126328174527345">
				<ele>130.0</ele>
				<time>2011-02-17T16:12:41Z</time>
			</trkpt>
			<trkpt lat="50.90217654715255" lon="6.61266033680307">
				<ele>130.0</ele>
				<time>2011-02-17T16:12:42Z</time>
			</trkpt>
			<trkpt lat="50.90240155275373" lon="6.6126860932718445">
				<ele>131.0</ele>
				<time>2011-02-17T16:12:43Z</time>
			</trkpt>
			<trkpt lat="50.90262555873527" lon="6.612712455205282">
				<ele>131.0</ele>
				<time>2011-02-17T16:12:44Z</time>
			</trkpt>
			<trkpt lat="50.90284613240856" lon="6.61274692169734">
				<ele>131.0</ele>
				<time>2011-02-17T16:12:45Z</time>
			</trkpt>
			<trkpt lat="50.90306191458997" lon="6.612788466704238">
				<ele>131.0</ele>
				<time>2011-02-17T16:12:46Z</time>
			</trkpt>
			<trkpt lat="50.90327431766397" lon="6.612832021351885">
				<ele>132.0</ele>
				<time>2011-02-17T16:12:47Z</time>
			</trkpt>
			<trkpt lat="50.90348311421237" lon="6.612888209430626">
				<ele>132.0</ele>
				<time>2011-02-17T16:12:48Z</time>
			</trkpt>
			<trkpt lat="50.90368892625241" lon="6.612946305255153">
				<ele>132.0</ele>
				<time>2011-02-17T16:12:49Z</time>
			</trkpt>
			<trkpt lat="50.903891153193186" lon="6.613011275037696">
				<ele>132.0</ele>
				<time>2011-02-17T16:12:50Z</time>
			</trkpt>
			<trkpt lat="50.904091837968906" lon="6.613076792167722">
				<ele>132.0</ele>
				<time>2011-02-17T16:12:51Z</time>
			</trkpt>
			<trkpt lat="50.904288204128115" lon="6.613152392456086">
				<ele>132.0</ele>
				<time>2011-02-17T16:12:52Z</time>
			</trkpt>
			<trkpt lat="50.90448220813382" lon="6.613227972711319">
				<ele>132.0</ele>
				<time>2011-02-17T16:12:53Z</time>
			</trkpt>
			<trkpt lat="50.904669411548895" lon="6.613312842399548">
				<ele>132.0</ele>
				<time>2011-02-17T16:12:54Z</time>
			</trkpt>
			<trkpt lat="50.90484947088147" lon="6.61340188965383">
				<ele>133.0</ele>
				<time>2011-02-17T16:12:55Z</time>
			</trkpt>
			<trkpt lat="50.905024020657" lon="6.613489951591993">
				<ele>133.0</ele>
				<time>2011-02-17T16:12:56Z</time>
			</trkpt>
			<trkpt lat="50.90519293715412" lon="6.6135831979474675">
				<ele>133.0</ele>
				<time>2011-02-17T16:12:57Z</time>
			</trkpt>
			<trkpt lat="50.905359564193496" lon="6.6136755395415525">
				<ele>132.0</ele>
				<time>2011-02-17T16:12:58Z</time>
			</trkpt>
			<trkpt lat="50.90552429556604" lon="6.61377354434199">
				<ele>132.0</ele>
				<time>2011-02-17T16:12:59Z</time>
			</trkpt>
			<trkpt lat="50.90568471194861" lon="6.613876168854231">
				<ele>132.0</ele>
				<time>2011-02-17T16:13:00Z</time>
			</trkpt>
			<trkpt lat="50.90584046328125" lon="6.613976565224003">
				<ele>132.0</ele>
				<time>2011-02-17T16:13:01Z</time>
			</trkpt>
			<trkpt lat="50.90599107421454" lon="6.614082135944726">
				<ele>132.0</ele>
				<time>2011-02-17T16:13:02Z</time>
			</trkpt>
			<trkpt lat="50.906139655964246" lon="6.614187692427529">
				<ele>132.0</ele>
				<time>2011-02-17T16:13:03Z</time>
			</trkpt>
			<trkpt lat="50.906283894185464" lon="6.614296416805156">
				<ele>131.0</ele>
				<time>2011-02-17T16:13:04Z</time>
			</trkpt>
			<trkpt lat="50.906426190771015" lon="6.6144043149332274">
				<ele>131.0</ele>
				<time>2011-02-17T16:13:05Z</time>
			</trkpt>
			<trkpt lat="50.906565334035484" lon="6.614509917165735">
				<ele>131.0</ele>
				<time>2011-02-17T16:13:06Z</time>
			</trkpt>
			<trkpt lat="50.90670110790187" lon="6.614613382269813">
				<ele>131.0</ele>
				<time>2011-02-17T16:13:07Z</time>
			</trkpt>
			<trkpt lat="50.9068334977623" lon="6.614714040463675">
				<ele>131.0</ele>
				<time>2011-02-17T16:13:08Z</time>
			</trkpt>
			<trkpt lat="50.90696247204564" lon="6.614811482690473">
				<ele>131.0</ele>
				<time>2011-02-17T16:13:09Z</time>
			</trkpt>
			<trkpt lat="50.907088078906625" lon="6.6149067969950535">
				<ele>131.0</ele>
				<time>2011-02-17T16:13:10Z</time>
			</trkpt>
			<trkpt lat="50.907212203274774" lon="6.615002193934756">
				<ele>131.0</ele>
				<time>2011-02-17T16:13:11Z</time>
			</trkpt>
			<trkpt lat="50.907327753635585" lon="6.615097246412554">
				<ele>131.0</ele>
				<time>2011-02-17T16:13:12Z</time>
			</trkpt>
			<trkpt lat="50.90743316188711" lon="6.615193140993132">
				<ele>131.0</ele>
				<time>2011-02-17T16:13:13Z</time>
			</trkpt>
			<trkpt lat="50.90752762979226" lon="6.6152958415009975">
				<ele>131.0</ele>
				<time>2011-02-17T16:13:14Z</time>
			</trkpt>
			<trkpt lat="50.907599360807836" lon="6.615428578532765">
				<ele>131.0</ele>
				<time>2011-02-17T16:13:15Z</time>
			</trkpt>
			<trkpt lat="50.90766090213324" lon="6.615560923587524">
				<ele>131.0</ele>
				<time>2011-02-17T16:13:16Z</time>
			</trkpt>
			<trkpt lat="50.90769223780554" lon="6.615709081743071">
				<ele>131.0</ele>
				<time>2011-02-17T16:13:17Z</time>
			</trkpt>
			<trkpt lat="50.907715816495056" lon="6.615843909156518">
				<ele>131.0</ele>
				<time>2011-02-17T16:13:18Z</time>
			</trkpt>
			<trkpt lat="50.90773088778481" lon="6.615957953222457">
				<ele>130.0</ele>
				<time>2011-02-17T16:13:19Z</time>
			</trkpt>
			<trkpt lat="50.90774370204334" lon="6.616046785767092">
				<ele>130.0</ele>
				<time>2011-02-17T16:13:20Z</time>
			</trkpt>
			<trkpt lat="50.90776613616047" lon="6.616122293829318">
				<ele>130.0</ele>
				<time>2011-02-17T16:13:21Z</time>
			</trkpt>
			<trkpt lat="50.907804249910185" lon="6.616170051392736">
				<ele>130.0</ele>
				<time>2011-02-17T16:13:22Z</time>
			</trkpt>
			<trkpt lat="50.90785405949114" lon="6.616189639109011">
				<ele>130.0</ele>
				<time>2011-02-17T16:13:23Z</time>
			</trkpt>
			<trkpt lat="50.90791460275657" lon="6.616201344631731">
				<ele>130.0</ele>
				<time>2011-02-17T16:13:24Z</time>
			</trkpt>
			<trkpt lat="50.90798738838102" lon="6.616205671842685">
				<ele>130.0</ele>
				<time>2011-02-17T16:13:25Z</time>
			</trkpt>
			<trkpt lat="50.90807100965433" lon="6.616205346933367">
				<ele>130.0</ele>
				<time>2011-02-17T16:13:26Z</time>
			</trkpt>
			<trkpt lat="50.908164469990545" lon="6.616203962527507">
				<ele>130.0</ele>
				<time>2011-02-17T16:13:27Z</time>
			</trkpt>
			<trkpt lat="50.90826744031513" lon="6.616200285317057">
				<ele>130.0</ele>
				<time>2011-02-17T16:13:28Z</time>
			</trkpt>
			<trkpt lat="50.90837359201097" lon="6.616197899127412">
				<ele>129.0</ele>
				<time>2011-02-17T16:13:29Z</time>
			</trkpt>
			<trkpt lat="50.908482464092785" lon="6.616198180033834">
				<ele>129.0</ele>
				<time>2011-02-17T16:13:30Z</time>
			</trkpt>
			<trkpt lat="50.90860209639467" lon="6.616204676384725">
				<ele>129.0</ele>
				<time>2011-02-17T16:13:31Z</time>
			</trkpt>
			<trkpt lat="50.90872900121032" lon="6.616213805875353">
				<ele>128.0</ele>
				<time>2011-02-17T16:13:32Z</time>
			</trkpt>
			<trkpt lat="50.90885969736434" lon="6.616230963278664">
				<ele>128.0</ele>
				<time>2011-02-17T16:13:33Z</time>
			</trkpt>
			<trkpt lat="50.908993709056006" lon="6.616254745935916">
				<ele>128.0</ele>
				<time>2011-02-17T16:13:34Z</time>
			</trkpt>
			<trkpt lat="50.90913192035912" lon="6.616285155105174">
				<ele>128.0</ele>
				<time>2011-02-17T16:13:35Z</time>
			</trkpt>
			<trkpt lat="50.90927241413593" lon="6.616322134044539">
				<ele>127.0</ele>
				<time>2011-02-17T16:13:36Z</time>
			</trkpt>
			<trkpt lat="50.909416569850414" lon="6.616364689459947">
				<ele>127.0</ele>
				<time>2011-02-17T16:13:37Z</time>
			</trkpt>
			<trkpt lat="50.909561528545346" lon="6.616412893153415">
				<ele>127.0</ele>
				<time>2011-02-17T16:13:38Z</time>
			</trkpt>
			<trkpt lat="50.90970560130407" lon="6.616466759445742">
				<ele>127.0</ele>
				<time>2011-02-17T16:13:39Z</time>
			</trkpt>
			<trkpt lat="50.90985141494946" lon="6.616522005402304">
				<ele>127.0</ele>
				<time>2011-02-17T16:13:40Z</time>
			</trkpt>
			<trkpt lat="50.909996076299294" lon="6.616581888882873">
				<ele>127.0</ele>
				<time>2011-02-17T16:13:41Z</time>
			</trkpt>
			<trkpt lat="50.910139787060345" lon="6.616640842852901">
				<ele>127.0</ele>
				<time>2011-02-17T16:13:42Z</time>
			</trkpt>
			<trkpt lat="50.910282118426004" lon="6.616698730310972">
				<ele>127.0</ele>
				<time>2011-02-17T16:13:43Z</time>
			</trkpt>
			<trkpt lat="50.91042168244819" lon="6.616759588418973">
				<ele>126.0</ele>
				<time>2011-02-17T16:13:44Z</time>
			</trkpt>
			<trkpt lat="50.91055951548599" lon="6.616819506137004">
				<ele>126.0</ele>
				<time>2011-02-17T16:13:45Z</time>
			</trkpt>
			<trkpt lat="50.91069647527394" lon="6.616878875260032">
				<ele>126.0</ele>
				<time>2011-02-17T16:13:46Z</time>
			</trkpt>
			<trkpt lat="50.91083547440678" lon="6.616937808492369">
				<ele>126.0</ele>
				<time>2011-02-17T16:13:47Z</time>
			</trkpt>
			<trkpt lat="50.91097461932914" lon="6.616995812289773">
				<ele>126.0</ele>
				<time>2011-02-17T16:13:48Z</time>
			</trkpt>
			<trkpt lat="50.91111227046643" lon="6.617053876359677">
				<ele>126.0</ele>
				<time>2011-02-17T16:13:49Z</time>
			</trkpt>
			<trkpt lat="50.91124802759973" lon="6.617112204271738">
				<ele>126.0</ele>
				<time>2011-02-17T16:13:50Z</time>
			</trkpt>
			<trkpt lat="50.911383816878946" lon="6.617171223226196">
				<ele>126.0</ele>
				<time>2011-02-17T16:13:51Z</time>
			</trkpt>
			<trkpt lat="50.911519359072415" lon="6.617229903557687">
				<ele>126.0</ele>
				<time>2011-02-17T16:13:52Z</time>
			</trkpt>
			<trkpt lat="50.91165347517984" lon="6.617288541756256">
				<ele>126.0</ele>
				<time>2011-02-17T16:13:53Z</time>
			</trkpt>
			<trkpt lat="50.91178587118173" lon="6.617346696563998">
				<ele>126.0</ele>
				<time>2011-02-17T16:13:54Z</time>
			</trkpt>
			<trkpt lat="50.91191408485203" lon="6.617407330159745">
				<ele>126.0</ele>
				<time>2011-02-17T16:13:55Z</time>
			</trkpt>
			<trkpt lat="50.912040091480506" lon="6.617464742223839">
				<ele>126.0</ele>
				<time>2011-02-17T16:13:56Z</time>
			</trkpt>
			<trkpt lat="50.91216287013327" lon="6.617518880512074">
				<ele>126.0</ele>
				<time>2011-02-17T16:13:57Z</time>
			</trkpt>
			<trkpt lat="50.91227679376677" lon="6.617567030762931">
				<ele>126.0</ele>
				<time>2011-02-17T16:13:58Z</time>
			</trkpt>
			<trkpt lat="50.91238209948338" lon="6.617612905848899">
				<ele>126.0</ele>
				<time>2011-02-17T16:13:59Z</time>
			</trkpt>
			<trkpt lat="50.91247658377083" lon="6.617654737447922">
				<ele>126.0</ele>
				<time>2011-02-17T16:14:00Z</time>
			</trkpt>
			<trkpt lat="50.91255541527248" lon="6.61769169075866">
				<ele>126.0</ele>
				<time>2011-02-17T16:14:01Z</time>
			</trkpt>
			<trkpt lat="50.912621685224956" lon="6.617733197248226">
				<ele>126.0</ele>
				<time>2011-02-17T16:14:02Z</time>
			</trkpt>
			<trkpt lat="50.91266372231614" lon="6.617800918309396">
				<ele>126.0</ele>
				<time>2011-02-17T16:14:03Z</time>
			</trkpt>
			<trkpt lat="50.912686910055115" lon="6.617882223678303">
				<ele>126.0</ele>
				<time>2011-02-17T16:14:04Z</time>
			</trkpt>
			<trkpt lat="50.91269250750902" lon="6.617980572761629">
				<ele>126.0</ele>
				<time>2011-02-17T16:14:05Z</time>
			</trkpt>
			<trkpt lat="50.91269727730031" lon="6.618092818769154">
				<ele>126.0</ele>
				<time>2011-02-17T16:14:06Z</time>
			</trkpt>
			<trkpt lat="50.91270566226186" lon="6.6182170689788">
				<ele>126.0</ele>
				<time>2011-02-17T16:14:07Z</time>
			</trkpt>
			<trkpt lat="50.912720953389716" lon="6.618354858493169">
				<ele>126.0</ele>
				<time>2011-02-17T16:14:08Z</time>
			</trkpt>
			<trkpt lat="50.91275686116092" lon="6.618497808791745">
				<ele>126.0</ele>
				<time>2011-02-17T16:14:09Z</time>
			</trkpt>
			<trkpt lat="50.91279499297144" lon="6.618650721087736">
				<ele>126.0</ele>
				<time>2011-02-17T16:14:10Z</time>
			</trkpt>
			<trkpt lat="50.91283678336036" lon="6.6188061398287905">
				<ele>126.0</ele>
				<time>2011-02-17T16:14:11Z</time>
			</trkpt>
			<trkpt lat="50.91287888360804" lon="6.6189644777028755">
				<ele>126.0</ele>
				<time>2011-02-17T16:14:12Z</time>
			</trkpt>
			<trkpt lat="50.9129220171992" lon="6.619129761157943">
				<ele>125.0</ele>
				<time>2011-02-17T16:14:13Z</time>
			</trkpt>
			<trkpt lat="50.91296698129942" lon="6.619303782020003">
				<ele>125.0</ele>
				<time>2011-02-17T16:14:14Z</time>
			</trkpt>
			<trkpt lat="50.913014235111966" lon="6.619485588842609">
				<ele>125.0</ele>
				<time>2011-02-17T16:14:15Z</time>
			</trkpt>
			<trkpt lat="50.91306429624628" lon="6.619669892206102">
				<ele>125.0</ele>
				<time>2011-02-17T16:14:16Z</time>
			</trkpt>
			<trkpt lat="50.913114904152884" lon="6.619859487029863">
				<ele>124.0</ele>
				<time>2011-02-17T16:14:17Z</time>
			</trkpt>
			<trkpt lat="50.91316752089636" lon="6.62005693960886">
				<ele>124.0</ele>
				<time>2011-02-17T16:14:18Z</time>
			</trkpt>
			<trkpt lat="50.91322085784804" lon="6.620257984429505">
				<ele>124.0</ele>
				<time>2011-02-17T16:14:19Z</time>
			</trkpt>
			<trkpt lat="50.91327524150076" lon="6.620464764759345">
				<ele>123.0</ele>
				<time>2011-02-17T16:14:20Z</time>
			</trkpt>
			<trkpt lat="50.91333037430826" lon="6.620675595131224">
				<ele>123.0</ele>
				<time>2011-02-17T16:14:21Z</time>
			</trkpt>
			<trkpt lat="50.91338722730309" lon="6.6208899082591435">
				<ele>122.0</ele>
				<time>2011-02-17T16:14:22Z</time>
			</trkpt>
			<trkpt lat="50.913445018662095" lon="6.621105576994471">
				<ele>122.0</ele>
				<time>2011-02-17T16:14:23Z</time>
			</trkpt>
			<trkpt lat="50.9135037927208" lon="6.621323908523845">
				<ele>122.0</ele>
				<time>2011-02-17T16:14:24Z</time>
			</trkpt>
			<trkpt lat="50.913563630281836" lon="6.621543469494695">
				<ele>122.0</ele>
				<time>2011-02-17T16:14:25Z</time>
			</trkpt>
			<trkpt lat="50.913623105305476" lon="6.62176328549882">
				<ele>122.0</ele>
				<time>2011-02-17T16:14:26Z</time>
			</trkpt>
			<trkpt lat="50.9136815861894" lon="6.621981699192159">
				<ele>121.0</ele>
				<time>2011-02-17T16:14:27Z</time>
			</trkpt>
			<trkpt lat="50.91373897343377" lon="6.62219767005734">
				<ele>121.0</ele>
				<time>2011-02-17T16:14:28Z</time>
			</trkpt>
			<trkpt lat="50.91379094300838" lon="6.622410813642436">
				<ele>121.0</ele>
				<time>2011-02-17T16:14:29Z</time>
			</trkpt>
			<trkpt lat="50.91384152222752" lon="6.622622388725077">
				<ele>121.0</ele>
				<time>2011-02-17T16:14:30Z</time>
			</trkpt>
			<trkpt lat="50.91388483089902" lon="6.622838925334871">
				<ele>121.0</ele>
				<time>2011-02-17T16:14:31Z</time>
			</trkpt>
			<trkpt lat="50.91392136539657" lon="6.623060072279109">
				<ele>121.0</ele>
				<time>2011-02-17T16:14:32Z</time>
			</trkpt>
			<trkpt lat="50.91395224323039" lon="6.623284626686322">
				<ele>121.0</ele>
				<time>2011-02-17T16:14:33Z</time>
			</trkpt>
			<trkpt lat="50.91397620018176" lon="6.623510810565469">
				<ele>121.0</ele>
				<time>2011-02-17T16:14:34Z</time>
			</trkpt>
			<trkpt lat="50.91399134184595" lon="6.623737601764627">
				<ele>121.0</ele>
				<time>2011-02-17T16:14:35Z</time>
			</trkpt>
			<trkpt lat="50.913998428814125" lon="6.623964448242543">
				<ele>121.0</ele>
				<time>2011-02-17T16:14:36Z</time>
			</trkpt>
			<trkpt lat="50.91399842308481" lon="6.6241914236168284">
				<ele>121.0</ele>
				<time>2011-02-17T16:14:37Z</time>
			</trkpt>
			<trkpt lat="50.91399252140198" lon="6.624417952311346">
				<ele>121.0</ele>
				<time>2011-02-17T16:14:38Z</time>
			</trkpt>
			<trkpt lat="50.9139829460124" lon="6.62464507189141">
				<ele>121.0</ele>
				<time>2011-02-17T16:14:39Z</time>
			</trkpt>
			<trkpt lat="50.91396478541885" lon="6.624870175719485">
				<ele>121.0</ele>
				<time>2011-02-17T16:14:40Z</time>
			</trkpt>
			<trkpt lat="50.9139373117737" lon="6.625093213140278">
				<ele>121.0</ele>
				<time>2011-02-17T16:14:41Z</time>
			</trkpt>
			<trkpt lat="50.91390180948012" lon="6.6253158366325575">
				<ele>121.0</ele>
				<time>2011-02-17T16:14:42Z</time>
			</trkpt>
			<trkpt lat="50.91386000242848" lon="6.6255353731207585">
				<ele>121.0</ele>
				<time>2011-02-17T16:14:43Z</time>
			</trkpt>
			<trkpt lat="50.91381286041034" lon="6.625752358104304">
				<ele>121.0</ele>
				<time>2011-02-17T16:14:44Z</time>
			</trkpt>
			<trkpt lat="50.91376206714001" lon="6.625967281301807">
				<ele>122.0</ele>
				<time>2011-02-17T16:14:45Z</time>
			</trkpt>
			<trkpt lat="50.91371217836936" lon="6.626180157758652">
				<ele>122.0</ele>
				<time>2011-02-17T16:14:46Z</time>
			</trkpt>
			<trkpt lat="50.913658927424294" lon="6.62639053036668">
				<ele>122.0</ele>
				<time>2011-02-17T16:14:47Z</time>
			</trkpt>
			<trkpt lat="50.9136071201395" lon="6.626599485083616">
				<ele>122.0</ele>
				<time>2011-02-17T16:14:48Z</time>
			</trkpt>
			<trkpt lat="50.91355673271493" lon="6.626806711735527">
				<ele>122.0</ele>
				<time>2011-02-17T16:14:49Z</time>
			</trkpt>
			<trkpt lat="50.91350425068344" lon="6.627010985292223">
				<ele>122.0</ele>
				<time>2011-02-17T16:14:50Z</time>
			</trkpt>
			<trkpt lat="50.913453002905015" lon="6.627215394549198">
				<ele>122.0</ele>
				<time>2011-02-17T16:14:51Z</time>
			</trkpt>
			<trkpt lat="50.91340277253977" lon="6.62741965939671">
				<ele>123.0</ele>
				<time>2011-02-17T16:14:52Z</time>
			</trkpt>
			<trkpt lat="50.9133534667035" lon="6.627623933330838">
				<ele>123.0</ele>
				<time>2011-02-17T16:14:53Z</time>
			</trkpt>
			<trkpt lat="50.913304546544616" lon="6.627829173660944">
				<ele>123.0</ele>
				<time>2011-02-17T16:14:54Z</time>
			</trkpt>
			<trkpt lat="50.91325833272785" lon="6.628033789732218">
				<ele>122.0</ele>
				<time>2011-02-17T16:14:55Z</time>
			</trkpt>
			<trkpt lat="50.91321137684891" lon="6.628238298937813">
				<ele>122.0</ele>
				<time>2011-02-17T16:14:56Z</time>
			</trkpt>
			<trkpt lat="50.91316196373447" lon="6.6284444352517164">
				<ele>122.0</ele>
				<time>2011-02-17T16:14:57Z</time>
			</trkpt>
			<trkpt lat="50.91311313982241" lon="6.628650132656196">
				<ele>122.0</ele>
				<time>2011-02-17T16:14:58Z</time>
			</trkpt>
			<trkpt lat="50.913064411084484" lon="6.628854897920633">
				<ele>122.0</ele>
				<time>2011-02-17T16:14:59Z</time>
			</trkpt>
			<trkpt lat="50.913016838839425" lon="6.629057922683532">
				<ele>122.0</ele>
				<time>2011-02-17T16:15:00Z</time>
			</trkpt>
			<trkpt lat="50.91296979246842" lon="6.629258854989953">
				<ele>122.0</ele>
				<time>2011-02-17T16:15:01Z</time>
			</trkpt>
			<trkpt lat="50.91292307018493" lon="6.629456967104956">
				<ele>123.0</ele>
				<time>2011-02-17T16:15:02Z</time>
			</trkpt>
			<trkpt lat="50.912877108230965" lon="6.6296508065501065">
				<ele>123.0</ele>
				<time>2011-02-17T16:15:03Z</time>
			</trkpt>
			<trkpt lat="50.91283392173569" lon="6.629834059405023">
				<ele>123.0</ele>
				<time>2011-02-17T16:15:04Z</time>
			</trkpt>
			<trkpt lat="50.912792565435296" lon="6.630009916853632">
				<ele>123.0</ele>
				<time>2011-02-17T16:15:05Z</time>
			</trkpt>
			<trkpt lat="50.91275199561677" lon="6.630183249497106">
				<ele>123.0</ele>
				<time>2011-02-17T16:15:06Z</time>
			</trkpt>
			<trkpt lat="50.91271333565766" lon="6.630350766643418">
				<ele>123.0</ele>
				<time>2011-02-17T16:15:07Z</time>
			</trkpt>
			<trkpt lat="50.91268015049247" lon="6.630507562791144">
				<ele>123.0</ele>
				<time>2011-02-17T16:15:08Z</time>
			</trkpt>
			<trkpt lat="50.91265518287383" lon="6.6306435903894245">
				<ele>123.0</ele>
				<time>2011-02-17T16:15:09Z</time>
			</trkpt>
			<trkpt lat="50.91263727799406" lon="6.630758303477203">
				<ele>122.0</ele>
				<time>2011-02-17T16:15:10Z</time>
			</trkpt>
			<trkpt lat="50.912624219486254" lon="6.630854718139283">
				<ele>122.0</ele>
				<time>2011-02-17T16:15:11Z</time>
			</trkpt>
			<trkpt lat="50.91260987906059" lon="6.6309392239024785">
				<ele>122.0</ele>
				<time>2011-02-17T16:15:12Z</time>
			</trkpt>
			<trkpt lat="50.91257761731249" lon="6.631005477661322">
				<ele>122.0</ele>
				<time>2011-02-17T16:15:13Z</time>
			</trkpt>
			<trkpt lat="50.91254621952119" lon="6.631071028005114">
				<ele>122.0</ele>
				<time>2011-02-17T16:15:14Z</time>
			</trkpt>
			<trkpt lat="50.9125319805928" lon="6.6311511447939475">
				<ele>123.0</ele>
				<time>2011-02-17T16:15:15Z</time>
			</trkpt>
			<trkpt lat="50.91252120771918" lon="6.631235077680691">
				<ele>123.0</ele>
				<time>2011-02-17T16:15:16Z</time>
			</trkpt>
			<trkpt lat="50.912504907323715" lon="6.631327843822891">
				<ele>123.0</ele>
				<time>2011-02-17T16:15:17Z</time>
			</trkpt>
			<trkpt lat="50.91247129534123" lon="6.6314153997002885">
				<ele>123.0</ele>
				<time>2011-02-17T16:15:18Z</time>
			</trkpt>
			<trkpt lat="50.912434799857635" lon="6.631508198281311">
				<ele>123.0</ele>
				<time>2011-02-17T16:15:19Z</time>
			</trkpt>
			<trkpt lat="50.91239549102881" lon="6.631606796423464">
				<ele>123.0</ele>
				<time>2011-02-17T16:15:20Z</time>
			</trkpt>
			<trkpt lat="50.91235234769709" lon="6.631716691886909">
				<ele>124.0</ele>
				<time>2011-02-17T16:15:21Z</time>
			</trkpt>
			<trkpt lat="50.91230608536118" lon="6.6318423909520705">
				<ele>124.0</ele>
				<time>2011-02-17T16:15:22Z</time>
			</trkpt>
			<trkpt lat="50.912259165175996" lon="6.631970185893906">
				<ele>124.0</ele>
				<time>2011-02-17T16:15:23Z</time>
			</trkpt>
			<trkpt lat="50.912211725927634" lon="6.632099383789623">
				<ele>124.0</ele>
				<time>2011-02-17T16:15:24Z</time>
			</trkpt>
			<trkpt lat="50.9121648206584" lon="6.632225177829306">
				<ele>124.0</ele>
				<time>2011-02-17T16:15:25Z</time>
			</trkpt>
			<trkpt lat="50.9121174706371" lon="6.632351111355212">
				<ele>124.0</ele>
				<time>2011-02-17T16:15:26Z</time>
			</trkpt>
			<trkpt lat="50.91206844923948" lon="6.632478427245058">
				<ele>125.0</ele>
				<time>2011-02-17T16:15:27Z</time>
			</trkpt>
			<trkpt lat="50.91201709604389" lon="6.632605261126968">
				<ele>125.0</ele>
				<time>2011-02-17T16:15:28Z</time>
			</trkpt>
			<trkpt lat="50.91196488076921" lon="6.632733467164022">
				<ele>125.0</ele>
				<time>2011-02-17T16:15:29Z</time>
			</trkpt>
			<trkpt lat="50.91191314000828" lon="6.63285737608294">
				<ele>125.0</ele>
				<time>2011-02-17T16:15:30Z</time>
			</trkpt>
			<trkpt lat="50.91186314421872" lon="6.632979186273601">
				<ele>125.0</ele>
				<time>2011-02-17T16:15:31Z</time>
			</trkpt>
			<trkpt lat="50.911814819164434" lon="6.633100852863125">
				<ele>125.0</ele>
				<time>2011-02-17T16:15:32Z</time>
			</trkpt>
			<trkpt lat="50.91176604963097" lon="6.633224294098713">
				<ele>125.0</ele>
				<time>2011-02-17T16:15:33Z</time>
			</trkpt>
			<trkpt lat="50.91171888238856" lon="6.633343631721581">
				<ele>125.0</ele>
				<time>2011-02-17T16:15:34Z</time>
			</trkpt>
			<trkpt lat="50.9116737500475" lon="6.633455929752967">
				<ele>125.0</ele>
				<time>2011-02-17T16:15:35Z</time>
			</trkpt>
			<trkpt lat="50.911629831257784" lon="6.63356449818307">
				<ele>126.0</ele>
				<time>2011-02-17T16:15:36Z</time>
			</trkpt>
			<trkpt lat="50.91158349392276" lon="6.633673289795299">
				<ele>126.0</ele>
				<time>2011-02-17T16:15:37Z</time>
			</trkpt>
			<trkpt lat="50.91153914127096" lon="6.633776171869064">
				<ele>126.0</ele>
				<time>2011-02-17T16:15:38Z</time>
			</trkpt>
			<trkpt lat="50.911494196135536" lon="6.633871902987125">
				<ele>126.0</ele>
				<time>2011-02-17T16:15:39Z</time>
			</trkpt>
			<trkpt lat="50.91145041750907" lon="6.633959399127251">
				<ele>126.0</ele>
				<time>2011-02-17T16:15:40Z</time>
			</trkpt>
			<trkpt lat="50.91140969487945" lon="6.634034053979976">
				<ele>126.0</ele>
				<time>2011-02-17T16:15:41Z</time>
			</trkpt>
			<trkpt lat="50.91137219405421" lon="6.634097734719814">
				<ele>126.0</ele>
				<time>2011-02-17T16:15:42Z</time>
			</trkpt>
			<trkpt lat="50.91133367880986" lon="6.634136558751695">
				<ele>126.0</ele>
				<time>2011-02-17T16:15:43Z</time>
			</trkpt>
			<trkpt lat="50.911294894467495" lon="6.634169501083915">
				<ele>126.0</ele>
				<time>2011-02-17T16:15:44Z</time>
			</trkpt>
			<trkpt lat="50.9112577661074" lon="6.63420196815717">
				<ele>126.0</ele>
				<time>2011-02-17T16:15:45Z</time>
			</trkpt>
			<trkpt lat="50.911228405423785" lon="6.6342499502077485">
				<ele>125.0</ele>
				<time>2011-02-17T16:15:46Z</time>
			</trkpt>
			<trkpt lat="50.91121202449499" lon="6.634309997150709">
				<ele>125.0</ele>
				<time>2011-02-17T16:15:47Z</time>
			</trkpt>
			<trkpt lat="50.91121536900287" lon="6.634373424581422">
				<ele>125.0</ele>
				<time>2011-02-17T16:15:48Z</time>
			</trkpt>
			<trkpt lat="50.91123331085206" lon="6.634428584890505">
				<ele>125.0</ele>
				<time>2011-02-17T16:15:49Z</time>
			</trkpt>
			<trkpt lat="50.911259806113605" lon="6.6344667868863665">
				<ele>125.0</ele>
				<time>2011-02-17T16:15:50Z</time>
			</trkpt>
			<trkpt lat="50.91129783237387" lon="6.634489092356349">
				<ele>125.0</ele>
				<time>2011-02-17T16:15:51Z</time>
			</trkpt>
			<trkpt lat="50.911341178164605" lon="6.634513909771428">
				<ele>125.0</ele>
				<time>2011-02-17T16:15:52Z</time>
			</trkpt>
			<trkpt lat="50.91139134703739" lon="6.634550258433915">
				<ele>124.0</ele>
				<time>2011-02-17T16:15:53Z</time>
			</trkpt>
			<trkpt lat="50.91143513962238" lon="6.634610164449847">
				<ele>124.0</ele>
				<time>2011-02-17T16:15:54Z</time>
			</trkpt>
			<trkpt lat="50.91148172521506" lon="6.634674038636607">
				<ele>124.0</ele>
				<time>2011-02-17T16:15:55Z</time>
			</trkpt>
			<trkpt lat="50.91153063507312" lon="6.634743773567073">
				<ele>124.0</ele>
				<time>2011-02-17T16:15:56Z</time>
			</trkpt>
			<trkpt lat="50.91158735929646" lon="6.6348228759240735">
				<ele>123.0</ele>
				<time>2011-02-17T16:15:57Z</time>
			</trkpt>
			<trkpt lat="50.91164968488103" lon="6.6349032408263895">
				<ele>123.0</ele>
				<time>2011-02-17T16:15:58Z</time>
			</trkpt>
			<trkpt lat="50.91171226395399" lon="6.634984445826467">
				<ele>123.0</ele>
				<time>2011-02-17T16:15:59Z</time>
			</trkpt>
			<trkpt lat="50.91177705249902" lon="6.635065704464562">
				<ele>123.0</ele>
				<time>2011-02-17T16:16:00Z</time>
			</trkpt>
			<trkpt lat="50.91183982920519" lon="6.635144229367004">
				<ele>123.0</ele>
				<time>2011-02-17T16:16:01Z</time>
			</trkpt>
			<trkpt lat="50.91190431227251" lon="6.635219623356896">
				<ele>123.0</ele>
				<time>2011-02-17T16:16:02Z</time>
			</trkpt>
			<trkpt lat="50.911968573052825" lon="6.635294807321576">
				<ele>124.0</ele>
				<time>2011-02-17T16:16:03Z</time>
			</trkpt>
			<trkpt lat="50.91203210091727" lon="6.635370640662444">
				<ele>124.0</ele>
				<time>2011-02-17T16:16:04Z</time>
			</trkpt>
			<trkpt lat="50.912096722933406" lon="6.63544456162457">
				<ele>124.0</ele>
				<time>2011-02-17T16:16:05Z</time>
			</trkpt>
			<trkpt lat="50.91216131973183" lon="6.635518522814917">
				<ele>124.0</ele>
				<time>2011-02-17T16:16:06Z</time>
			</trkpt>
			<trkpt lat="50.912223336838345" lon="6.635599093691715">
				<ele>124.0</ele>
				<time>2011-02-17T16:16:07Z</time>
			</trkpt>
			<trkpt lat="50.912285004225005" lon="6.635680139694337">
				<ele>124.0</ele>
				<time>2011-02-17T16:16:08Z</time>
			</trkpt>
			<trkpt lat="50.91234112592901" lon="6.635762853057992">
				<ele>124.0</ele>
				<time>2011-02-17T16:16:09Z</time>
			</trkpt>
			<trkpt lat="50.91239175212208" lon="6.635847816254857">
				<ele>124.0</ele>
				<time>2011-02-17T16:16:10Z</time>
			</trkpt>
			<trkpt lat="50.91242759818329" lon="6.635946712544836">
				<ele>124.0</ele>
				<time>2011-02-17T16:16:11Z</time>
			</trkpt>
			<trkpt lat="50.91246163338128" lon="6.636047951950135">
				<ele>123.0</ele>
				<time>2011-02-17T16:16:12Z</time>
			</trkpt>
			<trkpt lat="50.91249238907521" lon="6.63615358560909">
				<ele>123.0</ele>
				<time>2011-02-17T16:16:13Z</time>
			</trkpt>
			<trkpt lat="50.912519196641064" lon="6.636265187447198">
				<ele>123.0</ele>
				<time>2011-02-17T16:16:14Z</time>
			</trkpt>
			<trkpt lat="50.91254383883969" lon="6.636382119241888">
				<ele>123.0</ele>
				<time>2011-02-17T16:16:15Z</time>
			</trkpt>
			<trkpt lat="50.91256874324398" lon="6.636501298637176">
				<ele>122.0</ele>
				<time>2011-02-17T16:16:16Z</time>
			</trkpt>
			<trkpt lat="50.912596102020416" lon="6.6366194482848595">
				<ele>122.0</ele>
				<time>2011-02-17T16:16:17Z</time>
			</trkpt>
			<trkpt lat="50.91262391162379" lon="6.636736618560531">
				<ele>122.0</ele>
				<time>2011-02-17T16:16:18Z</time>
			</trkpt>
			<trkpt lat="50.912654552164796" lon="6.63685240232975">
				<ele>122.0</ele>
				<time>2011-02-17T16:16:19Z</time>
			</trkpt>
			<trkpt lat="50.91268973993941" lon="6.636970053062482">
				<ele>121.0</ele>
				<time>2011-02-17T16:16:20Z</time>
			</trkpt>
			<trkpt lat="50.91272507280264" lon="6.637086132878728">
				<ele>121.0</ele>
				<time>2011-02-17T16:16:21Z</time>
			</trkpt>
			<trkpt lat="50.91276282887109" lon="6.637198147643916">
				<ele>121.0</ele>
				<time>2011-02-17T16:16:22Z</time>
			</trkpt>
			<trkpt lat="50.912800328004145" lon="6.6373099443586545">
				<ele>121.0</ele>
				<time>2011-02-17T16:16:23Z</time>
			</trkpt>
			<trkpt lat="50.912837976195945" lon="6.637422661875088">
				<ele>120.0</ele>
				<time>2011-02-17T16:16:24Z</time>
			</trkpt>
			<trkpt lat="50.912874269912926" lon="6.6375372626367435">
				<ele>120.0</ele>
				<time>2011-02-17T16:16:25Z</time>
			</trkpt>
			<trkpt lat="50.91291005014151" lon="6.6376528807198945">
				<ele>120.0</ele>
				<time>2011-02-17T16:16:26Z</time>
			</trkpt>
			<trkpt lat="50.91294512437218" lon="6.637767555768695">
				<ele>120.0</ele>
				<time>2011-02-17T16:16:27Z</time>
			</trkpt>
			<trkpt lat="50.91297741991278" lon="6.637881722771916">
				<ele>120.0</ele>
				<time>2011-02-17T16:16:28Z</time>
			</trkpt>
			<trkpt lat="50.9130085913599" lon="6.6379936313051076">
				<ele>120.0</ele>
				<time>2011-02-17T16:16:29Z</time>
			</trkpt>
			<trkpt lat="50.91303655668366" lon="6.6381050933237535">
				<ele>120.0</ele>
				<time>2011-02-17T16:16:30Z</time>
			</trkpt>
			<trkpt lat="50.91306048323665" lon="6.638213093996489">
				<ele>120.0</ele>
				<time>2011-02-17T16:16:31Z</time>
			</trkpt>
			<trkpt lat="50.91307786015276" lon="6.638310506553526">
				<ele>120.0</ele>
				<time>2011-02-17T16:16:32Z</time>
			</trkpt>
			<trkpt lat="50.91309066429993" lon="6.638400309395621">
				<ele>120.0</ele>
				<time>2011-02-17T16:16:33Z</time>
			</trkpt>
			<trkpt lat="50.91309980539207" lon="6.638476952254858">
				<ele>120.0</ele>
				<time>2011-02-17T16:16:34Z</time>
			</trkpt>
			<trkpt lat="50.91311185471785" lon="6.638548037800879">
				<ele>120.0</ele>
				<time>2011-02-17T16:16:35Z</time>
			</trkpt>
			<trkpt lat="50.91312764902914" lon="6.638618835891203">
				<ele>120.0</ele>
				<time>2011-02-17T16:16:36Z</time>
			</trkpt>
			<trkpt lat="50.91314668567246" lon="6.638689573953515">
				<ele>120.0</ele>
				<time>2011-02-17T16:16:37Z</time>
			</trkpt>
			<trkpt lat="50.91316928599964" lon="6.6387574682558">
				<ele>120.0</ele>
				<time>2011-02-17T16:16:38Z</time>
			</trkpt>
			<trkpt lat="50.913193599927496" lon="6.638823943374237">
				<ele>120.0</ele>
				<time>2011-02-17T16:16:39Z</time>
			</trkpt>
			<trkpt lat="50.91321422946674" lon="6.6388845255730615">
				<ele>119.0</ele>
				<time>2011-02-17T16:16:40Z</time>
			</trkpt>
			<trkpt lat="50.9132273684327" lon="6.638933813631552">
				<ele>119.0</ele>
				<time>2011-02-17T16:16:41Z</time>
			</trkpt>
			<trkpt lat="50.91323786868466" lon="6.638967097017521">
				<ele>119.0</ele>
				<time>2011-02-17T16:16:42Z</time>
			</trkpt>
			<trkpt lat="50.91323786868466" lon="6.638967097017521">
				<ele>119.0</ele>
				<time>2011-02-17T16:16:43Z</time>
			</trkpt>
			<trkpt lat="50.91323786868466" lon="6.638967097017521">
				<ele>119.0</ele>
				<time>2011-02-17T16:16:44Z</time>
			</trkpt>
			<trkpt lat="50.91323786868466" lon="6.638967097017521">
				<ele>119.0</ele>
				<time>2011-02-17T16:16:45Z</time>
			</trkpt>
			<trkpt lat="50.91323786868466" lon="6.638967097017521">
				<ele>119.0</ele>
				<time>2011-02-17T16:16:46Z</time>
			</trkpt>
			<trkpt lat="50.91323786868466" lon="6.638967097017521">
				<ele>119.0</ele>
				<time>2011-02-17T16:16:47Z</time>
			</trkpt>
			<trkpt lat="50.91323786868466" lon="6.638967097017521">
				<ele>119.0</ele>
				<time>2011-02-17T16:16:48Z</time>
			</trkpt>
			<trkpt lat="50.91325647062782" lon="6.639004398187597">
				<ele>119.0</ele>
				<time>2011-02-17T16:16:49Z</time>
			</trkpt>
			<trkpt lat="50.91327602292601" lon="6.63903120780203">
				<ele>119.0</ele>
				<time>2011-02-17T16:16:50Z</time>
			</trkpt>
			<trkpt lat="50.913301530993635" lon="6.639065494156482">
				<ele>119.0</ele>
				<time>2011-02-17T16:16:51Z</time>
			</trkpt>
			<trkpt lat="50.9133282557175" lon="6.6391014419296654">
				<ele>119.0</ele>
				<time>2011-02-17T16:16:52Z</time>
			</trkpt>
			<trkpt lat="50.91335547447581" lon="6.639145732961502">
				<ele>119.0</ele>
				<time>2011-02-17T16:16:53Z</time>
			</trkpt>
			<trkpt lat="50.91338338883694" lon="6.639196958322198">
				<ele>119.0</ele>
				<time>2011-02-17T16:16:54Z</time>
			</trkpt>
			<trkpt lat="50.91341010754524" lon="6.639252827628543">
				<ele>119.0</ele>
				<time>2011-02-17T16:16:55Z</time>
			</trkpt>
			<trkpt lat="50.91343443602693" lon="6.639308307311849">
				<ele>119.0</ele>
				<time>2011-02-17T16:16:56Z</time>
			</trkpt>
			<trkpt lat="50.913457483049584" lon="6.639366355546669">
				<ele>119.0</ele>
				<time>2011-02-17T16:16:57Z</time>
			</trkpt>
			<trkpt lat="50.91347991388375" lon="6.639423822569608">
				<ele>119.0</ele>
				<time>2011-02-17T16:16:58Z</time>
			</trkpt>
			<trkpt lat="50.91350082972689" lon="6.639480877396152">
				<ele>119.0</ele>
				<time>2011-02-17T16:16:59Z</time>
			</trkpt>
			<trkpt lat="50.913520430828626" lon="6.639534520033331">
				<ele>119.0</ele>
				<time>2011-02-17T16:17:00Z</time>
			</trkpt>
			<trkpt lat="50.913537933618294" lon="6.639588185354147">
				<ele>119.0</ele>
				<time>2011-02-17T16:17:01Z</time>
			</trkpt>
			<trkpt lat="50.9135550795044" lon="6.639639909571647">
				<ele>119.0</ele>
				<time>2011-02-17T16:17:02Z</time>
			</trkpt>
			<trkpt lat="50.91357245928044" lon="6.639700233868767">
				<ele>119.0</ele>
				<time>2011-02-17T16:17:03Z</time>
			</trkpt>
			<trkpt lat="50.91359134115916" lon="6.639779004511959">
				<ele>119.0</ele>
				<time>2011-02-17T16:17:04Z</time>
			</trkpt>
			<trkpt lat="50.91360764091667" lon="6.6398607153935">
				<ele>119.0</ele>
				<time>2011-02-17T16:17:05Z</time>
			</trkpt>
			<trkpt lat="50.91362455685878" lon="6.639943050177729">
				<ele>119.0</ele>
				<time>2011-02-17T16:17:06Z</time>
			</trkpt>
			<trkpt lat="50.91365280742956" lon="6.640013742483086">
				<ele>119.0</ele>
				<time>2011-02-17T16:17:07Z</time>
			</trkpt>
			<trkpt lat="50.91368338895632" lon="6.6400806658654306">
				<ele>119.0</ele>
				<time>2011-02-17T16:17:08Z</time>
			</trkpt>
			<trkpt lat="50.91371614832228" lon="6.640145390198341">
				<ele>119.0</ele>
				<time>2011-02-17T16:17:09Z</time>
			</trkpt>
			<trkpt lat="50.91375033525578" lon="6.640209518056695">
				<ele>119.0</ele>
				<time>2011-02-17T16:17:10Z</time>
			</trkpt>
			<trkpt lat="50.9137856571001" lon="6.640270257656482">
				<ele>119.0</ele>
				<time>2011-02-17T16:17:11Z</time>
			</trkpt>
			<trkpt lat="50.913820339070895" lon="6.640330768806696">
				<ele>119.0</ele>
				<time>2011-02-17T16:17:12Z</time>
			</trkpt>
			<trkpt lat="50.91385501397792" lon="6.640391110032084">
				<ele>119.0</ele>
				<time>2011-02-17T16:17:13Z</time>
			</trkpt>
			<trkpt lat="50.913890724900305" lon="6.640449723277206">
				<ele>119.0</ele>
				<time>2011-02-17T16:17:14Z</time>
			</trkpt>
			<trkpt lat="50.91392377291854" lon="6.64050776510548">
				<ele>119.0</ele>
				<time>2011-02-17T16:17:15Z</time>
			</trkpt>
			<trkpt lat="50.91395830347057" lon="6.640564393902604">
				<ele>119.0</ele>
				<time>2011-02-17T16:17:16Z</time>
			</trkpt>
			<trkpt lat="50.91399188226075" lon="6.640626101201339">
				<ele>119.0</ele>
				<time>2011-02-17T16:17:17Z</time>
			</trkpt>
			<trkpt lat="50.91402887342058" lon="6.640687535103301">
				<ele>119.0</ele>
				<time>2011-02-17T16:17:18Z</time>
			</trkpt>
			<trkpt lat="50.914066159297" lon="6.6407486437700225">
				<ele>119.0</ele>
				<time>2011-02-17T16:17:19Z</time>
			</trkpt>
			<trkpt lat="50.91410165602293" lon="6.640810994288101">
				<ele>119.0</ele>
				<time>2011-02-17T16:17:20Z</time>
			</trkpt>
			<trkpt lat="50.91413695006912" lon="6.64087711777634">
				<ele>119.0</ele>
				<time>2011-02-17T16:17:21Z</time>
			</trkpt>
			<trkpt lat="50.914172619144345" lon="6.640942741255864">
				<ele>119.0</ele>
				<time>2011-02-17T16:17:22Z</time>
			</trkpt>
			<trkpt lat="50.914208087426985" lon="6.641007211691017">
				<ele>119.0</ele>
				<time>2011-02-17T16:17:23Z</time>
			</trkpt>
			<trkpt lat="50.914240612110255" lon="6.641062906684552">
				<ele>119.0</ele>
				<time>2011-02-17T16:17:24Z</time>
			</trkpt>
			<trkpt lat="50.91426488126856" lon="6.641106506823166">
				<ele>119.0</ele>
				<time>2011-02-17T16:17:25Z</time>
			</trkpt>
			<trkpt lat="50.91427706729089" lon="6.641143845082891">
				<ele>119.0</ele>
				<time>2011-02-17T16:17:26Z</time>
			</trkpt>
			<trkpt lat="50.91427888513896" lon="6.641180376943454">
				<ele>119.0</ele>
				<time>2011-02-17T16:17:27Z</time>
			</trkpt>
			<trkpt lat="50.91426561321906" lon="6.641218565820204">
				<ele>119.0</ele>
				<time>2011-02-17T16:17:28Z</time>
			</trkpt>
			<trkpt lat="50.91424361078178" lon="6.641263799774801">
				<ele>119.0</ele>
				<time>2011-02-17T16:17:29Z</time>
			</trkpt>
			<trkpt lat="50.91421042838958" lon="6.641320983842421">
				<ele>119.0</ele>
				<time>2011-02-17T16:17:30Z</time>
			</trkpt>
			<trkpt lat="50.91417036919509" lon="6.64138250437168">
				<ele>119.0</ele>
				<time>2011-02-17T16:17:31Z</time>
			</trkpt>
			<trkpt lat="50.91412872603283" lon="6.6414479579905175">
				<ele>119.0</ele>
				<time>2011-02-17T16:17:32Z</time>
			</trkpt>
			<trkpt lat="50.91408427452117" lon="6.641520133237177">
				<ele>120.0</ele>
				<time>2011-02-17T16:17:33Z</time>
			</trkpt>
			<trkpt lat="50.91403524754357" lon="6.641606315578612">
				<ele>120.0</ele>
				<time>2011-02-17T16:17:34Z</time>
			</trkpt>
			<trkpt lat="50.91398987257586" lon="6.641698431895797">
				<ele>120.0</ele>
				<time>2011-02-17T16:17:35Z</time>
			</trkpt>
			<trkpt lat="50.91394818718333" lon="6.64179931529686">
				<ele>121.0</ele>
				<time>2011-02-17T16:17:36Z</time>
			</trkpt>
			<trkpt lat="50.91391007420185" lon="6.641905080053502">
				<ele>121.0</ele>
				<time>2011-02-17T16:17:37Z</time>
			</trkpt>
			<trkpt lat="50.91387509982798" lon="6.642010019367347">
				<ele>121.0</ele>
				<time>2011-02-17T16:17:38Z</time>
			</trkpt>
			<trkpt lat="50.91383961139641" lon="6.642110425159562">
				<ele>121.0</ele>
				<time>2011-02-17T16:17:39Z</time>
			</trkpt>
			<trkpt lat="50.91380384825491" lon="6.642203877677267">
				<ele>121.0</ele>
				<time>2011-02-17T16:17:40Z</time>
			</trkpt>
			<trkpt lat="50.91376643994224" lon="6.642291788473369">
				<ele>121.0</ele>
				<time>2011-02-17T16:17:41Z</time>
			</trkpt>
			<trkpt lat="50.91373165986439" lon="6.642362514682481">
				<ele>121.0</ele>
				<time>2011-02-17T16:17:42Z</time>
			</trkpt>
			<trkpt lat="50.91369269857312" lon="6.64240875337421">
				<ele>121.0</ele>
				<time>2011-02-17T16:17:43Z</time>
			</trkpt>
			<trkpt lat="50.91366239127793" lon="6.642442279343168">
				<ele>121.0</ele>
				<time>2011-02-17T16:17:44Z</time>
			</trkpt>
			<trkpt lat="50.91364219200969" lon="6.64246281594731">
				<ele>122.0</ele>
				<time>2011-02-17T16:17:45Z</time>
			</trkpt>
			<trkpt lat="50.91362822670133" lon="6.642475914946095">
				<ele>122.0</ele>
				<time>2011-02-17T16:17:46Z</time>
			</trkpt>
			<trkpt lat="50.91361617803677" lon="6.642487203332946">
				<ele>122.0</ele>
				<time>2011-02-17T16:17:47Z</time>
			</trkpt>
			<trkpt lat="50.913598379277055" lon="6.642507111024373">
				<ele>122.0</ele>
				<time>2011-02-17T16:17:48Z</time>
			</trkpt>
			<trkpt lat="50.91358424936461" lon="6.64253810270182">
				<ele>122.0</ele>
				<time>2011-02-17T16:17:49Z</time>
			</trkpt>
			<trkpt lat="50.913568030239" lon="6.642578443632753">
				<ele>122.0</ele>
				<time>2011-02-17T16:17:50Z</time>
			</trkpt>
			<trkpt lat="50.91355043282757" lon="6.642624403970885">
				<ele>122.0</ele>
				<time>2011-02-17T16:17:51Z</time>
			</trkpt>
			<trkpt lat="50.91353226515408" lon="6.642668842157753">
				<ele>122.0</ele>
				<time>2011-02-17T16:17:52Z</time>
			</trkpt>
			<trkpt lat="50.91351198275746" lon="6.642715160868633">
				<ele>122.0</ele>
				<time>2011-02-17T16:17:53Z</time>
			</trkpt>
			<trkpt lat="50.913488343568716" lon="6.642766643797865">
				<ele>122.0</ele>
				<time>2011-02-17T16:17:54Z</time>
			</trkpt>
			<trkpt lat="50.91345870855146" lon="6.642825258400183">
				<ele>122.0</ele>
				<time>2011-02-17T16:17:55Z</time>
			</trkpt>
			<trkpt lat="50.91342415454025" lon="6.6428879721283165">
				<ele>122.0</ele>
				<time>2011-02-17T16:17:56Z</time>
			</trkpt>
			<trkpt lat="50.91338994945471" lon="6.642951397020502">
				<ele>122.0</ele>
				<time>2011-02-17T16:17:57Z</time>
			</trkpt>
			<trkpt lat="50.91335436777772" lon="6.643015280859255">
				<ele>122.0</ele>
				<time>2011-02-17T16:17:58Z</time>
			</trkpt>
			<trkpt lat="50.913318431412044" lon="6.643076643673989">
				<ele>122.0</ele>
				<time>2011-02-17T16:17:59Z</time>
			</trkpt>
			<trkpt lat="50.91328391478187" lon="6.643135168651548">
				<ele>123.0</ele>
				<time>2011-02-17T16:18:00Z</time>
			</trkpt>
			<trkpt lat="50.91325472802917" lon="6.643184468558937">
				<ele>123.0</ele>
				<time>2011-02-17T16:18:01Z</time>
			</trkpt>
			<trkpt lat="50.9132313071551" lon="6.643222804610485">
				<ele>123.0</ele>
				<time>2011-02-17T16:18:02Z</time>
			</trkpt>
			<trkpt lat="50.91321529899349" lon="6.643246836745271">
				<ele>123.0</ele>
				<time>2011-02-17T16:18:03Z</time>
			</trkpt>
			<trkpt lat="50.91320355258979" lon="6.643258657651925">
				<ele>123.0</ele>
				<time>2011-02-17T16:18:04Z</time>
			</trkpt>
			<trkpt lat="50.91319069821503" lon="6.6432654614123665">
				<ele>123.0</ele>
				<time>2011-02-17T16:18:05Z</time>
			</trkpt>
			<trkpt lat="50.91316544831482" lon="6.643261103358948">
				<ele>123.0</ele>
				<time>2011-02-17T16:18:06Z</time>
			</trkpt>
			<trkpt lat="50.91314255646133" lon="6.643242492426026">
				<ele>123.0</ele>
				<time>2011-02-17T16:18:07Z</time>
			</trkpt>
			<trkpt lat="50.91311536756439" lon="6.643213478289643">
				<ele>123.0</ele>
				<time>2011-02-17T16:18:08Z</time>
			</trkpt>
			<trkpt lat="50.91308766077116" lon="6.643157674434732">
				<ele>122.0</ele>
				<time>2011-02-17T16:18:09Z</time>
			</trkpt>
			<trkpt lat="50.913053164892865" lon="6.643088294191353">
				<ele>122.0</ele>
				<time>2011-02-17T16:18:10Z</time>
			</trkpt>
			<trkpt lat="50.913020104310505" lon="6.643018619433961">
				<ele>122.0</ele>
				<time>2011-02-17T16:18:11Z</time>
			</trkpt>
			<trkpt lat="50.91298457586687" lon="6.642945271383877">
				<ele>122.0</ele>
				<time>2011-02-17T16:18:12Z</time>
			</trkpt>
			<trkpt lat="50.912945573716314" lon="6.64287245225155">
				<ele>122.0</ele>
				<time>2011-02-17T16:18:13Z</time>
			</trkpt>
			<trkpt lat="50.912904849332975" lon="6.642800904471136">
				<ele>122.0</ele>
				<time>2011-02-17T16:18:14Z</time>
			</trkpt>
			<trkpt lat="50.91286277629868" lon="6.642729526281545">
				<ele>122.0</ele>
				<time>2011-02-17T16:18:15Z</time>
			</trkpt>
			<trkpt lat="50.91282014216956" lon="6.642654358304852">
				<ele>122.0</ele>
				<time>2011-02-17T16:18:16Z</time>
			</trkpt>
			<trkpt lat="50.91277788455688" lon="6.642579124980147">
				<ele>122.0</ele>
				<time>2011-02-17T16:18:17Z</time>
			</trkpt>
			<trkpt lat="50.91273432812604" lon="6.642502421018792">
				<ele>122.0</ele>
				<time>2011-02-17T16:18:18Z</time>
			</trkpt>
			<trkpt lat="50.912690615813595" lon="6.6424257680139">
				<ele>122.0</ele>
				<time>2011-02-17T16:18:19Z</time>
			</trkpt>
			<trkpt lat="50.91264901817367" lon="6.642347551033193">
				<ele>122.0</ele>
				<time>2011-02-17T16:18:20Z</time>
			</trkpt>
			<trkpt lat="50.91260918147959" lon="6.642262580610782">
				<ele>122.0</ele>
				<time>2011-02-17T16:18:21Z</time>
			</trkpt>
			<trkpt lat="50.91257181377428" lon="6.642174110611078">
				<ele>122.0</ele>
				<time>2011-02-17T16:18:22Z</time>
			</trkpt>
			<trkpt lat="50.9125363290808" lon="6.6420841606668555">
				<ele>122.0</ele>
				<time>2011-02-17T16:18:23Z</time>
			</trkpt>
			<trkpt lat="50.91250332256021" lon="6.641995494554814">
				<ele>122.0</ele>
				<time>2011-02-17T16:18:24Z</time>
			</trkpt>
			<trkpt lat="50.912472916166664" lon="6.641909559338682">
				<ele>122.0</ele>
				<time>2011-02-17T16:18:25Z</time>
			</trkpt>
			<trkpt lat="50.91244729541035" lon="6.641835719159701">
				<ele>122.0</ele>
				<time>2011-02-17T16:18:26Z</time>
			</trkpt>
			<trkpt lat="50.9124282438127" lon="6.641780230239366">
				<ele>122.0</ele>
				<time>2011-02-17T16:18:27Z</time>
			</trkpt>
			<trkpt lat="50.912416637389164" lon="6.641742192374204">
				<ele>122.0</ele>
				<time>2011-02-17T16:18:28Z</time>
			</trkpt>
			<trkpt lat="50.912408141083255" lon="6.641712795815627">
				<ele>122.0</ele>
				<time>2011-02-17T16:18:29Z</time>
			</trkpt>
			<trkpt lat="50.91240164867842" lon="6.641689477677441">
				<ele>122.0</ele>
				<time>2011-02-17T16:18:30Z</time>
			</trkpt>
			<trkpt lat="50.9123953779423" lon="6.641667317292014">
				<ele>122.0</ele>
				<time>2011-02-17T16:18:31Z</time>
			</trkpt>
			<trkpt lat="50.912386079084165" lon="6.641646927803012">
				<ele>122.0</ele>
				<time>2011-02-17T16:18:32Z</time>
			</trkpt>
			<trkpt lat="50.912386079084165" lon="6.641646927803012">
				<ele>122.0</ele>
				<time>2011-02-17T16:18:33Z</time>
			</trkpt>
			<trkpt lat="50.912386079084165" lon="6.641646927803012">
				<ele>122.0</ele>
				<time>2011-02-17T16:18:34Z</time>
			</trkpt>
			<trkpt lat="50.91231025898963" lon="6.641666872715434">
				<ele>122.0</ele>
				<time>2011-02-17T16:18:35Z</time>
			</trkpt>
			<trkpt lat="50.912258565326454" lon="6.641727308211552">
				<ele>122.0</ele>
				<time>2011-02-17T16:18:36Z</time>
			</trkpt>
			<trkpt lat="50.91219960750035" lon="6.641792192446629">
				<ele>122.0</ele>
				<time>2011-02-17T16:18:37Z</time>
			</trkpt>
			<trkpt lat="50.91213478985899" lon="6.64185017081715">
				<ele>122.0</ele>
				<time>2011-02-17T16:18:38Z</time>
			</trkpt>
			<trkpt lat="50.91206030834837" lon="6.641914393044346">
				<ele>122.0</ele>
				<time>2011-02-17T16:18:39Z</time>
			</trkpt>
			<trkpt lat="50.911984415749494" lon="6.641987155151661">
				<ele>122.0</ele>
				<time>2011-02-17T16:18:40Z</time>
			</trkpt>
			<trkpt lat="50.911910230897796" lon="6.6420673290113035">
				<ele>122.0</ele>
				<time>2011-02-17T16:18:41Z</time>
			</trkpt>
			<trkpt lat="50.911841578077684" lon="6.642152671178847">
				<ele>122.0</ele>
				<time>2011-02-17T16:18:42Z</time>
			</trkpt>
			<trkpt lat="50.91177526590341" lon="6.642246169043347">
				<ele>122.0</ele>
				<time>2011-02-17T16:18:43Z</time>
			</trkpt>
			<trkpt lat="50.91170991616606" lon="6.6423545027226565">
				<ele>123.0</ele>
				<time>2011-02-17T16:18:44Z</time>
			</trkpt>
			<trkpt lat="50.91166331766406" lon="6.642488452955232">
				<ele>123.0</ele>
				<time>2011-02-17T16:18:45Z</time>
			</trkpt>
			<trkpt lat="50.9116188831392" lon="6.642627850487194">
				<ele>123.0</ele>
				<time>2011-02-17T16:18:46Z</time>
			</trkpt>
			<trkpt lat="50.911582394068084" lon="6.642770533738267">
				<ele>123.0</ele>
				<time>2011-02-17T16:18:47Z</time>
			</trkpt>
			<trkpt lat="50.91156715530481" lon="6.6429184360665605">
				<ele>123.0</ele>
				<time>2011-02-17T16:18:48Z</time>
			</trkpt>
			<trkpt lat="50.91155204230881" lon="6.643064425976754">
				<ele>123.0</ele>
				<time>2011-02-17T16:18:49Z</time>
			</trkpt>
			<trkpt lat="50.911539687081415" lon="6.643206560204499">
				<ele>123.0</ele>
				<time>2011-02-17T16:18:50Z</time>
			</trkpt>
			<trkpt lat="50.911527776725286" lon="6.64334308440242">
				<ele>123.0</ele>
				<time>2011-02-17T16:18:51Z</time>
			</trkpt>
			<trkpt lat="50.91151827579196" lon="6.643477346025587">
				<ele>123.0</ele>
				<time>2011-02-17T16:18:52Z</time>
			</trkpt>
			<trkpt lat="50.91150904543121" lon="6.64361157761719">
				<ele>123.0</ele>
				<time>2011-02-17T16:18:53Z</time>
			</trkpt>
			<trkpt lat="50.91150260304232" lon="6.643746662815744">
				<ele>123.0</ele>
				<time>2011-02-17T16:18:54Z</time>
			</trkpt>
			<trkpt lat="50.91149955699303" lon="6.643883541247774">
				<ele>123.0</ele>
				<time>2011-02-17T16:18:55Z</time>
			</trkpt>
			<trkpt lat="50.9114983859336" lon="6.644023589841773">
				<ele>123.0</ele>
				<time>2011-02-17T16:18:56Z</time>
			</trkpt>
			<trkpt lat="50.91149474147343" lon="6.644177901197357">
				<ele>123.0</ele>
				<time>2011-02-17T16:18:57Z</time>
			</trkpt>
			<trkpt lat="50.911488898465144" lon="6.644342291940177">
				<ele>123.0</ele>
				<time>2011-02-17T16:18:58Z</time>
			</trkpt>
			<trkpt lat="50.911479449629866" lon="6.644508163628811">
				<ele>123.0</ele>
				<time>2011-02-17T16:18:59Z</time>
			</trkpt>
			<trkpt lat="50.91146591244581" lon="6.644679748571072">
				<ele>123.0</ele>
				<time>2011-02-17T16:19:00Z</time>
			</trkpt>
			<trkpt lat="50.911450946494554" lon="6.644860102782771">
				<ele>123.0</ele>
				<time>2011-02-17T16:19:01Z</time>
			</trkpt>
			<trkpt lat="50.91143593798514" lon="6.645044584595907">
				<ele>123.0</ele>
				<time>2011-02-17T16:19:02Z</time>
			</trkpt>
			<trkpt lat="50.91142214037198" lon="6.645228982182261">
				<ele>123.0</ele>
				<time>2011-02-17T16:19:03Z</time>
			</trkpt>
			<trkpt lat="50.91140916370396" lon="6.645413263745661">
				<ele>123.0</ele>
				<time>2011-02-17T16:19:04Z</time>
			</trkpt>
			<trkpt lat="50.911396961784924" lon="6.6455988754203945">
				<ele>123.0</ele>
				<time>2011-02-17T16:19:05Z</time>
			</trkpt>
			<trkpt lat="50.911384802180564" lon="6.645788718987799">
				<ele>123.0</ele>
				<time>2011-02-17T16:19:06Z</time>
			</trkpt>
			<trkpt lat="50.911374796764996" lon="6.645980825961506">
				<ele>123.0</ele>
				<time>2011-02-17T16:19:07Z</time>
			</trkpt>
			<trkpt lat="50.911363985588515" lon="6.646173663993844">
				<ele>123.0</ele>
				<time>2011-02-17T16:19:08Z</time>
			</trkpt>
			<trkpt lat="50.911352586713534" lon="6.646365508343927">
				<ele>123.0</ele>
				<time>2011-02-17T16:19:09Z</time>
			</trkpt>
			<trkpt lat="50.91134220311297" lon="6.64655595984908">
				<ele>123.0</ele>
				<time>2011-02-17T16:19:10Z</time>
			</trkpt>
			<trkpt lat="50.91133159502249" lon="6.646745838648938">
				<ele>123.0</ele>
				<time>2011-02-17T16:19:11Z</time>
			</trkpt>
			<trkpt lat="50.911321483265155" lon="6.64693354851997">
				<ele>123.0</ele>
				<time>2011-02-17T16:19:12Z</time>
			</trkpt>
			<trkpt lat="50.911312225927354" lon="6.647124318431588">
				<ele>124.0</ele>
				<time>2011-02-17T16:19:13Z</time>
			</trkpt>
			<trkpt lat="50.91130612911335" lon="6.647319100488396">
				<ele>124.0</ele>
				<time>2011-02-17T16:19:14Z</time>
			</trkpt>
			<trkpt lat="50.911299285716154" lon="6.647520960352915">
				<ele>124.0</ele>
				<time>2011-02-17T16:19:15Z</time>
			</trkpt>
			<trkpt lat="50.911288870334005" lon="6.647728009582655">
				<ele>124.0</ele>
				<time>2011-02-17T16:19:16Z</time>
			</trkpt>
			<trkpt lat="50.911278257719175" lon="6.647935784274245">
				<ele>124.0</ele>
				<time>2011-02-17T16:19:17Z</time>
			</trkpt>
			<trkpt lat="50.91126640844521" lon="6.648148289647583">
				<ele>124.0</ele>
				<time>2011-02-17T16:19:18Z</time>
			</trkpt>
			<trkpt lat="50.911256598016095" lon="6.648364003867521">
				<ele>124.0</ele>
				<time>2011-02-17T16:19:19Z</time>
			</trkpt>
			<trkpt lat="50.91124715801291" lon="6.6485838953450624">
				<ele>124.0</ele>
				<time>2011-02-17T16:19:20Z</time>
			</trkpt>
			<trkpt lat="50.91123726124315" lon="6.64881348599227">
				<ele>124.0</ele>
				<time>2011-02-17T16:19:21Z</time>
			</trkpt>
			<trkpt lat="50.91122732541266" lon="6.649047586772568">
				<ele>124.0</ele>
				<time>2011-02-17T16:19:22Z</time>
			</trkpt>
			<trkpt lat="50.91121656957935" lon="6.649288708104636">
				<ele>124.0</ele>
				<time>2011-02-17T16:19:23Z</time>
			</trkpt>
			<trkpt lat="50.911205514303006" lon="6.649528802407381">
				<ele>124.0</ele>
				<time>2011-02-17T16:19:24Z</time>
			</trkpt>
			<trkpt lat="50.9111942962627" lon="6.649773233457029">
				<ele>124.0</ele>
				<time>2011-02-17T16:19:25Z</time>
			</trkpt>
			<trkpt lat="50.9111827359908" lon="6.650019581234182">
				<ele>124.0</ele>
				<time>2011-02-17T16:19:26Z</time>
			</trkpt>
			<trkpt lat="50.911171631613335" lon="6.650268339032282">
				<ele>124.0</ele>
				<time>2011-02-17T16:19:27Z</time>
			</trkpt>
			<trkpt lat="50.91116027520236" lon="6.650520853140822">
				<ele>124.0</ele>
				<time>2011-02-17T16:19:28Z</time>
			</trkpt>
			<trkpt lat="50.91114489288536" lon="6.650774544371449">
				<ele>124.0</ele>
				<time>2011-02-17T16:19:29Z</time>
			</trkpt>
			<trkpt lat="50.911128784964944" lon="6.651030015849596">
				<ele>124.0</ele>
				<time>2011-02-17T16:19:30Z</time>
			</trkpt>
			<trkpt lat="50.91111245170065" lon="6.651284627823494">
				<ele>125.0</ele>
				<time>2011-02-17T16:19:31Z</time>
			</trkpt>
			<trkpt lat="50.91109616632408" lon="6.651539393257664">
				<ele>125.0</ele>
				<time>2011-02-17T16:19:32Z</time>
			</trkpt>
			<trkpt lat="50.91108008719457" lon="6.651793338881337">
				<ele>125.0</ele>
				<time>2011-02-17T16:19:33Z</time>
			</trkpt>
			<trkpt lat="50.91106427753797" lon="6.65204812373016">
				<ele>125.0</ele>
				<time>2011-02-17T16:19:34Z</time>
			</trkpt>
			<trkpt lat="50.91104805602279" lon="6.652305324300123">
				<ele>126.0</ele>
				<time>2011-02-17T16:19:35Z</time>
			</trkpt>
			<trkpt lat="50.91103157870747" lon="6.6525621853741805">
				<ele>126.0</ele>
				<time>2011-02-17T16:19:36Z</time>
			</trkpt>
			<trkpt lat="50.91101495593984" lon="6.652819907653224">
				<ele>126.0</ele>
				<time>2011-02-17T16:19:37Z</time>
			</trkpt>
			<trkpt lat="50.91099849233913" lon="6.653075882054126">
				<ele>125.0</ele>
				<time>2011-02-17T16:19:38Z</time>
			</trkpt>
			<trkpt lat="50.91098267150708" lon="6.653330767163264">
				<ele>125.0</ele>
				<time>2011-02-17T16:19:39Z</time>
			</trkpt>
			<trkpt lat="50.910967343906044" lon="6.653583297493981">
				<ele>126.0</ele>
				<time>2011-02-17T16:19:40Z</time>
			</trkpt>
			<trkpt lat="50.910952015888384" lon="6.653833984898476">
				<ele>126.0</ele>
				<time>2011-02-17T16:19:41Z</time>
			</trkpt>
			<trkpt lat="50.91093639676413" lon="6.654082802579544">
				<ele>126.0</ele>
				<time>2011-02-17T16:19:42Z</time>
			</trkpt>
			<trkpt lat="50.910920638109644" lon="6.654329559652174">
				<ele>126.0</ele>
				<time>2011-02-17T16:19:43Z</time>
			</trkpt>
			<trkpt lat="50.91090557753736" lon="6.654573083001513">
				<ele>126.0</ele>
				<time>2011-02-17T16:19:44Z</time>
			</trkpt>
			<trkpt lat="50.910893496540155" lon="6.6548141383840465">
				<ele>126.0</ele>
				<time>2011-02-17T16:19:45Z</time>
			</trkpt>
			<trkpt lat="50.91088110885212" lon="6.655055560998256">
				<ele>126.0</ele>
				<time>2011-02-17T16:19:46Z</time>
			</trkpt>
			<trkpt lat="50.91086892112909" lon="6.6552918932649066">
				<ele>126.0</ele>
				<time>2011-02-17T16:19:47Z</time>
			</trkpt>
			<trkpt lat="50.910856715334276" lon="6.655526020251459">
				<ele>126.0</ele>
				<time>2011-02-17T16:19:48Z</time>
			</trkpt>
			<trkpt lat="50.91084461707129" lon="6.655755782781874">
				<ele>126.0</ele>
				<time>2011-02-17T16:19:49Z</time>
			</trkpt>
			<trkpt lat="50.910829699857246" lon="6.655983876787535">
				<ele>126.0</ele>
				<time>2011-02-17T16:19:50Z</time>
			</trkpt>
			<trkpt lat="50.910815100683074" lon="6.656209086375227">
				<ele>126.0</ele>
				<time>2011-02-17T16:19:51Z</time>
			</trkpt>
			<trkpt lat="50.91080041529955" lon="6.656432171052569">
				<ele>126.0</ele>
				<time>2011-02-17T16:19:52Z</time>
			</trkpt>
			<trkpt lat="50.9107849990688" lon="6.656652517725066">
				<ele>126.0</ele>
				<time>2011-02-17T16:19:53Z</time>
			</trkpt>
			<trkpt lat="50.91077143486617" lon="6.656864543689262">
				<ele>126.0</ele>
				<time>2011-02-17T16:19:54Z</time>
			</trkpt>
			<trkpt lat="50.910757803450785" lon="6.657075912847589">
				<ele>126.0</ele>
				<time>2011-02-17T16:19:55Z</time>
			</trkpt>
			<trkpt lat="50.91074119168269" lon="6.657286097457372">
				<ele>125.0</ele>
				<time>2011-02-17T16:19:56Z</time>
			</trkpt>
			<trkpt lat="50.91072525837722" lon="6.657490847415336">
				<ele>125.0</ele>
				<time>2011-02-17T16:19:57Z</time>
			</trkpt>
			<trkpt lat="50.91071278669395" lon="6.657686822901447">
				<ele>125.0</ele>
				<time>2011-02-17T16:19:58Z</time>
			</trkpt>
			<trkpt lat="50.910700643258366" lon="6.657881044993003">
				<ele>125.0</ele>
				<time>2011-02-17T16:19:59Z</time>
			</trkpt>
			<trkpt lat="50.91068920107031" lon="6.658070405617559">
				<ele>125.0</ele>
				<time>2011-02-17T16:20:00Z</time>
			</trkpt>
			<trkpt lat="50.91067865772449" lon="6.658255394504539">
				<ele>125.0</ele>
				<time>2011-02-17T16:20:01Z</time>
			</trkpt>
			<trkpt lat="50.91066880416099" lon="6.658429830211093">
				<ele>125.0</ele>
				<time>2011-02-17T16:20:02Z</time>
			</trkpt>
			<trkpt lat="50.91065918554052" lon="6.658600893681707">
				<ele>125.0</ele>
				<time>2011-02-17T16:20:03Z</time>
			</trkpt>
			<trkpt lat="50.91065303453793" lon="6.6587627446229645">
				<ele>125.0</ele>
				<time>2011-02-17T16:20:04Z</time>
			</trkpt>
			<trkpt lat="50.910646719455436" lon="6.658912876120651">
				<ele>125.0</ele>
				<time>2011-02-17T16:20:05Z</time>
			</trkpt>
			<trkpt lat="50.910637363147615" lon="6.6590464633680035">
				<ele>124.0</ele>
				<time>2011-02-17T16:20:06Z</time>
			</trkpt>
			<trkpt lat="50.910627791518" lon="6.659154546168334">
				<ele>124.0</ele>
				<time>2011-02-17T16:20:07Z</time>
			</trkpt>
			<trkpt lat="50.91061830017627" lon="6.659234857792372">
				<ele>124.0</ele>
				<time>2011-02-17T16:20:08Z</time>
			</trkpt>
			<trkpt lat="50.910599541833406" lon="6.659304575166239">
				<ele>124.0</ele>
				<time>2011-02-17T16:20:09Z</time>
			</trkpt>
			<trkpt lat="50.91057903161732" lon="6.659367702624082">
				<ele>124.0</ele>
				<time>2011-02-17T16:20:10Z</time>
			</trkpt>
			<trkpt lat="50.9105553850871" lon="6.659423725885784">
				<ele>125.0</ele>
				<time>2011-02-17T16:20:11Z</time>
			</trkpt>
			<trkpt lat="50.91053087430325" lon="6.659479009162938">
				<ele>125.0</ele>
				<time>2011-02-17T16:20:12Z</time>
			</trkpt>
			<trkpt lat="50.91051976591502" lon="6.659548722419384">
				<ele>125.0</ele>
				<time>2011-02-17T16:20:13Z</time>
			</trkpt>
			<trkpt lat="50.91052738723584" lon="6.65963834382551">
				<ele>125.0</ele>
				<time>2011-02-17T16:20:14Z</time>
			</trkpt>
			<trkpt lat="50.91054192239712" lon="6.659737774954674">
				<ele>125.0</ele>
				<time>2011-02-17T16:20:15Z</time>
			</trkpt>
			<trkpt lat="50.91055953023598" lon="6.6598476993832785">
				<ele>125.0</ele>
				<time>2011-02-17T16:20:16Z</time>
			</trkpt>
			<trkpt lat="50.91057187492498" lon="6.659963866969248">
				<ele>125.0</ele>
				<time>2011-02-17T16:20:17Z</time>
			</trkpt>
			<trkpt lat="50.91057884887097" lon="6.660087894065562">
				<ele>125.0</ele>
				<time>2011-02-17T16:20:18Z</time>
			</trkpt>
			<trkpt lat="50.91057994757945" lon="6.660226422542639">
				<ele>125.0</ele>
				<time>2011-02-17T16:20:19Z</time>
			</trkpt>
			<trkpt lat="50.91057581919121" lon="6.660381914446676">
				<ele>125.0</ele>
				<time>2011-02-17T16:20:20Z</time>
			</trkpt>
			<trkpt lat="50.91056691121189" lon="6.66054104444955">
				<ele>126.0</ele>
				<time>2011-02-17T16:20:21Z</time>
			</trkpt>
			<trkpt lat="50.91055628590416" lon="6.660701457934884">
				<ele>126.0</ele>
				<time>2011-02-17T16:20:22Z</time>
			</trkpt>
			<trkpt lat="50.910546485889036" lon="6.660870837219518">
				<ele>126.0</ele>
				<time>2011-02-17T16:20:23Z</time>
			</trkpt>
			<trkpt lat="50.910534554096216" lon="6.661049880910452">
				<ele>126.0</ele>
				<time>2011-02-17T16:20:24Z</time>
			</trkpt>
			<trkpt lat="50.910521158466665" lon="6.661229042672947">
				<ele>126.0</ele>
				<time>2011-02-17T16:20:25Z</time>
			</trkpt>
			<trkpt lat="50.91050820840856" lon="6.661407509953271">
				<ele>126.0</ele>
				<time>2011-02-17T16:20:26Z</time>
			</trkpt>
			<trkpt lat="50.91049581769968" lon="6.661587021050249">
				<ele>126.0</ele>
				<time>2011-02-17T16:20:27Z</time>
			</trkpt>
			<trkpt lat="50.91048431628795" lon="6.661765433865601">
				<ele>126.0</ele>
				<time>2011-02-17T16:20:28Z</time>
			</trkpt>
			<trkpt lat="50.910473716588" lon="6.661941331994656">
				<ele>126.0</ele>
				<time>2011-02-17T16:20:29Z</time>
			</trkpt>
			<trkpt lat="50.91046645797836" lon="6.662115025695975">
				<ele>126.0</ele>
				<time>2011-02-17T16:20:30Z</time>
			</trkpt>
			<trkpt lat="50.910463141454464" lon="6.662286758234558">
				<ele>126.0</ele>
				<time>2011-02-17T16:20:31Z</time>
			</trkpt>
			<trkpt lat="50.91046457213124" lon="6.662456890180696">
				<ele>126.0</ele>
				<time>2011-02-17T16:20:32Z</time>
			</trkpt>
			<trkpt lat="50.910471236866805" lon="6.662627325360873">
				<ele>126.0</ele>
				<time>2011-02-17T16:20:33Z</time>
			</trkpt>
			<trkpt lat="50.91048245962327" lon="6.662798264091134">
				<ele>126.0</ele>
				<time>2011-02-17T16:20:34Z</time>
			</trkpt>
			<trkpt lat="50.910497589013566" lon="6.662969845004622">
				<ele>126.0</ele>
				<time>2011-02-17T16:20:35Z</time>
			</trkpt>
			<trkpt lat="50.910516464375895" lon="6.663144416607572">
				<ele>126.0</ele>
				<time>2011-02-17T16:20:36Z</time>
			</trkpt>
			<trkpt lat="50.91053907113415" lon="6.6633194454915845">
				<ele>125.0</ele>
				<time>2011-02-17T16:20:37Z</time>
			</trkpt>
			<trkpt lat="50.91056546011793" lon="6.663496232772448">
				<ele>125.0</ele>
				<time>2011-02-17T16:20:38Z</time>
			</trkpt>
			<trkpt lat="50.9105951421826" lon="6.663672952095921">
				<ele>125.0</ele>
				<time>2011-02-17T16:20:39Z</time>
			</trkpt>
			<trkpt lat="50.91062703759629" lon="6.663849959204792">
				<ele>125.0</ele>
				<time>2011-02-17T16:20:40Z</time>
			</trkpt>
			<trkpt lat="50.910658908026825" lon="6.664027703772464">
				<ele>125.0</ele>
				<time>2011-02-17T16:20:41Z</time>
			</trkpt>
			<trkpt lat="50.91069069714019" lon="6.66420745199454">
				<ele>124.0</ele>
				<time>2011-02-17T16:20:42Z</time>
			</trkpt>
			<trkpt lat="50.9107223655162" lon="6.664389730907413">
				<ele>124.0</ele>
				<time>2011-02-17T16:20:43Z</time>
			</trkpt>
			<trkpt lat="50.910756500912285" lon="6.664572264033264">
				<ele>124.0</ele>
				<time>2011-02-17T16:20:44Z</time>
			</trkpt>
			<trkpt lat="50.910790345582384" lon="6.664756102100086">
				<ele>124.0</ele>
				<time>2011-02-17T16:20:45Z</time>
			</trkpt>
			<trkpt lat="50.91082576293819" lon="6.664939001834807">
				<ele>124.0</ele>
				<time>2011-02-17T16:20:46Z</time>
			</trkpt>
			<trkpt lat="50.91086010302413" lon="6.665119811684924">
				<ele>124.0</ele>
				<time>2011-02-17T16:20:47Z</time>
			</trkpt>
			<trkpt lat="50.9108936497058" lon="6.665298182633729">
				<ele>124.0</ele>
				<time>2011-02-17T16:20:48Z</time>
			</trkpt>
			<trkpt lat="50.91092680246068" lon="6.665476516720474">
				<ele>124.0</ele>
				<time>2011-02-17T16:20:49Z</time>
			</trkpt>
			<trkpt lat="50.91096029469023" lon="6.6656562648806945">
				<ele>124.0</ele>
				<time>2011-02-17T16:20:50Z</time>
			</trkpt>
			<trkpt lat="50.91099409004566" lon="6.665838622261598">
				<ele>123.0</ele>
				<time>2011-02-17T16:20:51Z</time>
			</trkpt>
			<trkpt lat="50.91102773724757" lon="6.666020440047916">
				<ele>123.0</ele>
				<time>2011-02-17T16:20:52Z</time>
			</trkpt>
			<trkpt lat="50.91106154855694" lon="6.6662010693419775">
				<ele>123.0</ele>
				<time>2011-02-17T16:20:53Z</time>
			</trkpt>
			<trkpt lat="50.91109484569965" lon="6.666381145262826">
				<ele>123.0</ele>
				<time>2011-02-17T16:20:54Z</time>
			</trkpt>
			<trkpt lat="50.911126127935525" lon="6.6665607034100445">
				<ele>123.0</ele>
				<time>2011-02-17T16:20:55Z</time>
			</trkpt>
			<trkpt lat="50.91115677371206" lon="6.6667358874827825">
				<ele>123.0</ele>
				<time>2011-02-17T16:20:56Z</time>
			</trkpt>
			<trkpt lat="50.91118613404918" lon="6.6669071055889235">
				<ele>123.0</ele>
				<time>2011-02-17T16:20:57Z</time>
			</trkpt>
			<trkpt lat="50.911214791040365" lon="6.667070469027002">
				<ele>123.0</ele>
				<time>2011-02-17T16:20:58Z</time>
			</trkpt>
			<trkpt lat="50.9112432006698" lon="6.66722987795315">
				<ele>123.0</ele>
				<time>2011-02-17T16:20:59Z</time>
			</trkpt>
			<trkpt lat="50.91127095575415" lon="6.6673861382263535">
				<ele>123.0</ele>
				<time>2011-02-17T16:21:00Z</time>
			</trkpt>
			<trkpt lat="50.91129861554926" lon="6.667538866229136">
				<ele>123.0</ele>
				<time>2011-02-17T16:21:01Z</time>
			</trkpt>
			<trkpt lat="50.91132599184351" lon="6.667688640750121">
				<ele>123.0</ele>
				<time>2011-02-17T16:21:02Z</time>
			</trkpt>
			<trkpt lat="50.91135268342881" lon="6.667836948188591">
				<ele>123.0</ele>
				<time>2011-02-17T16:21:03Z</time>
			</trkpt>
			<trkpt lat="50.911378684671455" lon="6.6679833807077">
				<ele>123.0</ele>
				<time>2011-02-17T16:21:04Z</time>
			</trkpt>
			<trkpt lat="50.91140454630862" lon="6.668127854605368">
				<ele>123.0</ele>
				<time>2011-02-17T16:21:05Z</time>
			</trkpt>
			<trkpt lat="50.911432438781524" lon="6.668269127412911">
				<ele>123.0</ele>
				<time>2011-02-17T16:21:06Z</time>
			</trkpt>
			<trkpt lat="50.91146011919139" lon="6.668407623660813">
				<ele>123.0</ele>
				<time>2011-02-17T16:21:07Z</time>
			</trkpt>
			<trkpt lat="50.911487181833174" lon="6.668544857121334">
				<ele>123.0</ele>
				<time>2011-02-17T16:21:08Z</time>
			</trkpt>
			<trkpt lat="50.91151339286855" lon="6.668681746877099">
				<ele>123.0</ele>
				<time>2011-02-17T16:21:09Z</time>
			</trkpt>
			<trkpt lat="50.91153879241521" lon="6.668816606919975">
				<ele>123.0</ele>
				<time>2011-02-17T16:21:10Z</time>
			</trkpt>
			<trkpt lat="50.911562378089805" lon="6.668941404694625">
				<ele>123.0</ele>
				<time>2011-02-17T16:21:11Z</time>
			</trkpt>
			<trkpt lat="50.911583757489886" lon="6.669054105581107">
				<ele>123.0</ele>
				<time>2011-02-17T16:21:12Z</time>
			</trkpt>
			<trkpt lat="50.9116039275174" lon="6.669151939926554">
				<ele>123.0</ele>
				<time>2011-02-17T16:21:13Z</time>
			</trkpt>
			<trkpt lat="50.91162250281549" lon="6.669231794480195">
				<ele>123.0</ele>
				<time>2011-02-17T16:21:14Z</time>
			</trkpt>
			<trkpt lat="50.911636343311564" lon="6.6692902035085115">
				<ele>123.0</ele>
				<time>2011-02-17T16:21:15Z</time>
			</trkpt>
			<trkpt lat="50.91164787569472" lon="6.669335929046338">
				<ele>123.0</ele>
				<time>2011-02-17T16:21:16Z</time>
			</trkpt>
			<trkpt lat="50.91165590768211" lon="6.669365679637462">
				<ele>123.0</ele>
				<time>2011-02-17T16:21:17Z</time>
			</trkpt>
			<trkpt lat="50.91165590768211" lon="6.669365679637462">
				<ele>123.0</ele>
				<time>2011-02-17T16:21:18Z</time>
			</trkpt>
			<trkpt lat="50.91165590768211" lon="6.669365679637462">
				<ele>123.0</ele>
				<time>2011-02-17T16:21:19Z</time>
			</trkpt>
			<trkpt lat="50.91165590768211" lon="6.669365679637462">
				<ele>123.0</ele>
				<time>2011-02-17T16:21:20Z</time>
			</trkpt>
			<trkpt lat="50.91165590768211" lon="6.669365679637462">
				<ele>123.0</ele>
				<time>2011-02-17T16:21:21Z</time>
			</trkpt>
			<trkpt lat="50.91165590768211" lon="6.669365679637462">
				<ele>123.0</ele>
				<time>2011-02-17T16:21:22Z</time>
			</trkpt>
			<trkpt lat="50.91165590768211" lon="6.669365679637462">
				<ele>123.0</ele>
				<time>2011-02-17T16:21:23Z</time>
			</trkpt>
			<trkpt lat="50.91165590768211" lon="6.669365679637462">
				<ele>123.0</ele>
				<time>2011-02-17T16:21:24Z</time>
			</trkpt>
			<trkpt lat="50.91166894204681" lon="6.669438839644855">
				<ele>123.0</ele>
				<time>2011-02-17T16:21:25Z</time>
			</trkpt>
			<trkpt lat="50.91167405276417" lon="6.669482155711424">
				<ele>123.0</ele>
				<time>2011-02-17T16:21:26Z</time>
			</trkpt>
			<trkpt lat="50.91167937694972" lon="6.669534764704328">
				<ele>123.0</ele>
				<time>2011-02-17T16:21:27Z</time>
			</trkpt>
			<trkpt lat="50.91168797961203" lon="6.6696013147827085">
				<ele>122.0</ele>
				<time>2011-02-17T16:21:28Z</time>
			</trkpt>
			<trkpt lat="50.91171687836627" lon="6.669662856510798">
				<ele>122.0</ele>
				<time>2011-02-17T16:21:29Z</time>
			</trkpt>
			<trkpt lat="50.91175165623526" lon="6.669730175295193">
				<ele>122.0</ele>
				<time>2011-02-17T16:21:30Z</time>
			</trkpt>
			<trkpt lat="50.911790530279134" lon="6.669804973377203">
				<ele>121.0</ele>
				<time>2011-02-17T16:21:31Z</time>
			</trkpt>
			<trkpt lat="50.91183494791772" lon="6.669891292160994">
				<ele>121.0</ele>
				<time>2011-02-17T16:21:32Z</time>
			</trkpt>
			<trkpt lat="50.91187888231637" lon="6.669982209964747">
				<ele>121.0</ele>
				<time>2011-02-17T16:21:33Z</time>
			</trkpt>
			<trkpt lat="50.911926011263674" lon="6.670078389641238">
				<ele>121.0</ele>
				<time>2011-02-17T16:21:34Z</time>
			</trkpt>
			<trkpt lat="50.911975345617535" lon="6.670178853055372">
				<ele>120.0</ele>
				<time>2011-02-17T16:21:35Z</time>
			</trkpt>
			<trkpt lat="50.91202846433265" lon="6.670280200350486">
				<ele>120.0</ele>
				<time>2011-02-17T16:21:36Z</time>
			</trkpt>
			<trkpt lat="50.91208371137468" lon="6.670386075723414">
				<ele>120.0</ele>
				<time>2011-02-17T16:21:37Z</time>
			</trkpt>
			<trkpt lat="50.912137150423156" lon="6.67049599044294">
				<ele>119.0</ele>
				<time>2011-02-17T16:21:38Z</time>
			</trkpt>
			<trkpt lat="50.91218733249612" lon="6.670611014687944">
				<ele>119.0</ele>
				<time>2011-02-17T16:21:39Z</time>
			</trkpt>
			<trkpt lat="50.91223640720563" lon="6.670728694002039">
				<ele>119.0</ele>
				<time>2011-02-17T16:21:40Z</time>
			</trkpt>
			<trkpt lat="50.91228761384194" lon="6.670842942438737">
				<ele>119.0</ele>
				<time>2011-02-17T16:21:41Z</time>
			</trkpt>
			<trkpt lat="50.912338967460585" lon="6.670957249857976">
				<ele>119.0</ele>
				<time>2011-02-17T16:21:42Z</time>
			</trkpt>
			<trkpt lat="50.91239408126818" lon="6.671068077602344">
				<ele>119.0</ele>
				<time>2011-02-17T16:21:43Z</time>
			</trkpt>
			<trkpt lat="50.912451276326" lon="6.671176468983965">
				<ele>119.0</ele>
				<time>2011-02-17T16:21:44Z</time>
			</trkpt>
			<trkpt lat="50.91251032195791" lon="6.671282395478424">
				<ele>119.0</ele>
				<time>2011-02-17T16:21:45Z</time>
			</trkpt>
			<trkpt lat="50.912568315214784" lon="6.6713853051605225">
				<ele>119.0</ele>
				<time>2011-02-17T16:21:46Z</time>
			</trkpt>
			<trkpt lat="50.91262656316789" lon="6.671483701718877">
				<ele>119.0</ele>
				<time>2011-02-17T16:21:47Z</time>
			</trkpt>
			<trkpt lat="50.91268174850807" lon="6.671578050752718">
				<ele>119.0</ele>
				<time>2011-02-17T16:21:48Z</time>
			</trkpt>
			<trkpt lat="50.91273506519222" lon="6.671670450870834">
				<ele>119.0</ele>
				<time>2011-02-17T16:21:49Z</time>
			</trkpt>
			<trkpt lat="50.91278764460542" lon="6.671760965967651">
				<ele>119.0</ele>
				<time>2011-02-17T16:21:50Z</time>
			</trkpt>
			<trkpt lat="50.91283729808381" lon="6.671847409581949">
				<ele>118.0</ele>
				<time>2011-02-17T16:21:51Z</time>
			</trkpt>
			<trkpt lat="50.91288352374986" lon="6.6719369145851575">
				<ele>118.0</ele>
				<time>2011-02-17T16:21:52Z</time>
			</trkpt>
			<trkpt lat="50.91293053944475" lon="6.672029407010293">
				<ele>118.0</ele>
				<time>2011-02-17T16:21:53Z</time>
			</trkpt>
			<trkpt lat="50.91297767166431" lon="6.672123464485206">
				<ele>118.0</ele>
				<time>2011-02-17T16:21:54Z</time>
			</trkpt>
			<trkpt lat="50.91302379825121" lon="6.672216687326749">
				<ele>118.0</ele>
				<time>2011-02-17T16:21:55Z</time>
			</trkpt>
			<trkpt lat="50.91306914530685" lon="6.672306586842861">
				<ele>118.0</ele>
				<time>2011-02-17T16:21:56Z</time>
			</trkpt>
			<trkpt lat="50.91310982856076" lon="6.672382909141407">
				<ele>117.0</ele>
				<time>2011-02-17T16:21:57Z</time>
			</trkpt>
			<trkpt lat="50.91315036607931" lon="6.672452480180687">
				<ele>117.0</ele>
				<time>2011-02-17T16:21:58Z</time>
			</trkpt>
			<trkpt lat="50.91319246189664" lon="6.672517616901569">
				<ele>117.0</ele>
				<time>2011-02-17T16:21:59Z</time>
			</trkpt>
			<trkpt lat="50.913240148161506" lon="6.672592052346835">
				<ele>117.0</ele>
				<time>2011-02-17T16:22:00Z</time>
			</trkpt>
			<trkpt lat="50.91328675021399" lon="6.672672059819753">
				<ele>116.0</ele>
				<time>2011-02-17T16:22:01Z</time>
			</trkpt>
			<trkpt lat="50.913333006852596" lon="6.672756258575845">
				<ele>116.0</ele>
				<time>2011-02-17T16:22:02Z</time>
			</trkpt>
			<trkpt lat="50.91337681606216" lon="6.6728427363588505">
				<ele>116.0</ele>
				<time>2011-02-17T16:22:03Z</time>
			</trkpt>
			<trkpt lat="50.913419552337864" lon="6.672922602148372">
				<ele>116.0</ele>
				<time>2011-02-17T16:22:04Z</time>
			</trkpt>
			<trkpt lat="50.913456882915575" lon="6.67299243248608">
				<ele>116.0</ele>
				<time>2011-02-17T16:22:05Z</time>
			</trkpt>
			<trkpt lat="50.91349085467374" lon="6.673050305082224">
				<ele>116.0</ele>
				<time>2011-02-17T16:22:06Z</time>
			</trkpt>
			<trkpt lat="50.91352777236737" lon="6.673103803266161">
				<ele>116.0</ele>
				<time>2011-02-17T16:22:07Z</time>
			</trkpt>
			<trkpt lat="50.91356870697822" lon="6.673157772636192">
				<ele>116.0</ele>
				<time>2011-02-17T16:22:08Z</time>
			</trkpt>
			<trkpt lat="50.91361633151325" lon="6.673226733442536">
				<ele>116.0</ele>
				<time>2011-02-17T16:22:09Z</time>
			</trkpt>
			<trkpt lat="50.913662227802256" lon="6.673299238284">
				<ele>116.0</ele>
				<time>2011-02-17T16:22:10Z</time>
			</trkpt>
			<trkpt lat="50.913707299440404" lon="6.673372834669018">
				<ele>115.0</ele>
				<time>2011-02-17T16:22:11Z</time>
			</trkpt>
			<trkpt lat="50.91374956878776" lon="6.673447751027126">
				<ele>115.0</ele>
				<time>2011-02-17T16:22:12Z</time>
			</trkpt>
			<trkpt lat="50.913783958984595" lon="6.673512894424363">
				<ele>115.0</ele>
				<time>2011-02-17T16:22:13Z</time>
			</trkpt>
			<trkpt lat="50.91380814780055" lon="6.673556079303364">
				<ele>115.0</ele>
				<time>2011-02-17T16:22:14Z</time>
			</trkpt>
			<trkpt lat="50.913826153321814" lon="6.673594234550963">
				<ele>115.0</ele>
				<time>2011-02-17T16:22:15Z</time>
			</trkpt>
			<trkpt lat="50.9138425560634" lon="6.673635025669474">
				<ele>115.0</ele>
				<time>2011-02-17T16:22:16Z</time>
			</trkpt>
			<trkpt lat="50.91385225994485" lon="6.67368394967612">
				<ele>115.0</ele>
				<time>2011-02-17T16:22:17Z</time>
			</trkpt>
			<trkpt lat="50.91386379637424" lon="6.673731119180163">
				<ele>115.0</ele>
				<time>2011-02-17T16:22:18Z</time>
			</trkpt>
			<trkpt lat="50.91388684899886" lon="6.673759397094886">
				<ele>115.0</ele>
				<time>2011-02-17T16:22:19Z</time>
			</trkpt>
			<trkpt lat="50.913906760332225" lon="6.673780950841716">
				<ele>115.0</ele>
				<time>2011-02-17T16:22:20Z</time>
			</trkpt>
			<trkpt lat="50.91392883498844" lon="6.673760626061488">
				<ele>115.0</ele>
				<time>2011-02-17T16:22:21Z</time>
			</trkpt>
			<trkpt lat="50.91394831901714" lon="6.673729494140958">
				<ele>115.0</ele>
				<time>2011-02-17T16:22:22Z</time>
			</trkpt>
			<trkpt lat="50.91396129497103" lon="6.6736877702893125">
				<ele>116.0</ele>
				<time>2011-02-17T16:22:23Z</time>
			</trkpt>
			<trkpt lat="50.913979194252164" lon="6.67365411059708">
				<ele>116.0</ele>
				<time>2011-02-17T16:22:24Z</time>
			</trkpt>
			<trkpt lat="50.91400115767098" lon="6.673625513346095">
				<ele>116.0</ele>
				<time>2011-02-17T16:22:25Z</time>
			</trkpt>
			<trkpt lat="50.914024217632345" lon="6.673598090732892">
				<ele>116.0</ele>
				<time>2011-02-17T16:22:26Z</time>
			</trkpt>
			<trkpt lat="50.91404834503469" lon="6.673569653020312">
				<ele>116.0</ele>
				<time>2011-02-17T16:22:27Z</time>
			</trkpt>
			<trkpt lat="50.91407904704178" lon="6.673534039113796">
				<ele>116.0</ele>
				<time>2011-02-17T16:22:28Z</time>
			</trkpt>
			<trkpt lat="50.9141116172376" lon="6.6734952245296855">
				<ele>116.0</ele>
				<time>2011-02-17T16:22:29Z</time>
			</trkpt>
			<trkpt lat="50.914147027282056" lon="6.673469964702112">
				<ele>116.0</ele>
				<time>2011-02-17T16:22:30Z</time>
			</trkpt>
			<trkpt lat="50.914182418263344" lon="6.673451789362436">
				<ele>116.0</ele>
				<time>2011-02-17T16:22:31Z</time>
			</trkpt>
			<trkpt lat="50.91421021894539" lon="6.673454694621318">
				<ele>116.0</ele>
				<time>2011-02-17T16:22:32Z</time>
			</trkpt>
			<trkpt lat="50.914234796509476" lon="6.6734571910899385">
				<ele>116.0</ele>
				<time>2011-02-17T16:22:33Z</time>
			</trkpt>
			<trkpt lat="50.91425165133023" lon="6.673444134405489">
				<ele>116.0</ele>
				<time>2011-02-17T16:22:34Z</time>
			</trkpt>
			<trkpt lat="50.91426398287842" lon="6.673418604675541">
				<ele>116.0</ele>
				<time>2011-02-17T16:22:35Z</time>
			</trkpt>
			<trkpt lat="50.91426638695016" lon="6.673384684205951">
				<ele>116.0</ele>
				<time>2011-02-17T16:22:36Z</time>
			</trkpt>
			<trkpt lat="50.91426638695016" lon="6.673384684205951">
				<ele>116.0</ele>
				<time>2011-02-17T16:22:37Z</time>
			</trkpt>
			<trkpt lat="50.91426638695016" lon="6.673384684205951">
				<ele>116.0</ele>
				<time>2011-02-17T16:22:38Z</time>
			</trkpt>
			<trkpt lat="50.91426638695016" lon="6.673384684205951">
				<ele>116.0</ele>
				<time>2011-02-17T16:22:39Z</time>
			</trkpt>
			<trkpt lat="50.91426638695016" lon="6.673384684205951">
				<ele>116.0</ele>
				<time>2011-02-17T16:22:40Z</time>
			</trkpt>
			<trkpt lat="50.91426638695016" lon="6.673384684205951">
				<ele>116.0</ele>
				<time>2011-02-17T16:22:41Z</time>
			</trkpt>
			<trkpt lat="50.91426638695016" lon="6.673384684205951">
				<ele>116.0</ele>
				<time>2011-02-17T16:22:42Z</time>
			</trkpt>
			<trkpt lat="50.914271480214005" lon="6.673327469120192">
				<ele>116.0</ele>
				<time>2011-02-17T16:22:43Z</time>
			</trkpt>
			<trkpt lat="50.914271480214005" lon="6.673327469120192">
				<ele>116.0</ele>
				<time>2011-02-17T16:22:44Z</time>
			</trkpt>
			<trkpt lat="50.914271480214005" lon="6.673327469120192">
				<ele>116.0</ele>
				<time>2011-02-17T16:22:45Z</time>
			</trkpt>
			<trkpt lat="50.91419136150377" lon="6.673352176768127">
				<ele>116.0</ele>
				<time>2011-02-17T16:22:46Z</time>
			</trkpt>
			<trkpt lat="50.91414232148653" lon="6.673407630380607">
				<ele>116.0</ele>
				<time>2011-02-17T16:22:47Z</time>
			</trkpt>
			<trkpt lat="50.91409183630532" lon="6.673459688050945">
				<ele>117.0</ele>
				<time>2011-02-17T16:22:48Z</time>
			</trkpt>
			<trkpt lat="50.91403799883119" lon="6.673509479988331">
				<ele>117.0</ele>
				<time>2011-02-17T16:22:49Z</time>
			</trkpt>
			<trkpt lat="50.9139944836763" lon="6.673543677192517">
				<ele>117.0</ele>
				<time>2011-02-17T16:22:50Z</time>
			</trkpt>
			<trkpt lat="50.91395245882428" lon="6.673559882383312">
				<ele>118.0</ele>
				<time>2011-02-17T16:22:51Z</time>
			</trkpt>
			<trkpt lat="50.91391187016518" lon="6.673574536224234">
				<ele>118.0</ele>
				<time>2011-02-17T16:22:52Z</time>
			</trkpt>
			<trkpt lat="50.91388288547884" lon="6.673609301670426">
				<ele>118.0</ele>
				<time>2011-02-17T16:22:53Z</time>
			</trkpt>
			<trkpt lat="50.913870133104474" lon="6.673657264082548">
				<ele>118.0</ele>
				<time>2011-02-17T16:22:54Z</time>
			</trkpt>
			<trkpt lat="50.91386284666032" lon="6.673708802974092">
				<ele>118.0</ele>
				<time>2011-02-17T16:22:55Z</time>
			</trkpt>
			<trkpt lat="50.913889431956065" lon="6.67376605026461">
				<ele>118.0</ele>
				<time>2011-02-17T16:22:56Z</time>
			</trkpt>
			<trkpt lat="50.913936309875815" lon="6.673825584427089">
				<ele>117.0</ele>
				<time>2011-02-17T16:22:57Z</time>
			</trkpt>
			<trkpt lat="50.91398475672006" lon="6.6738999812366595">
				<ele>117.0</ele>
				<time>2011-02-17T16:22:58Z</time>
			</trkpt>
			<trkpt lat="50.91403281999694" lon="6.673987250763833">
				<ele>117.0</ele>
				<time>2011-02-17T16:22:59Z</time>
			</trkpt>
			<trkpt lat="50.914083180170756" lon="6.674088224575042">
				<ele>117.0</ele>
				<time>2011-02-17T16:23:00Z</time>
			</trkpt>
			<trkpt lat="50.914131132528055" lon="6.674194742040965">
				<ele>117.0</ele>
				<time>2011-02-17T16:23:01Z</time>
			</trkpt>
			<trkpt lat="50.91417512094923" lon="6.67430404522549">
				<ele>117.0</ele>
				<time>2011-02-17T16:23:02Z</time>
			</trkpt>
			<trkpt lat="50.91421574142817" lon="6.674416602034229">
				<ele>116.0</ele>
				<time>2011-02-17T16:23:03Z</time>
			</trkpt>
			<trkpt lat="50.91424929275893" lon="6.6745220326462835">
				<ele>116.0</ele>
				<time>2011-02-17T16:23:04Z</time>
			</trkpt>
			<trkpt lat="50.914274912102705" lon="6.674615164137944">
				<ele>116.0</ele>
				<time>2011-02-17T16:23:05Z</time>
			</trkpt>
			<trkpt lat="50.914299568498095" lon="6.674709538231548">
				<ele>116.0</ele>
				<time>2011-02-17T16:23:06Z</time>
			</trkpt>
			<trkpt lat="50.91432538037773" lon="6.674814077382532">
				<ele>116.0</ele>
				<time>2011-02-17T16:23:07Z</time>
			</trkpt>
			<trkpt lat="50.91435216039847" lon="6.6749291886988855">
				<ele>117.0</ele>
				<time>2011-02-17T16:23:08Z</time>
			</trkpt>
			<trkpt lat="50.914377971866365" lon="6.675051256348276">
				<ele>117.0</ele>
				<time>2011-02-17T16:23:09Z</time>
			</trkpt>
			<trkpt lat="50.914400997068995" lon="6.675177006675943">
				<ele>117.0</ele>
				<time>2011-02-17T16:23:10Z</time>
			</trkpt>
			<trkpt lat="50.914419573993314" lon="6.675304619971632">
				<ele>117.0</ele>
				<time>2011-02-17T16:23:11Z</time>
			</trkpt>
			<trkpt lat="50.91443480599111" lon="6.675431654530561">
				<ele>117.0</ele>
				<time>2011-02-17T16:23:12Z</time>
			</trkpt>
			<trkpt lat="50.91444690864059" lon="6.675555189838286">
				<ele>117.0</ele>
				<time>2011-02-17T16:23:13Z</time>
			</trkpt>
			<trkpt lat="50.9144587360165" lon="6.675670985238921">
				<ele>117.0</ele>
				<time>2011-02-17T16:23:14Z</time>
			</trkpt>
			<trkpt lat="50.91446794226777" lon="6.675782596881904">
				<ele>117.0</ele>
				<time>2011-02-17T16:23:15Z</time>
			</trkpt>
			<trkpt lat="50.914461524919304" lon="6.675890020110084">
				<ele>117.0</ele>
				<time>2011-02-17T16:23:16Z</time>
			</trkpt>
			<trkpt lat="50.91445195111439" lon="6.675993343130162">
				<ele>117.0</ele>
				<time>2011-02-17T16:23:17Z</time>
			</trkpt>
			<trkpt lat="50.91443989024447" lon="6.676091619671802">
				<ele>117.0</ele>
				<time>2011-02-17T16:23:18Z</time>
			</trkpt>
			<trkpt lat="50.914427661008254" lon="6.676188693432509">
				<ele>117.0</ele>
				<time>2011-02-17T16:23:19Z</time>
			</trkpt>
			<trkpt lat="50.91441746468577" lon="6.67628710632876">
				<ele>118.0</ele>
				<time>2011-02-17T16:23:20Z</time>
			</trkpt>
			<trkpt lat="50.91441160427479" lon="6.676388354804771">
				<ele>118.0</ele>
				<time>2011-02-17T16:23:21Z</time>
			</trkpt>
			<trkpt lat="50.91441091474851" lon="6.676490581916731">
				<ele>118.0</ele>
				<time>2011-02-17T16:23:22Z</time>
			</trkpt>
			<trkpt lat="50.91442616979764" lon="6.676588053650434">
				<ele>118.0</ele>
				<time>2011-02-17T16:23:23Z</time>
			</trkpt>
			<trkpt lat="50.91443789764615" lon="6.676684600298482">
				<ele>118.0</ele>
				<time>2011-02-17T16:23:24Z</time>
			</trkpt>
			<trkpt lat="50.914427311080495" lon="6.6767878169311645">
				<ele>118.0</ele>
				<time>2011-02-17T16:23:25Z</time>
			</trkpt>
			<trkpt lat="50.914415578392465" lon="6.676898903377559">
				<ele>118.0</ele>
				<time>2011-02-17T16:23:26Z</time>
			</trkpt>
			<trkpt lat="50.914398613608085" lon="6.677021929637949">
				<ele>118.0</ele>
				<time>2011-02-17T16:23:27Z</time>
			</trkpt>
			<trkpt lat="50.91437908926961" lon="6.677142629260223">
				<ele>118.0</ele>
				<time>2011-02-17T16:23:28Z</time>
			</trkpt>
			<trkpt lat="50.91435586817199" lon="6.677261694403705">
				<ele>119.0</ele>
				<time>2011-02-17T16:23:29Z</time>
			</trkpt>
			<trkpt lat="50.91432919029933" lon="6.67738065715135">
				<ele>119.0</ele>
				<time>2011-02-17T16:23:30Z</time>
			</trkpt>
			<trkpt lat="50.914300926843104" lon="6.677498470729236">
				<ele>119.0</ele>
				<time>2011-02-17T16:23:31Z</time>
			</trkpt>
			<trkpt lat="50.91427082748027" lon="6.6776160300248275">
				<ele>119.0</ele>
				<time>2011-02-17T16:23:32Z</time>
			</trkpt>
			<trkpt lat="50.91424014373356" lon="6.677734921824902">
				<ele>119.0</ele>
				<time>2011-02-17T16:23:33Z</time>
			</trkpt>
			<trkpt lat="50.914207357558524" lon="6.677852150280721">
				<ele>119.0</ele>
				<time>2011-02-17T16:23:34Z</time>
			</trkpt>
			<trkpt lat="50.91417238964033" lon="6.6779668072089775">
				<ele>119.0</ele>
				<time>2011-02-17T16:23:35Z</time>
			</trkpt>
			<trkpt lat="50.9141348323619" lon="6.678078955323163">
				<ele>119.0</ele>
				<time>2011-02-17T16:23:36Z</time>
			</trkpt>
			<trkpt lat="50.91409633534591" lon="6.678187076521213">
				<ele>119.0</ele>
				<time>2011-02-17T16:23:37Z</time>
			</trkpt>
			<trkpt lat="50.91405578923843" lon="6.678294096687897">
				<ele>119.0</ele>
				<time>2011-02-17T16:23:38Z</time>
			</trkpt>
			<trkpt lat="50.91401534917417" lon="6.678401657789566">
				<ele>119.0</ele>
				<time>2011-02-17T16:23:39Z</time>
			</trkpt>
			<trkpt lat="50.91397229471911" lon="6.678508239249433">
				<ele>119.0</ele>
				<time>2011-02-17T16:23:40Z</time>
			</trkpt>
			<trkpt lat="50.91392652995688" lon="6.678612257362879">
				<ele>118.0</ele>
				<time>2011-02-17T16:23:41Z</time>
			</trkpt>
			<trkpt lat="50.9138799904413" lon="6.678712122779057">
				<ele>118.0</ele>
				<time>2011-02-17T16:23:42Z</time>
			</trkpt>
			<trkpt lat="50.91383184961042" lon="6.678809418520999">
				<ele>118.0</ele>
				<time>2011-02-17T16:23:43Z</time>
			</trkpt>
			<trkpt lat="50.9137818693908" lon="6.678903761330594">
				<ele>118.0</ele>
				<time>2011-02-17T16:23:44Z</time>
			</trkpt>
			<trkpt lat="50.91373445565966" lon="6.67899579342007">
				<ele>118.0</ele>
				<time>2011-02-17T16:23:45Z</time>
			</trkpt>
			<trkpt lat="50.91368712584743" lon="6.679080919672803">
				<ele>119.0</ele>
				<time>2011-02-17T16:23:46Z</time>
			</trkpt>
			<trkpt lat="50.9136421908537" lon="6.6791576728144815">
				<ele>119.0</ele>
				<time>2011-02-17T16:23:47Z</time>
			</trkpt>
			<trkpt lat="50.91359889672283" lon="6.6792279798142795">
				<ele>119.0</ele>
				<time>2011-02-17T16:23:48Z</time>
			</trkpt>
			<trkpt lat="50.91355366933968" lon="6.679295030040108">
				<ele>119.0</ele>
				<time>2011-02-17T16:23:49Z</time>
			</trkpt>
			<trkpt lat="50.913505513935874" lon="6.679358697788493">
				<ele>119.0</ele>
				<time>2011-02-17T16:23:50Z</time>
			</trkpt>
			<trkpt lat="50.91345318465513" lon="6.679418415788402">
				<ele>119.0</ele>
				<time>2011-02-17T16:23:51Z</time>
			</trkpt>
			<trkpt lat="50.91340011406527" lon="6.679478712587475">
				<ele>119.0</ele>
				<time>2011-02-17T16:23:52Z</time>
			</trkpt>
			<trkpt lat="50.91334660260141" lon="6.6795427446526565">
				<ele>119.0</ele>
				<time>2011-02-17T16:23:53Z</time>
			</trkpt>
			<trkpt lat="50.91329646085558" lon="6.679612879239738">
				<ele>119.0</ele>
				<time>2011-02-17T16:23:54Z</time>
			</trkpt>
			<trkpt lat="50.913247146113704" lon="6.679684604927882">
				<ele>118.0</ele>
				<time>2011-02-17T16:23:55Z</time>
			</trkpt>
			<trkpt lat="50.91319803197524" lon="6.679756267725027">
				<ele>118.0</ele>
				<time>2011-02-17T16:23:56Z</time>
			</trkpt>
			<trkpt lat="50.913144794670764" lon="6.679833114267112">
				<ele>118.0</ele>
				<time>2011-02-17T16:23:57Z</time>
			</trkpt>
			<trkpt lat="50.91308132611511" lon="6.6799187614344016">
				<ele>118.0</ele>
				<time>2011-02-17T16:23:58Z</time>
			</trkpt>
			<trkpt lat="50.91301198499199" lon="6.680010900703338">
				<ele>118.0</ele>
				<time>2011-02-17T16:23:59Z</time>
			</trkpt>
			<trkpt lat="50.91294190173465" lon="6.680100214810427">
				<ele>118.0</ele>
				<time>2011-02-17T16:24:00Z</time>
			</trkpt>
			<trkpt lat="50.91287007297275" lon="6.680193576284069">
				<ele>118.0</ele>
				<time>2011-02-17T16:24:01Z</time>
			</trkpt>
			<trkpt lat="50.91279087814341" lon="6.680288493628979">
				<ele>118.0</ele>
				<time>2011-02-17T16:24:02Z</time>
			</trkpt>
			<trkpt lat="50.91270759081143" lon="6.680386782831605">
				<ele>118.0</ele>
				<time>2011-02-17T16:24:03Z</time>
			</trkpt>
			<trkpt lat="50.912619189695405" lon="6.680485877170826">
				<ele>118.0</ele>
				<time>2011-02-17T16:24:04Z</time>
			</trkpt>
			<trkpt lat="50.91253215858367" lon="6.680582280737741">
				<ele>118.0</ele>
				<time>2011-02-17T16:24:05Z</time>
			</trkpt>
			<trkpt lat="50.912446889585894" lon="6.680672358009223">
				<ele>118.0</ele>
				<time>2011-02-17T16:24:06Z</time>
			</trkpt>
			<trkpt lat="50.91236516603942" lon="6.680759698806237">
				<ele>118.0</ele>
				<time>2011-02-17T16:24:07Z</time>
			</trkpt>
			<trkpt lat="50.912284316193954" lon="6.680847796997866">
				<ele>118.0</ele>
				<time>2011-02-17T16:24:08Z</time>
			</trkpt>
			<trkpt lat="50.912202743240904" lon="6.680936616419838">
				<ele>118.0</ele>
				<time>2011-02-17T16:24:09Z</time>
			</trkpt>
			<trkpt lat="50.91211809050629" lon="6.681030115381837">
				<ele>118.0</ele>
				<time>2011-02-17T16:24:10Z</time>
			</trkpt>
			<trkpt lat="50.91203375764884" lon="6.68112219450396">
				<ele>118.0</ele>
				<time>2011-02-17T16:24:11Z</time>
			</trkpt>
			<trkpt lat="50.911952610709236" lon="6.681206494175847">
				<ele>118.0</ele>
				<time>2011-02-17T16:24:12Z</time>
			</trkpt>
			<trkpt lat="50.911872155248936" lon="6.681290544117027">
				<ele>118.0</ele>
				<time>2011-02-17T16:24:13Z</time>
			</trkpt>
			<trkpt lat="50.91178885262584" lon="6.681379920752239">
				<ele>118.0</ele>
				<time>2011-02-17T16:24:14Z</time>
			</trkpt>
			<trkpt lat="50.91170540657477" lon="6.6814706588877675">
				<ele>118.0</ele>
				<time>2011-02-17T16:24:15Z</time>
			</trkpt>
			<trkpt lat="50.911621742969224" lon="6.681562333231528">
				<ele>118.0</ele>
				<time>2011-02-17T16:24:16Z</time>
			</trkpt>
			<trkpt lat="50.91153891778489" lon="6.681653077753004">
				<ele>118.0</ele>
				<time>2011-02-17T16:24:17Z</time>
			</trkpt>
			<trkpt lat="50.91145681281093" lon="6.681742987641059">
				<ele>118.0</ele>
				<time>2011-02-17T16:24:18Z</time>
			</trkpt>
			<trkpt lat="50.911376949576194" lon="6.681830140205074">
				<ele>118.0</ele>
				<time>2011-02-17T16:24:19Z</time>
			</trkpt>
			<trkpt lat="50.91130097344591" lon="6.681913218640152">
				<ele>118.0</ele>
				<time>2011-02-17T16:24:20Z</time>
			</trkpt>
			<trkpt lat="50.91123256826927" lon="6.6819883816026175">
				<ele>118.0</ele>
				<time>2011-02-17T16:24:21Z</time>
			</trkpt>
			<trkpt lat="50.91117548934995" lon="6.682051281178726">
				<ele>118.0</ele>
				<time>2011-02-17T16:24:22Z</time>
			</trkpt>
			<trkpt lat="50.911127020553145" lon="6.682105195818226">
				<ele>118.0</ele>
				<time>2011-02-17T16:24:23Z</time>
			</trkpt>
			<trkpt lat="50.91108517289334" lon="6.682151053929396">
				<ele>117.0</ele>
				<time>2011-02-17T16:24:24Z</time>
			</trkpt>
			<trkpt lat="50.91105140287312" lon="6.682182412919256">
				<ele>117.0</ele>
				<time>2011-02-17T16:24:25Z</time>
			</trkpt>
			<trkpt lat="50.911017515258095" lon="6.682194772673548">
				<ele>117.0</ele>
				<time>2011-02-17T16:24:26Z</time>
			</trkpt>
			<trkpt lat="50.91098804747756" lon="6.682205341311958">
				<ele>117.0</ele>
				<time>2011-02-17T16:24:27Z</time>
			</trkpt>
			<trkpt lat="50.910960384617375" lon="6.682242405266545">
				<ele>117.0</ele>
				<time>2011-02-17T16:24:28Z</time>
			</trkpt>
			<trkpt lat="50.9109392322635" lon="6.682284076437545">
				<ele>117.0</ele>
				<time>2011-02-17T16:24:29Z</time>
			</trkpt>
			<trkpt lat="50.910949137122195" lon="6.682347165446312">
				<ele>117.0</ele>
				<time>2011-02-17T16:24:30Z</time>
			</trkpt>
			<trkpt lat="50.91097494837421" lon="6.682412623967025">
				<ele>117.0</ele>
				<time>2011-02-17T16:24:31Z</time>
			</trkpt>
			<trkpt lat="50.9110023032142" lon="6.6824955764914105">
				<ele>117.0</ele>
				<time>2011-02-17T16:24:32Z</time>
			</trkpt>
			<trkpt lat="50.911030452270985" lon="6.682595653517015">
				<ele>117.0</ele>
				<time>2011-02-17T16:24:33Z</time>
			</trkpt>
			<trkpt lat="50.91105628740849" lon="6.682696649863318">
				<ele>117.0</ele>
				<time>2011-02-17T16:24:34Z</time>
			</trkpt>
			<trkpt lat="50.911081011726765" lon="6.682801696534179">
				<ele>117.0</ele>
				<time>2011-02-17T16:24:35Z</time>
			</trkpt>
			<trkpt lat="50.911105000001584" lon="6.682907332940082">
				<ele>116.0</ele>
				<time>2011-02-17T16:24:36Z</time>
			</trkpt>
			<trkpt lat="50.91112741010905" lon="6.683013504301623">
				<ele>116.0</ele>
				<time>2011-02-17T16:24:37Z</time>
			</trkpt>
			<trkpt lat="50.911148758533585" lon="6.683121343113218">
				<ele>116.0</ele>
				<time>2011-02-17T16:24:38Z</time>
			</trkpt>
			<trkpt lat="50.91116874374334" lon="6.683229413330204">
				<ele>116.0</ele>
				<time>2011-02-17T16:24:39Z</time>
			</trkpt>
			<trkpt lat="50.91118713557045" lon="6.6833369977038855">
				<ele>116.0</ele>
				<time>2011-02-17T16:24:40Z</time>
			</trkpt>
			<trkpt lat="50.9112042517592" lon="6.683441728570094">
				<ele>116.0</ele>
				<time>2011-02-17T16:24:41Z</time>
			</trkpt>
			<trkpt lat="50.91121924327276" lon="6.683542590448623">
				<ele>116.0</ele>
				<time>2011-02-17T16:24:42Z</time>
			</trkpt>
			<trkpt lat="50.911233731115765" lon="6.683638348861136">
				<ele>116.0</ele>
				<time>2011-02-17T16:24:43Z</time>
			</trkpt>
			<trkpt lat="50.91124635447761" lon="6.683732463991574">
				<ele>116.0</ele>
				<time>2011-02-17T16:24:44Z</time>
			</trkpt>
			<trkpt lat="50.91124341561185" lon="6.683828478477607">
				<ele>116.0</ele>
				<time>2011-02-17T16:24:45Z</time>
			</trkpt>
			<trkpt lat="50.911226415771466" lon="6.683921181003027">
				<ele>116.0</ele>
				<time>2011-02-17T16:24:46Z</time>
			</trkpt>
			<trkpt lat="50.91120892432718" lon="6.684013831158486">
				<ele>116.0</ele>
				<time>2011-02-17T16:24:47Z</time>
			</trkpt>
			<trkpt lat="50.91120830168161" lon="6.684112466286626">
				<ele>116.0</ele>
				<time>2011-02-17T16:24:48Z</time>
			</trkpt>
			<trkpt lat="50.91122299389093" lon="6.684211792593014">
				<ele>116.0</ele>
				<time>2011-02-17T16:24:49Z</time>
			</trkpt>
			<trkpt lat="50.911243323979086" lon="6.684310716483473">
				<ele>116.0</ele>
				<time>2011-02-17T16:24:50Z</time>
			</trkpt>
			<trkpt lat="50.91126806207933" lon="6.684420766984243">
				<ele>116.0</ele>
				<time>2011-02-17T16:24:51Z</time>
			</trkpt>
			<trkpt lat="50.91129295953545" lon="6.6845465836785545">
				<ele>116.0</ele>
				<time>2011-02-17T16:24:52Z</time>
			</trkpt>
			<trkpt lat="50.911317707690976" lon="6.684686140007776">
				<ele>116.0</ele>
				<time>2011-02-17T16:24:53Z</time>
			</trkpt>
			<trkpt lat="50.911340476522476" lon="6.6848317865358515">
				<ele>116.0</ele>
				<time>2011-02-17T16:24:54Z</time>
			</trkpt>
			<trkpt lat="50.91136429686271" lon="6.684987519460602">
				<ele>116.0</ele>
				<time>2011-02-17T16:24:55Z</time>
			</trkpt>
			<trkpt lat="50.91138947530465" lon="6.685151151753531">
				<ele>116.0</ele>
				<time>2011-02-17T16:24:56Z</time>
			</trkpt>
			<trkpt lat="50.911415314004444" lon="6.685320546990483">
				<ele>116.0</ele>
				<time>2011-02-17T16:24:57Z</time>
			</trkpt>
			<trkpt lat="50.91144033739447" lon="6.685496940053962">
				<ele>116.0</ele>
				<time>2011-02-17T16:24:58Z</time>
			</trkpt>
			<trkpt lat="50.911465984033356" lon="6.685676180628411">
				<ele>116.0</ele>
				<time>2011-02-17T16:24:59Z</time>
			</trkpt>
			<trkpt lat="50.911492314164285" lon="6.685858423521901">
				<ele>116.0</ele>
				<time>2011-02-17T16:25:00Z</time>
			</trkpt>
			<trkpt lat="50.91151885352554" lon="6.686041774019479">
				<ele>116.0</ele>
				<time>2011-02-17T16:25:01Z</time>
			</trkpt>
			<trkpt lat="50.91154584271106" lon="6.686225517098359">
				<ele>115.0</ele>
				<time>2011-02-17T16:25:02Z</time>
			</trkpt>
			<trkpt lat="50.91157341566065" lon="6.686410987281652">
				<ele>116.0</ele>
				<time>2011-02-17T16:25:03Z</time>
			</trkpt>
			<trkpt lat="50.91160179038696" lon="6.686598859257912">
				<ele>116.0</ele>
				<time>2011-02-17T16:25:04Z</time>
			</trkpt>
			<trkpt lat="50.91163033296614" lon="6.686789040854524">
				<ele>116.0</ele>
				<time>2011-02-17T16:25:05Z</time>
			</trkpt>
			<trkpt lat="50.911658579249405" lon="6.686979211682792">
				<ele>115.0</ele>
				<time>2011-02-17T16:25:06Z</time>
			</trkpt>
			<trkpt lat="50.911686823294026" lon="6.687169529404699">
				<ele>115.0</ele>
				<time>2011-02-17T16:25:07Z</time>
			</trkpt>
			<trkpt lat="50.91171517159769" lon="6.687359937561732">
				<ele>115.0</ele>
				<time>2011-02-17T16:25:08Z</time>
			</trkpt>
			<trkpt lat="50.91174326049167" lon="6.6875483740695465">
				<ele>115.0</ele>
				<time>2011-02-17T16:25:09Z</time>
			</trkpt>
			<trkpt lat="50.91177080207508" lon="6.687734362871603">
				<ele>115.0</ele>
				<time>2011-02-17T16:25:10Z</time>
			</trkpt>
			<trkpt lat="50.91179779143806" lon="6.687917240331846">
				<ele>115.0</ele>
				<time>2011-02-17T16:25:11Z</time>
			</trkpt>
			<trkpt lat="50.91182425745401" lon="6.688096482098161">
				<ele>115.0</ele>
				<time>2011-02-17T16:25:12Z</time>
			</trkpt>
			<trkpt lat="50.91185024907373" lon="6.6882699541325685">
				<ele>116.0</ele>
				<time>2011-02-17T16:25:13Z</time>
			</trkpt>
			<trkpt lat="50.91187782208988" lon="6.688439136232459">
				<ele>116.0</ele>
				<time>2011-02-17T16:25:14Z</time>
			</trkpt>
			<trkpt lat="50.91190573403416" lon="6.688605848895109">
				<ele>115.0</ele>
				<time>2011-02-17T16:25:15Z</time>
			</trkpt>
			<trkpt lat="50.911937071501725" lon="6.6887686299155575">
				<ele>115.0</ele>
				<time>2011-02-17T16:25:16Z</time>
			</trkpt>
			<trkpt lat="50.91197145156415" lon="6.688932622223477">
				<ele>115.0</ele>
				<time>2011-02-17T16:25:17Z</time>
			</trkpt>
			<trkpt lat="50.912011162128906" lon="6.689097407475724">
				<ele>116.0</ele>
				<time>2011-02-17T16:25:18Z</time>
			</trkpt>
			<trkpt lat="50.912057474517" lon="6.689261360989462">
				<ele>116.0</ele>
				<time>2011-02-17T16:25:19Z</time>
			</trkpt>
			<trkpt lat="50.91211146758249" lon="6.689423172969157">
				<ele>116.0</ele>
				<time>2011-02-17T16:25:20Z</time>
			</trkpt>
			<trkpt lat="50.912175633147584" lon="6.689591446259189">
				<ele>116.0</ele>
				<time>2011-02-17T16:25:21Z</time>
			</trkpt>
			<trkpt lat="50.91225034385351" lon="6.689764902769893">
				<ele>115.0</ele>
				<time>2011-02-17T16:25:22Z</time>
			</trkpt>
			<trkpt lat="50.91232951707626" lon="6.689939707455304">
				<ele>115.0</ele>
				<time>2011-02-17T16:25:23Z</time>
			</trkpt>
			<trkpt lat="50.91240801377331" lon="6.690124476224076">
				<ele>114.0</ele>
				<time>2011-02-17T16:25:24Z</time>
			</trkpt>
			<trkpt lat="50.91249026454717" lon="6.690309852060725">
				<ele>113.0</ele>
				<time>2011-02-17T16:25:25Z</time>
			</trkpt>
			<trkpt lat="50.91257346097252" lon="6.6904986354826645">
				<ele>113.0</ele>
				<time>2011-02-17T16:25:26Z</time>
			</trkpt>
			<trkpt lat="50.91265001513258" lon="6.690700023670446">
				<ele>113.0</ele>
				<time>2011-02-17T16:25:27Z</time>
			</trkpt>
			<trkpt lat="50.91271835469025" lon="6.690908746291002">
				<ele>114.0</ele>
				<time>2011-02-17T16:25:28Z</time>
			</trkpt>
			<trkpt lat="50.912775831500134" lon="6.691124059404909">
				<ele>114.0</ele>
				<time>2011-02-17T16:25:29Z</time>
			</trkpt>
			<trkpt lat="50.912822289620415" lon="6.691345531250009">
				<ele>114.0</ele>
				<time>2011-02-17T16:25:30Z</time>
			</trkpt>
			<trkpt lat="50.912858305293696" lon="6.691577427842095">
				<ele>114.0</ele>
				<time>2011-02-17T16:25:31Z</time>
			</trkpt>
			<trkpt lat="50.912863870573744" lon="6.691822325651521">
				<ele>114.0</ele>
				<time>2011-02-17T16:25:32Z</time>
			</trkpt>
			<trkpt lat="50.9128703013935" lon="6.692069664287233">
				<ele>115.0</ele>
				<time>2011-02-17T16:25:33Z</time>
			</trkpt>
			<trkpt lat="50.912877499302574" lon="6.692316613506802">
				<ele>115.0</ele>
				<time>2011-02-17T16:25:34Z</time>
			</trkpt>
			<trkpt lat="50.91288914861055" lon="6.692565308037031">
				<ele>115.0</ele>
				<time>2011-02-17T16:25:35Z</time>
			</trkpt>
			<trkpt lat="50.91291021104664" lon="6.69281250628306">
				<ele>115.0</ele>
				<time>2011-02-17T16:25:36Z</time>
			</trkpt>
			<trkpt lat="50.91294151374418" lon="6.69305561669685">
				<ele>116.0</ele>
				<time>2011-02-17T16:25:37Z</time>
			</trkpt>
			<trkpt lat="50.912985552997206" lon="6.693294023913656">
				<ele>116.0</ele>
				<time>2011-02-17T16:25:38Z</time>
			</trkpt>
			<trkpt lat="50.91306073708376" lon="6.693513469899455">
				<ele>116.0</ele>
				<time>2011-02-17T16:25:39Z</time>
			</trkpt>
			<trkpt lat="50.913139229887996" lon="6.6937323307989685">
				<ele>116.0</ele>
				<time>2011-02-17T16:25:40Z</time>
			</trkpt>
			<trkpt lat="50.91321793521824" lon="6.693948509351074">
				<ele>115.0</ele>
				<time>2011-02-17T16:25:41Z</time>
			</trkpt>
			<trkpt lat="50.913299787260826" lon="6.6941578839743">
				<ele>115.0</ele>
				<time>2011-02-17T16:25:42Z</time>
			</trkpt>
			<trkpt lat="50.91338124103213" lon="6.694364701731251">
				<ele>115.0</ele>
				<time>2011-02-17T16:25:43Z</time>
			</trkpt>
			<trkpt lat="50.91346203851877" lon="6.6945699441189435">
				<ele>115.0</ele>
				<time>2011-02-17T16:25:44Z</time>
			</trkpt>
			<trkpt lat="50.91354442673821" lon="6.694770941844395">
				<ele>114.0</ele>
				<time>2011-02-17T16:25:45Z</time>
			</trkpt>
			<trkpt lat="50.91362548427167" lon="6.6949688442108455">
				<ele>114.0</ele>
				<time>2011-02-17T16:25:46Z</time>
			</trkpt>
			<trkpt lat="50.913705248356464" lon="6.69516517633099">
				<ele>114.0</ele>
				<time>2011-02-17T16:25:47Z</time>
			</trkpt>
			<trkpt lat="50.913784769614416" lon="6.695360636619853">
				<ele>114.0</ele>
				<time>2011-02-17T16:25:48Z</time>
			</trkpt>
			<trkpt lat="50.9138639032471" lon="6.695554070625843">
				<ele>113.0</ele>
				<time>2011-02-17T16:25:49Z</time>
			</trkpt>
			<trkpt lat="50.91394453956213" lon="6.695743840049321">
				<ele>113.0</ele>
				<time>2011-02-17T16:25:50Z</time>
			</trkpt>
			<trkpt lat="50.9140269153937" lon="6.695935174126321">
				<ele>113.0</ele>
				<time>2011-02-17T16:25:51Z</time>
			</trkpt>
			<trkpt lat="50.91410866319416" lon="6.696125624118527">
				<ele>113.0</ele>
				<time>2011-02-17T16:25:52Z</time>
			</trkpt>
			<trkpt lat="50.914188806473916" lon="6.696314182334365">
				<ele>113.0</ele>
				<time>2011-02-17T16:25:53Z</time>
			</trkpt>
			<trkpt lat="50.914269250449635" lon="6.696501717626608">
				<ele>113.0</ele>
				<time>2011-02-17T16:25:54Z</time>
			</trkpt>
			<trkpt lat="50.91435048472744" lon="6.6966906888985465">
				<ele>113.0</ele>
				<time>2011-02-17T16:25:55Z</time>
			</trkpt>
			<trkpt lat="50.91443089304354" lon="6.696879617356144">
				<ele>113.0</ele>
				<time>2011-02-17T16:25:56Z</time>
			</trkpt>
			<trkpt lat="50.9145107208356" lon="6.697069323148321">
				<ele>114.0</ele>
				<time>2011-02-17T16:25:57Z</time>
			</trkpt>
			<trkpt lat="50.91458926199183" lon="6.697259800030593">
				<ele>114.0</ele>
				<time>2011-02-17T16:25:58Z</time>
			</trkpt>
			<trkpt lat="50.914664397199815" lon="6.69745290737291">
				<ele>114.0</ele>
				<time>2011-02-17T16:25:59Z</time>
			</trkpt>
			<trkpt lat="50.9147343756197" lon="6.697645385894322">
				<ele>114.0</ele>
				<time>2011-02-17T16:26:00Z</time>
			</trkpt>
			<trkpt lat="50.91479860704904" lon="6.697841998180776">
				<ele>114.0</ele>
				<time>2011-02-17T16:26:01Z</time>
			</trkpt>
			<trkpt lat="50.91485586269164" lon="6.69804184339638">
				<ele>114.0</ele>
				<time>2011-02-17T16:26:02Z</time>
			</trkpt>
			<trkpt lat="50.914908092456464" lon="6.698244432920816">
				<ele>114.0</ele>
				<time>2011-02-17T16:26:03Z</time>
			</trkpt>
			<trkpt lat="50.91495482888915" lon="6.698450768862232">
				<ele>114.0</ele>
				<time>2011-02-17T16:26:04Z</time>
			</trkpt>
			<trkpt lat="50.91499637945712" lon="6.698660747699814">
				<ele>114.0</ele>
				<time>2011-02-17T16:26:05Z</time>
			</trkpt>
			<trkpt lat="50.9150340540512" lon="6.698870577238113">
				<ele>114.0</ele>
				<time>2011-02-17T16:26:06Z</time>
			</trkpt>
			<trkpt lat="50.91507179362332" lon="6.69907946051452">
				<ele>114.0</ele>
				<time>2011-02-17T16:26:07Z</time>
			</trkpt>
			<trkpt lat="50.91510518567298" lon="6.699285214559719">
				<ele>114.0</ele>
				<time>2011-02-17T16:26:08Z</time>
			</trkpt>
			<trkpt lat="50.91513821677683" lon="6.6994867078951295">
				<ele>114.0</ele>
				<time>2011-02-17T16:26:09Z</time>
			</trkpt>
			<trkpt lat="50.915171117530576" lon="6.699685521475094">
				<ele>114.0</ele>
				<time>2011-02-17T16:26:10Z</time>
			</trkpt>
			<trkpt lat="50.91520333206681" lon="6.699877833678779">
				<ele>114.0</ele>
				<time>2011-02-17T16:26:11Z</time>
			</trkpt>
			<trkpt lat="50.91523598095745" lon="6.70006761368178">
				<ele>114.0</ele>
				<time>2011-02-17T16:26:12Z</time>
			</trkpt>
			<trkpt lat="50.91526629290396" lon="6.700254571062185">
				<ele>114.0</ele>
				<time>2011-02-17T16:26:13Z</time>
			</trkpt>
			<trkpt lat="50.91529681050379" lon="6.700436287686413">
				<ele>114.0</ele>
				<time>2011-02-17T16:26:14Z</time>
			</trkpt>
			<trkpt lat="50.91532722171534" lon="6.700613336116754">
				<ele>115.0</ele>
				<time>2011-02-17T16:26:15Z</time>
			</trkpt>
			<trkpt lat="50.915355928008644" lon="6.70078453501366">
				<ele>115.0</ele>
				<time>2011-02-17T16:26:16Z</time>
			</trkpt>
			<trkpt lat="50.915379636322655" lon="6.700956869692365">
				<ele>115.0</ele>
				<time>2011-02-17T16:26:17Z</time>
			</trkpt>
			<trkpt lat="50.91539920597712" lon="6.701125190972147">
				<ele>115.0</ele>
				<time>2011-02-17T16:26:18Z</time>
			</trkpt>
			<trkpt lat="50.91541459755226" lon="6.70129207598554">
				<ele>115.0</ele>
				<time>2011-02-17T16:26:19Z</time>
			</trkpt>
			<trkpt lat="50.915424250771004" lon="6.7014525546935815">
				<ele>115.0</ele>
				<time>2011-02-17T16:26:20Z</time>
			</trkpt>
			<trkpt lat="50.9154299274814" lon="6.701606220083773">
				<ele>115.0</ele>
				<time>2011-02-17T16:26:21Z</time>
			</trkpt>
			<trkpt lat="50.91543358814706" lon="6.7017569845465434">
				<ele>116.0</ele>
				<time>2011-02-17T16:26:22Z</time>
			</trkpt>
			<trkpt lat="50.91543255001263" lon="6.701904945350043">
				<ele>116.0</ele>
				<time>2011-02-17T16:26:23Z</time>
			</trkpt>
			<trkpt lat="50.91542916706158" lon="6.7020504361631446">
				<ele>116.0</ele>
				<time>2011-02-17T16:26:24Z</time>
			</trkpt>
			<trkpt lat="50.91542357913365" lon="6.702196157309672">
				<ele>116.0</ele>
				<time>2011-02-17T16:26:25Z</time>
			</trkpt>
			<trkpt lat="50.91541613741933" lon="6.702338522667825">
				<ele>117.0</ele>
				<time>2011-02-17T16:26:26Z</time>
			</trkpt>
			<trkpt lat="50.91540415562119" lon="6.702481700621503">
				<ele>117.0</ele>
				<time>2011-02-17T16:26:27Z</time>
			</trkpt>
			<trkpt lat="50.91539048419154" lon="6.702620428171901">
				<ele>117.0</ele>
				<time>2011-02-17T16:26:28Z</time>
			</trkpt>
			<trkpt lat="50.91537501428246" lon="6.702752849838799">
				<ele>117.0</ele>
				<time>2011-02-17T16:26:29Z</time>
			</trkpt>
			<trkpt lat="50.91535745959283" lon="6.702885830437197">
				<ele>118.0</ele>
				<time>2011-02-17T16:26:30Z</time>
			</trkpt>
			<trkpt lat="50.91534015676046" lon="6.703016038457769">
				<ele>118.0</ele>
				<time>2011-02-17T16:26:31Z</time>
			</trkpt>
			<trkpt lat="50.91532320300475" lon="6.703145792932772">
				<ele>118.0</ele>
				<time>2011-02-17T16:26:32Z</time>
			</trkpt>
			<trkpt lat="50.915306563871034" lon="6.7032743697868185">
				<ele>118.0</ele>
				<time>2011-02-17T16:26:33Z</time>
			</trkpt>
			<trkpt lat="50.91528825031683" lon="6.703398555754483">
				<ele>118.0</ele>
				<time>2011-02-17T16:26:34Z</time>
			</trkpt>
			<trkpt lat="50.915271324762536" lon="6.7035181258062515">
				<ele>118.0</ele>
				<time>2011-02-17T16:26:35Z</time>
			</trkpt>
			<trkpt lat="50.91525698815607" lon="6.703632318250251">
				<ele>118.0</ele>
				<time>2011-02-17T16:26:36Z</time>
			</trkpt>
			<trkpt lat="50.91524451585344" lon="6.703733352112033">
				<ele>118.0</ele>
				<time>2011-02-17T16:26:37Z</time>
			</trkpt>
			<trkpt lat="50.91523224252229" lon="6.703814207474736">
				<ele>118.0</ele>
				<time>2011-02-17T16:26:38Z</time>
			</trkpt>
			<trkpt lat="50.91520801858724" lon="6.703879510770732">
				<ele>118.0</ele>
				<time>2011-02-17T16:26:39Z</time>
			</trkpt>
			<trkpt lat="50.91517302045907" lon="6.703910880267237">
				<ele>118.0</ele>
				<time>2011-02-17T16:26:40Z</time>
			</trkpt>
			<trkpt lat="50.91513567973756" lon="6.703929025504751">
				<ele>118.0</ele>
				<time>2011-02-17T16:26:41Z</time>
			</trkpt>
			<trkpt lat="50.91509658202985" lon="6.7039317218888215">
				<ele>118.0</ele>
				<time>2011-02-17T16:26:42Z</time>
			</trkpt>
			<trkpt lat="50.91505601263611" lon="6.703931274125939">
				<ele>119.0</ele>
				<time>2011-02-17T16:26:43Z</time>
			</trkpt>
			<trkpt lat="50.915014509681626" lon="6.703933628964696">
				<ele>119.0</ele>
				<time>2011-02-17T16:26:44Z</time>
			</trkpt>
			<trkpt lat="50.91497370163984" lon="6.703940868848906">
				<ele>119.0</ele>
				<time>2011-02-17T16:26:45Z</time>
			</trkpt>
			<trkpt lat="50.91493992865142" lon="6.703945389519823">
				<ele>119.0</ele>
				<time>2011-02-17T16:26:46Z</time>
			</trkpt>
			<trkpt lat="50.91490639582844" lon="6.703949464788897">
				<ele>119.0</ele>
				<time>2011-02-17T16:26:47Z</time>
			</trkpt>
			<trkpt lat="50.91487438659122" lon="6.7039541854562135">
				<ele>119.0</ele>
				<time>2011-02-17T16:26:48Z</time>
			</trkpt>
			<trkpt lat="50.914842085138694" lon="6.703958717037658">
				<ele>119.0</ele>
				<time>2011-02-17T16:26:49Z</time>
			</trkpt>
			<trkpt lat="50.914809941219616" lon="6.703961917772764">
				<ele>119.0</ele>
				<time>2011-02-17T16:26:50Z</time>
			</trkpt>
			<trkpt lat="50.914778454841205" lon="6.703965144506028">
				<ele>119.0</ele>
				<time>2011-02-17T16:26:51Z</time>
			</trkpt>
			<trkpt lat="50.91474565248474" lon="6.703963589626123">
				<ele>119.0</ele>
				<time>2011-02-17T16:26:52Z</time>
			</trkpt>
			<trkpt lat="50.91470606093995" lon="6.703968934214677">
				<ele>119.0</ele>
				<time>2011-02-17T16:26:53Z</time>
			</trkpt>
			<trkpt lat="50.91465276077119" lon="6.703973642246925">
				<ele>119.0</ele>
				<time>2011-02-17T16:26:54Z</time>
			</trkpt>
			<trkpt lat="50.91459532398919" lon="6.70397797249578">
				<ele>119.0</ele>
				<time>2011-02-17T16:26:55Z</time>
			</trkpt>
			<trkpt lat="50.914533747072" lon="6.70398610411337">
				<ele>120.0</ele>
				<time>2011-02-17T16:26:56Z</time>
			</trkpt>
			<trkpt lat="50.91447508823826" lon="6.703994594821284">
				<ele>120.0</ele>
				<time>2011-02-17T16:26:57Z</time>
			</trkpt>
			<trkpt lat="50.91441697599508" lon="6.704006530381165">
				<ele>120.0</ele>
				<time>2011-02-17T16:26:58Z</time>
			</trkpt>
			<trkpt lat="50.91435826301816" lon="6.704018774636524">
				<ele>120.0</ele>
				<time>2011-02-17T16:26:59Z</time>
			</trkpt>
			<trkpt lat="50.91430032694561" lon="6.704032120210838">
				<ele>120.0</ele>
				<time>2011-02-17T16:27:00Z</time>
			</trkpt>
			<trkpt lat="50.91424471949694" lon="6.704043789711795">
				<ele>121.0</ele>
				<time>2011-02-17T16:27:01Z</time>
			</trkpt>
			<trkpt lat="50.91419053201231" lon="6.70405524660357">
				<ele>121.0</ele>
				<time>2011-02-17T16:27:02Z</time>
			</trkpt>
			<trkpt lat="50.91414273320247" lon="6.704065935669737">
				<ele>121.0</ele>
				<time>2011-02-17T16:27:03Z</time>
			</trkpt>
			<trkpt lat="50.91409731309959" lon="6.704095357236989">
				<ele>121.0</ele>
				<time>2011-02-17T16:27:04Z</time>
			</trkpt>
			<trkpt lat="50.914063034145194" lon="6.704141871405652">
				<ele>121.0</ele>
				<time>2011-02-17T16:27:05Z</time>
			</trkpt>
			<trkpt lat="50.914049697042934" lon="6.704196691589544">
				<ele>121.0</ele>
				<time>2011-02-17T16:27:06Z</time>
			</trkpt>
			<trkpt lat="50.91403836797078" lon="6.704254982747171">
				<ele>121.0</ele>
				<time>2011-02-17T16:27:07Z</time>
			</trkpt>
			<trkpt lat="50.914037360653495" lon="6.70433112967731">
				<ele>121.0</ele>
				<time>2011-02-17T16:27:08Z</time>
			</trkpt>
			<trkpt lat="50.91403923971796" lon="6.704437071732751">
				<ele>121.0</ele>
				<time>2011-02-17T16:27:09Z</time>
			</trkpt>
			<trkpt lat="50.914047950126715" lon="6.704543843522636">
				<ele>121.0</ele>
				<time>2011-02-17T16:27:10Z</time>
			</trkpt>
			<trkpt lat="50.91406006452997" lon="6.704649169212711">
				<ele>121.0</ele>
				<time>2011-02-17T16:27:11Z</time>
			</trkpt>
			<trkpt lat="50.91407338920021" lon="6.704754397210312">
				<ele>121.0</ele>
				<time>2011-02-17T16:27:12Z</time>
			</trkpt>
			<trkpt lat="50.91408687857204" lon="6.704859169791647">
				<ele>121.0</ele>
				<time>2011-02-17T16:27:13Z</time>
			</trkpt>
			<trkpt lat="50.914100022864275" lon="6.704963466967759">
				<ele>120.0</ele>
				<time>2011-02-17T16:27:14Z</time>
			</trkpt>
			<trkpt lat="50.914110980477076" lon="6.705068010030253">
				<ele>120.0</ele>
				<time>2011-02-17T16:27:15Z</time>
			</trkpt>
			<trkpt lat="50.91412139473114" lon="6.7051714059923455">
				<ele>120.0</ele>
				<time>2011-02-17T16:27:16Z</time>
			</trkpt>
			<trkpt lat="50.91412801139495" lon="6.7052773288370355">
				<ele>120.0</ele>
				<time>2011-02-17T16:27:17Z</time>
			</trkpt>
			<trkpt lat="50.914134578518365" lon="6.7053913648160774">
				<ele>120.0</ele>
				<time>2011-02-17T16:27:18Z</time>
			</trkpt>
			<trkpt lat="50.91414115333404" lon="6.705506920364211">
				<ele>120.0</ele>
				<time>2011-02-17T16:27:19Z</time>
			</trkpt>
			<trkpt lat="50.91414900397793" lon="6.705629227050311">
				<ele>120.0</ele>
				<time>2011-02-17T16:27:20Z</time>
			</trkpt>
			<trkpt lat="50.91416080869497" lon="6.705756635907354">
				<ele>120.0</ele>
				<time>2011-02-17T16:27:21Z</time>
			</trkpt>
			<trkpt lat="50.914176544654836" lon="6.705884167655572">
				<ele>120.0</ele>
				<time>2011-02-17T16:27:22Z</time>
			</trkpt>
			<trkpt lat="50.914197729332884" lon="6.706008386935837">
				<ele>120.0</ele>
				<time>2011-02-17T16:27:23Z</time>
			</trkpt>
			<trkpt lat="50.91422402442875" lon="6.706128048591756">
				<ele>120.0</ele>
				<time>2011-02-17T16:27:24Z</time>
			</trkpt>
			<trkpt lat="50.914254232850226" lon="6.70623876489903">
				<ele>120.0</ele>
				<time>2011-02-17T16:27:25Z</time>
			</trkpt>
			<trkpt lat="50.91428514021232" lon="6.706343323497351">
				<ele>120.0</ele>
				<time>2011-02-17T16:27:26Z</time>
			</trkpt>
			<trkpt lat="50.91431504260382" lon="6.706440233222399">
				<ele>121.0</ele>
				<time>2011-02-17T16:27:27Z</time>
			</trkpt>
			<trkpt lat="50.914343884220756" lon="6.706529245208642">
				<ele>121.0</ele>
				<time>2011-02-17T16:27:28Z</time>
			</trkpt>
			<trkpt lat="50.91437278066823" lon="6.7066126544206615">
				<ele>121.0</ele>
				<time>2011-02-17T16:27:29Z</time>
			</trkpt>
			<trkpt lat="50.91441515959776" lon="6.706673089758717">
				<ele>121.0</ele>
				<time>2011-02-17T16:27:30Z</time>
			</trkpt>
			<trkpt lat="50.91446301977693" lon="6.70669697192748">
				<ele>121.0</ele>
				<time>2011-02-17T16:27:31Z</time>
			</trkpt>
			<trkpt lat="50.91451390851315" lon="6.706697941023979">
				<ele>121.0</ele>
				<time>2011-02-17T16:27:32Z</time>
			</trkpt>
			<trkpt lat="50.914564515031" lon="6.706697696552288">
				<ele>121.0</ele>
				<time>2011-02-17T16:27:33Z</time>
			</trkpt>
			<trkpt lat="50.91461208834024" lon="6.70669386288052">
				<ele>121.0</ele>
				<time>2011-02-17T16:27:34Z</time>
			</trkpt>
			<trkpt lat="50.91465536265379" lon="6.706718623145563">
				<ele>121.0</ele>
				<time>2011-02-17T16:27:35Z</time>
			</trkpt>
			<trkpt lat="50.91467932243771" lon="6.706776821161964">
				<ele>121.0</ele>
				<time>2011-02-17T16:27:36Z</time>
			</trkpt>
			<trkpt lat="50.91469000831197" lon="6.706846054968748">
				<ele>121.0</ele>
				<time>2011-02-17T16:27:37Z</time>
			</trkpt>
			<trkpt lat="50.91470017124757" lon="6.7069183364546445">
				<ele>121.0</ele>
				<time>2011-02-17T16:27:38Z</time>
			</trkpt>
			<trkpt lat="50.914710186207124" lon="6.707006187793272">
				<ele>121.0</ele>
				<time>2011-02-17T16:27:39Z</time>
			</trkpt>
			<trkpt lat="50.91472084198977" lon="6.707098518343131">
				<ele>121.0</ele>
				<time>2011-02-17T16:27:40Z</time>
			</trkpt>
			<trkpt lat="50.91473201503747" lon="6.70719486138009">
				<ele>121.0</ele>
				<time>2011-02-17T16:27:41Z</time>
			</trkpt>
			<trkpt lat="50.91473939578736" lon="6.707299648576667">
				<ele>121.0</ele>
				<time>2011-02-17T16:27:42Z</time>
			</trkpt>
			<trkpt lat="50.91474562499143" lon="6.707403138639482">
				<ele>121.0</ele>
				<time>2011-02-17T16:27:43Z</time>
			</trkpt>
			<trkpt lat="50.914749014181105" lon="6.707504766072896">
				<ele>121.0</ele>
				<time>2011-02-17T16:27:44Z</time>
			</trkpt>
			<trkpt lat="50.91475639546809" lon="6.707592913114756">
				<ele>122.0</ele>
				<time>2011-02-17T16:27:45Z</time>
			</trkpt>
			<trkpt lat="50.91477464403504" lon="6.70766049207309">
				<ele>122.0</ele>
				<time>2011-02-17T16:27:46Z</time>
			</trkpt>
			<trkpt lat="50.91480616774897" lon="6.70771360625355">
				<ele>122.0</ele>
				<time>2011-02-17T16:27:47Z</time>
			</trkpt>
			<trkpt lat="50.91484724194097" lon="6.707739528175516">
				<ele>121.0</ele>
				<time>2011-02-17T16:27:48Z</time>
			</trkpt>
			<trkpt lat="50.91489970400292" lon="6.707749931284228">
				<ele>121.0</ele>
				<time>2011-02-17T16:27:49Z</time>
			</trkpt>
			<trkpt lat="50.91496297558751" lon="6.707760594542098">
				<ele>121.0</ele>
				<time>2011-02-17T16:27:50Z</time>
			</trkpt>
			<trkpt lat="50.91503255676916" lon="6.707774426169775">
				<ele>121.0</ele>
				<time>2011-02-17T16:27:51Z</time>
			</trkpt>
			<trkpt lat="50.91510400953643" lon="6.7077888309952005">
				<ele>121.0</ele>
				<time>2011-02-17T16:27:52Z</time>
			</trkpt>
			<trkpt lat="50.91517480674651" lon="6.707803239074473">
				<ele>121.0</ele>
				<time>2011-02-17T16:27:53Z</time>
			</trkpt>
			<trkpt lat="50.9152397628823" lon="6.707816457440187">
				<ele>121.0</ele>
				<time>2011-02-17T16:27:54Z</time>
			</trkpt>
			<trkpt lat="50.9152853946596" lon="6.70782898045296">
				<ele>121.0</ele>
				<time>2011-02-17T16:27:55Z</time>
			</trkpt>
			<trkpt lat="50.91531955811325" lon="6.707836621610164">
				<ele>121.0</ele>
				<time>2011-02-17T16:27:56Z</time>
			</trkpt>
			<trkpt lat="50.915343347192305" lon="6.707842349271979">
				<ele>121.0</ele>
				<time>2011-02-17T16:27:57Z</time>
			</trkpt>
			<trkpt lat="50.915343347192305" lon="6.707842349271979">
				<ele>121.0</ele>
				<time>2011-02-17T16:27:58Z</time>
			</trkpt>
			<trkpt lat="50.915343347192305" lon="6.707842349271979">
				<ele>121.0</ele>
				<time>2011-02-17T16:27:59Z</time>
			</trkpt>
			<trkpt lat="50.915343347192305" lon="6.707842349271979">
				<ele>121.0</ele>
				<time>2011-02-17T16:28:00Z</time>
			</trkpt>
			<trkpt lat="50.915343347192305" lon="6.707842349271979">
				<ele>121.0</ele>
				<time>2011-02-17T16:28:01Z</time>
			</trkpt>
			<trkpt lat="50.915343347192305" lon="6.707842349271979">
				<ele>121.0</ele>
				<time>2011-02-17T16:28:02Z</time>
			</trkpt>
			<trkpt lat="50.915343347192305" lon="6.707842349271979">
				<ele>121.0</ele>
				<time>2011-02-17T16:28:03Z</time>
			</trkpt>
			<trkpt lat="50.915343347192305" lon="6.707842349271979">
				<ele>121.0</ele>
				<time>2011-02-17T16:28:04Z</time>
			</trkpt>
			<trkpt lat="50.915343347192305" lon="6.707842349271979">
				<ele>121.0</ele>
				<time>2011-02-17T16:28:05Z</time>
			</trkpt>
			<trkpt lat="50.915343347192305" lon="6.707842349271979">
				<ele>121.0</ele>
				<time>2011-02-17T16:28:06Z</time>
			</trkpt>
			<trkpt lat="50.915343347192305" lon="6.707842349271979">
				<ele>121.0</ele>
				<time>2011-02-17T16:28:07Z</time>
			</trkpt>
			<trkpt lat="50.91537946387656" lon="6.707883297862248">
				<ele>121.0</ele>
				<time>2011-02-17T16:28:08Z</time>
			</trkpt>
			<trkpt lat="50.915391177818314" lon="6.707925958944917">
				<ele>121.0</ele>
				<time>2011-02-17T16:28:09Z</time>
			</trkpt>
			<trkpt lat="50.91539671924291" lon="6.707966720836158">
				<ele>121.0</ele>
				<time>2011-02-17T16:28:10Z</time>
			</trkpt>
			<trkpt lat="50.91540064086338" lon="6.708004662109137">
				<ele>121.0</ele>
				<time>2011-02-17T16:28:11Z</time>
			</trkpt>
			<trkpt lat="50.91539613931306" lon="6.7080562676380655">
				<ele>121.0</ele>
				<time>2011-02-17T16:28:12Z</time>
			</trkpt>
			<trkpt lat="50.91539118275791" lon="6.70810441442182">
				<ele>121.0</ele>
				<time>2011-02-17T16:28:13Z</time>
			</trkpt>
			<trkpt lat="50.91538653267824" lon="6.70815387573182">
				<ele>121.0</ele>
				<time>2011-02-17T16:28:14Z</time>
			</trkpt>
			<trkpt lat="50.91538104058407" lon="6.708210861559125">
				<ele>121.0</ele>
				<time>2011-02-17T16:28:15Z</time>
			</trkpt>
			<trkpt lat="50.9153740353011" lon="6.708269586225881">
				<ele>121.0</ele>
				<time>2011-02-17T16:28:16Z</time>
			</trkpt>
			<trkpt lat="50.91536659973212" lon="6.7083290696923665">
				<ele>121.0</ele>
				<time>2011-02-17T16:28:17Z</time>
			</trkpt>
			<trkpt lat="50.9153581489906" lon="6.708388256348333">
				<ele>121.0</ele>
				<time>2011-02-17T16:28:18Z</time>
			</trkpt>
			<trkpt lat="50.91534875862333" lon="6.7084553581941355">
				<ele>122.0</ele>
				<time>2011-02-17T16:28:19Z</time>
			</trkpt>
			<trkpt lat="50.91533654429184" lon="6.708540240570409">
				<ele>122.0</ele>
				<time>2011-02-17T16:28:20Z</time>
			</trkpt>
			<trkpt lat="50.91532555217058" lon="6.7086323184821754">
				<ele>122.0</ele>
				<time>2011-02-17T16:28:21Z</time>
			</trkpt>
			<trkpt lat="50.91531515701267" lon="6.708723975805429">
				<ele>122.0</ele>
				<time>2011-02-17T16:28:22Z</time>
			</trkpt>
			<trkpt lat="50.91530589029407" lon="6.708806982185373">
				<ele>122.0</ele>
				<time>2011-02-17T16:28:23Z</time>
			</trkpt>
			<trkpt lat="50.91529910474772" lon="6.708871380135917">
				<ele>123.0</ele>
				<time>2011-02-17T16:28:24Z</time>
			</trkpt>
			<trkpt lat="50.915294315608385" lon="6.708912345281568">
				<ele>123.0</ele>
				<time>2011-02-17T16:28:25Z</time>
			</trkpt>
			<trkpt lat="50.915290493143814" lon="6.708941579035526">
				<ele>123.0</ele>
				<time>2011-02-17T16:28:26Z</time>
			</trkpt>
			<trkpt lat="50.915290493143814" lon="6.708941579035526">
				<ele>123.0</ele>
				<time>2011-02-17T16:28:27Z</time>
			</trkpt>
			<trkpt lat="50.915290493143814" lon="6.708941579035526">
				<ele>123.0</ele>
				<time>2011-02-17T16:28:28Z</time>
			</trkpt>
			<trkpt lat="50.915290493143814" lon="6.708941579035526">
				<ele>123.0</ele>
				<time>2011-02-17T16:28:29Z</time>
			</trkpt>
			<trkpt lat="50.915290493143814" lon="6.708941579035526">
				<ele>123.0</ele>
				<time>2011-02-17T16:28:30Z</time>
			</trkpt>
			<trkpt lat="50.915290493143814" lon="6.708941579035526">
				<ele>123.0</ele>
				<time>2011-02-17T16:28:31Z</time>
			</trkpt>
			<trkpt lat="50.915290493143814" lon="6.708941579035526">
				<ele>123.0</ele>
				<time>2011-02-17T16:28:32Z</time>
			</trkpt>
			<trkpt lat="50.915290493143814" lon="6.708941579035526">
				<ele>123.0</ele>
				<time>2011-02-17T16:28:33Z</time>
			</trkpt>
			<trkpt lat="50.915290493143814" lon="6.708941579035526">
				<ele>123.0</ele>
				<time>2011-02-17T16:28:34Z</time>
			</trkpt>
			<trkpt lat="50.915290493143814" lon="6.708941579035526">
				<ele>123.0</ele>
				<time>2011-02-17T16:28:35Z</time>
			</trkpt>
			<trkpt lat="50.915290493143814" lon="6.708941579035526">
				<ele>123.0</ele>
				<time>2011-02-17T16:28:36Z</time>
			</trkpt>
			<trkpt lat="50.915290493143814" lon="6.708941579035526">
				<ele>123.0</ele>
				<time>2011-02-17T16:28:37Z</time>
			</trkpt>
			<trkpt lat="50.915290493143814" lon="6.708941579035526">
				<ele>123.0</ele>
				<time>2011-02-17T16:28:38Z</time>
			</trkpt>
			<trkpt lat="50.915290493143814" lon="6.708941579035526">
				<ele>123.0</ele>
				<time>2011-02-17T16:28:39Z</time>
			</trkpt>
			<trkpt lat="50.915290493143814" lon="6.708941579035526">
				<ele>123.0</ele>
				<time>2011-02-17T16:28:40Z</time>
			</trkpt>
			<trkpt lat="50.915290493143814" lon="6.708941579035526">
				<ele>123.0</ele>
				<time>2011-02-17T16:28:41Z</time>
			</trkpt>
			<trkpt lat="50.915290493143814" lon="6.708941579035526">
				<ele>123.0</ele>
				<time>2011-02-17T16:28:42Z</time>
			</trkpt>
			<trkpt lat="50.915290493143814" lon="6.708941579035526">
				<ele>123.0</ele>
				<time>2011-02-17T16:28:43Z</time>
			</trkpt>
			<trkpt lat="50.915290493143814" lon="6.708941579035526">
				<ele>123.0</ele>
				<time>2011-02-17T16:28:44Z</time>
			</trkpt>
			<trkpt lat="50.915290493143814" lon="6.708941579035526">
				<ele>123.0</ele>
				<time>2011-02-17T16:28:45Z</time>
			</trkpt>
			<trkpt lat="50.915290493143814" lon="6.708941579035526">
				<ele>123.0</ele>
				<time>2011-02-17T16:28:46Z</time>
			</trkpt>
			<trkpt lat="50.915290493143814" lon="6.708941579035526">
				<ele>123.0</ele>
				<time>2011-02-17T16:28:47Z</time>
			</trkpt>
			<trkpt lat="50.915290493143814" lon="6.708941579035526">
				<ele>123.0</ele>
				<time>2011-02-17T16:28:48Z</time>
			</trkpt>
			<trkpt lat="50.915290493143814" lon="6.708941579035526">
				<ele>123.0</ele>
				<time>2011-02-17T16:28:49Z</time>
			</trkpt>
			<trkpt lat="50.915290493143814" lon="6.708941579035526">
				<ele>123.0</ele>
				<time>2011-02-17T16:28:50Z</time>
			</trkpt>
			<trkpt lat="50.915290493143814" lon="6.708941579035526">
				<ele>123.0</ele>
				<time>2011-02-17T16:28:51Z</time>
			</trkpt>
			<trkpt lat="50.915290493143814" lon="6.708941579035526">
				<ele>123.0</ele>
				<time>2011-02-17T16:28:52Z</time>
			</trkpt>
			<trkpt lat="50.915290493143814" lon="6.708941579035526">
				<ele>123.0</ele>
				<time>2011-02-17T16:28:53Z</time>
			</trkpt>
			<trkpt lat="50.915290493143814" lon="6.708941579035526">
				<ele>123.0</ele>
				<time>2011-02-17T16:28:54Z</time>
			</trkpt>
			<trkpt lat="50.915290493143814" lon="6.708941579035526">
				<ele>123.0</ele>
				<time>2011-02-17T16:28:55Z</time>
			</trkpt>
			<trkpt lat="50.915290493143814" lon="6.708941579035526">
				<ele>123.0</ele>
				<time>2011-02-17T16:28:56Z</time>
			</trkpt>
			<trkpt lat="50.915290493143814" lon="6.708941579035526">
				<ele>123.0</ele>
				<time>2011-02-17T16:28:57Z</time>
			</trkpt>
			<trkpt lat="50.915290493143814" lon="6.708941579035526">
				<ele>123.0</ele>
				<time>2011-02-17T16:28:58Z</time>
			</trkpt>
			<trkpt lat="50.915290493143814" lon="6.708941579035526">
				<ele>123.0</ele>
				<time>2011-02-17T16:28:59Z</time>
			</trkpt>
			<trkpt lat="50.915290493143814" lon="6.708941579035526">
				<ele>123.0</ele>
				<time>2011-02-17T16:29:00Z</time>
			</trkpt>
			<trkpt lat="50.915290493143814" lon="6.708941579035526">
				<ele>123.0</ele>
				<time>2011-02-17T16:29:01Z</time>
			</trkpt>
			<trkpt lat="50.915290493143814" lon="6.708941579035526">
				<ele>123.0</ele>
				<time>2011-02-17T16:29:02Z</time>
			</trkpt>
			<trkpt lat="50.915290493143814" lon="6.708941579035526">
				<ele>123.0</ele>
				<time>2011-02-17T16:29:03Z</time>
			</trkpt>
			<trkpt lat="50.915290493143814" lon="6.708941579035526">
				<ele>123.0</ele>
				<time>2011-02-17T16:29:04Z</time>
			</trkpt>
			<trkpt lat="50.915290493143814" lon="6.708941579035526">
				<ele>123.0</ele>
				<time>2011-02-17T16:29:05Z</time>
			</trkpt>
			<trkpt lat="50.915290493143814" lon="6.708941579035526">
				<ele>123.0</ele>
				<time>2011-02-17T16:29:06Z</time>
			</trkpt>
			<trkpt lat="50.915290493143814" lon="6.708941579035526">
				<ele>123.0</ele>
				<time>2011-02-17T16:29:07Z</time>
			</trkpt>
			<trkpt lat="50.915290493143814" lon="6.708941579035526">
				<ele>123.0</ele>
				<time>2011-02-17T16:29:08Z</time>
			</trkpt>
			<trkpt lat="50.915290493143814" lon="6.708941579035526">
				<ele>123.0</ele>
				<time>2011-02-17T16:29:09Z</time>
			</trkpt>
			<trkpt lat="50.915290493143814" lon="6.708941579035526">
				<ele>123.0</ele>
				<time>2011-02-17T16:29:10Z</time>
			</trkpt>
			<trkpt lat="50.915290493143814" lon="6.708941579035526">
				<ele>123.0</ele>
				<time>2011-02-17T16:29:11Z</time>
			</trkpt>
			<trkpt lat="50.915290493143814" lon="6.708941579035526">
				<ele>123.0</ele>
				<time>2011-02-17T16:29:12Z</time>
			</trkpt>
			<trkpt lat="50.915290493143814" lon="6.708941579035526">
				<ele>123.0</ele>
				<time>2011-02-17T16:29:13Z</time>
			</trkpt>
			<trkpt lat="50.915290493143814" lon="6.708941579035526">
				<ele>123.0</ele>
				<time>2011-02-17T16:29:14Z</time>
			</trkpt>
			<trkpt lat="50.915290493143814" lon="6.708941579035526">
				<ele>123.0</ele>
				<time>2011-02-17T16:29:15Z</time>
			</trkpt>
			<trkpt lat="50.915284399782585" lon="6.709010084924527">
				<ele>123.0</ele>
				<time>2011-02-17T16:29:16Z</time>
			</trkpt>
			<trkpt lat="50.91527989576341" lon="6.709062861070015">
				<ele>123.0</ele>
				<time>2011-02-17T16:29:17Z</time>
			</trkpt>
			<trkpt lat="50.91527237391455" lon="6.709117765758856">
				<ele>124.0</ele>
				<time>2011-02-17T16:29:18Z</time>
			</trkpt>
			<trkpt lat="50.91526211384695" lon="6.709185356896234">
				<ele>125.0</ele>
				<time>2011-02-17T16:29:19Z</time>
			</trkpt>
			<trkpt lat="50.915247859788835" lon="6.709260752526973">
				<ele>125.0</ele>
				<time>2011-02-17T16:29:20Z</time>
			</trkpt>
			<trkpt lat="50.91521908048401" lon="6.70933018685068">
				<ele>125.0</ele>
				<time>2011-02-17T16:29:21Z</time>
			</trkpt>
			<trkpt lat="50.91517771261471" lon="6.709384566451656">
				<ele>126.0</ele>
				<time>2011-02-17T16:29:22Z</time>
			</trkpt>
			<trkpt lat="50.915128973794715" lon="6.709427240365031">
				<ele>126.0</ele>
				<time>2011-02-17T16:29:23Z</time>
			</trkpt>
			<trkpt lat="50.91508437915037" lon="6.709465965924942">
				<ele>126.0</ele>
				<time>2011-02-17T16:29:24Z</time>
			</trkpt>
			<trkpt lat="50.91503613317125" lon="6.709507583809172">
				<ele>126.0</ele>
				<time>2011-02-17T16:29:25Z</time>
			</trkpt>
			<trkpt lat="50.91498667771177" lon="6.709550754160161">
				<ele>126.0</ele>
				<time>2011-02-17T16:29:26Z</time>
			</trkpt>
			<trkpt lat="50.914935598148006" lon="6.709595084289015">
				<ele>126.0</ele>
				<time>2011-02-17T16:29:27Z</time>
			</trkpt>
			<trkpt lat="50.914886003932054" lon="6.709638510021777">
				<ele>126.0</ele>
				<time>2011-02-17T16:29:28Z</time>
			</trkpt>
			<trkpt lat="50.914837124346555" lon="6.709681299587836">
				<ele>126.0</ele>
				<time>2011-02-17T16:29:29Z</time>
			</trkpt>
			<trkpt lat="50.91478723041068" lon="6.709725224167458">
				<ele>126.0</ele>
				<time>2011-02-17T16:29:30Z</time>
			</trkpt>
			<trkpt lat="50.914737096834514" lon="6.709765714867267">
				<ele>126.0</ele>
				<time>2011-02-17T16:29:31Z</time>
			</trkpt>
			<trkpt lat="50.914688299544245" lon="6.709807561772875">
				<ele>126.0</ele>
				<time>2011-02-17T16:29:32Z</time>
			</trkpt>
			<trkpt lat="50.914649965676794" lon="6.709846837549342">
				<ele>126.0</ele>
				<time>2011-02-17T16:29:33Z</time>
			</trkpt>
			<trkpt lat="50.9146163925237" lon="6.709885014885713">
				<ele>126.0</ele>
				<time>2011-02-17T16:29:34Z</time>
			</trkpt>
			<trkpt lat="50.91458365253286" lon="6.709923826296016">
				<ele>126.0</ele>
				<time>2011-02-17T16:29:35Z</time>
			</trkpt>
			<trkpt lat="50.91454759664039" lon="6.709963556599979">
				<ele>125.0</ele>
				<time>2011-02-17T16:29:36Z</time>
			</trkpt>
			<trkpt lat="50.91451126537733" lon="6.710001276188961">
				<ele>125.0</ele>
				<time>2011-02-17T16:29:37Z</time>
			</trkpt>
			<trkpt lat="50.91447377887823" lon="6.71003493861967">
				<ele>125.0</ele>
				<time>2011-02-17T16:29:38Z</time>
			</trkpt>
			<trkpt lat="50.914439411200156" lon="6.710063532325391">
				<ele>125.0</ele>
				<time>2011-02-17T16:29:39Z</time>
			</trkpt>
			<trkpt lat="50.91440624162133" lon="6.710089685586226">
				<ele>125.0</ele>
				<time>2011-02-17T16:29:40Z</time>
			</trkpt>
			<trkpt lat="50.914370042168315" lon="6.710116496751524">
				<ele>125.0</ele>
				<time>2011-02-17T16:29:41Z</time>
			</trkpt>
			<trkpt lat="50.914325015022065" lon="6.710146908320186">
				<ele>124.0</ele>
				<time>2011-02-17T16:29:42Z</time>
			</trkpt>
			<trkpt lat="50.91427462656778" lon="6.710179576198911">
				<ele>124.0</ele>
				<time>2011-02-17T16:29:43Z</time>
			</trkpt>
			<trkpt lat="50.91420634452575" lon="6.710215984361501">
				<ele>123.0</ele>
				<time>2011-02-17T16:29:44Z</time>
			</trkpt>
			<trkpt lat="50.91414063833935" lon="6.710249247381231">
				<ele>123.0</ele>
				<time>2011-02-17T16:29:45Z</time>
			</trkpt>
			<trkpt lat="50.91407762540971" lon="6.710281021387383">
				<ele>123.0</ele>
				<time>2011-02-17T16:29:46Z</time>
			</trkpt>
			<trkpt lat="50.914020049812464" lon="6.7103114880757655">
				<ele>122.0</ele>
				<time>2011-02-17T16:29:47Z</time>
			</trkpt>
			<trkpt lat="50.91397028595648" lon="6.710341668730144">
				<ele>122.0</ele>
				<time>2011-02-17T16:29:48Z</time>
			</trkpt>
			<trkpt lat="50.91391507708605" lon="6.710374932004743">
				<ele>122.0</ele>
				<time>2011-02-17T16:29:49Z</time>
			</trkpt>
			<trkpt lat="50.91385054364549" lon="6.710414171441069">
				<ele>122.0</ele>
				<time>2011-02-17T16:29:50Z</time>
			</trkpt>
			<trkpt lat="50.913779150661604" lon="6.710458329673023">
				<ele>122.0</ele>
				<time>2011-02-17T16:29:51Z</time>
			</trkpt>
			<trkpt lat="50.91370837927521" lon="6.710501220221356">
				<ele>122.0</ele>
				<time>2011-02-17T16:29:52Z</time>
			</trkpt>
			<trkpt lat="50.913639244726845" lon="6.710541712281793">
				<ele>122.0</ele>
				<time>2011-02-17T16:29:53Z</time>
			</trkpt>
			<trkpt lat="50.91357211859382" lon="6.710580718275015">
				<ele>122.0</ele>
				<time>2011-02-17T16:29:54Z</time>
			</trkpt>
			<trkpt lat="50.913510228954664" lon="6.710616518779682">
				<ele>122.0</ele>
				<time>2011-02-17T16:29:55Z</time>
			</trkpt>
			<trkpt lat="50.91345056700959" lon="6.7106504952968775">
				<ele>122.0</ele>
				<time>2011-02-17T16:29:56Z</time>
			</trkpt>
			<trkpt lat="50.91339554516573" lon="6.710683193886845">
				<ele>122.0</ele>
				<time>2011-02-17T16:29:57Z</time>
			</trkpt>
			<trkpt lat="50.913339953727245" lon="6.710719692346193">
				<ele>121.0</ele>
				<time>2011-02-17T16:29:58Z</time>
			</trkpt>
			<trkpt lat="50.913279957522555" lon="6.7107626069846">
				<ele>121.0</ele>
				<time>2011-02-17T16:29:59Z</time>
			</trkpt>
			<trkpt lat="50.91321133537989" lon="6.710809359281416">
				<ele>121.0</ele>
				<time>2011-02-17T16:30:00Z</time>
			</trkpt>
			<trkpt lat="50.9131359535579" lon="6.710859372746381">
				<ele>120.0</ele>
				<time>2011-02-17T16:30:01Z</time>
			</trkpt>
			<trkpt lat="50.91305844105027" lon="6.710908101067952">
				<ele>120.0</ele>
				<time>2011-02-17T16:30:02Z</time>
			</trkpt>
			<trkpt lat="50.912977623152806" lon="6.710959620084134">
				<ele>120.0</ele>
				<time>2011-02-17T16:30:03Z</time>
			</trkpt>
			<trkpt lat="50.91289352630079" lon="6.711013009454274">
				<ele>119.0</ele>
				<time>2011-02-17T16:30:04Z</time>
			</trkpt>
			<trkpt lat="50.912802361090925" lon="6.7110705656590595">
				<ele>119.0</ele>
				<time>2011-02-17T16:30:05Z</time>
			</trkpt>
			<trkpt lat="50.91271061349515" lon="6.711127245797779">
				<ele>119.0</ele>
				<time>2011-02-17T16:30:06Z</time>
			</trkpt>
			<trkpt lat="50.91261845928277" lon="6.711175747568035">
				<ele>119.0</ele>
				<time>2011-02-17T16:30:07Z</time>
			</trkpt>
			<trkpt lat="50.91252984736642" lon="6.711213221463369">
				<ele>119.0</ele>
				<time>2011-02-17T16:30:08Z</time>
			</trkpt>
			<trkpt lat="50.91244533221049" lon="6.711244503371505">
				<ele>119.0</ele>
				<time>2011-02-17T16:30:09Z</time>
			</trkpt>
			<trkpt lat="50.912373588854436" lon="6.711271227984253">
				<ele>119.0</ele>
				<time>2011-02-17T16:30:10Z</time>
			</trkpt>
			<trkpt lat="50.91230923180035" lon="6.711296196605462">
				<ele>119.0</ele>
				<time>2011-02-17T16:30:11Z</time>
			</trkpt>
			<trkpt lat="50.912248093555284" lon="6.711320181177014">
				<ele>119.0</ele>
				<time>2011-02-17T16:30:12Z</time>
			</trkpt>
			<trkpt lat="50.91218799483843" lon="6.7113435676879805">
				<ele>119.0</ele>
				<time>2011-02-17T16:30:13Z</time>
			</trkpt>
			<trkpt lat="50.91212594080308" lon="6.7113655420380285">
				<ele>119.0</ele>
				<time>2011-02-17T16:30:14Z</time>
			</trkpt>
			<trkpt lat="50.91206121989886" lon="6.711389087619739">
				<ele>119.0</ele>
				<time>2011-02-17T16:30:15Z</time>
			</trkpt>
			<trkpt lat="50.911993571370445" lon="6.711410709316164">
				<ele>119.0</ele>
				<time>2011-02-17T16:30:16Z</time>
			</trkpt>
			<trkpt lat="50.91192565136395" lon="6.711429973353618">
				<ele>119.0</ele>
				<time>2011-02-17T16:30:17Z</time>
			</trkpt>
			<trkpt lat="50.911858082272154" lon="6.7114490463017855">
				<ele>119.0</ele>
				<time>2011-02-17T16:30:18Z</time>
			</trkpt>
			<trkpt lat="50.911791119390095" lon="6.7114652618379145">
				<ele>119.0</ele>
				<time>2011-02-17T16:30:19Z</time>
			</trkpt>
			<trkpt lat="50.91172336826958" lon="6.711482483828606">
				<ele>119.0</ele>
				<time>2011-02-17T16:30:20Z</time>
			</trkpt>
			<trkpt lat="50.91165394300796" lon="6.7115030313310955">
				<ele>119.0</ele>
				<time>2011-02-17T16:30:21Z</time>
			</trkpt>
			<trkpt lat="50.91158425054181" lon="6.711524325191219">
				<ele>119.0</ele>
				<time>2011-02-17T16:30:22Z</time>
			</trkpt>
			<trkpt lat="50.91151629357035" lon="6.711544451776466">
				<ele>119.0</ele>
				<time>2011-02-17T16:30:23Z</time>
			</trkpt>
			<trkpt lat="50.91145022699662" lon="6.711561511807693">
				<ele>119.0</ele>
				<time>2011-02-17T16:30:24Z</time>
			</trkpt>
			<trkpt lat="50.911396797088315" lon="6.711575662372704">
				<ele>120.0</ele>
				<time>2011-02-17T16:30:25Z</time>
			</trkpt>
			<trkpt lat="50.911347337858125" lon="6.711586689270439">
				<ele>120.0</ele>
				<time>2011-02-17T16:30:26Z</time>
			</trkpt>
			<trkpt lat="50.911305199699974" lon="6.711596985500511">
				<ele>120.0</ele>
				<time>2011-02-17T16:30:27Z</time>
			</trkpt>
			<trkpt lat="50.91126540747199" lon="6.711606692170269">
				<ele>120.0</ele>
				<time>2011-02-17T16:30:28Z</time>
			</trkpt>
			<trkpt lat="50.91122076732673" lon="6.711618194852857">
				<ele>120.0</ele>
				<time>2011-02-17T16:30:29Z</time>
			</trkpt>
			<trkpt lat="50.91116674789274" lon="6.711628124643939">
				<ele>121.0</ele>
				<time>2011-02-17T16:30:30Z</time>
			</trkpt>
			<trkpt lat="50.91111769727007" lon="6.711633526447376">
				<ele>121.0</ele>
				<time>2011-02-17T16:30:31Z</time>
			</trkpt>
			<trkpt lat="50.91107376451368" lon="6.711637681376339">
				<ele>121.0</ele>
				<time>2011-02-17T16:30:32Z</time>
			</trkpt>
			<trkpt lat="50.911036904784645" lon="6.711641433519364">
				<ele>121.0</ele>
				<time>2011-02-17T16:30:33Z</time>
			</trkpt>
			<trkpt lat="50.911004394911735" lon="6.711647377786206">
				<ele>121.0</ele>
				<time>2011-02-17T16:30:34Z</time>
			</trkpt>
			<trkpt lat="50.910975732316096" lon="6.711652679822888">
				<ele>121.0</ele>
				<time>2011-02-17T16:30:35Z</time>
			</trkpt>
			<trkpt lat="50.910945488398696" lon="6.711659464194424">
				<ele>121.0</ele>
				<time>2011-02-17T16:30:36Z</time>
			</trkpt>
			<trkpt lat="50.91090980355564" lon="6.71166754554893">
				<ele>121.0</ele>
				<time>2011-02-17T16:30:37Z</time>
			</trkpt>
			<trkpt lat="50.91086317585768" lon="6.71168035298089">
				<ele>121.0</ele>
				<time>2011-02-17T16:30:38Z</time>
			</trkpt>
			<trkpt lat="50.91080186322669" lon="6.711699592854546">
				<ele>121.0</ele>
				<time>2011-02-17T16:30:39Z</time>
			</trkpt>
			<trkpt lat="50.91073919570007" lon="6.711719207119333">
				<ele>121.0</ele>
				<time>2011-02-17T16:30:40Z</time>
			</trkpt>
			<trkpt lat="50.910663062944245" lon="6.711738651206811">
				<ele>121.0</ele>
				<time>2011-02-17T16:30:41Z</time>
			</trkpt>
			<trkpt lat="50.91057710387997" lon="6.711755146192925">
				<ele>121.0</ele>
				<time>2011-02-17T16:30:42Z</time>
			</trkpt>
			<trkpt lat="50.91048427711103" lon="6.711765675481512">
				<ele>122.0</ele>
				<time>2011-02-17T16:30:43Z</time>
			</trkpt>
			<trkpt lat="50.91038850524264" lon="6.711775007323696">
				<ele>122.0</ele>
				<time>2011-02-17T16:30:44Z</time>
			</trkpt>
			<trkpt lat="50.91028853429531" lon="6.7117821378574645">
				<ele>122.0</ele>
				<time>2011-02-17T16:30:45Z</time>
			</trkpt>
			<trkpt lat="50.91018472064912" lon="6.71178974730954">
				<ele>123.0</ele>
				<time>2011-02-17T16:30:46Z</time>
			</trkpt>
			<trkpt lat="50.910081642412486" lon="6.711792588152794">
				<ele>123.0</ele>
				<time>2011-02-17T16:30:47Z</time>
			</trkpt>
			<trkpt lat="50.909979259940236" lon="6.711794626770108">
				<ele>123.0</ele>
				<time>2011-02-17T16:30:48Z</time>
			</trkpt>
			<trkpt lat="50.909884989285885" lon="6.711796552595347">
				<ele>123.0</ele>
				<time>2011-02-17T16:30:49Z</time>
			</trkpt>
			<trkpt lat="50.90981629233378" lon="6.711798765444069">
				<ele>123.0</ele>
				<time>2011-02-17T16:30:50Z</time>
			</trkpt>
			<trkpt lat="50.9097654764392" lon="6.711800958037548">
				<ele>123.0</ele>
				<time>2011-02-17T16:30:51Z</time>
			</trkpt>
			<trkpt lat="50.90973438864632" lon="6.711803106750699">
				<ele>123.0</ele>
				<time>2011-02-17T16:30:52Z</time>
			</trkpt>
			<trkpt lat="50.90973438864632" lon="6.711803106750699">
				<ele>123.0</ele>
				<time>2011-02-17T16:30:53Z</time>
			</trkpt>
			<trkpt lat="50.90973438864632" lon="6.711803106750699">
				<ele>123.0</ele>
				<time>2011-02-17T16:30:54Z</time>
			</trkpt>
			<trkpt lat="50.90968045103362" lon="6.711806933380963">
				<ele>123.0</ele>
				<time>2011-02-17T16:30:55Z</time>
			</trkpt>
			<trkpt lat="50.90968045103362" lon="6.711806933380963">
				<ele>123.0</ele>
				<time>2011-02-17T16:30:56Z</time>
			</trkpt>
			<trkpt lat="50.90968045103362" lon="6.711806933380963">
				<ele>123.0</ele>
				<time>2011-02-17T16:30:57Z</time>
			</trkpt>
			<trkpt lat="50.90968045103362" lon="6.711806933380963">
				<ele>123.0</ele>
				<time>2011-02-17T16:30:58Z</time>
			</trkpt>
			<trkpt lat="50.90968045103362" lon="6.711806933380963">
				<ele>123.0</ele>
				<time>2011-02-17T16:30:59Z</time>
			</trkpt>
			<trkpt lat="50.90968045103362" lon="6.711806933380963">
				<ele>123.0</ele>
				<time>2011-02-17T16:31:00Z</time>
			</trkpt>
			<trkpt lat="50.90968045103362" lon="6.711806933380963">
				<ele>123.0</ele>
				<time>2011-02-17T16:31:01Z</time>
			</trkpt>
			<trkpt lat="50.90968045103362" lon="6.711806933380963">
				<ele>123.0</ele>
				<time>2011-02-17T16:31:02Z</time>
			</trkpt>
			<trkpt lat="50.90968045103362" lon="6.711806933380963">
				<ele>123.0</ele>
				<time>2011-02-17T16:31:03Z</time>
			</trkpt>
			<trkpt lat="50.90968045103362" lon="6.711806933380963">
				<ele>123.0</ele>
				<time>2011-02-17T16:31:04Z</time>
			</trkpt>
			<trkpt lat="50.90968045103362" lon="6.711806933380963">
				<ele>123.0</ele>
				<time>2011-02-17T16:31:05Z</time>
			</trkpt>
			<trkpt lat="50.90968045103362" lon="6.711806933380963">
				<ele>123.0</ele>
				<time>2011-02-17T16:31:06Z</time>
			</trkpt>
			<trkpt lat="50.90968045103362" lon="6.711806933380963">
				<ele>123.0</ele>
				<time>2011-02-17T16:31:07Z</time>
			</trkpt>
			<trkpt lat="50.90968045103362" lon="6.711806933380963">
				<ele>123.0</ele>
				<time>2011-02-17T16:31:08Z</time>
			</trkpt>
			<trkpt lat="50.90968045103362" lon="6.711806933380963">
				<ele>123.0</ele>
				<time>2011-02-17T16:31:09Z</time>
			</trkpt>
			<trkpt lat="50.90968045103362" lon="6.711806933380963">
				<ele>123.0</ele>
				<time>2011-02-17T16:31:10Z</time>
			</trkpt>
			<trkpt lat="50.90962194142164" lon="6.711807538831623">
				<ele>123.0</ele>
				<time>2011-02-17T16:31:11Z</time>
			</trkpt>
			<trkpt lat="50.90958510876213" lon="6.711807272062819">
				<ele>123.0</ele>
				<time>2011-02-17T16:31:12Z</time>
			</trkpt>
			<trkpt lat="50.909547034860175" lon="6.71180653965509">
				<ele>124.0</ele>
				<time>2011-02-17T16:31:13Z</time>
			</trkpt>
			<trkpt lat="50.90950124117208" lon="6.711808418405017">
				<ele>124.0</ele>
				<time>2011-02-17T16:31:14Z</time>
			</trkpt>
			<trkpt lat="50.90944219518929" lon="6.711811750006284">
				<ele>124.0</ele>
				<time>2011-02-17T16:31:15Z</time>
			</trkpt>
			<trkpt lat="50.90938379949057" lon="6.711815491043471">
				<ele>124.0</ele>
				<time>2011-02-17T16:31:16Z</time>
			</trkpt>
			<trkpt lat="50.909326479903015" lon="6.711815421214299">
				<ele>124.0</ele>
				<time>2011-02-17T16:31:17Z</time>
			</trkpt>
			<trkpt lat="50.909272132386285" lon="6.711813113726302">
				<ele>124.0</ele>
				<time>2011-02-17T16:31:18Z</time>
			</trkpt>
			<trkpt lat="50.909220377098464" lon="6.711811968827729">
				<ele>124.0</ele>
				<time>2011-02-17T16:31:19Z</time>
			</trkpt>
			<trkpt lat="50.909175559755305" lon="6.711848362063887">
				<ele>124.0</ele>
				<time>2011-02-17T16:31:20Z</time>
			</trkpt>
			<trkpt lat="50.9091448586008" lon="6.711895612224058">
				<ele>124.0</ele>
				<time>2011-02-17T16:31:21Z</time>
			</trkpt>
			<trkpt lat="50.9091385677194" lon="6.7119625864828105">
				<ele>124.0</ele>
				<time>2011-02-17T16:31:22Z</time>
			</trkpt>
			<trkpt lat="50.90914964389831" lon="6.71204724763741">
				<ele>124.0</ele>
				<time>2011-02-17T16:31:23Z</time>
			</trkpt>
			<trkpt lat="50.90916691647373" lon="6.712154395133976">
				<ele>123.0</ele>
				<time>2011-02-17T16:31:24Z</time>
			</trkpt>
			<trkpt lat="50.909187127210174" lon="6.712263827370649">
				<ele>123.0</ele>
				<time>2011-02-17T16:31:25Z</time>
			</trkpt>
			<trkpt lat="50.90921405446095" lon="6.712378918176951">
				<ele>123.0</ele>
				<time>2011-02-17T16:31:26Z</time>
			</trkpt>
			<trkpt lat="50.9092475991583" lon="6.712498594670518">
				<ele>123.0</ele>
				<time>2011-02-17T16:31:27Z</time>
			</trkpt>
			<trkpt lat="50.909288319357515" lon="6.712619201127451">
				<ele>123.0</ele>
				<time>2011-02-17T16:31:28Z</time>
			</trkpt>
			<trkpt lat="50.90933437075519" lon="6.712740328127312">
				<ele>123.0</ele>
				<time>2011-02-17T16:31:29Z</time>
			</trkpt>
			<trkpt lat="50.909380906604014" lon="6.712861539687656">
				<ele>123.0</ele>
				<time>2011-02-17T16:31:30Z</time>
			</trkpt>
			<trkpt lat="50.90942575373188" lon="6.712982507197944">
				<ele>123.0</ele>
				<time>2011-02-17T16:31:31Z</time>
			</trkpt>
			<trkpt lat="50.90946774867453" lon="6.713101044182793">
				<ele>123.0</ele>
				<time>2011-02-17T16:31:32Z</time>
			</trkpt>
			<trkpt lat="50.90950669235865" lon="6.71321457395668">
				<ele>123.0</ele>
				<time>2011-02-17T16:31:33Z</time>
			</trkpt>
			<trkpt lat="50.90953904808267" lon="6.713323113831293">
				<ele>124.0</ele>
				<time>2011-02-17T16:31:34Z</time>
			</trkpt>
			<trkpt lat="50.90956635078313" lon="6.71342763587153">
				<ele>124.0</ele>
				<time>2011-02-17T16:31:35Z</time>
			</trkpt>
			<trkpt lat="50.909590509423445" lon="6.713530699731719">
				<ele>124.0</ele>
				<time>2011-02-17T16:31:36Z</time>
			</trkpt>
			<trkpt lat="50.90961369040443" lon="6.713630293228831">
				<ele>124.0</ele>
				<time>2011-02-17T16:31:37Z</time>
			</trkpt>
			<trkpt lat="50.90963423400657" lon="6.71372286717325">
				<ele>124.0</ele>
				<time>2011-02-17T16:31:38Z</time>
			</trkpt>
			<trkpt lat="50.909655459964505" lon="6.713817402596336">
				<ele>124.0</ele>
				<time>2011-02-17T16:31:39Z</time>
			</trkpt>
			<trkpt lat="50.90967709175097" lon="6.713913578498947">
				<ele>124.0</ele>
				<time>2011-02-17T16:31:40Z</time>
			</trkpt>
			<trkpt lat="50.90969747872642" lon="6.714004556429845">
				<ele>124.0</ele>
				<time>2011-02-17T16:31:41Z</time>
			</trkpt>
			<trkpt lat="50.9097130837446" lon="6.714076431740621">
				<ele>124.0</ele>
				<time>2011-02-17T16:31:42Z</time>
			</trkpt>
			<trkpt lat="50.9097255222323" lon="6.714126800175616">
				<ele>124.0</ele>
				<time>2011-02-17T16:31:43Z</time>
			</trkpt>
			<trkpt lat="50.90974750732732" lon="6.714161153293657">
				<ele>124.0</ele>
				<time>2011-02-17T16:31:44Z</time>
			</trkpt>
			<trkpt lat="50.909776580155324" lon="6.7141772302807246">
				<ele>124.0</ele>
				<time>2011-02-17T16:31:45Z</time>
			</trkpt>
			<trkpt lat="50.909812589338706" lon="6.714172205487374">
				<ele>124.0</ele>
				<time>2011-02-17T16:31:46Z</time>
			</trkpt>
			<trkpt lat="50.909856518118964" lon="6.714161956191517">
				<ele>124.0</ele>
				<time>2011-02-17T16:31:47Z</time>
			</trkpt>
			<trkpt lat="50.90992104112854" lon="6.714138315621058">
				<ele>123.0</ele>
				<time>2011-02-17T16:31:48Z</time>
			</trkpt>
			<trkpt lat="50.90999364562339" lon="6.714105932580864">
				<ele>123.0</ele>
				<time>2011-02-17T16:31:49Z</time>
			</trkpt>
			<trkpt lat="50.91006786219172" lon="6.7140717891146355">
				<ele>122.0</ele>
				<time>2011-02-17T16:31:50Z</time>
			</trkpt>
			<trkpt lat="50.91014353326608" lon="6.714036076112427">
				<ele>122.0</ele>
				<time>2011-02-17T16:31:51Z</time>
			</trkpt>
			<trkpt lat="50.91021960204883" lon="6.713994213959084">
				<ele>122.0</ele>
				<time>2011-02-17T16:31:52Z</time>
			</trkpt>
			<trkpt lat="50.91030410521898" lon="6.713942500887676">
				<ele>122.0</ele>
				<time>2011-02-17T16:31:53Z</time>
			</trkpt>
			<trkpt lat="50.91038782402366" lon="6.713881200021716">
				<ele>122.0</ele>
				<time>2011-02-17T16:31:54Z</time>
			</trkpt>
			<trkpt lat="50.910470809603446" lon="6.713816822976006">
				<ele>122.0</ele>
				<time>2011-02-17T16:31:55Z</time>
			</trkpt>
			<trkpt lat="50.91055157972232" lon="6.713749130181485">
				<ele>122.0</ele>
				<time>2011-02-17T16:31:56Z</time>
			</trkpt>
			<trkpt lat="50.910630181189234" lon="6.713684056314554">
				<ele>122.0</ele>
				<time>2011-02-17T16:31:57Z</time>
			</trkpt>
			<trkpt lat="50.91070673651383" lon="6.7136217827502485">
				<ele>122.0</ele>
				<time>2011-02-17T16:31:58Z</time>
			</trkpt>
			<trkpt lat="50.91077287246107" lon="6.713567718804184">
				<ele>123.0</ele>
				<time>2011-02-17T16:31:59Z</time>
			</trkpt>
			<trkpt lat="50.91084007188247" lon="6.71351321483705">
				<ele>123.0</ele>
				<time>2011-02-17T16:32:00Z</time>
			</trkpt>
			<trkpt lat="50.910907436755195" lon="6.713464094866463">
				<ele>123.0</ele>
				<time>2011-02-17T16:32:01Z</time>
			</trkpt>
			<trkpt lat="50.9109714960906" lon="6.713419642328894">
				<ele>123.0</ele>
				<time>2011-02-17T16:32:02Z</time>
			</trkpt>
			<trkpt lat="50.91103679173152" lon="6.713386161877904">
				<ele>123.0</ele>
				<time>2011-02-17T16:32:03Z</time>
			</trkpt>
			<trkpt lat="50.91110681052892" lon="6.71338043831776">
				<ele>123.0</ele>
				<time>2011-02-17T16:32:04Z</time>
			</trkpt>
			<trkpt lat="50.911179774149495" lon="6.713374778708192">
				<ele>122.0</ele>
				<time>2011-02-17T16:32:05Z</time>
			</trkpt>
			<trkpt lat="50.911254803519185" lon="6.7133654996757155">
				<ele>122.0</ele>
				<time>2011-02-17T16:32:06Z</time>
			</trkpt>
			<trkpt lat="50.911333480402774" lon="6.713348467356249">
				<ele>122.0</ele>
				<time>2011-02-17T16:32:07Z</time>
			</trkpt>
			<trkpt lat="50.91141063070728" lon="6.713323262767763">
				<ele>122.0</ele>
				<time>2011-02-17T16:32:08Z</time>
			</trkpt>
			<trkpt lat="50.91148591328497" lon="6.713289674555222">
				<ele>122.0</ele>
				<time>2011-02-17T16:32:09Z</time>
			</trkpt>
			<trkpt lat="50.91155963008232" lon="6.713242293160961">
				<ele>122.0</ele>
				<time>2011-02-17T16:32:10Z</time>
			</trkpt>
			<trkpt lat="50.91163605563577" lon="6.713202969720673">
				<ele>122.0</ele>
				<time>2011-02-17T16:32:11Z</time>
			</trkpt>
			<trkpt lat="50.91171272894835" lon="6.713166207526066">
				<ele>122.0</ele>
				<time>2011-02-17T16:32:12Z</time>
			</trkpt>
			<trkpt lat="50.91178851044023" lon="6.71312543570978">
				<ele>122.0</ele>
				<time>2011-02-17T16:32:13Z</time>
			</trkpt>
			<trkpt lat="50.91186472296256" lon="6.713095046849565">
				<ele>123.0</ele>
				<time>2011-02-17T16:32:14Z</time>
			</trkpt>
			<trkpt lat="50.911939456135244" lon="6.713067357830402">
				<ele>123.0</ele>
				<time>2011-02-17T16:32:15Z</time>
			</trkpt>
			<trkpt lat="50.91199321698655" lon="6.7130455081904685">
				<ele>123.0</ele>
				<time>2011-02-17T16:32:16Z</time>
			</trkpt>
			<trkpt lat="50.91203529341405" lon="6.713029147589633">
				<ele>123.0</ele>
				<time>2011-02-17T16:32:17Z</time>
			</trkpt>
			<trkpt lat="50.91206657592012" lon="6.7130327170147925">
				<ele>123.0</ele>
				<time>2011-02-17T16:32:18Z</time>
			</trkpt>
			<trkpt lat="50.91208510025425" lon="6.713045696740187">
				<ele>123.0</ele>
				<time>2011-02-17T16:32:19Z</time>
			</trkpt>
			<trkpt lat="50.912102895745505" lon="6.713075127912958">
				<ele>123.0</ele>
				<time>2011-02-17T16:32:20Z</time>
			</trkpt>
			<trkpt lat="50.91211977881807" lon="6.713123762299429">
				<ele>123.0</ele>
				<time>2011-02-17T16:32:21Z</time>
			</trkpt>
			<trkpt lat="50.9121279652349" lon="6.713196310626699">
				<ele>123.0</ele>
				<time>2011-02-17T16:32:22Z</time>
			</trkpt>
			<trkpt lat="50.91213279557614" lon="6.713281169084516">
				<ele>124.0</ele>
				<time>2011-02-17T16:32:23Z</time>
			</trkpt>
			<trkpt lat="50.9121363791583" lon="6.713368313799286">
				<ele>124.0</ele>
				<time>2011-02-17T16:32:24Z</time>
			</trkpt>
			<trkpt lat="50.9121329789297" lon="6.7134963118739375">
				<ele>124.0</ele>
				<time>2011-02-17T16:32:25Z</time>
			</trkpt>
			<trkpt lat="50.91212419628167" lon="6.713627059613877">
				<ele>125.0</ele>
				<time>2011-02-17T16:32:26Z</time>
			</trkpt>
			<trkpt lat="50.91210982824868" lon="6.713763093462587">
				<ele>125.0</ele>
				<time>2011-02-17T16:32:27Z</time>
			</trkpt>
			<trkpt lat="50.91209039967946" lon="6.71390821822994">
				<ele>125.0</ele>
				<time>2011-02-17T16:32:28Z</time>
			</trkpt>
			<trkpt lat="50.91206665182372" lon="6.71406016752192">
				<ele>125.0</ele>
				<time>2011-02-17T16:32:29Z</time>
			</trkpt>
			<trkpt lat="50.912036628748545" lon="6.714228732284008">
				<ele>125.0</ele>
				<time>2011-02-17T16:32:30Z</time>
			</trkpt>
			<trkpt lat="50.912001652770776" lon="6.714407237179887">
				<ele>125.0</ele>
				<time>2011-02-17T16:32:31Z</time>
			</trkpt>
			<trkpt lat="50.91196431206036" lon="6.714580824289883">
				<ele>125.0</ele>
				<time>2011-02-17T16:32:32Z</time>
			</trkpt>
			<trkpt lat="50.9119277147341" lon="6.714750629470024">
				<ele>126.0</ele>
				<time>2011-02-17T16:32:33Z</time>
			</trkpt>
			<trkpt lat="50.911892572784566" lon="6.714915630555685">
				<ele>126.0</ele>
				<time>2011-02-17T16:32:34Z</time>
			</trkpt>
			<trkpt lat="50.91185971269549" lon="6.715081313971642">
				<ele>126.0</ele>
				<time>2011-02-17T16:32:35Z</time>
			</trkpt>
			<trkpt lat="50.91183331452489" lon="6.71524967857698">
				<ele>126.0</ele>
				<time>2011-02-17T16:32:36Z</time>
			</trkpt>
			<trkpt lat="50.91181241134418" lon="6.715420535548184">
				<ele>126.0</ele>
				<time>2011-02-17T16:32:37Z</time>
			</trkpt>
			<trkpt lat="50.91179855844437" lon="6.715593775784714">
				<ele>126.0</ele>
				<time>2011-02-17T16:32:38Z</time>
			</trkpt>
			<trkpt lat="50.911791826342764" lon="6.715766752122239">
				<ele>126.0</ele>
				<time>2011-02-17T16:32:39Z</time>
			</trkpt>
			<trkpt lat="50.911791680929866" lon="6.715938632638636">
				<ele>126.0</ele>
				<time>2011-02-17T16:32:40Z</time>
			</trkpt>
			<trkpt lat="50.91179694354348" lon="6.716108368303363">
				<ele>126.0</ele>
				<time>2011-02-17T16:32:41Z</time>
			</trkpt>
			<trkpt lat="50.91180548560217" lon="6.716274152977823">
				<ele>126.0</ele>
				<time>2011-02-17T16:32:42Z</time>
			</trkpt>
			<trkpt lat="50.91181577616935" lon="6.716436149361059">
				<ele>126.0</ele>
				<time>2011-02-17T16:32:43Z</time>
			</trkpt>
			<trkpt lat="50.91182459453393" lon="6.71659721528146">
				<ele>126.0</ele>
				<time>2011-02-17T16:32:44Z</time>
			</trkpt>
			<trkpt lat="50.911834276144745" lon="6.716757957580642">
				<ele>126.0</ele>
				<time>2011-02-17T16:32:45Z</time>
			</trkpt>
			<trkpt lat="50.91184398931538" lon="6.716923643947615">
				<ele>126.0</ele>
				<time>2011-02-17T16:32:46Z</time>
			</trkpt>
			<trkpt lat="50.91184991642934" lon="6.717095697777292">
				<ele>126.0</ele>
				<time>2011-02-17T16:32:47Z</time>
			</trkpt>
			<trkpt lat="50.91185431221123" lon="6.717268974889975">
				<ele>126.0</ele>
				<time>2011-02-17T16:32:48Z</time>
			</trkpt>
			<trkpt lat="50.91185536850413" lon="6.7174431283875276">
				<ele>126.0</ele>
				<time>2011-02-17T16:32:49Z</time>
			</trkpt>
			<trkpt lat="50.91185587522386" lon="6.717617250878246">
				<ele>126.0</ele>
				<time>2011-02-17T16:32:50Z</time>
			</trkpt>
			<trkpt lat="50.91185632297443" lon="6.717789760970849">
				<ele>126.0</ele>
				<time>2011-02-17T16:32:51Z</time>
			</trkpt>
			<trkpt lat="50.91185673189998" lon="6.717966579975889">
				<ele>126.0</ele>
				<time>2011-02-17T16:32:52Z</time>
			</trkpt>
			<trkpt lat="50.911854150511616" lon="6.718147418380408">
				<ele>127.0</ele>
				<time>2011-02-17T16:32:53Z</time>
			</trkpt>
			<trkpt lat="50.91184863656436" lon="6.718333830340813">
				<ele>127.0</ele>
				<time>2011-02-17T16:32:54Z</time>
			</trkpt>
			<trkpt lat="50.91184300875531" lon="6.718520189078589">
				<ele>127.0</ele>
				<time>2011-02-17T16:32:55Z</time>
			</trkpt>
			<trkpt lat="50.91183713924007" lon="6.718707634421546">
				<ele>127.0</ele>
				<time>2011-02-17T16:32:56Z</time>
			</trkpt>
			<trkpt lat="50.911830208230754" lon="6.71889533928796">
				<ele>127.0</ele>
				<time>2011-02-17T16:32:57Z</time>
			</trkpt>
			<trkpt lat="50.91182292062329" lon="6.719083083094871">
				<ele>127.0</ele>
				<time>2011-02-17T16:32:58Z</time>
			</trkpt>
			<trkpt lat="50.911813745672205" lon="6.719269623760593">
				<ele>127.0</ele>
				<time>2011-02-17T16:32:59Z</time>
			</trkpt>
			<trkpt lat="50.911805165083784" lon="6.719455493970357">
				<ele>127.0</ele>
				<time>2011-02-17T16:33:00Z</time>
			</trkpt>
			<trkpt lat="50.911798145475124" lon="6.71964004412311">
				<ele>127.0</ele>
				<time>2011-02-17T16:33:01Z</time>
			</trkpt>
			<trkpt lat="50.91179159555639" lon="6.719822034548621">
				<ele>127.0</ele>
				<time>2011-02-17T16:33:02Z</time>
			</trkpt>
			<trkpt lat="50.911784481836136" lon="6.7200021420698794">
				<ele>127.0</ele>
				<time>2011-02-17T16:33:03Z</time>
			</trkpt>
			<trkpt lat="50.91177794508057" lon="6.720176422387119">
				<ele>128.0</ele>
				<time>2011-02-17T16:33:04Z</time>
			</trkpt>
			<trkpt lat="50.911773889375056" lon="6.720338739994051">
				<ele>128.0</ele>
				<time>2011-02-17T16:33:05Z</time>
			</trkpt>
			<trkpt lat="50.911769803736554" lon="6.7205002495814234">
				<ele>128.0</ele>
				<time>2011-02-17T16:33:06Z</time>
			</trkpt>
			<trkpt lat="50.91176374070982" lon="6.720664567546405">
				<ele>128.0</ele>
				<time>2011-02-17T16:33:07Z</time>
			</trkpt>
			<trkpt lat="50.911757043655975" lon="6.720832477665298">
				<ele>128.0</ele>
				<time>2011-02-17T16:33:08Z</time>
			</trkpt>
			<trkpt lat="50.91175013768136" lon="6.72100945964502">
				<ele>128.0</ele>
				<time>2011-02-17T16:33:09Z</time>
			</trkpt>
			<trkpt lat="50.91174384307895" lon="6.721190085109051">
				<ele>128.0</ele>
				<time>2011-02-17T16:33:10Z</time>
			</trkpt>
			<trkpt lat="50.91173696634178" lon="6.721383596635735">
				<ele>128.0</ele>
				<time>2011-02-17T16:33:11Z</time>
			</trkpt>
			<trkpt lat="50.91172981473559" lon="6.721578053839631">
				<ele>129.0</ele>
				<time>2011-02-17T16:33:12Z</time>
			</trkpt>
			<trkpt lat="50.911721657483284" lon="6.72178078681416">
				<ele>129.0</ele>
				<time>2011-02-17T16:33:13Z</time>
			</trkpt>
			<trkpt lat="50.91171147141363" lon="6.7219892901223295">
				<ele>129.0</ele>
				<time>2011-02-17T16:33:14Z</time>
			</trkpt>
			<trkpt lat="50.91170164015695" lon="6.722200400882721">
				<ele>129.0</ele>
				<time>2011-02-17T16:33:15Z</time>
			</trkpt>
			<trkpt lat="50.91169495293759" lon="6.7224229104789">
				<ele>129.0</ele>
				<time>2011-02-17T16:33:16Z</time>
			</trkpt>
			<trkpt lat="50.91168888583157" lon="6.7226434096092955">
				<ele>129.0</ele>
				<time>2011-02-17T16:33:17Z</time>
			</trkpt>
			<trkpt lat="50.91168560754859" lon="6.722866864198347">
				<ele>129.0</ele>
				<time>2011-02-17T16:33:18Z</time>
			</trkpt>
			<trkpt lat="50.91168617808476" lon="6.72309107955871">
				<ele>130.0</ele>
				<time>2011-02-17T16:33:19Z</time>
			</trkpt>
			<trkpt lat="50.91169159574478" lon="6.723317732475279">
				<ele>130.0</ele>
				<time>2011-02-17T16:33:20Z</time>
			</trkpt>
			<trkpt lat="50.91170302611189" lon="6.723547471871632">
				<ele>130.0</ele>
				<time>2011-02-17T16:33:21Z</time>
			</trkpt>
			<trkpt lat="50.91171926060334" lon="6.7237832594236">
				<ele>131.0</ele>
				<time>2011-02-17T16:33:22Z</time>
			</trkpt>
			<trkpt lat="50.91175311662851" lon="6.72401816824235">
				<ele>132.0</ele>
				<time>2011-02-17T16:33:23Z</time>
			</trkpt>
			<trkpt lat="50.91178362238633" lon="6.724255203670274">
				<ele>132.0</ele>
				<time>2011-02-17T16:33:24Z</time>
			</trkpt>
			<trkpt lat="50.911822941252375" lon="6.724491144606542">
				<ele>133.0</ele>
				<time>2011-02-17T16:33:25Z</time>
			</trkpt>
			<trkpt lat="50.911868449247386" lon="6.724726059040171">
				<ele>133.0</ele>
				<time>2011-02-17T16:33:26Z</time>
			</trkpt>
			<trkpt lat="50.9119209291731" lon="6.7249606980402294">
				<ele>134.0</ele>
				<time>2011-02-17T16:33:27Z</time>
			</trkpt>
			<trkpt lat="50.91197693323498" lon="6.725200573200962">
				<ele>134.0</ele>
				<time>2011-02-17T16:33:28Z</time>
			</trkpt>
			<trkpt lat="50.91203480478818" lon="6.725443214415345">
				<ele>135.0</ele>
				<time>2011-02-17T16:33:29Z</time>
			</trkpt>
			<trkpt lat="50.912098236108" lon="6.7256902771699405">
				<ele>135.0</ele>
				<time>2011-02-17T16:33:30Z</time>
			</trkpt>
			<trkpt lat="50.912162731897716" lon="6.725942843320015">
				<ele>136.0</ele>
				<time>2011-02-17T16:33:31Z</time>
			</trkpt>
			<trkpt lat="50.91222723242421" lon="6.726200049187822">
				<ele>137.0</ele>
				<time>2011-02-17T16:33:32Z</time>
			</trkpt>
			<trkpt lat="50.91230410342186" lon="6.726447670901386">
				<ele>137.0</ele>
				<time>2011-02-17T16:33:33Z</time>
			</trkpt>
			<trkpt lat="50.912370058898496" lon="6.72669602715484">
				<ele>138.0</ele>
				<time>2011-02-17T16:33:34Z</time>
			</trkpt>
			<trkpt lat="50.912431996489154" lon="6.726943031315768">
				<ele>138.0</ele>
				<time>2011-02-17T16:33:35Z</time>
			</trkpt>
			<trkpt lat="50.912493284501565" lon="6.727187938290903">
				<ele>139.0</ele>
				<time>2011-02-17T16:33:36Z</time>
			</trkpt>
			<trkpt lat="50.912554513464784" lon="6.727431059314855">
				<ele>139.0</ele>
				<time>2011-02-17T16:33:37Z</time>
			</trkpt>
			<trkpt lat="50.91261514791975" lon="6.727669524713333">
				<ele>140.0</ele>
				<time>2011-02-17T16:33:38Z</time>
			</trkpt>
			<trkpt lat="50.91267303986367" lon="6.72790022104739">
				<ele>140.0</ele>
				<time>2011-02-17T16:33:39Z</time>
			</trkpt>
			<trkpt lat="50.912729379726805" lon="6.728122152020768">
				<ele>141.0</ele>
				<time>2011-02-17T16:33:40Z</time>
			</trkpt>
			<trkpt lat="50.912784834112934" lon="6.728338370949568">
				<ele>142.0</ele>
				<time>2011-02-17T16:33:41Z</time>
			</trkpt>
			<trkpt lat="50.912838157115914" lon="6.728548291684887">
				<ele>142.0</ele>
				<time>2011-02-17T16:33:42Z</time>
			</trkpt>
			<trkpt lat="50.91289004798838" lon="6.728754261117678">
				<ele>143.0</ele>
				<time>2011-02-17T16:33:43Z</time>
			</trkpt>
			<trkpt lat="50.9129391169814" lon="6.72895457900791">
				<ele>144.0</ele>
				<time>2011-02-17T16:33:44Z</time>
			</trkpt>
			<trkpt lat="50.91298199036829" lon="6.7291524517603545">
				<ele>144.0</ele>
				<time>2011-02-17T16:33:45Z</time>
			</trkpt>
			<trkpt lat="50.913021011300366" lon="6.729347350525969">
				<ele>145.0</ele>
				<time>2011-02-17T16:33:46Z</time>
			</trkpt>
			<trkpt lat="50.913058208486994" lon="6.7295340391494385">
				<ele>145.0</ele>
				<time>2011-02-17T16:33:47Z</time>
			</trkpt>
			<trkpt lat="50.913089923248975" lon="6.7297164397786045">
				<ele>146.0</ele>
				<time>2011-02-17T16:33:48Z</time>
			</trkpt>
			<trkpt lat="50.91311692516746" lon="6.729897180077289">
				<ele>146.0</ele>
				<time>2011-02-17T16:33:49Z</time>
			</trkpt>
			<trkpt lat="50.913137486479116" lon="6.730072954332553">
				<ele>147.0</ele>
				<time>2011-02-17T16:33:50Z</time>
			</trkpt>
			<trkpt lat="50.91315240214275" lon="6.730242916727146">
				<ele>147.0</ele>
				<time>2011-02-17T16:33:51Z</time>
			</trkpt>
			<trkpt lat="50.91316312269078" lon="6.730403829129978">
				<ele>148.0</ele>
				<time>2011-02-17T16:33:52Z</time>
			</trkpt>
			<trkpt lat="50.91317291391161" lon="6.730561269193577">
				<ele>148.0</ele>
				<time>2011-02-17T16:33:53Z</time>
			</trkpt>
			<trkpt lat="50.9131821947041" lon="6.7307135602870485">
				<ele>149.0</ele>
				<time>2011-02-17T16:33:54Z</time>
			</trkpt>
			<trkpt lat="50.91319343042673" lon="6.730849940969317">
				<ele>149.0</ele>
				<time>2011-02-17T16:33:55Z</time>
			</trkpt>
			<trkpt lat="50.91320708371426" lon="6.73097354517396">
				<ele>149.0</ele>
				<time>2011-02-17T16:33:56Z</time>
			</trkpt>
			<trkpt lat="50.91322262348644" lon="6.7310814078005725">
				<ele>150.0</ele>
				<time>2011-02-17T16:33:57Z</time>
			</trkpt>
			<trkpt lat="50.91326085322421" lon="6.731160713298508">
				<ele>150.0</ele>
				<time>2011-02-17T16:33:58Z</time>
			</trkpt>
			<trkpt lat="50.913311330685445" lon="6.7312012697538295">
				<ele>150.0</ele>
				<time>2011-02-17T16:33:59Z</time>
			</trkpt>
			<trkpt lat="50.91336674310328" lon="6.7312105018132256">
				<ele>150.0</ele>
				<time>2011-02-17T16:34:00Z</time>
			</trkpt>
			<trkpt lat="50.91342295877824" lon="6.731213638792496">
				<ele>150.0</ele>
				<time>2011-02-17T16:34:01Z</time>
			</trkpt>
			<trkpt lat="50.913484114120905" lon="6.7312084422011695">
				<ele>150.0</ele>
				<time>2011-02-17T16:34:02Z</time>
			</trkpt>
			<trkpt lat="50.91354236271457" lon="6.731180529453487">
				<ele>150.0</ele>
				<time>2011-02-17T16:34:03Z</time>
			</trkpt>
			<trkpt lat="50.91360197740935" lon="6.731136864661399">
				<ele>150.0</ele>
				<time>2011-02-17T16:34:04Z</time>
			</trkpt>
			<trkpt lat="50.91365308910633" lon="6.731079466132798">
				<ele>150.0</ele>
				<time>2011-02-17T16:34:05Z</time>
			</trkpt>
			<trkpt lat="50.913687587707564" lon="6.730999034188592">
				<ele>150.0</ele>
				<time>2011-02-17T16:34:06Z</time>
			</trkpt>
			<trkpt lat="50.91372260168839" lon="6.730915860279126">
				<ele>150.0</ele>
				<time>2011-02-17T16:34:07Z</time>
			</trkpt>
			<trkpt lat="50.91375826385329" lon="6.730833822795013">
				<ele>150.0</ele>
				<time>2011-02-17T16:34:08Z</time>
			</trkpt>
			<trkpt lat="50.91379238301331" lon="6.7307474900033">
				<ele>150.0</ele>
				<time>2011-02-17T16:34:09Z</time>
			</trkpt>
			<trkpt lat="50.913825826378165" lon="6.730663062409246">
				<ele>149.0</ele>
				<time>2011-02-17T16:34:10Z</time>
			</trkpt>
			<trkpt lat="50.913857876464355" lon="6.7305756158084655">
				<ele>149.0</ele>
				<time>2011-02-17T16:34:11Z</time>
			</trkpt>
			<trkpt lat="50.91389926476373" lon="6.730467358454021">
				<ele>149.0</ele>
				<time>2011-02-17T16:34:12Z</time>
			</trkpt>
			<trkpt lat="50.91394245791181" lon="6.730348878930437">
				<ele>149.0</ele>
				<time>2011-02-17T16:34:13Z</time>
			</trkpt>
			<trkpt lat="50.91398514503893" lon="6.73023353141566">
				<ele>148.0</ele>
				<time>2011-02-17T16:34:14Z</time>
			</trkpt>
			<trkpt lat="50.914027744365825" lon="6.730116034088902">
				<ele>148.0</ele>
				<time>2011-02-17T16:34:15Z</time>
			</trkpt>
			<trkpt lat="50.9140698572639" lon="6.729997887119605">
				<ele>148.0</ele>
				<time>2011-02-17T16:34:16Z</time>
			</trkpt>
			<trkpt lat="50.914110345502856" lon="6.729878342360818">
				<ele>148.0</ele>
				<time>2011-02-17T16:34:17Z</time>
			</trkpt>
			<trkpt lat="50.9141486539421" lon="6.729758984307079">
				<ele>147.0</ele>
				<time>2011-02-17T16:34:18Z</time>
			</trkpt>
			<trkpt lat="50.9141869504683" lon="6.729646183892095">
				<ele>147.0</ele>
				<time>2011-02-17T16:34:19Z</time>
			</trkpt>
			<trkpt lat="50.91422382222691" lon="6.729541651858926">
				<ele>147.0</ele>
				<time>2011-02-17T16:34:20Z</time>
			</trkpt>
			<trkpt lat="50.91424870948752" lon="6.7294709489391025">
				<ele>147.0</ele>
				<time>2011-02-17T16:34:21Z</time>
			</trkpt>
			<trkpt lat="50.91426866060709" lon="6.729416604777552">
				<ele>147.0</ele>
				<time>2011-02-17T16:34:22Z</time>
			</trkpt>
			<trkpt lat="50.91428602777242" lon="6.72937120268488">
				<ele>148.0</ele>
				<time>2011-02-17T16:34:23Z</time>
			</trkpt>
			<trkpt lat="50.91430402865626" lon="6.729328761103597">
				<ele>148.0</ele>
				<time>2011-02-17T16:34:24Z</time>
			</trkpt>
			<trkpt lat="50.91432125644841" lon="6.72928851099432">
				<ele>148.0</ele>
				<time>2011-02-17T16:34:25Z</time>
			</trkpt>
			<trkpt lat="50.91433835209115" lon="6.7292487037629085">
				<ele>148.0</ele>
				<time>2011-02-17T16:34:26Z</time>
			</trkpt>
			<trkpt lat="50.91435639675568" lon="6.729206717680721">
				<ele>148.0</ele>
				<time>2011-02-17T16:34:27Z</time>
			</trkpt>
			<trkpt lat="50.914380627829495" lon="6.729150948152962">
				<ele>148.0</ele>
				<time>2011-02-17T16:34:28Z</time>
			</trkpt>
			<trkpt lat="50.91440948059548" lon="6.729085157808053">
				<ele>148.0</ele>
				<time>2011-02-17T16:34:29Z</time>
			</trkpt>
			<trkpt lat="50.914444325606816" lon="6.729006930306626">
				<ele>149.0</ele>
				<time>2011-02-17T16:34:30Z</time>
			</trkpt>
			<trkpt lat="50.91448173556382" lon="6.728923336744393">
				<ele>149.0</ele>
				<time>2011-02-17T16:34:31Z</time>
			</trkpt>
			<trkpt lat="50.914522633641724" lon="6.728828672440353">
				<ele>149.0</ele>
				<time>2011-02-17T16:34:32Z</time>
			</trkpt>
			<trkpt lat="50.91456601664486" lon="6.7287257622602">
				<ele>149.0</ele>
				<time>2011-02-17T16:34:33Z</time>
			</trkpt>
			<trkpt lat="50.914607143863584" lon="6.728622068618184">
				<ele>148.0</ele>
				<time>2011-02-17T16:34:34Z</time>
			</trkpt>
			<trkpt lat="50.9146468233036" lon="6.72851822551677">
				<ele>148.0</ele>
				<time>2011-02-17T16:34:35Z</time>
			</trkpt>
			<trkpt lat="50.91468165914323" lon="6.728419223646763">
				<ele>148.0</ele>
				<time>2011-02-17T16:34:36Z</time>
			</trkpt>
			<trkpt lat="50.914713239776944" lon="6.728323831738069">
				<ele>148.0</ele>
				<time>2011-02-17T16:34:37Z</time>
			</trkpt>
			<trkpt lat="50.914741026226444" lon="6.728233822240146">
				<ele>148.0</ele>
				<time>2011-02-17T16:34:38Z</time>
			</trkpt>
			<trkpt lat="50.91476500315554" lon="6.728159569867791">
				<ele>148.0</ele>
				<time>2011-02-17T16:34:39Z</time>
			</trkpt>
			<trkpt lat="50.914786333993774" lon="6.728101097985314">
				<ele>148.0</ele>
				<time>2011-02-17T16:34:40Z</time>
			</trkpt>
			<trkpt lat="50.914806264748584" lon="6.728045817856098">
				<ele>148.0</ele>
				<time>2011-02-17T16:34:41Z</time>
			</trkpt>
			<trkpt lat="50.914827410594626" lon="6.72798622563388">
				<ele>148.0</ele>
				<time>2011-02-17T16:34:42Z</time>
			</trkpt>
			<trkpt lat="50.91484850811444" lon="6.727923654934443">
				<ele>148.0</ele>
				<time>2011-02-17T16:34:43Z</time>
			</trkpt>
			<trkpt lat="50.914873270605526" lon="6.727846249267897">
				<ele>149.0</ele>
				<time>2011-02-17T16:34:44Z</time>
			</trkpt>
			<trkpt lat="50.914897927777616" lon="6.727769469161274">
				<ele>150.0</ele>
				<time>2011-02-17T16:34:45Z</time>
			</trkpt>
			<trkpt lat="50.91492716685304" lon="6.727688666836327">
				<ele>150.0</ele>
				<time>2011-02-17T16:34:46Z</time>
			</trkpt>
			<trkpt lat="50.914959015738944" lon="6.727607792613293">
				<ele>150.0</ele>
				<time>2011-02-17T16:34:47Z</time>
			</trkpt>
			<trkpt lat="50.91499288706701" lon="6.72753019837855">
				<ele>151.0</ele>
				<time>2011-02-17T16:34:48Z</time>
			</trkpt>
			<trkpt lat="50.91502895180886" lon="6.727455220661122">
				<ele>151.0</ele>
				<time>2011-02-17T16:34:49Z</time>
			</trkpt>
			<trkpt lat="50.915067014654525" lon="6.727381080480247">
				<ele>151.0</ele>
				<time>2011-02-17T16:34:50Z</time>
			</trkpt>
			<trkpt lat="50.91510758253496" lon="6.727309552140567">
				<ele>151.0</ele>
				<time>2011-02-17T16:34:51Z</time>
			</trkpt>
			<trkpt lat="50.915150137887544" lon="6.727244708242101">
				<ele>152.0</ele>
				<time>2011-02-17T16:34:52Z</time>
			</trkpt>
			<trkpt lat="50.91519563174476" lon="6.727186196022874">
				<ele>152.0</ele>
				<time>2011-02-17T16:34:53Z</time>
			</trkpt>
			<trkpt lat="50.91523862312281" lon="6.727134064225125">
				<ele>152.0</ele>
				<time>2011-02-17T16:34:54Z</time>
			</trkpt>
			<trkpt lat="50.91528116471805" lon="6.7270868042697725">
				<ele>152.0</ele>
				<time>2011-02-17T16:34:55Z</time>
			</trkpt>
			<trkpt lat="50.915321883294204" lon="6.727046949855113">
				<ele>152.0</ele>
				<time>2011-02-17T16:34:56Z</time>
			</trkpt>
			<trkpt lat="50.915361780224934" lon="6.727008361624814">
				<ele>152.0</ele>
				<time>2011-02-17T16:34:57Z</time>
			</trkpt>
			<trkpt lat="50.915403451580104" lon="6.726971787286395">
				<ele>153.0</ele>
				<time>2011-02-17T16:34:58Z</time>
			</trkpt>
			<trkpt lat="50.91544640414323" lon="6.72693287383891">
				<ele>153.0</ele>
				<time>2011-02-17T16:34:59Z</time>
			</trkpt>
			<trkpt lat="50.91549186039956" lon="6.726891670120572">
				<ele>153.0</ele>
				<time>2011-02-17T16:35:00Z</time>
			</trkpt>
			<trkpt lat="50.91553946124925" lon="6.726848710080725">
				<ele>153.0</ele>
				<time>2011-02-17T16:35:01Z</time>
			</trkpt>
			<trkpt lat="50.915588763005054" lon="6.726805243770528">
				<ele>154.0</ele>
				<time>2011-02-17T16:35:02Z</time>
			</trkpt>
			<trkpt lat="50.91563567065024" lon="6.726762731083603">
				<ele>154.0</ele>
				<time>2011-02-17T16:35:03Z</time>
			</trkpt>
			<trkpt lat="50.915682045167486" lon="6.726720114391135">
				<ele>154.0</ele>
				<time>2011-02-17T16:35:04Z</time>
			</trkpt>
			<trkpt lat="50.9157306828767" lon="6.7266792859750755">
				<ele>154.0</ele>
				<time>2011-02-17T16:35:05Z</time>
			</trkpt>
			<trkpt lat="50.91577956375646" lon="6.726640344928984">
				<ele>154.0</ele>
				<time>2011-02-17T16:35:06Z</time>
			</trkpt>
			<trkpt lat="50.91582920062847" lon="6.726599929674973">
				<ele>155.0</ele>
				<time>2011-02-17T16:35:07Z</time>
			</trkpt>
			<trkpt lat="50.91587869401143" lon="6.72655939277901">
				<ele>155.0</ele>
				<time>2011-02-17T16:35:08Z</time>
			</trkpt>
			<trkpt lat="50.915922504138244" lon="6.726519845583687">
				<ele>155.0</ele>
				<time>2011-02-17T16:35:09Z</time>
			</trkpt>
			<trkpt lat="50.91596580925489" lon="6.726473020013178">
				<ele>155.0</ele>
				<time>2011-02-17T16:35:10Z</time>
			</trkpt>
			<trkpt lat="50.915995464670914" lon="6.726412483063764">
				<ele>155.0</ele>
				<time>2011-02-17T16:35:11Z</time>
			</trkpt>
			<trkpt lat="50.91602297155086" lon="6.726350621872746">
				<ele>155.0</ele>
				<time>2011-02-17T16:35:12Z</time>
			</trkpt>
			<trkpt lat="50.91604538121724" lon="6.726284940518726">
				<ele>155.0</ele>
				<time>2011-02-17T16:35:13Z</time>
			</trkpt>
			<trkpt lat="50.91604597023285" lon="6.726211492354569">
				<ele>155.0</ele>
				<time>2011-02-17T16:35:14Z</time>
			</trkpt>
			<trkpt lat="50.91603675371005" lon="6.726140994791417">
				<ele>155.0</ele>
				<time>2011-02-17T16:35:15Z</time>
			</trkpt>
			<trkpt lat="50.91602801576351" lon="6.726073461970187">
				<ele>155.0</ele>
				<time>2011-02-17T16:35:16Z</time>
			</trkpt>
			<trkpt lat="50.91601928895538" lon="6.726005079628362">
				<ele>155.0</ele>
				<time>2011-02-17T16:35:17Z</time>
			</trkpt>
			<trkpt lat="50.91600662500326" lon="6.725916975069868">
				<ele>156.0</ele>
				<time>2011-02-17T16:35:18Z</time>
			</trkpt>
			<trkpt lat="50.91599251054471" lon="6.725818948585759">
				<ele>156.0</ele>
				<time>2011-02-17T16:35:19Z</time>
			</trkpt>
			<trkpt lat="50.91597805549554" lon="6.725718972058057">
				<ele>156.0</ele>
				<time>2011-02-17T16:35:20Z</time>
			</trkpt>
			<trkpt lat="50.91596244764552" lon="6.725610200584707">
				<ele>157.0</ele>
				<time>2011-02-17T16:35:21Z</time>
			</trkpt>
			<trkpt lat="50.915950060293966" lon="6.725497489607629">
				<ele>157.0</ele>
				<time>2011-02-17T16:35:22Z</time>
			</trkpt>
			<trkpt lat="50.91593825179726" lon="6.7253891134775685">
				<ele>158.0</ele>
				<time>2011-02-17T16:35:23Z</time>
			</trkpt>
			<trkpt lat="50.915928208988035" lon="6.725287040398749">
				<ele>158.0</ele>
				<time>2011-02-17T16:35:24Z</time>
			</trkpt>
			<trkpt lat="50.91591853918474" lon="6.725189187319978">
				<ele>158.0</ele>
				<time>2011-02-17T16:35:25Z</time>
			</trkpt>
			<trkpt lat="50.91590551267016" lon="6.725096667991555">
				<ele>158.0</ele>
				<time>2011-02-17T16:35:26Z</time>
			</trkpt>
			<trkpt lat="50.91589135045513" lon="6.725008747703426">
				<ele>158.0</ele>
				<time>2011-02-17T16:35:27Z</time>
			</trkpt>
			<trkpt lat="50.91587735802775" lon="6.724921741410723">
				<ele>158.0</ele>
				<time>2011-02-17T16:35:28Z</time>
			</trkpt>
			<trkpt lat="50.915861937955654" lon="6.72483039043765">
				<ele>159.0</ele>
				<time>2011-02-17T16:35:29Z</time>
			</trkpt>
			<trkpt lat="50.91584516184899" lon="6.7247297260112955">
				<ele>159.0</ele>
				<time>2011-02-17T16:35:30Z</time>
			</trkpt>
			<trkpt lat="50.91582953878834" lon="6.724622637788851">
				<ele>159.0</ele>
				<time>2011-02-17T16:35:31Z</time>
			</trkpt>
			<trkpt lat="50.91581220819585" lon="6.7245012716957975">
				<ele>159.0</ele>
				<time>2011-02-17T16:35:32Z</time>
			</trkpt>
			<trkpt lat="50.915798668908266" lon="6.724379505361248">
				<ele>159.0</ele>
				<time>2011-02-17T16:35:33Z</time>
			</trkpt>
			<trkpt lat="50.915785828127795" lon="6.724256781990916">
				<ele>159.0</ele>
				<time>2011-02-17T16:35:34Z</time>
			</trkpt>
			<trkpt lat="50.91577195485238" lon="6.724134945320342">
				<ele>160.0</ele>
				<time>2011-02-17T16:35:35Z</time>
			</trkpt>
			<trkpt lat="50.9157578517017" lon="6.724017547269779">
				<ele>160.0</ele>
				<time>2011-02-17T16:35:36Z</time>
			</trkpt>
			<trkpt lat="50.91574308622946" lon="6.723901684706323">
				<ele>160.0</ele>
				<time>2011-02-17T16:35:37Z</time>
			</trkpt>
			<trkpt lat="50.91572962064569" lon="6.723791738687231">
				<ele>160.0</ele>
				<time>2011-02-17T16:35:38Z</time>
			</trkpt>
			<trkpt lat="50.91571598999917" lon="6.723680107195703">
				<ele>160.0</ele>
				<time>2011-02-17T16:35:39Z</time>
			</trkpt>
			<trkpt lat="50.915703587714674" lon="6.723566088023723">
				<ele>160.0</ele>
				<time>2011-02-17T16:35:40Z</time>
			</trkpt>
			<trkpt lat="50.91569029045886" lon="6.72344994588283">
				<ele>160.0</ele>
				<time>2011-02-17T16:35:41Z</time>
			</trkpt>
			<trkpt lat="50.915680139984794" lon="6.723333552936903">
				<ele>160.0</ele>
				<time>2011-02-17T16:35:42Z</time>
			</trkpt>
			<trkpt lat="50.915670808558325" lon="6.723220418903563">
				<ele>160.0</ele>
				<time>2011-02-17T16:35:43Z</time>
			</trkpt>
			<trkpt lat="50.91566243993223" lon="6.723106256673183">
				<ele>160.0</ele>
				<time>2011-02-17T16:35:44Z</time>
			</trkpt>
			<trkpt lat="50.91565330162708" lon="6.722990673128058">
				<ele>160.0</ele>
				<time>2011-02-17T16:35:45Z</time>
			</trkpt>
			<trkpt lat="50.91564139798779" lon="6.722876346136487">
				<ele>161.0</ele>
				<time>2011-02-17T16:35:46Z</time>
			</trkpt>
			<trkpt lat="50.9156293223846" lon="6.722762249272121">
				<ele>161.0</ele>
				<time>2011-02-17T16:35:47Z</time>
			</trkpt>
			<trkpt lat="50.915612912060766" lon="6.722648694027934">
				<ele>161.0</ele>
				<time>2011-02-17T16:35:48Z</time>
			</trkpt>
			<trkpt lat="50.915596857980745" lon="6.72253502987229">
				<ele>161.0</ele>
				<time>2011-02-17T16:35:49Z</time>
			</trkpt>
			<trkpt lat="50.915580986179734" lon="6.7224222547767924">
				<ele>161.0</ele>
				<time>2011-02-17T16:35:50Z</time>
			</trkpt>
			<trkpt lat="50.91556495502301" lon="6.7223118538954685">
				<ele>161.0</ele>
				<time>2011-02-17T16:35:51Z</time>
			</trkpt>
			<trkpt lat="50.91555610087476" lon="6.722215699971401">
				<ele>161.0</ele>
				<time>2011-02-17T16:35:52Z</time>
			</trkpt>
			<trkpt lat="50.91554944256579" lon="6.722133456942842">
				<ele>161.0</ele>
				<time>2011-02-17T16:35:53Z</time>
			</trkpt>
			<trkpt lat="50.91554312912193" lon="6.722069363349508">
				<ele>161.0</ele>
				<time>2011-02-17T16:35:54Z</time>
			</trkpt>
			<trkpt lat="50.9155370500242" lon="6.722018594261863">
				<ele>161.0</ele>
				<time>2011-02-17T16:35:55Z</time>
			</trkpt>
			<trkpt lat="50.91553161516322" lon="6.721972544080407">
				<ele>161.0</ele>
				<time>2011-02-17T16:35:56Z</time>
			</trkpt>
			<trkpt lat="50.91552627329427" lon="6.7219272527068545">
				<ele>161.0</ele>
				<time>2011-02-17T16:35:57Z</time>
			</trkpt>
			<trkpt lat="50.91551891362191" lon="6.7218764605240064">
				<ele>161.0</ele>
				<time>2011-02-17T16:35:58Z</time>
			</trkpt>
			<trkpt lat="50.91550815338732" lon="6.721815019168239">
				<ele>161.0</ele>
				<time>2011-02-17T16:35:59Z</time>
			</trkpt>
			<trkpt lat="50.915495567389456" lon="6.72174606190863">
				<ele>161.0</ele>
				<time>2011-02-17T16:36:00Z</time>
			</trkpt>
			<trkpt lat="50.91548102539667" lon="6.721675072134802">
				<ele>161.0</ele>
				<time>2011-02-17T16:36:01Z</time>
			</trkpt>
			<trkpt lat="50.915466236407994" lon="6.721603376295063">
				<ele>161.0</ele>
				<time>2011-02-17T16:36:02Z</time>
			</trkpt>
			<trkpt lat="50.91545125050677" lon="6.721529846982526">
				<ele>161.0</ele>
				<time>2011-02-17T16:36:03Z</time>
			</trkpt>
			<trkpt lat="50.91543540445246" lon="6.721457854202706">
				<ele>161.0</ele>
				<time>2011-02-17T16:36:04Z</time>
			</trkpt>
			<trkpt lat="50.91541863551542" lon="6.721386670298955">
				<ele>161.0</ele>
				<time>2011-02-17T16:36:05Z</time>
			</trkpt>
			<trkpt lat="50.91539824224632" lon="6.721306846818306">
				<ele>161.0</ele>
				<time>2011-02-17T16:36:06Z</time>
			</trkpt>
			<trkpt lat="50.915376943490905" lon="6.721223383048789">
				<ele>161.0</ele>
				<time>2011-02-17T16:36:07Z</time>
			</trkpt>
			<trkpt lat="50.915356562090444" lon="6.721131078261287">
				<ele>161.0</ele>
				<time>2011-02-17T16:36:08Z</time>
			</trkpt>
			<trkpt lat="50.915336531542124" lon="6.721038581298395">
				<ele>161.0</ele>
				<time>2011-02-17T16:36:09Z</time>
			</trkpt>
			<trkpt lat="50.91531806797651" lon="6.720945827488437">
				<ele>161.0</ele>
				<time>2011-02-17T16:36:10Z</time>
			</trkpt>
			<trkpt lat="50.91530269714087" lon="6.7208510419545116">
				<ele>161.0</ele>
				<time>2011-02-17T16:36:11Z</time>
			</trkpt>
			<trkpt lat="50.91529061864887" lon="6.720756549393837">
				<ele>161.0</ele>
				<time>2011-02-17T16:36:12Z</time>
			</trkpt>
			<trkpt lat="50.91528373909725" lon="6.720660638642799">
				<ele>161.0</ele>
				<time>2011-02-17T16:36:13Z</time>
			</trkpt>
			<trkpt lat="50.91528091287247" lon="6.720562211876011">
				<ele>161.0</ele>
				<time>2011-02-17T16:36:14Z</time>
			</trkpt>
			<trkpt lat="50.915281897060744" lon="6.72046002927005">
				<ele>161.0</ele>
				<time>2011-02-17T16:36:15Z</time>
			</trkpt>
			<trkpt lat="50.91528446572087" lon="6.720354508113943">
				<ele>161.0</ele>
				<time>2011-02-17T16:36:16Z</time>
			</trkpt>
			<trkpt lat="50.91528840149005" lon="6.720247171526775">
				<ele>161.0</ele>
				<time>2011-02-17T16:36:17Z</time>
			</trkpt>
			<trkpt lat="50.91529219652454" lon="6.720136761863762">
				<ele>161.0</ele>
				<time>2011-02-17T16:36:18Z</time>
			</trkpt>
			<trkpt lat="50.91529561590308" lon="6.720028036503674">
				<ele>161.0</ele>
				<time>2011-02-17T16:36:19Z</time>
			</trkpt>
			<trkpt lat="50.91529913576191" lon="6.719923083098166">
				<ele>161.0</ele>
				<time>2011-02-17T16:36:20Z</time>
			</trkpt>
			<trkpt lat="50.91530256761576" lon="6.71981846341935">
				<ele>161.0</ele>
				<time>2011-02-17T16:36:21Z</time>
			</trkpt>
			<trkpt lat="50.915305268558015" lon="6.719720061326452">
				<ele>161.0</ele>
				<time>2011-02-17T16:36:22Z</time>
			</trkpt>
			<trkpt lat="50.915309978403826" lon="6.719626580153547">
				<ele>161.0</ele>
				<time>2011-02-17T16:36:23Z</time>
			</trkpt>
			<trkpt lat="50.915314826365226" lon="6.719537095884294">
				<ele>161.0</ele>
				<time>2011-02-17T16:36:24Z</time>
			</trkpt>
			<trkpt lat="50.91531938202651" lon="6.71945048872885">
				<ele>161.0</ele>
				<time>2011-02-17T16:36:25Z</time>
			</trkpt>
			<trkpt lat="50.915324374865484" lon="6.719368085168053">
				<ele>161.0</ele>
				<time>2011-02-17T16:36:26Z</time>
			</trkpt>
			<trkpt lat="50.91532981026524" lon="6.719295438096886">
				<ele>161.0</ele>
				<time>2011-02-17T16:36:27Z</time>
			</trkpt>
			<trkpt lat="50.915333010612784" lon="6.719242507681551">
				<ele>161.0</ele>
				<time>2011-02-17T16:36:28Z</time>
			</trkpt>
			<trkpt lat="50.915335624547616" lon="6.719198463249034">
				<ele>161.0</ele>
				<time>2011-02-17T16:36:29Z</time>
			</trkpt>
			<trkpt lat="50.91533769333742" lon="6.719163573857075">
				<ele>161.0</ele>
				<time>2011-02-17T16:36:30Z</time>
			</trkpt>
			<trkpt lat="50.91533769333742" lon="6.719163573857075">
				<ele>161.0</ele>
				<time>2011-02-17T16:36:31Z</time>
			</trkpt>
			<trkpt lat="50.91534289260237" lon="6.719089594964362">
				<ele>161.0</ele>
				<time>2011-02-17T16:36:32Z</time>
			</trkpt>
			<trkpt lat="50.91534566801115" lon="6.71904912972063">
				<ele>161.0</ele>
				<time>2011-02-17T16:36:33Z</time>
			</trkpt>
			<trkpt lat="50.91534831485372" lon="6.719001873003325">
				<ele>161.0</ele>
				<time>2011-02-17T16:36:34Z</time>
			</trkpt>
			<trkpt lat="50.91535104935225" lon="6.718953488708906">
				<ele>161.0</ele>
				<time>2011-02-17T16:36:35Z</time>
			</trkpt>
			<trkpt lat="50.91535916472722" lon="6.71891426800316">
				<ele>161.0</ele>
				<time>2011-02-17T16:36:36Z</time>
			</trkpt>
			<trkpt lat="50.91536529241296" lon="6.718888427455815">
				<ele>161.0</ele>
				<time>2011-02-17T16:36:37Z</time>
			</trkpt>
			<trkpt lat="50.91537012618786" lon="6.718867665945441">
				<ele>161.0</ele>
				<time>2011-02-17T16:36:38Z</time>
			</trkpt>
			<trkpt lat="50.915377630792065" lon="6.718847915360853">
				<ele>161.0</ele>
				<time>2011-02-17T16:36:39Z</time>
			</trkpt>
			<trkpt lat="50.91539053703983" lon="6.718834287918337">
				<ele>161.0</ele>
				<time>2011-02-17T16:36:40Z</time>
			</trkpt>
			<trkpt lat="50.91542167566474" lon="6.718826466598918">
				<ele>161.0</ele>
				<time>2011-02-17T16:36:41Z</time>
			</trkpt>
			<trkpt lat="50.91546431228559" lon="6.718819299809289">
				<ele>160.0</ele>
				<time>2011-02-17T16:36:42Z</time>
			</trkpt>
			<trkpt lat="50.91551035774679" lon="6.718816314119369">
				<ele>160.0</ele>
				<time>2011-02-17T16:36:43Z</time>
			</trkpt>
			<trkpt lat="50.91556558611573" lon="6.718813660193162">
				<ele>160.0</ele>
				<time>2011-02-17T16:36:44Z</time>
			</trkpt>
			<trkpt lat="50.91562521963428" lon="6.718812185918084">
				<ele>159.0</ele>
				<time>2011-02-17T16:36:45Z</time>
			</trkpt>
			<trkpt lat="50.9156885346576" lon="6.718811313196051">
				<ele>159.0</ele>
				<time>2011-02-17T16:36:46Z</time>
			</trkpt>
			<trkpt lat="50.91575037437378" lon="6.718812203753402">
				<ele>159.0</ele>
				<time>2011-02-17T16:36:47Z</time>
			</trkpt>
			<trkpt lat="50.915810060428676" lon="6.718813908353623">
				<ele>158.0</ele>
				<time>2011-02-17T16:36:48Z</time>
			</trkpt>
			<trkpt lat="50.91586736749905" lon="6.71881568928164">
				<ele>158.0</ele>
				<time>2011-02-17T16:36:49Z</time>
			</trkpt>
			<trkpt lat="50.91591781464698" lon="6.71881753833754">
				<ele>158.0</ele>
				<time>2011-02-17T16:36:50Z</time>
			</trkpt>
			<trkpt lat="50.91596407957771" lon="6.718820682198873">
				<ele>158.0</ele>
				<time>2011-02-17T16:36:51Z</time>
			</trkpt>
			<trkpt lat="50.91600696171528" lon="6.718823664678202">
				<ele>158.0</ele>
				<time>2011-02-17T16:36:52Z</time>
			</trkpt>
			<trkpt lat="50.91605875398099" lon="6.718826964569172">
				<ele>158.0</ele>
				<time>2011-02-17T16:36:53Z</time>
			</trkpt>
			<trkpt lat="50.9161245661512" lon="6.718829991713783">
				<ele>158.0</ele>
				<time>2011-02-17T16:36:54Z</time>
			</trkpt>
			<trkpt lat="50.91619507526751" lon="6.7188306177680355">
				<ele>158.0</ele>
				<time>2011-02-17T16:36:55Z</time>
			</trkpt>
			<trkpt lat="50.916264903949575" lon="6.718825430130429">
				<ele>158.0</ele>
				<time>2011-02-17T16:36:56Z</time>
			</trkpt>
			<trkpt lat="50.916330118282644" lon="6.718812216228821">
				<ele>158.0</ele>
				<time>2011-02-17T16:36:57Z</time>
			</trkpt>
			<trkpt lat="50.91638480972746" lon="6.718795014535767">
				<ele>157.0</ele>
				<time>2011-02-17T16:36:58Z</time>
			</trkpt>
			<trkpt lat="50.916424481257884" lon="6.718760464841146">
				<ele>157.0</ele>
				<time>2011-02-17T16:36:59Z</time>
			</trkpt>
			<trkpt lat="50.916464029003976" lon="6.718723478441496">
				<ele>157.0</ele>
				<time>2011-02-17T16:37:00Z</time>
			</trkpt>
			<trkpt lat="50.91649586687475" lon="6.7186774323905185">
				<ele>157.0</ele>
				<time>2011-02-17T16:37:01Z</time>
			</trkpt>
			<trkpt lat="50.91652821873943" lon="6.7186280844543775">
				<ele>156.0</ele>
				<time>2011-02-17T16:37:02Z</time>
			</trkpt>
			<trkpt lat="50.91655931323107" lon="6.718562616457427">
				<ele>156.0</ele>
				<time>2011-02-17T16:37:03Z</time>
			</trkpt>
			<trkpt lat="50.916598515842885" lon="6.718490374654977">
				<ele>156.0</ele>
				<time>2011-02-17T16:37:04Z</time>
			</trkpt>
			<trkpt lat="50.91664275423955" lon="6.718413816644539">
				<ele>156.0</ele>
				<time>2011-02-17T16:37:05Z</time>
			</trkpt>
			<trkpt lat="50.91668675127933" lon="6.718338723837436">
				<ele>156.0</ele>
				<time>2011-02-17T16:37:06Z</time>
			</trkpt>
			<trkpt lat="50.91673605511873" lon="6.7182633419720155">
				<ele>156.0</ele>
				<time>2011-02-17T16:37:07Z</time>
			</trkpt>
			<trkpt lat="50.91678761552618" lon="6.718187470862598">
				<ele>156.0</ele>
				<time>2011-02-17T16:37:08Z</time>
			</trkpt>
			<trkpt lat="50.916838618818055" lon="6.718113238395541">
				<ele>157.0</ele>
				<time>2011-02-17T16:37:09Z</time>
			</trkpt>
			<trkpt lat="50.91688503128317" lon="6.718045951004668">
				<ele>157.0</ele>
				<time>2011-02-17T16:37:10Z</time>
			</trkpt>
			<trkpt lat="50.916922944649244" lon="6.717986869840514">
				<ele>157.0</ele>
				<time>2011-02-17T16:37:11Z</time>
			</trkpt>
			<trkpt lat="50.91695198494015" lon="6.717936495360679">
				<ele>156.0</ele>
				<time>2011-02-17T16:37:12Z</time>
			</trkpt>
			<trkpt lat="50.91698104483287" lon="6.717884613021821">
				<ele>156.0</ele>
				<time>2011-02-17T16:37:13Z</time>
			</trkpt>
			<trkpt lat="50.91701127252336" lon="6.717824198066903">
				<ele>155.0</ele>
				<time>2011-02-17T16:37:14Z</time>
			</trkpt>
			<trkpt lat="50.91704578734271" lon="6.717756744968271">
				<ele>155.0</ele>
				<time>2011-02-17T16:37:15Z</time>
			</trkpt>
			<trkpt lat="50.91708088723801" lon="6.717683687143663">
				<ele>154.0</ele>
				<time>2011-02-17T16:37:16Z</time>
			</trkpt>
			<trkpt lat="50.9171162487186" lon="6.717608774049228">
				<ele>154.0</ele>
				<time>2011-02-17T16:37:17Z</time>
			</trkpt>
			<trkpt lat="50.91715022902297" lon="6.7175336092733975">
				<ele>153.0</ele>
				<time>2011-02-17T16:37:18Z</time>
			</trkpt>
			<trkpt lat="50.917179158980616" lon="6.717461176047037">
				<ele>153.0</ele>
				<time>2011-02-17T16:37:19Z</time>
			</trkpt>
			<trkpt lat="50.91720512097405" lon="6.717389512391916">
				<ele>152.0</ele>
				<time>2011-02-17T16:37:20Z</time>
			</trkpt>
			<trkpt lat="50.91723271424981" lon="6.717322897618355">
				<ele>152.0</ele>
				<time>2011-02-17T16:37:21Z</time>
			</trkpt>
			<trkpt lat="50.91725926919213" lon="6.71727084820846">
				<ele>152.0</ele>
				<time>2011-02-17T16:37:22Z</time>
			</trkpt>
			<trkpt lat="50.91728573444902" lon="6.7172376603819375">
				<ele>152.0</ele>
				<time>2011-02-17T16:37:23Z</time>
			</trkpt>
			<trkpt lat="50.91728573444902" lon="6.7172376603819375">
				<ele>152.0</ele>
				<time>2011-02-17T16:37:24Z</time>
			</trkpt>
			<trkpt lat="50.91732604762281" lon="6.717192726643409">
				<ele>152.0</ele>
				<time>2011-02-17T16:37:25Z</time>
			</trkpt>
			<trkpt lat="50.917344400209984" lon="6.717169263753297">
				<ele>152.0</ele>
				<time>2011-02-17T16:37:26Z</time>
			</trkpt>
			<trkpt lat="50.91735979272242" lon="6.717113849485641">
				<ele>152.0</ele>
				<time>2011-02-17T16:37:27Z</time>
			</trkpt>
			<trkpt lat="50.91736287156686" lon="6.717034280621328">
				<ele>151.0</ele>
				<time>2011-02-17T16:37:28Z</time>
			</trkpt>
			<trkpt lat="50.91734566193491" lon="6.716943257665372">
				<ele>151.0</ele>
				<time>2011-02-17T16:37:29Z</time>
			</trkpt>
			<trkpt lat="50.917327712064" lon="6.7168531309315505">
				<ele>151.0</ele>
				<time>2011-02-17T16:37:30Z</time>
			</trkpt>
			<trkpt lat="50.917306213829214" lon="6.716764799941301">
				<ele>151.0</ele>
				<time>2011-02-17T16:37:31Z</time>
			</trkpt>
			<trkpt lat="50.91728057809816" lon="6.7166786596106585">
				<ele>151.0</ele>
				<time>2011-02-17T16:37:32Z</time>
			</trkpt>
			<trkpt lat="50.91725239369643" lon="6.7165950260000775">
				<ele>151.0</ele>
				<time>2011-02-17T16:37:33Z</time>
			</trkpt>
			<trkpt lat="50.91722136730313" lon="6.716512472226562">
				<ele>151.0</ele>
				<time>2011-02-17T16:37:34Z</time>
			</trkpt>
			<trkpt lat="50.917189359424235" lon="6.716430083469992">
				<ele>151.0</ele>
				<time>2011-02-17T16:37:35Z</time>
			</trkpt>
			<trkpt lat="50.917156171266186" lon="6.71634892632325">
				<ele>152.0</ele>
				<time>2011-02-17T16:37:36Z</time>
			</trkpt>
			<trkpt lat="50.91712298863104" lon="6.716268249474169">
				<ele>152.0</ele>
				<time>2011-02-17T16:37:37Z</time>
			</trkpt>
			<trkpt lat="50.91709143177571" lon="6.71618733021553">
				<ele>151.0</ele>
				<time>2011-02-17T16:37:38Z</time>
			</trkpt>
			<trkpt lat="50.917057822610865" lon="6.716108939142431">
				<ele>151.0</ele>
				<time>2011-02-17T16:37:39Z</time>
			</trkpt>
			<trkpt lat="50.917024689889914" lon="6.7160299310452185">
				<ele>151.0</ele>
				<time>2011-02-17T16:37:40Z</time>
			</trkpt>
			<trkpt lat="50.91699179851222" lon="6.715954684824313">
				<ele>151.0</ele>
				<time>2011-02-17T16:37:41Z</time>
			</trkpt>
			<trkpt lat="50.91695794826361" lon="6.715881722129509">
				<ele>151.0</ele>
				<time>2011-02-17T16:37:42Z</time>
			</trkpt>
			<trkpt lat="50.916923948810336" lon="6.715808860412452">
				<ele>151.0</ele>
				<time>2011-02-17T16:37:43Z</time>
			</trkpt>
			<trkpt lat="50.91689077792825" lon="6.715744710681653">
				<ele>150.0</ele>
				<time>2011-02-17T16:37:44Z</time>
			</trkpt>
			<trkpt lat="50.91686778170147" lon="6.715698256144424">
				<ele>150.0</ele>
				<time>2011-02-17T16:37:45Z</time>
			</trkpt>
			<trkpt lat="50.91685656009892" lon="6.715676136094096">
				<ele>150.0</ele>
				<time>2011-02-17T16:37:46Z</time>
			</trkpt>
			<trkpt lat="50.91685656009892" lon="6.715676136094096">
				<ele>150.0</ele>
				<time>2011-02-17T16:37:47Z</time>
			</trkpt>
			<trkpt lat="50.91685656009892" lon="6.715676136094096">
				<ele>150.0</ele>
				<time>2011-02-17T16:37:48Z</time>
			</trkpt>
			<trkpt lat="50.91685656009892" lon="6.715676136094096">
				<ele>150.0</ele>
				<time>2011-02-17T16:37:49Z</time>
			</trkpt>
			<trkpt lat="50.91682747000412" lon="6.715619861881013">
				<ele>150.0</ele>
				<time>2011-02-17T16:37:50Z</time>
			</trkpt>
			<trkpt lat="50.916812697013356" lon="6.715590660344865">
				<ele>150.0</ele>
				<time>2011-02-17T16:37:51Z</time>
			</trkpt>
			<trkpt lat="50.91679564061352" lon="6.715553955308855">
				<ele>150.0</ele>
				<time>2011-02-17T16:37:52Z</time>
			</trkpt>
			<trkpt lat="50.91677702351242" lon="6.715511754083545">
				<ele>150.0</ele>
				<time>2011-02-17T16:37:53Z</time>
			</trkpt>
			<trkpt lat="50.91675961282969" lon="6.71546976706132">
				<ele>150.0</ele>
				<time>2011-02-17T16:37:54Z</time>
			</trkpt>
			<trkpt lat="50.916741047882184" lon="6.715424796656021">
				<ele>150.0</ele>
				<time>2011-02-17T16:37:55Z</time>
			</trkpt>
			<trkpt lat="50.916725266084825" lon="6.7153747394232814">
				<ele>150.0</ele>
				<time>2011-02-17T16:37:56Z</time>
			</trkpt>
			<trkpt lat="50.91670628639448" lon="6.715317850843057">
				<ele>150.0</ele>
				<time>2011-02-17T16:37:57Z</time>
			</trkpt>
			<trkpt lat="50.91668603539782" lon="6.715257935013396">
				<ele>150.0</ele>
				<time>2011-02-17T16:37:58Z</time>
			</trkpt>
			<trkpt lat="50.916665500255235" lon="6.7151956661444485">
				<ele>149.0</ele>
				<time>2011-02-17T16:37:59Z</time>
			</trkpt>
			<trkpt lat="50.91664524593179" lon="6.715132432309567">
				<ele>149.0</ele>
				<time>2011-02-17T16:38:00Z</time>
			</trkpt>
			<trkpt lat="50.9166240192627" lon="6.715067823883125">
				<ele>149.0</ele>
				<time>2011-02-17T16:38:01Z</time>
			</trkpt>
			<trkpt lat="50.91659858169148" lon="6.715000123653369">
				<ele>149.0</ele>
				<time>2011-02-17T16:38:02Z</time>
			</trkpt>
			<trkpt lat="50.91657110069552" lon="6.714932706025481">
				<ele>149.0</ele>
				<time>2011-02-17T16:38:03Z</time>
			</trkpt>
			<trkpt lat="50.916541171128145" lon="6.714867807408899">
				<ele>149.0</ele>
				<time>2011-02-17T16:38:04Z</time>
			</trkpt>
			<trkpt lat="50.91651066880464" lon="6.714798931147162">
				<ele>149.0</ele>
				<time>2011-02-17T16:38:05Z</time>
			</trkpt>
			<trkpt lat="50.91648001389747" lon="6.714730962361567">
				<ele>149.0</ele>
				<time>2011-02-17T16:38:06Z</time>
			</trkpt>
			<trkpt lat="50.91644914628729" lon="6.714661195481162">
				<ele>149.0</ele>
				<time>2011-02-17T16:38:07Z</time>
			</trkpt>
			<trkpt lat="50.91641866061189" lon="6.71459275937933">
				<ele>149.0</ele>
				<time>2011-02-17T16:38:08Z</time>
			</trkpt>
			<trkpt lat="50.916389173207186" lon="6.7145241068513455">
				<ele>149.0</ele>
				<time>2011-02-17T16:38:09Z</time>
			</trkpt>
			<trkpt lat="50.91636061760021" lon="6.7144549040245485">
				<ele>149.0</ele>
				<time>2011-02-17T16:38:10Z</time>
			</trkpt>
			<trkpt lat="50.91633336931825" lon="6.714386724361332">
				<ele>149.0</ele>
				<time>2011-02-17T16:38:11Z</time>
			</trkpt>
			<trkpt lat="50.9163081153845" lon="6.71432074561662">
				<ele>149.0</ele>
				<time>2011-02-17T16:38:12Z</time>
			</trkpt>
			<trkpt lat="50.916286004521695" lon="6.714260610944649">
				<ele>149.0</ele>
				<time>2011-02-17T16:38:13Z</time>
			</trkpt>
			<trkpt lat="50.91626677808528" lon="6.714211610193262">
				<ele>149.0</ele>
				<time>2011-02-17T16:38:14Z</time>
			</trkpt>
			<trkpt lat="50.91624881687974" lon="6.714165390997379">
				<ele>149.0</ele>
				<time>2011-02-17T16:38:15Z</time>
			</trkpt>
			<trkpt lat="50.916230304314674" lon="6.714117677452563">
				<ele>148.0</ele>
				<time>2011-02-17T16:38:16Z</time>
			</trkpt>
			<trkpt lat="50.91620997676302" lon="6.714071054210373">
				<ele>148.0</ele>
				<time>2011-02-17T16:38:17Z</time>
			</trkpt>
			<trkpt lat="50.916183887094554" lon="6.714031236836535">
				<ele>148.0</ele>
				<time>2011-02-17T16:38:18Z</time>
			</trkpt>
			<trkpt lat="50.91615501698594" lon="6.7139936787945445">
				<ele>148.0</ele>
				<time>2011-02-17T16:38:19Z</time>
			</trkpt>
			<trkpt lat="50.916125469447074" lon="6.713957294912536">
				<ele>148.0</ele>
				<time>2011-02-17T16:38:20Z</time>
			</trkpt>
			<trkpt lat="50.916095282746475" lon="6.71392045424898">
				<ele>148.0</ele>
				<time>2011-02-17T16:38:21Z</time>
			</trkpt>
			<trkpt lat="50.91606346610717" lon="6.713878705669593">
				<ele>148.0</ele>
				<time>2011-02-17T16:38:22Z</time>
			</trkpt>
			<trkpt lat="50.91604380277548" lon="6.713818127473022">
				<ele>148.0</ele>
				<time>2011-02-17T16:38:23Z</time>
			</trkpt>
			<trkpt lat="50.916023479306254" lon="6.713757053855666">
				<ele>148.0</ele>
				<time>2011-02-17T16:38:24Z</time>
			</trkpt>
			<trkpt lat="50.916003901707086" lon="6.7136972555130745">
				<ele>148.0</ele>
				<time>2011-02-17T16:38:25Z</time>
			</trkpt>
			<trkpt lat="50.91598458150962" lon="6.713639134357136">
				<ele>148.0</ele>
				<time>2011-02-17T16:38:26Z</time>
			</trkpt>
			<trkpt lat="50.915962529324084" lon="6.713583687771785">
				<ele>148.0</ele>
				<time>2011-02-17T16:38:27Z</time>
			</trkpt>
			<trkpt lat="50.91593833611703" lon="6.713529962015268">
				<ele>147.0</ele>
				<time>2011-02-17T16:38:28Z</time>
			</trkpt>
			<trkpt lat="50.91591181488308" lon="6.713479454573733">
				<ele>147.0</ele>
				<time>2011-02-17T16:38:29Z</time>
			</trkpt>
			<trkpt lat="50.915885798171594" lon="6.71343373698713">
				<ele>147.0</ele>
				<time>2011-02-17T16:38:30Z</time>
			</trkpt>
			<trkpt lat="50.91585543880677" lon="6.713397301470794">
				<ele>147.0</ele>
				<time>2011-02-17T16:38:31Z</time>
			</trkpt>
			<trkpt lat="50.91582430788832" lon="6.713363938302298">
				<ele>147.0</ele>
				<time>2011-02-17T16:38:32Z</time>
			</trkpt>
			<trkpt lat="50.9157917736893" lon="6.713332798438403">
				<ele>147.0</ele>
				<time>2011-02-17T16:38:33Z</time>
			</trkpt>
			<trkpt lat="50.91575653508498" lon="6.713303333159294">
				<ele>147.0</ele>
				<time>2011-02-17T16:38:34Z</time>
			</trkpt>
			<trkpt lat="50.91572263744894" lon="6.713279179026241">
				<ele>147.0</ele>
				<time>2011-02-17T16:38:35Z</time>
			</trkpt>
			<trkpt lat="50.91569078430016" lon="6.713256689371015">
				<ele>146.0</ele>
				<time>2011-02-17T16:38:36Z</time>
			</trkpt>
			<trkpt lat="50.915664738712444" lon="6.713222319709686">
				<ele>146.0</ele>
				<time>2011-02-17T16:38:37Z</time>
			</trkpt>
			<trkpt lat="50.915638977232504" lon="6.713177618243748">
				<ele>145.0</ele>
				<time>2011-02-17T16:38:38Z</time>
			</trkpt>
			<trkpt lat="50.91561513196748" lon="6.713134146822029">
				<ele>145.0</ele>
				<time>2011-02-17T16:38:39Z</time>
			</trkpt>
			<trkpt lat="50.91559124286356" lon="6.713093788298793">
				<ele>144.0</ele>
				<time>2011-02-17T16:38:40Z</time>
			</trkpt>
			<trkpt lat="50.91556626695373" lon="6.71305594095675">
				<ele>144.0</ele>
				<time>2011-02-17T16:38:41Z</time>
			</trkpt>
			<trkpt lat="50.91553765760521" lon="6.713054304146038">
				<ele>144.0</ele>
				<time>2011-02-17T16:38:42Z</time>
			</trkpt>
			<trkpt lat="50.91551646278253" lon="6.71306776769413">
				<ele>144.0</ele>
				<time>2011-02-17T16:38:43Z</time>
			</trkpt>
			<trkpt lat="50.91549984460229" lon="6.713092509417729">
				<ele>144.0</ele>
				<time>2011-02-17T16:38:44Z</time>
			</trkpt>
			<trkpt lat="50.915478879468616" lon="6.713119610504115">
				<ele>144.0</ele>
				<time>2011-02-17T16:38:45Z</time>
			</trkpt>
			<trkpt lat="50.91544999273366" lon="6.713163077665158">
				<ele>143.0</ele>
				<time>2011-02-17T16:38:46Z</time>
			</trkpt>
			<trkpt lat="50.91541529624084" lon="6.713217019241723">
				<ele>142.0</ele>
				<time>2011-02-17T16:38:47Z</time>
			</trkpt>
			<trkpt lat="50.91537825796155" lon="6.71327639261203">
				<ele>142.0</ele>
				<time>2011-02-17T16:38:48Z</time>
			</trkpt>
			<trkpt lat="50.915341149340115" lon="6.7133323242600795">
				<ele>141.0</ele>
				<time>2011-02-17T16:38:49Z</time>
			</trkpt>
			<trkpt lat="50.91530112330718" lon="6.71338994295087">
				<ele>141.0</ele>
				<time>2011-02-17T16:38:50Z</time>
			</trkpt>
			<trkpt lat="50.91525831372781" lon="6.713450267405368">
				<ele>141.0</ele>
				<time>2011-02-17T16:38:51Z</time>
			</trkpt>
			<trkpt lat="50.91520952435228" lon="6.713513528100729">
				<ele>140.0</ele>
				<time>2011-02-17T16:38:52Z</time>
			</trkpt>
			<trkpt lat="50.91515321573912" lon="6.713578284940247">
				<ele>140.0</ele>
				<time>2011-02-17T16:38:53Z</time>
			</trkpt>
			<trkpt lat="50.91509310919879" lon="6.713640843984804">
				<ele>139.0</ele>
				<time>2011-02-17T16:38:54Z</time>
			</trkpt>
			<trkpt lat="50.91502930852906" lon="6.713702558017053">
				<ele>139.0</ele>
				<time>2011-02-17T16:38:55Z</time>
			</trkpt>
			<trkpt lat="50.91495923453271" lon="6.713767145409806">
				<ele>139.0</ele>
				<time>2011-02-17T16:38:56Z</time>
			</trkpt>
			<trkpt lat="50.914887607631776" lon="6.713830383131326">
				<ele>139.0</ele>
				<time>2011-02-17T16:38:57Z</time>
			</trkpt>
			<trkpt lat="50.914817541039994" lon="6.713891413051795">
				<ele>138.0</ele>
				<time>2011-02-17T16:38:58Z</time>
			</trkpt>
			<trkpt lat="50.91474988050438" lon="6.713947579175661">
				<ele>138.0</ele>
				<time>2011-02-17T16:38:59Z</time>
			</trkpt>
			<trkpt lat="50.91468348353149" lon="6.713999540771864">
				<ele>138.0</ele>
				<time>2011-02-17T16:39:00Z</time>
			</trkpt>
			<trkpt lat="50.914619623782734" lon="6.714046782997799">
				<ele>138.0</ele>
				<time>2011-02-17T16:39:01Z</time>
			</trkpt>
			<trkpt lat="50.91455405452983" lon="6.714088340549968">
				<ele>138.0</ele>
				<time>2011-02-17T16:39:02Z</time>
			</trkpt>
			<trkpt lat="50.91448456534012" lon="6.714127554556711">
				<ele>138.0</ele>
				<time>2011-02-17T16:39:03Z</time>
			</trkpt>
			<trkpt lat="50.914413117872726" lon="6.7141610125689235">
				<ele>138.0</ele>
				<time>2011-02-17T16:39:04Z</time>
			</trkpt>
			<trkpt lat="50.914340734978815" lon="6.714193158532509">
				<ele>138.0</ele>
				<time>2011-02-17T16:39:05Z</time>
			</trkpt>
			<trkpt lat="50.91426808683722" lon="6.714225206174725">
				<ele>138.0</ele>
				<time>2011-02-17T16:39:06Z</time>
			</trkpt>
			<trkpt lat="50.914194827287595" lon="6.7142595622422725">
				<ele>138.0</ele>
				<time>2011-02-17T16:39:07Z</time>
			</trkpt>
			<trkpt lat="50.91412276088012" lon="6.7142915808937556">
				<ele>138.0</ele>
				<time>2011-02-17T16:39:08Z</time>
			</trkpt>
			<trkpt lat="50.914054644204036" lon="6.714321110421038">
				<ele>139.0</ele>
				<time>2011-02-17T16:39:09Z</time>
			</trkpt>
			<trkpt lat="50.91399470570226" lon="6.7143488658765405">
				<ele>139.0</ele>
				<time>2011-02-17T16:39:10Z</time>
			</trkpt>
			<trkpt lat="50.9139359999311" lon="6.71437355876058">
				<ele>139.0</ele>
				<time>2011-02-17T16:39:11Z</time>
			</trkpt>
			<trkpt lat="50.91387801169166" lon="6.714394490061459">
				<ele>139.0</ele>
				<time>2011-02-17T16:39:12Z</time>
			</trkpt>
			<trkpt lat="50.91382046880152" lon="6.714415161728046">
				<ele>139.0</ele>
				<time>2011-02-17T16:39:13Z</time>
			</trkpt>
			<trkpt lat="50.913763014771234" lon="6.714436558988516">
				<ele>139.0</ele>
				<time>2011-02-17T16:39:14Z</time>
			</trkpt>
			<trkpt lat="50.913707126589955" lon="6.7144578513889845">
				<ele>139.0</ele>
				<time>2011-02-17T16:39:15Z</time>
			</trkpt>
			<trkpt lat="50.91365012334418" lon="6.714477936142154">
				<ele>139.0</ele>
				<time>2011-02-17T16:39:16Z</time>
			</trkpt>
			<trkpt lat="50.91359371330612" lon="6.714498042794848">
				<ele>139.0</ele>
				<time>2011-02-17T16:39:17Z</time>
			</trkpt>
			<trkpt lat="50.913561658748996" lon="6.714522890901548">
				<ele>139.0</ele>
				<time>2011-02-17T16:39:18Z</time>
			</trkpt>
			<trkpt lat="50.91353060996282" lon="6.714550089385282">
				<ele>139.0</ele>
				<time>2011-02-17T16:39:19Z</time>
			</trkpt>
			<trkpt lat="50.91352992989069" lon="6.714590080578535">
				<ele>139.0</ele>
				<time>2011-02-17T16:39:20Z</time>
			</trkpt>
			<trkpt lat="50.913533660764195" lon="6.714619697507901">
				<ele>139.0</ele>
				<time>2011-02-17T16:39:21Z</time>
			</trkpt>
			<trkpt lat="50.913533660764195" lon="6.714619697507901">
				<ele>139.0</ele>
				<time>2011-02-17T16:39:22Z</time>
			</trkpt>
			<trkpt lat="50.913533660764195" lon="6.714619697507901">
				<ele>139.0</ele>
				<time>2011-02-17T16:39:23Z</time>
			</trkpt>
			<trkpt lat="50.913533660764195" lon="6.714619697507901">
				<ele>139.0</ele>
				<time>2011-02-17T16:39:24Z</time>
			</trkpt>
			<trkpt lat="50.913533660764195" lon="6.714619697507901">
				<ele>139.0</ele>
				<time>2011-02-17T16:39:25Z</time>
			</trkpt>
			<trkpt lat="50.913533660764195" lon="6.714619697507901">
				<ele>139.0</ele>
				<time>2011-02-17T16:39:26Z</time>
			</trkpt>
			<trkpt lat="50.913533660764195" lon="6.714619697507901">
				<ele>139.0</ele>
				<time>2011-02-17T16:39:27Z</time>
			</trkpt>
			<trkpt lat="50.913547279378626" lon="6.714590167276802">
				<ele>139.0</ele>
				<time>2011-02-17T16:39:28Z</time>
			</trkpt>
			<trkpt lat="50.91356890207377" lon="6.714581408420193">
				<ele>139.0</ele>
				<time>2011-02-17T16:39:29Z</time>
			</trkpt>
			<trkpt lat="50.91356890207377" lon="6.714581408420193">
				<ele>139.0</ele>
				<time>2011-02-17T16:39:30Z</time>
			</trkpt>
			<trkpt lat="50.9135940903713" lon="6.714570869581277">
				<ele>139.0</ele>
				<time>2011-02-17T16:39:31Z</time>
			</trkpt>
			<trkpt lat="50.9135940903713" lon="6.714570869581277">
				<ele>139.0</ele>
				<time>2011-02-17T16:39:32Z</time>
			</trkpt>
			<trkpt lat="50.91361579611252" lon="6.714562386343286">
				<ele>139.0</ele>
				<time>2011-02-17T16:39:33Z</time>
			</trkpt>
			<trkpt lat="50.91362796626426" lon="6.714558737877286">
				<ele>139.0</ele>
				<time>2011-02-17T16:39:34Z</time>
			</trkpt>
			<trkpt lat="50.91364441565797" lon="6.7145545488093035">
				<ele>139.0</ele>
				<time>2011-02-17T16:39:35Z</time>
			</trkpt>
			<trkpt lat="50.9136658736246" lon="6.714549309786348">
				<ele>139.0</ele>
				<time>2011-02-17T16:39:36Z</time>
			</trkpt>
			<trkpt lat="50.91368563183565" lon="6.714543070372175">
				<ele>139.0</ele>
				<time>2011-02-17T16:39:37Z</time>
			</trkpt>
			<trkpt lat="50.91370596399481" lon="6.714536572018771">
				<ele>139.0</ele>
				<time>2011-02-17T16:39:38Z</time>
			</trkpt>
			<trkpt lat="50.91371911315957" lon="6.714531827753139">
				<ele>139.0</ele>
				<time>2011-02-17T16:39:39Z</time>
			</trkpt>
			<trkpt lat="50.91371911315957" lon="6.714531827753139">
				<ele>139.0</ele>
				<time>2011-02-17T16:39:40Z</time>
			</trkpt>
			<trkpt lat="50.91371911315957" lon="6.714531827753139">
				<ele>139.0</ele>
				<time>2011-02-17T16:39:41Z</time>
			</trkpt>
			<trkpt lat="50.91371911315957" lon="6.714531827753139">
				<ele>139.0</ele>
				<time>2011-02-17T16:39:42Z</time>
			</trkpt>
			<trkpt lat="50.91371911315957" lon="6.714531827753139">
				<ele>139.0</ele>
				<time>2011-02-17T16:39:43Z</time>
			</trkpt>
			<trkpt lat="50.91371911315957" lon="6.714531827753139">
				<ele>139.0</ele>
				<time>2011-02-17T16:39:44Z</time>
			</trkpt>
			<trkpt lat="50.91371911315957" lon="6.714531827753139">
				<ele>139.0</ele>
				<time>2011-02-17T16:39:45Z</time>
			</trkpt>
			<trkpt lat="50.91371911315957" lon="6.714531827753139">
				<ele>139.0</ele>
				<time>2011-02-17T16:39:46Z</time>
			</trkpt>
			<trkpt lat="50.91376368194911" lon="6.714515536215786">
				<ele>138.0</ele>
				<time>2011-02-17T16:39:47Z</time>
			</trkpt>
			<trkpt lat="50.91379895576185" lon="6.714497739507646">
				<ele>138.0</ele>
				<time>2011-02-17T16:39:48Z</time>
			</trkpt>
			<trkpt lat="50.913837084030966" lon="6.714478155244744">
				<ele>138.0</ele>
				<time>2011-02-17T16:39:49Z</time>
			</trkpt>
			<trkpt lat="50.91388124856566" lon="6.714457163402719">
				<ele>136.0</ele>
				<time>2011-02-17T16:39:50Z</time>
			</trkpt>
			<trkpt lat="50.91393407505817" lon="6.714435343538125">
				<ele>135.0</ele>
				<time>2011-02-17T16:39:51Z</time>
			</trkpt>
			<trkpt lat="50.913985754980125" lon="6.714415601847044">
				<ele>134.0</ele>
				<time>2011-02-17T16:39:52Z</time>
			</trkpt>
			<trkpt lat="50.914036399713034" lon="6.714397370899795">
				<ele>133.0</ele>
				<time>2011-02-17T16:39:53Z</time>
			</trkpt>
			<trkpt lat="50.91408576520204" lon="6.7143815375705005">
				<ele>133.0</ele>
				<time>2011-02-17T16:39:54Z</time>
			</trkpt>
			<trkpt lat="50.914134336390624" lon="6.714362774901443">
				<ele>133.0</ele>
				<time>2011-02-17T16:39:55Z</time>
			</trkpt>
			<trkpt lat="50.91417918725521" lon="6.714344918714824">
				<ele>132.0</ele>
				<time>2011-02-17T16:39:56Z</time>
			</trkpt>
			<trkpt lat="50.91421842679384" lon="6.714328816851489">
				<ele>132.0</ele>
				<time>2011-02-17T16:39:57Z</time>
			</trkpt>
			<trkpt lat="50.91425705534431" lon="6.714312402977826">
				<ele>132.0</ele>
				<time>2011-02-17T16:39:58Z</time>
			</trkpt>
			<trkpt lat="50.91428688360596" lon="6.714301447222163">
				<ele>132.0</ele>
				<time>2011-02-17T16:39:59Z</time>
			</trkpt>
			<trkpt lat="50.91431436844838" lon="6.71429314363906">
				<ele>132.0</ele>
				<time>2011-02-17T16:40:00Z</time>
			</trkpt>
			<trkpt lat="50.91431436844838" lon="6.71429314363906">
				<ele>132.0</ele>
				<time>2011-02-17T16:40:01Z</time>
			</trkpt>
			<trkpt lat="50.91431436844838" lon="6.71429314363906">
				<ele>132.0</ele>
				<time>2011-02-17T16:40:02Z</time>
			</trkpt>
			<trkpt lat="50.91431436844838" lon="6.71429314363906">
				<ele>132.0</ele>
				<time>2011-02-17T16:40:03Z</time>
			</trkpt>
			<trkpt lat="50.91431436844838" lon="6.71429314363906">
				<ele>132.0</ele>
				<time>2011-02-17T16:40:04Z</time>
			</trkpt>
			<trkpt lat="50.91431436844838" lon="6.71429314363906">
				<ele>132.0</ele>
				<time>2011-02-17T16:40:05Z</time>
			</trkpt>
			<trkpt lat="50.91431436844838" lon="6.71429314363906">
				<ele>132.0</ele>
				<time>2011-02-17T16:40:06Z</time>
			</trkpt>
			<trkpt lat="50.91431436844838" lon="6.71429314363906">
				<ele>132.0</ele>
				<time>2011-02-17T16:40:07Z</time>
			</trkpt>
			<trkpt lat="50.91431436844838" lon="6.71429314363906">
				<ele>132.0</ele>
				<time>2011-02-17T16:40:08Z</time>
			</trkpt>
			<trkpt lat="50.91431436844838" lon="6.71429314363906">
				<ele>132.0</ele>
				<time>2011-02-17T16:40:09Z</time>
			</trkpt>
			<trkpt lat="50.91431436844838" lon="6.71429314363906">
				<ele>132.0</ele>
				<time>2011-02-17T16:40:10Z</time>
			</trkpt>
			<trkpt lat="50.91431436844838" lon="6.71429314363906">
				<ele>132.0</ele>
				<time>2011-02-17T16:40:11Z</time>
			</trkpt>
			<trkpt lat="50.91431436844838" lon="6.71429314363906">
				<ele>132.0</ele>
				<time>2011-02-17T16:40:12Z</time>
			</trkpt>
			<trkpt lat="50.91431436844838" lon="6.71429314363906">
				<ele>132.0</ele>
				<time>2011-02-17T16:40:13Z</time>
			</trkpt>
			<trkpt lat="50.91431436844838" lon="6.71429314363906">
				<ele>132.0</ele>
				<time>2011-02-17T16:40:14Z</time>
			</trkpt>
			<trkpt lat="50.91431436844838" lon="6.71429314363906">
				<ele>132.0</ele>
				<time>2011-02-17T16:40:15Z</time>
			</trkpt>
			<trkpt lat="50.91431436844838" lon="6.71429314363906">
				<ele>132.0</ele>
				<time>2011-02-17T16:40:16Z</time>
			</trkpt>
			<trkpt lat="50.91431436844838" lon="6.71429314363906">
				<ele>132.0</ele>
				<time>2011-02-17T16:40:17Z</time>
			</trkpt>
			<trkpt lat="50.91431436844838" lon="6.71429314363906">
				<ele>132.0</ele>
				<time>2011-02-17T16:40:18Z</time>
			</trkpt>
			<trkpt lat="50.91431436844838" lon="6.71429314363906">
				<ele>132.0</ele>
				<time>2011-02-17T16:40:19Z</time>
			</trkpt>
			<trkpt lat="50.91431436844838" lon="6.71429314363906">
				<ele>132.0</ele>
				<time>2011-02-17T16:40:20Z</time>
			</trkpt>
			<trkpt lat="50.91431436844838" lon="6.71429314363906">
				<ele>132.0</ele>
				<time>2011-02-17T16:40:21Z</time>
			</trkpt>
			<trkpt lat="50.91431436844838" lon="6.71429314363906">
				<ele>132.0</ele>
				<time>2011-02-17T16:40:22Z</time>
			</trkpt>
			<trkpt lat="50.91431436844838" lon="6.71429314363906">
				<ele>132.0</ele>
				<time>2011-02-17T16:40:23Z</time>
			</trkpt>
			<trkpt lat="50.91431436844838" lon="6.71429314363906">
				<ele>132.0</ele>
				<time>2011-02-17T16:40:24Z</time>
			</trkpt>
			<trkpt lat="50.91431436844838" lon="6.71429314363906">
				<ele>132.0</ele>
				<time>2011-02-17T16:40:25Z</time>
			</trkpt>
			<trkpt lat="50.91431436844838" lon="6.71429314363906">
				<ele>132.0</ele>
				<time>2011-02-17T16:40:26Z</time>
			</trkpt>
			<trkpt lat="50.91431436844838" lon="6.71429314363906">
				<ele>132.0</ele>
				<time>2011-02-17T16:40:27Z</time>
			</trkpt>
			<trkpt lat="50.91431436844838" lon="6.71429314363906">
				<ele>132.0</ele>
				<time>2011-02-17T16:40:28Z</time>
			</trkpt>
			<trkpt lat="50.91431436844838" lon="6.71429314363906">
				<ele>132.0</ele>
				<time>2011-02-17T16:40:29Z</time>
			</trkpt>
			<trkpt lat="50.91431436844838" lon="6.71429314363906">
				<ele>132.0</ele>
				<time>2011-02-17T16:40:30Z</time>
			</trkpt>
			<trkpt lat="50.91431436844838" lon="6.71429314363906">
				<ele>132.0</ele>
				<time>2011-02-17T16:40:31Z</time>
			</trkpt>
			<trkpt lat="50.91431436844838" lon="6.71429314363906">
				<ele>132.0</ele>
				<time>2011-02-17T16:40:32Z</time>
			</trkpt>
			<trkpt lat="50.91431436844838" lon="6.71429314363906">
				<ele>132.0</ele>
				<time>2011-02-17T16:40:33Z</time>
			</trkpt>
			<trkpt lat="50.91431436844838" lon="6.71429314363906">
				<ele>132.0</ele>
				<time>2011-02-17T16:40:34Z</time>
			</trkpt>
			<trkpt lat="50.91431436844838" lon="6.71429314363906">
				<ele>132.0</ele>
				<time>2011-02-17T16:40:35Z</time>
			</trkpt>
			<trkpt lat="50.91431436844838" lon="6.71429314363906">
				<ele>132.0</ele>
				<time>2011-02-17T16:40:36Z</time>
			</trkpt>
			<trkpt lat="50.91431436844838" lon="6.71429314363906">
				<ele>132.0</ele>
				<time>2011-02-17T16:40:37Z</time>
			</trkpt>
			<trkpt lat="50.91431436844838" lon="6.71429314363906">
				<ele>132.0</ele>
				<time>2011-02-17T16:40:38Z</time>
			</trkpt>
			<trkpt lat="50.91431436844838" lon="6.71429314363906">
				<ele>132.0</ele>
				<time>2011-02-17T16:40:39Z</time>
			</trkpt>
			<trkpt lat="50.91431436844838" lon="6.71429314363906">
				<ele>132.0</ele>
				<time>2011-02-17T16:40:40Z</time>
			</trkpt>
			<trkpt lat="50.91431436844838" lon="6.71429314363906">
				<ele>132.0</ele>
				<time>2011-02-17T16:40:41Z</time>
			</trkpt>
			<trkpt lat="50.91431436844838" lon="6.71429314363906">
				<ele>132.0</ele>
				<time>2011-02-17T16:40:42Z</time>
			</trkpt>
			<trkpt lat="50.91431436844838" lon="6.71429314363906">
				<ele>132.0</ele>
				<time>2011-02-17T16:40:43Z</time>
			</trkpt>
			<trkpt lat="50.91431436844838" lon="6.71429314363906">
				<ele>132.0</ele>
				<time>2011-02-17T16:40:44Z</time>
			</trkpt>
			<trkpt lat="50.91431436844838" lon="6.71429314363906">
				<ele>132.0</ele>
				<time>2011-02-17T16:40:45Z</time>
			</trkpt>
			<trkpt lat="50.91431436844838" lon="6.71429314363906">
				<ele>132.0</ele>
				<time>2011-02-17T16:40:46Z</time>
			</trkpt>
			<trkpt lat="50.91431436844838" lon="6.71429314363906">
				<ele>132.0</ele>
				<time>2011-02-17T16:40:47Z</time>
			</trkpt>
			<trkpt lat="50.91431436844838" lon="6.71429314363906">
				<ele>132.0</ele>
				<time>2011-02-17T16:40:48Z</time>
			</trkpt>
			<trkpt lat="50.91431436844838" lon="6.71429314363906">
				<ele>132.0</ele>
				<time>2011-02-17T16:40:49Z</time>
			</trkpt>
			<trkpt lat="50.91431436844838" lon="6.71429314363906">
				<ele>132.0</ele>
				<time>2011-02-17T16:40:50Z</time>
			</trkpt>
			<trkpt lat="50.91431436844838" lon="6.71429314363906">
				<ele>132.0</ele>
				<time>2011-02-17T16:40:51Z</time>
			</trkpt>
			<trkpt lat="50.91431436844838" lon="6.71429314363906">
				<ele>132.0</ele>
				<time>2011-02-17T16:40:52Z</time>
			</trkpt>
			<trkpt lat="50.91431436844838" lon="6.71429314363906">
				<ele>132.0</ele>
				<time>2011-02-17T16:40:53Z</time>
			</trkpt>
			<trkpt lat="50.91431436844838" lon="6.71429314363906">
				<ele>132.0</ele>
				<time>2011-02-17T16:40:54Z</time>
			</trkpt>
			<trkpt lat="50.91431436844838" lon="6.71429314363906">
				<ele>132.0</ele>
				<time>2011-02-17T16:40:55Z</time>
			</trkpt>
			<trkpt lat="50.91431436844838" lon="6.71429314363906">
				<ele>132.0</ele>
				<time>2011-02-17T16:40:56Z</time>
			</trkpt>
			<trkpt lat="50.91431436844838" lon="6.71429314363906">
				<ele>132.0</ele>
				<time>2011-02-17T16:40:57Z</time>
			</trkpt>
			<trkpt lat="50.91431436844838" lon="6.71429314363906">
				<ele>132.0</ele>
				<time>2011-02-17T16:40:58Z</time>
			</trkpt>
			<trkpt lat="50.91431436844838" lon="6.71429314363906">
				<ele>132.0</ele>
				<time>2011-02-17T16:40:59Z</time>
			</trkpt>
			<trkpt lat="50.91431436844838" lon="6.71429314363906">
				<ele>132.0</ele>
				<time>2011-02-17T16:41:00Z</time>
			</trkpt>
			<trkpt lat="50.91431436844838" lon="6.71429314363906">
				<ele>132.0</ele>
				<time>2011-02-17T16:41:01Z</time>
			</trkpt>
			<trkpt lat="50.91431436844838" lon="6.71429314363906">
				<ele>132.0</ele>
				<time>2011-02-17T16:41:02Z</time>
			</trkpt>
			<trkpt lat="50.91431436844838" lon="6.71429314363906">
				<ele>132.0</ele>
				<time>2011-02-17T16:41:03Z</time>
			</trkpt>
			<trkpt lat="50.91431436844838" lon="6.71429314363906">
				<ele>132.0</ele>
				<time>2011-02-17T16:41:04Z</time>
			</trkpt>
			<trkpt lat="50.91431436844838" lon="6.71429314363906">
				<ele>132.0</ele>
				<time>2011-02-17T16:41:05Z</time>
			</trkpt>
			<trkpt lat="50.91431436844838" lon="6.71429314363906">
				<ele>132.0</ele>
				<time>2011-02-17T16:41:06Z</time>
			</trkpt>
			<trkpt lat="50.91431436844838" lon="6.71429314363906">
				<ele>132.0</ele>
				<time>2011-02-17T16:41:07Z</time>
			</trkpt>
			<trkpt lat="50.91431436844838" lon="6.71429314363906">
				<ele>132.0</ele>
				<time>2011-02-17T16:41:08Z</time>
			</trkpt>
			<trkpt lat="50.91431436844838" lon="6.71429314363906">
				<ele>132.0</ele>
				<time>2011-02-17T16:41:09Z</time>
			</trkpt>
			<trkpt lat="50.91431436844838" lon="6.71429314363906">
				<ele>132.0</ele>
				<time>2011-02-17T16:41:10Z</time>
			</trkpt>
			<trkpt lat="50.91431436844838" lon="6.71429314363906">
				<ele>132.0</ele>
				<time>2011-02-17T16:41:11Z</time>
			</trkpt>
			<trkpt lat="50.91438139812284" lon="6.714269495296026">
				<ele>132.0</ele>
				<time>2011-02-17T16:41:12Z</time>
			</trkpt>
			<trkpt lat="50.91438139812284" lon="6.714269495296026">
				<ele>132.0</ele>
				<time>2011-02-17T16:41:13Z</time>
			</trkpt>
			<trkpt lat="50.91438139812284" lon="6.714269495296026">
				<ele>132.0</ele>
				<time>2011-02-17T16:41:14Z</time>
			</trkpt>
			<trkpt lat="50.91441779621259" lon="6.714252225632853">
				<ele>132.0</ele>
				<time>2011-02-17T16:41:15Z</time>
			</trkpt>
			<trkpt lat="50.91441779621259" lon="6.714252225632853">
				<ele>132.0</ele>
				<time>2011-02-17T16:41:16Z</time>
			</trkpt>
			<trkpt lat="50.91441779621259" lon="6.714252225632853">
				<ele>132.0</ele>
				<time>2011-02-17T16:41:17Z</time>
			</trkpt>
			<trkpt lat="50.91441779621259" lon="6.714252225632853">
				<ele>132.0</ele>
				<time>2011-02-17T16:41:18Z</time>
			</trkpt>
			<trkpt lat="50.91441779621259" lon="6.714252225632853">
				<ele>132.0</ele>
				<time>2011-02-17T16:41:19Z</time>
			</trkpt>
			<trkpt lat="50.91441779621259" lon="6.714252225632853">
				<ele>132.0</ele>
				<time>2011-02-17T16:41:20Z</time>
			</trkpt>
			<trkpt lat="50.91448602030429" lon="6.714211342839473">
				<ele>132.0</ele>
				<time>2011-02-17T16:41:21Z</time>
			</trkpt>
			<trkpt lat="50.91448602030429" lon="6.714211342839473">
				<ele>132.0</ele>
				<time>2011-02-17T16:41:22Z</time>
			</trkpt>
			<trkpt lat="50.91448602030429" lon="6.714211342839473">
				<ele>132.0</ele>
				<time>2011-02-17T16:41:23Z</time>
			</trkpt>
			<trkpt lat="50.91448602030429" lon="6.714211342839473">
				<ele>132.0</ele>
				<time>2011-02-17T16:41:24Z</time>
			</trkpt>
			<trkpt lat="50.91453540561843" lon="6.714181555450949">
				<ele>132.0</ele>
				<time>2011-02-17T16:41:25Z</time>
			</trkpt>
			<trkpt lat="50.91453540561843" lon="6.714181555450949">
				<ele>132.0</ele>
				<time>2011-02-17T16:41:26Z</time>
			</trkpt>
			<trkpt lat="50.91453540561843" lon="6.714181555450949">
				<ele>132.0</ele>
				<time>2011-02-17T16:41:27Z</time>
			</trkpt>
			<trkpt lat="50.914579084528775" lon="6.71415989617472">
				<ele>132.0</ele>
				<time>2011-02-17T16:41:28Z</time>
			</trkpt>
			<trkpt lat="50.914579084528775" lon="6.71415989617472">
				<ele>132.0</ele>
				<time>2011-02-17T16:41:29Z</time>
			</trkpt>
			<trkpt lat="50.91460503281993" lon="6.714148501643562">
				<ele>132.0</ele>
				<time>2011-02-17T16:41:30Z</time>
			</trkpt>
			<trkpt lat="50.91461980887534" lon="6.71414156338793">
				<ele>132.0</ele>
				<time>2011-02-17T16:41:31Z</time>
			</trkpt>
			<trkpt lat="50.91461980887534" lon="6.71414156338793">
				<ele>132.0</ele>
				<time>2011-02-17T16:41:32Z</time>
			</trkpt>
			<trkpt lat="50.91461980887534" lon="6.71414156338793">
				<ele>132.0</ele>
				<time>2011-02-17T16:41:33Z</time>
			</trkpt>
			<trkpt lat="50.91461980887534" lon="6.71414156338793">
				<ele>132.0</ele>
				<time>2011-02-17T16:41:34Z</time>
			</trkpt>
			<trkpt lat="50.9146749415753" lon="6.714113012315321">
				<ele>132.0</ele>
				<time>2011-02-17T16:41:35Z</time>
			</trkpt>
			<trkpt lat="50.91468525463468" lon="6.7141062099980005">
				<ele>132.0</ele>
				<time>2011-02-17T16:41:36Z</time>
			</trkpt>
			<trkpt lat="50.91468525463468" lon="6.7141062099980005">
				<ele>132.0</ele>
				<time>2011-02-17T16:41:37Z</time>
			</trkpt>
			<trkpt lat="50.91468525463468" lon="6.7141062099980005">
				<ele>132.0</ele>
				<time>2011-02-17T16:41:38Z</time>
			</trkpt>
			<trkpt lat="50.91468525463468" lon="6.7141062099980005">
				<ele>132.0</ele>
				<time>2011-02-17T16:41:39Z</time>
			</trkpt>
			<trkpt lat="50.91468525463468" lon="6.7141062099980005">
				<ele>132.0</ele>
				<time>2011-02-17T16:41:40Z</time>
			</trkpt>
			<trkpt lat="50.91468525463468" lon="6.7141062099980005">
				<ele>132.0</ele>
				<time>2011-02-17T16:41:41Z</time>
			</trkpt>
			<trkpt lat="50.91468525463468" lon="6.7141062099980005">
				<ele>132.0</ele>
				<time>2011-02-17T16:41:42Z</time>
			</trkpt>
			<trkpt lat="50.91468525463468" lon="6.7141062099980005">
				<ele>132.0</ele>
				<time>2011-02-17T16:41:43Z</time>
			</trkpt>
			<trkpt lat="50.914765057462674" lon="6.714038540289523">
				<ele>132.0</ele>
				<time>2011-02-17T16:41:44Z</time>
			</trkpt>
			<trkpt lat="50.91477555714809" lon="6.714028357450945">
				<ele>132.0</ele>
				<time>2011-02-17T16:41:45Z</time>
			</trkpt>
			<trkpt lat="50.91478693740061" lon="6.714016928298604">
				<ele>132.0</ele>
				<time>2011-02-17T16:41:46Z</time>
			</trkpt>
			<trkpt lat="50.91479951131935" lon="6.714004340895186">
				<ele>132.0</ele>
				<time>2011-02-17T16:41:47Z</time>
			</trkpt>
			<trkpt lat="50.91479951131935" lon="6.714004340895186">
				<ele>132.0</ele>
				<time>2011-02-17T16:41:48Z</time>
			</trkpt>
			<trkpt lat="50.91479951131935" lon="6.714004340895186">
				<ele>132.0</ele>
				<time>2011-02-17T16:41:49Z</time>
			</trkpt>
			<trkpt lat="50.91483752003876" lon="6.713966733600485">
				<ele>132.0</ele>
				<time>2011-02-17T16:41:50Z</time>
			</trkpt>
			<trkpt lat="50.914852745743744" lon="6.713952943405953">
				<ele>132.0</ele>
				<time>2011-02-17T16:41:51Z</time>
			</trkpt>
			<trkpt lat="50.914852745743744" lon="6.713952943405953">
				<ele>132.0</ele>
				<time>2011-02-17T16:41:52Z</time>
			</trkpt>
			<trkpt lat="50.914852745743744" lon="6.713952943405953">
				<ele>132.0</ele>
				<time>2011-02-17T16:41:53Z</time>
			</trkpt>
			<trkpt lat="50.914852745743744" lon="6.713952943405953">
				<ele>132.0</ele>
				<time>2011-02-17T16:41:54Z</time>
			</trkpt>
			<trkpt lat="50.914852745743744" lon="6.713952943405953">
				<ele>132.0</ele>
				<time>2011-02-17T16:41:55Z</time>
			</trkpt>
			<trkpt lat="50.914852745743744" lon="6.713952943405953">
				<ele>132.0</ele>
				<time>2011-02-17T16:41:56Z</time>
			</trkpt>
			<trkpt lat="50.91494004837243" lon="6.7138718251579865">
				<ele>132.0</ele>
				<time>2011-02-17T16:41:57Z</time>
			</trkpt>
			<trkpt lat="50.91494004837243" lon="6.7138718251579865">
				<ele>132.0</ele>
				<time>2011-02-17T16:41:58Z</time>
			</trkpt>
			<trkpt lat="50.91494004837243" lon="6.7138718251579865">
				<ele>132.0</ele>
				<time>2011-02-17T16:41:59Z</time>
			</trkpt>
			<trkpt lat="50.91494004837243" lon="6.7138718251579865">
				<ele>132.0</ele>
				<time>2011-02-17T16:42:00Z</time>
			</trkpt>
			<trkpt lat="50.91494004837243" lon="6.7138718251579865">
				<ele>132.0</ele>
				<time>2011-02-17T16:42:01Z</time>
			</trkpt>
			<trkpt lat="50.91494004837243" lon="6.7138718251579865">
				<ele>132.0</ele>
				<time>2011-02-17T16:42:02Z</time>
			</trkpt>
			<trkpt lat="50.915008289487176" lon="6.713754604127145">
				<ele>132.0</ele>
				<time>2011-02-17T16:42:03Z</time>
			</trkpt>
			<trkpt lat="50.915008289487176" lon="6.713754604127145">
				<ele>132.0</ele>
				<time>2011-02-17T16:42:04Z</time>
			</trkpt>
			<trkpt lat="50.915008289487176" lon="6.713754604127145">
				<ele>132.0</ele>
				<time>2011-02-17T16:42:05Z</time>
			</trkpt>
			<trkpt lat="50.915008289487176" lon="6.713754604127145">
				<ele>132.0</ele>
				<time>2011-02-17T16:42:06Z</time>
			</trkpt>
			<trkpt lat="50.915008289487176" lon="6.713754604127145">
				<ele>132.0</ele>
				<time>2011-02-17T16:42:07Z</time>
			</trkpt>
			<trkpt lat="50.915008289487176" lon="6.713754604127145">
				<ele>132.0</ele>
				<time>2011-02-17T16:42:08Z</time>
			</trkpt>
			<trkpt lat="50.915008289487176" lon="6.713754604127145">
				<ele>132.0</ele>
				<time>2011-02-17T16:42:09Z</time>
			</trkpt>
			<trkpt lat="50.915089278876465" lon="6.713656607194334">
				<ele>132.0</ele>
				<time>2011-02-17T16:42:10Z</time>
			</trkpt>
			<trkpt lat="50.915089278876465" lon="6.713656607194334">
				<ele>132.0</ele>
				<time>2011-02-17T16:42:11Z</time>
			</trkpt>
			<trkpt lat="50.915089278876465" lon="6.713656607194334">
				<ele>132.0</ele>
				<time>2011-02-17T16:42:12Z</time>
			</trkpt>
			<trkpt lat="50.915117228559794" lon="6.713608594594036">
				<ele>132.0</ele>
				<time>2011-02-17T16:42:13Z</time>
			</trkpt>
			<trkpt lat="50.91512364511934" lon="6.713593001479667">
				<ele>132.0</ele>
				<time>2011-02-17T16:42:14Z</time>
			</trkpt>
			<trkpt lat="50.91512364511934" lon="6.713593001479667">
				<ele>132.0</ele>
				<time>2011-02-17T16:42:15Z</time>
			</trkpt>
			<trkpt lat="50.91512364511934" lon="6.713593001479667">
				<ele>132.0</ele>
				<time>2011-02-17T16:42:16Z</time>
			</trkpt>
			<trkpt lat="50.915144813842545" lon="6.713546461674202">
				<ele>132.0</ele>
				<time>2011-02-17T16:42:17Z</time>
			</trkpt>
			<trkpt lat="50.91515265159142" lon="6.713532340410127">
				<ele>132.0</ele>
				<time>2011-02-17T16:42:18Z</time>
			</trkpt>
			<trkpt lat="50.91516082327334" lon="6.713517866426044">
				<ele>132.0</ele>
				<time>2011-02-17T16:42:19Z</time>
			</trkpt>
			<trkpt lat="50.91516939588189" lon="6.713503830089772">
				<ele>132.0</ele>
				<time>2011-02-17T16:42:20Z</time>
			</trkpt>
			<trkpt lat="50.915179152320235" lon="6.713489973780407">
				<ele>132.0</ele>
				<time>2011-02-17T16:42:21Z</time>
			</trkpt>
			<trkpt lat="50.91518902776723" lon="6.713475968999307">
				<ele>132.0</ele>
				<time>2011-02-17T16:42:22Z</time>
			</trkpt>
			<trkpt lat="50.91519857528432" lon="6.713462470692348">
				<ele>132.0</ele>
				<time>2011-02-17T16:42:23Z</time>
			</trkpt>
			<trkpt lat="50.91520766365077" lon="6.713450033243028">
				<ele>132.0</ele>
				<time>2011-02-17T16:42:24Z</time>
			</trkpt>
			<trkpt lat="50.91520766365077" lon="6.713450033243028">
				<ele>132.0</ele>
				<time>2011-02-17T16:42:25Z</time>
			</trkpt>
			<trkpt lat="50.91520766365077" lon="6.713450033243028">
				<ele>132.0</ele>
				<time>2011-02-17T16:42:26Z</time>
			</trkpt>
			<trkpt lat="50.91520766365077" lon="6.713450033243028">
				<ele>132.0</ele>
				<time>2011-02-17T16:42:27Z</time>
			</trkpt>
			<trkpt lat="50.915244529355526" lon="6.7134011597968115">
				<ele>132.0</ele>
				<time>2011-02-17T16:42:28Z</time>
			</trkpt>
			<trkpt lat="50.91525312921412" lon="6.713390799943196">
				<ele>132.0</ele>
				<time>2011-02-17T16:42:29Z</time>
			</trkpt>
			<trkpt lat="50.91526430671108" lon="6.7133845076698">
				<ele>132.0</ele>
				<time>2011-02-17T16:42:30Z</time>
			</trkpt>
			<trkpt lat="50.91527669241558" lon="6.713374819027357">
				<ele>132.0</ele>
				<time>2011-02-17T16:42:31Z</time>
			</trkpt>
			<trkpt lat="50.91528959679401" lon="6.7133648098162775">
				<ele>132.0</ele>
				<time>2011-02-17T16:42:32Z</time>
			</trkpt>
			<trkpt lat="50.91530248647046" lon="6.713354886603892">
				<ele>132.0</ele>
				<time>2011-02-17T16:42:33Z</time>
			</trkpt>
			<trkpt lat="50.91530248647046" lon="6.713354886603892">
				<ele>132.0</ele>
				<time>2011-02-17T16:42:34Z</time>
			</trkpt>
			<trkpt lat="50.91532816171533" lon="6.71333372073836">
				<ele>132.0</ele>
				<time>2011-02-17T16:42:35Z</time>
			</trkpt>
			<trkpt lat="50.91534134089636" lon="6.713322783940296">
				<ele>132.0</ele>
				<time>2011-02-17T16:42:36Z</time>
			</trkpt>
			<trkpt lat="50.915354858594924" lon="6.7133123312465">
				<ele>132.0</ele>
				<time>2011-02-17T16:42:37Z</time>
			</trkpt>
			<trkpt lat="50.91536859210392" lon="6.71330163807588">
				<ele>132.0</ele>
				<time>2011-02-17T16:42:38Z</time>
			</trkpt>
			<trkpt lat="50.91538404057678" lon="6.713299363730222">
				<ele>132.0</ele>
				<time>2011-02-17T16:42:39Z</time>
			</trkpt>
			<trkpt lat="50.915396714347374" lon="6.713298256494675">
				<ele>132.0</ele>
				<time>2011-02-17T16:42:40Z</time>
			</trkpt>
			<trkpt lat="50.91541002099514" lon="6.713301947216908">
				<ele>132.0</ele>
				<time>2011-02-17T16:42:41Z</time>
			</trkpt>
			<trkpt lat="50.91542383122151" lon="6.713304370258928">
				<ele>132.0</ele>
				<time>2011-02-17T16:42:42Z</time>
			</trkpt>
			<trkpt lat="50.91543817218691" lon="6.713306518543925">
				<ele>132.0</ele>
				<time>2011-02-17T16:42:43Z</time>
			</trkpt>
			<trkpt lat="50.91545372317398" lon="6.713308245813307">
				<ele>132.0</ele>
				<time>2011-02-17T16:42:44Z</time>
			</trkpt>
			<trkpt lat="50.91547223608641" lon="6.713308670923445">
				<ele>132.0</ele>
				<time>2011-02-17T16:42:45Z</time>
			</trkpt>
			<trkpt lat="50.91549035394114" lon="6.713307563918029">
				<ele>132.0</ele>
				<time>2011-02-17T16:42:46Z</time>
			</trkpt>
			<trkpt lat="50.915508214044735" lon="6.713306360208987">
				<ele>132.0</ele>
				<time>2011-02-17T16:42:47Z</time>
			</trkpt>
			<trkpt lat="50.915522964291334" lon="6.713305725599834">
				<ele>132.0</ele>
				<time>2011-02-17T16:42:48Z</time>
			</trkpt>
			<trkpt lat="50.915522964291334" lon="6.713305725599834">
				<ele>132.0</ele>
				<time>2011-02-17T16:42:49Z</time>
			</trkpt>
			<trkpt lat="50.91554932784496" lon="6.713321283465653">
				<ele>132.0</ele>
				<time>2011-02-17T16:42:50Z</time>
			</trkpt>
			<trkpt lat="50.91555926679409" lon="6.713340984541105">
				<ele>132.0</ele>
				<time>2011-02-17T16:42:51Z</time>
			</trkpt>
			<trkpt lat="50.91556746050052" lon="6.7133613042216105">
				<ele>132.0</ele>
				<time>2011-02-17T16:42:52Z</time>
			</trkpt>
			<trkpt lat="50.91557781719703" lon="6.713377520358118">
				<ele>132.0</ele>
				<time>2011-02-17T16:42:53Z</time>
			</trkpt>
			<trkpt lat="50.915588218764874" lon="6.713392546622426">
				<ele>132.0</ele>
				<time>2011-02-17T16:42:54Z</time>
			</trkpt>
			<trkpt lat="50.9156001745669" lon="6.713402585773132">
				<ele>132.0</ele>
				<time>2011-02-17T16:42:55Z</time>
			</trkpt>
			<trkpt lat="50.91561243904174" lon="6.713412185624908">
				<ele>132.0</ele>
				<time>2011-02-17T16:42:56Z</time>
			</trkpt>
			<trkpt lat="50.91562429704566" lon="6.71342084709329">
				<ele>132.0</ele>
				<time>2011-02-17T16:42:57Z</time>
			</trkpt>
			<trkpt lat="50.915636393218556" lon="6.713429201772836">
				<ele>132.0</ele>
				<time>2011-02-17T16:42:58Z</time>
			</trkpt>
			<trkpt lat="50.91564754759605" lon="6.713436859163432">
				<ele>132.0</ele>
				<time>2011-02-17T16:42:59Z</time>
			</trkpt>
			<trkpt lat="50.91565916321661" lon="6.713444613811789">
				<ele>132.0</ele>
				<time>2011-02-17T16:43:00Z</time>
			</trkpt>
			<trkpt lat="50.91567193188259" lon="6.713450472916193">
				<ele>132.0</ele>
				<time>2011-02-17T16:43:01Z</time>
			</trkpt>
			<trkpt lat="50.91568574638701" lon="6.7134555321371865">
				<ele>132.0</ele>
				<time>2011-02-17T16:43:02Z</time>
			</trkpt>
			<trkpt lat="50.91570203916404" lon="6.713459953193323">
				<ele>132.0</ele>
				<time>2011-02-17T16:43:03Z</time>
			</trkpt>
			<trkpt lat="50.91571944251591" lon="6.713465563933635">
				<ele>132.0</ele>
				<time>2011-02-17T16:43:04Z</time>
			</trkpt>
			<trkpt lat="50.9157372501414" lon="6.713471460233088">
				<ele>132.0</ele>
				<time>2011-02-17T16:43:05Z</time>
			</trkpt>
			<trkpt lat="50.91575705533623" lon="6.713477797956768">
				<ele>132.0</ele>
				<time>2011-02-17T16:43:06Z</time>
			</trkpt>
			<trkpt lat="50.91577722189544" lon="6.71348418176011">
				<ele>132.0</ele>
				<time>2011-02-17T16:43:07Z</time>
			</trkpt>
			<trkpt lat="50.915796321422704" lon="6.713489787983937">
				<ele>132.0</ele>
				<time>2011-02-17T16:43:08Z</time>
			</trkpt>
			<trkpt lat="50.9158152571445" lon="6.713494099357285">
				<ele>132.0</ele>
				<time>2011-02-17T16:43:09Z</time>
			</trkpt>
			<trkpt lat="50.915833223962835" lon="6.713498354926811">
				<ele>132.0</ele>
				<time>2011-02-17T16:43:10Z</time>
			</trkpt>
			<trkpt lat="50.91584995007904" lon="6.713505800853993">
				<ele>132.0</ele>
				<time>2011-02-17T16:43:11Z</time>
			</trkpt>
			<trkpt lat="50.915865833404105" lon="6.71351397946149">
				<ele>131.0</ele>
				<time>2011-02-17T16:43:12Z</time>
			</trkpt>
			<trkpt lat="50.915880174216475" lon="6.71352165366722">
				<ele>131.0</ele>
				<time>2011-02-17T16:43:13Z</time>
			</trkpt>
			<trkpt lat="50.91589287448959" lon="6.713532125856936">
				<ele>131.0</ele>
				<time>2011-02-17T16:43:14Z</time>
			</trkpt>
			<trkpt lat="50.91590525666667" lon="6.7135459011938465">
				<ele>131.0</ele>
				<time>2011-02-17T16:43:15Z</time>
			</trkpt>
			<trkpt lat="50.91591755451183" lon="6.713560541378906">
				<ele>131.0</ele>
				<time>2011-02-17T16:43:16Z</time>
			</trkpt>
			<trkpt lat="50.915928990331004" lon="6.713576873268583">
				<ele>131.0</ele>
				<time>2011-02-17T16:43:17Z</time>
			</trkpt>
			<trkpt lat="50.915938968706136" lon="6.713593455992488">
				<ele>131.0</ele>
				<time>2011-02-17T16:43:18Z</time>
			</trkpt>
			<trkpt lat="50.91594788019099" lon="6.713607494894583">
				<ele>131.0</ele>
				<time>2011-02-17T16:43:19Z</time>
			</trkpt>
			<trkpt lat="50.915957243820486" lon="6.713622066712883">
				<ele>131.0</ele>
				<time>2011-02-17T16:43:20Z</time>
			</trkpt>
			<trkpt lat="50.91596628209522" lon="6.713637570195605">
				<ele>131.0</ele>
				<time>2011-02-17T16:43:21Z</time>
			</trkpt>
			<trkpt lat="50.915976977887745" lon="6.713651053922402">
				<ele>131.0</ele>
				<time>2011-02-17T16:43:22Z</time>
			</trkpt>
			<trkpt lat="50.915988116912295" lon="6.713666537398552">
				<ele>131.0</ele>
				<time>2011-02-17T16:43:23Z</time>
			</trkpt>
			<trkpt lat="50.91599830972892" lon="6.713682722251308">
				<ele>131.0</ele>
				<time>2011-02-17T16:43:24Z</time>
			</trkpt>
			<trkpt lat="50.91600700132965" lon="6.713701763991386">
				<ele>131.0</ele>
				<time>2011-02-17T16:43:25Z</time>
			</trkpt>
			<trkpt lat="50.91601646045478" lon="6.713720946517217">
				<ele>131.0</ele>
				<time>2011-02-17T16:43:26Z</time>
			</trkpt>
			<trkpt lat="50.916025059373894" lon="6.7137386590800725">
				<ele>131.0</ele>
				<time>2011-02-17T16:43:27Z</time>
			</trkpt>
			<trkpt lat="50.91603224823574" lon="6.713753152173726">
				<ele>131.0</ele>
				<time>2011-02-17T16:43:28Z</time>
			</trkpt>
			<trkpt lat="50.91603873517238" lon="6.713765634339214">
				<ele>131.0</ele>
				<time>2011-02-17T16:43:29Z</time>
			</trkpt>
			<trkpt lat="50.9160440213295" lon="6.713777505073422">
				<ele>131.0</ele>
				<time>2011-02-17T16:43:30Z</time>
			</trkpt>
			<trkpt lat="50.91604688206562" lon="6.713783064518995">
				<ele>131.0</ele>
				<time>2011-02-17T16:43:31Z</time>
			</trkpt>
			<trkpt lat="50.916049893467594" lon="6.713789253153605">
				<ele>131.0</ele>
				<time>2011-02-17T16:43:32Z</time>
			</trkpt>
			<trkpt lat="50.91605342615736" lon="6.713796799887534">
				<ele>131.0</ele>
				<time>2011-02-17T16:43:33Z</time>
			</trkpt>
			<trkpt lat="50.91605737890475" lon="6.713806225311149">
				<ele>131.0</ele>
				<time>2011-02-17T16:43:34Z</time>
			</trkpt>
			<trkpt lat="50.91606222780387" lon="6.71381738154923">
				<ele>131.0</ele>
				<time>2011-02-17T16:43:35Z</time>
			</trkpt>
			<trkpt lat="50.91606826515616" lon="6.713828353390406">
				<ele>131.0</ele>
				<time>2011-02-17T16:43:36Z</time>
			</trkpt>
			<trkpt lat="50.916076062036474" lon="6.713842579583942">
				<ele>131.0</ele>
				<time>2011-02-17T16:43:37Z</time>
			</trkpt>
			<trkpt lat="50.916082876113336" lon="6.713856202697639">
				<ele>131.0</ele>
				<time>2011-02-17T16:43:38Z</time>
			</trkpt>
			<trkpt lat="50.916088746862606" lon="6.713867472406778">
				<ele>131.0</ele>
				<time>2011-02-17T16:43:39Z</time>
			</trkpt>
			<trkpt lat="50.916095929070586" lon="6.713882894211899">
				<ele>131.0</ele>
				<time>2011-02-17T16:43:40Z</time>
			</trkpt>
			<trkpt lat="50.91610328361524" lon="6.713896791164932">
				<ele>131.0</ele>
				<time>2011-02-17T16:43:41Z</time>
			</trkpt>
			<trkpt lat="50.916109658210935" lon="6.713907442083697">
				<ele>131.0</ele>
				<time>2011-02-17T16:43:42Z</time>
			</trkpt>
			<trkpt lat="50.916116403412566" lon="6.713920675321098">
				<ele>131.0</ele>
				<time>2011-02-17T16:43:43Z</time>
			</trkpt>
			<trkpt lat="50.91612228492528" lon="6.7139325363360065">
				<ele>131.0</ele>
				<time>2011-02-17T16:43:44Z</time>
			</trkpt>
			<trkpt lat="50.916127203163285" lon="6.713941157868973">
				<ele>131.0</ele>
				<time>2011-02-17T16:43:45Z</time>
			</trkpt>
			<trkpt lat="50.91613296785727" lon="6.71394876058594">
				<ele>131.0</ele>
				<time>2011-02-17T16:43:46Z</time>
			</trkpt>
			<trkpt lat="50.91613844690774" lon="6.71395728048751">
				<ele>131.0</ele>
				<time>2011-02-17T16:43:47Z</time>
			</trkpt>
			<trkpt lat="50.916150127498035" lon="6.71396945897166">
				<ele>131.0</ele>
				<time>2011-02-17T16:43:48Z</time>
			</trkpt>
			<trkpt lat="50.91616190734031" lon="6.7139795423969515">
				<ele>131.0</ele>
				<time>2011-02-17T16:43:49Z</time>
			</trkpt>
			<trkpt lat="50.91616341131429" lon="6.713976866624698">
				<ele>131.0</ele>
				<time>2011-02-17T16:43:50Z</time>
			</trkpt>
			<trkpt lat="50.916165260401904" lon="6.713975608387817">
				<ele>131.0</ele>
				<time>2011-02-17T16:43:51Z</time>
			</trkpt>
			<trkpt lat="50.91616754696292" lon="6.7139741166647795">
				<ele>131.0</ele>
				<time>2011-02-17T16:43:52Z</time>
			</trkpt>
			<trkpt lat="50.916170823623794" lon="6.713974565723701">
				<ele>131.0</ele>
				<time>2011-02-17T16:43:53Z</time>
			</trkpt>
			<trkpt lat="50.91617327276999" lon="6.713973625156778">
				<ele>131.0</ele>
				<time>2011-02-17T16:43:54Z</time>
			</trkpt>
			<trkpt lat="50.91617553379975" lon="6.713973497996688">
				<ele>131.0</ele>
				<time>2011-02-17T16:43:55Z</time>
			</trkpt>
			<trkpt lat="50.916177637072764" lon="6.713975748658713">
				<ele>131.0</ele>
				<time>2011-02-17T16:43:56Z</time>
			</trkpt>
			<trkpt lat="50.91617919217738" lon="6.713977042552611">
				<ele>131.0</ele>
				<time>2011-02-17T16:43:57Z</time>
			</trkpt>
			<trkpt lat="50.9161814949319" lon="6.713979328190676">
				<ele>131.0</ele>
				<time>2011-02-17T16:43:58Z</time>
			</trkpt>
			<trkpt lat="50.916185280201894" lon="6.713983587243178">
				<ele>131.0</ele>
				<time>2011-02-17T16:43:59Z</time>
			</trkpt>
			<trkpt lat="50.91619107099302" lon="6.713990101718094">
				<ele>130.0</ele>
				<time>2011-02-17T16:44:00Z</time>
			</trkpt>
			<trkpt lat="50.916199720300504" lon="6.713998120114148">
				<ele>130.0</ele>
				<time>2011-02-17T16:44:01Z</time>
			</trkpt>
			<trkpt lat="50.916207806323314" lon="6.71400536751986">
				<ele>130.0</ele>
				<time>2011-02-17T16:44:02Z</time>
			</trkpt>
			<trkpt lat="50.91621624080366" lon="6.714012812539355">
				<ele>130.0</ele>
				<time>2011-02-17T16:44:03Z</time>
			</trkpt>
			<trkpt lat="50.91622252654277" lon="6.714017647221931">
				<ele>130.0</ele>
				<time>2011-02-17T16:44:04Z</time>
			</trkpt>
			<trkpt lat="50.91622369760354" lon="6.714019249015381">
				<ele>130.0</ele>
				<time>2011-02-17T16:44:05Z</time>
			</trkpt>
			<trkpt lat="50.91622461134418" lon="6.714020591122494">
				<ele>130.0</ele>
				<time>2011-02-17T16:44:06Z</time>
			</trkpt>
			<trkpt lat="50.916225514862646" lon="6.714021754876056">
				<ele>130.0</ele>
				<time>2011-02-17T16:44:07Z</time>
			</trkpt>
			<trkpt lat="50.9162276972632" lon="6.714021831948209">
				<ele>130.0</ele>
				<time>2011-02-17T16:44:08Z</time>
			</trkpt>
			<trkpt lat="50.916232374724956" lon="6.714020820554686">
				<ele>130.0</ele>
				<time>2011-02-17T16:44:09Z</time>
			</trkpt>
			<trkpt lat="50.916241274987605" lon="6.714019816648232">
				<ele>130.0</ele>
				<time>2011-02-17T16:44:10Z</time>
			</trkpt>
			<trkpt lat="50.916251458807054" lon="6.714019715345591">
				<ele>130.0</ele>
				<time>2011-02-17T16:44:11Z</time>
			</trkpt>
			<trkpt lat="50.91626156121675" lon="6.714019837229369">
				<ele>130.0</ele>
				<time>2011-02-17T16:44:12Z</time>
			</trkpt>
			<trkpt lat="50.91626984263446" lon="6.714020583410064">
				<ele>130.0</ele>
				<time>2011-02-17T16:44:13Z</time>
			</trkpt>
			<trkpt lat="50.916277534417226" lon="6.714022102041696">
				<ele>130.0</ele>
				<time>2011-02-17T16:44:14Z</time>
			</trkpt>
			<trkpt lat="50.916284703700306" lon="6.714024142524548">
				<ele>130.0</ele>
				<time>2011-02-17T16:44:15Z</time>
			</trkpt>
			<trkpt lat="50.91629241014962" lon="6.714024855186582">
				<ele>130.0</ele>
				<time>2011-02-17T16:44:16Z</time>
			</trkpt>
			<trkpt lat="50.916300597387426" lon="6.714023572064284">
				<ele>130.0</ele>
				<time>2011-02-17T16:44:17Z</time>
			</trkpt>
			<trkpt lat="50.91630774643488" lon="6.714020294239271">
				<ele>130.0</ele>
				<time>2011-02-17T16:44:18Z</time>
			</trkpt>
			<trkpt lat="50.91631042446665" lon="6.71401728841846">
				<ele>130.0</ele>
				<time>2011-02-17T16:44:19Z</time>
			</trkpt>
			<trkpt lat="50.91631467020989" lon="6.714013155915963">
				<ele>130.0</ele>
				<time>2011-02-17T16:44:20Z</time>
			</trkpt>
			<trkpt lat="50.916318466103355" lon="6.714006822861036">
				<ele>130.0</ele>
				<time>2011-02-17T16:44:21Z</time>
			</trkpt>
			<trkpt lat="50.91631994555434" lon="6.713998117167555">
				<ele>130.0</ele>
				<time>2011-02-17T16:44:22Z</time>
			</trkpt>
			<trkpt lat="50.916317770692025" lon="6.713990049040814">
				<ele>130.0</ele>
				<time>2011-02-17T16:44:23Z</time>
			</trkpt>
			<trkpt lat="50.916312888788866" lon="6.713983439538169">
				<ele>130.0</ele>
				<time>2011-02-17T16:44:24Z</time>
			</trkpt>
			<trkpt lat="50.91630660107185" lon="6.713980413532566">
				<ele>130.0</ele>
				<time>2011-02-17T16:44:25Z</time>
			</trkpt>
			<trkpt lat="50.91629966611738" lon="6.713976003155525">
				<ele>130.0</ele>
				<time>2011-02-17T16:44:26Z</time>
			</trkpt>
			<trkpt lat="50.91629303727137" lon="6.713972480111275">
				<ele>130.0</ele>
				<time>2011-02-17T16:44:27Z</time>
			</trkpt>
			<trkpt lat="50.91628512890302" lon="6.7139711502351">
				<ele>130.0</ele>
				<time>2011-02-17T16:44:28Z</time>
			</trkpt>
			<trkpt lat="50.916276464247616" lon="6.713971723168041">
				<ele>130.0</ele>
				<time>2011-02-17T16:44:29Z</time>
			</trkpt>
			<trkpt lat="50.91626839431498" lon="6.713973979236583">
				<ele>130.0</ele>
				<time>2011-02-17T16:44:30Z</time>
			</trkpt>
			<trkpt lat="50.916260973628646" lon="6.7139777600549095">
				<ele>130.0</ele>
				<time>2011-02-17T16:44:31Z</time>
			</trkpt>
			<trkpt lat="50.9162536605444" lon="6.713981678575901">
				<ele>130.0</ele>
				<time>2011-02-17T16:44:32Z</time>
			</trkpt>
			<trkpt lat="50.916247125710335" lon="6.7139863300736735">
				<ele>130.0</ele>
				<time>2011-02-17T16:44:33Z</time>
			</trkpt>
			<trkpt lat="50.91624108309193" lon="6.713989392850941">
				<ele>130.0</ele>
				<time>2011-02-17T16:44:34Z</time>
			</trkpt>
			<trkpt lat="50.91623530838512" lon="6.713991852733945">
				<ele>130.0</ele>
				<time>2011-02-17T16:44:35Z</time>
			</trkpt>
			<trkpt lat="50.916229619477825" lon="6.7139939553346775">
				<ele>130.0</ele>
				<time>2011-02-17T16:44:36Z</time>
			</trkpt>
			<trkpt lat="50.916223535296524" lon="6.713996239195358">
				<ele>130.0</ele>
				<time>2011-02-17T16:44:37Z</time>
			</trkpt>
			<trkpt lat="50.91621807045023" lon="6.713997708085311">
				<ele>130.0</ele>
				<time>2011-02-17T16:44:38Z</time>
			</trkpt>
			<trkpt lat="50.91621143069619" lon="6.713999151015987">
				<ele>130.0</ele>
				<time>2011-02-17T16:44:39Z</time>
			</trkpt>
			<trkpt lat="50.91620522299191" lon="6.714001304200752">
				<ele>130.0</ele>
				<time>2011-02-17T16:44:40Z</time>
			</trkpt>
			<trkpt lat="50.91619940740713" lon="6.714002642384924">
				<ele>130.0</ele>
				<time>2011-02-17T16:44:41Z</time>
			</trkpt>
			<trkpt lat="50.91619413719162" lon="6.714003006838333">
				<ele>130.0</ele>
				<time>2011-02-17T16:44:42Z</time>
			</trkpt>
			<trkpt lat="50.916193667100416" lon="6.71400291201437">
				<ele>130.0</ele>
				<time>2011-02-17T16:44:43Z</time>
			</trkpt>
			<trkpt lat="50.91619213498581" lon="6.714003407590393">
				<ele>130.0</ele>
				<time>2011-02-17T16:44:44Z</time>
			</trkpt>
			<trkpt lat="50.9161920477397" lon="6.714003559174379">
				<ele>130.0</ele>
				<time>2011-02-17T16:44:45Z</time>
			</trkpt>
			<trkpt lat="50.91619204801547" lon="6.714003727896366">
				<ele>130.0</ele>
				<time>2011-02-17T16:44:46Z</time>
			</trkpt>
			<trkpt lat="50.91619145354994" lon="6.714002466702329">
				<ele>130.0</ele>
				<time>2011-02-17T16:44:47Z</time>
			</trkpt>
			<trkpt lat="50.91619043427943" lon="6.714001225619933">
				<ele>130.0</ele>
				<time>2011-02-17T16:44:48Z</time>
			</trkpt>
			<trkpt lat="50.91619042848917" lon="6.714001368641774">
				<ele>130.0</ele>
				<time>2011-02-17T16:44:49Z</time>
			</trkpt>
			<trkpt lat="50.91619038015175" lon="6.71400086598059">
				<ele>130.0</ele>
				<time>2011-02-17T16:44:50Z</time>
			</trkpt>
			<trkpt lat="50.91619047252959" lon="6.713998851641659">
				<ele>130.0</ele>
				<time>2011-02-17T16:44:51Z</time>
			</trkpt>
			<trkpt lat="50.91619083274202" lon="6.713997742961643">
				<ele>130.0</ele>
				<time>2011-02-17T16:44:52Z</time>
			</trkpt>
			<trkpt lat="50.91619141303633" lon="6.713997472037036">
				<ele>130.0</ele>
				<time>2011-02-17T16:44:53Z</time>
			</trkpt>
			<trkpt lat="50.91619203746484" lon="6.7139974367143935">
				<ele>130.0</ele>
				<time>2011-02-17T16:44:54Z</time>
			</trkpt>
			<trkpt lat="50.9161921301955" lon="6.71399800023406">
				<ele>130.0</ele>
				<time>2011-02-17T16:44:55Z</time>
			</trkpt>
			<trkpt lat="50.91619196968465" lon="6.713999397130775">
				<ele>130.0</ele>
				<time>2011-02-17T16:44:56Z</time>
			</trkpt>
			<trkpt lat="50.91619246849506" lon="6.714000982701646">
				<ele>130.0</ele>
				<time>2011-02-17T16:44:57Z</time>
			</trkpt>
			<trkpt lat="50.91619269213301" lon="6.714002387424878">
				<ele>130.0</ele>
				<time>2011-02-17T16:44:58Z</time>
			</trkpt>
			<trkpt lat="50.9161924867586" lon="6.714003647708408">
				<ele>130.0</ele>
				<time>2011-02-17T16:44:59Z</time>
			</trkpt>
			<trkpt lat="50.91619173789186" lon="6.714003630079064">
				<ele>130.0</ele>
				<time>2011-02-17T16:45:00Z</time>
			</trkpt>
			<trkpt lat="50.91619092589604" lon="6.7140040812523">
				<ele>130.0</ele>
				<time>2011-02-17T16:45:01Z</time>
			</trkpt>
			<trkpt lat="50.91619027133856" lon="6.714004708848672">
				<ele>130.0</ele>
				<time>2011-02-17T16:45:02Z</time>
			</trkpt>
			<trkpt lat="50.916189320914185" lon="6.7140061277885055">
				<ele>130.0</ele>
				<time>2011-02-17T16:45:03Z</time>
			</trkpt>
			<trkpt lat="50.91618809484898" lon="6.714008124644322">
				<ele>130.0</ele>
				<time>2011-02-17T16:45:04Z</time>
			</trkpt>
			<trkpt lat="50.91618664078892" lon="6.714010517645333">
				<ele>130.0</ele>
				<time>2011-02-17T16:45:05Z</time>
			</trkpt>
			<trkpt lat="50.91618510710755" lon="6.714013118680717">
				<ele>130.0</ele>
				<time>2011-02-17T16:45:06Z</time>
			</trkpt>
			<trkpt lat="50.91618419267442" lon="6.714014598694313">
				<ele>130.0</ele>
				<time>2011-02-17T16:45:07Z</time>
			</trkpt>
			<trkpt lat="50.916183161106666" lon="6.714016517704459">
				<ele>130.0</ele>
				<time>2011-02-17T16:45:08Z</time>
			</trkpt>
			<trkpt lat="50.916182191058915" lon="6.714018001642965">
				<ele>130.0</ele>
				<time>2011-02-17T16:45:09Z</time>
			</trkpt>
			<trkpt lat="50.91618124748116" lon="6.714019264931571">
				<ele>130.0</ele>
				<time>2011-02-17T16:45:10Z</time>
			</trkpt>
			<trkpt lat="50.91618035606627" lon="6.714020484559901">
				<ele>130.0</ele>
				<time>2011-02-17T16:45:11Z</time>
			</trkpt>
			<trkpt lat="50.91617615085323" lon="6.714024251315424">
				<ele>130.0</ele>
				<time>2011-02-17T16:45:12Z</time>
			</trkpt>
			<trkpt lat="50.91617276019677" lon="6.71402862563693">
				<ele>130.0</ele>
				<time>2011-02-17T16:45:13Z</time>
			</trkpt>
			<trkpt lat="50.91616602665098" lon="6.714035901419581">
				<ele>130.0</ele>
				<time>2011-02-17T16:45:14Z</time>
			</trkpt>
			<trkpt lat="50.916155641686" lon="6.714047020704484">
				<ele>130.0</ele>
				<time>2011-02-17T16:45:15Z</time>
			</trkpt>
			<trkpt lat="50.91614769646327" lon="6.714056261411923">
				<ele>130.0</ele>
				<time>2011-02-17T16:45:16Z</time>
			</trkpt>
			<trkpt lat="50.91614127191085" lon="6.7140642972882345">
				<ele>130.0</ele>
				<time>2011-02-17T16:45:17Z</time>
			</trkpt>
			<trkpt lat="50.916133465949564" lon="6.7140733768557945">
				<ele>130.0</ele>
				<time>2011-02-17T16:45:18Z</time>
			</trkpt>
			<trkpt lat="50.91612631585478" lon="6.714081648731276">
				<ele>130.0</ele>
				<time>2011-02-17T16:45:19Z</time>
			</trkpt>
			<trkpt lat="50.91612000918734" lon="6.714088690089056">
				<ele>130.0</ele>
				<time>2011-02-17T16:45:20Z</time>
			</trkpt>
			<trkpt lat="50.91611458377907" lon="6.714094888607335">
				<ele>130.0</ele>
				<time>2011-02-17T16:45:21Z</time>
			</trkpt>
			<trkpt lat="50.916110447718395" lon="6.714100042386953">
				<ele>130.0</ele>
				<time>2011-02-17T16:45:22Z</time>
			</trkpt>
			<trkpt lat="50.9161035678543" lon="6.714098735364452">
				<ele>130.0</ele>
				<time>2011-02-17T16:45:23Z</time>
			</trkpt>
			<trkpt lat="50.916096254434024" lon="6.71409198422359">
				<ele>130.0</ele>
				<time>2011-02-17T16:45:24Z</time>
			</trkpt>
			<trkpt lat="50.9160896008975" lon="6.714083866675628">
				<ele>130.0</ele>
				<time>2011-02-17T16:45:25Z</time>
			</trkpt>
			<trkpt lat="50.916084159960135" lon="6.714077994980003">
				<ele>130.0</ele>
				<time>2011-02-17T16:45:26Z</time>
			</trkpt>
			<trkpt lat="50.91607882286636" lon="6.714074133638024">
				<ele>130.0</ele>
				<time>2011-02-17T16:45:27Z</time>
			</trkpt>
			<trkpt lat="50.91607420765854" lon="6.714071310052883">
				<ele>130.0</ele>
				<time>2011-02-17T16:45:28Z</time>
			</trkpt>
			<trkpt lat="50.91607017935558" lon="6.714069623173853">
				<ele>130.0</ele>
				<time>2011-02-17T16:45:29Z</time>
			</trkpt>
			<trkpt lat="50.91606659830503" lon="6.714069105164512">
				<ele>130.0</ele>
				<time>2011-02-17T16:45:30Z</time>
			</trkpt>
			<trkpt lat="50.916063982961155" lon="6.714069094841977">
				<ele>130.0</ele>
				<time>2011-02-17T16:45:31Z</time>
			</trkpt>
			<trkpt lat="50.91606192307013" lon="6.714069618153306">
				<ele>131.0</ele>
				<time>2011-02-17T16:45:32Z</time>
			</trkpt>
			<trkpt lat="50.9160605653087" lon="6.714070140515281">
				<ele>131.0</ele>
				<time>2011-02-17T16:45:33Z</time>
			</trkpt>
			<trkpt lat="50.91605970701515" lon="6.714070816049478">
				<ele>131.0</ele>
				<time>2011-02-17T16:45:34Z</time>
			</trkpt>
			<trkpt lat="50.916059049167174" lon="6.71407199558828">
				<ele>131.0</ele>
				<time>2011-02-17T16:45:35Z</time>
			</trkpt>
			<trkpt lat="50.91605849826426" lon="6.714073528553837">
				<ele>131.0</ele>
				<time>2011-02-17T16:45:36Z</time>
			</trkpt>
			<trkpt lat="50.91605814205732" lon="6.714074943393489">
				<ele>131.0</ele>
				<time>2011-02-17T16:45:37Z</time>
			</trkpt>
			<trkpt lat="50.91605852580104" lon="6.714074754000175">
				<ele>131.0</ele>
				<time>2011-02-17T16:45:38Z</time>
			</trkpt>
			<trkpt lat="50.916059772952025" lon="6.714073512653162">
				<ele>131.0</ele>
				<time>2011-02-17T16:45:39Z</time>
			</trkpt>
			<trkpt lat="50.91606177537092" lon="6.714071175988674">
				<ele>131.0</ele>
				<time>2011-02-17T16:45:40Z</time>
			</trkpt>
			<trkpt lat="50.91606413121421" lon="6.714068402320073">
				<ele>131.0</ele>
				<time>2011-02-17T16:45:41Z</time>
			</trkpt>
			<trkpt lat="50.916066465439926" lon="6.714065655421826">
				<ele>131.0</ele>
				<time>2011-02-17T16:45:42Z</time>
			</trkpt>
			<trkpt lat="50.91606890794186" lon="6.714060843639818">
				<ele>131.0</ele>
				<time>2011-02-17T16:45:43Z</time>
			</trkpt>
			<trkpt lat="50.91607151165483" lon="6.714056609234041">
				<ele>131.0</ele>
				<time>2011-02-17T16:45:44Z</time>
			</trkpt>
			<trkpt lat="50.91607384535713" lon="6.71405277778231">
				<ele>131.0</ele>
				<time>2011-02-17T16:45:45Z</time>
			</trkpt>
			<trkpt lat="50.91607557194679" lon="6.714049978422016">
				<ele>131.0</ele>
				<time>2011-02-17T16:45:46Z</time>
			</trkpt>
			<trkpt lat="50.91607676330338" lon="6.714047125464783">
				<ele>131.0</ele>
				<time>2011-02-17T16:45:47Z</time>
			</trkpt>
			<trkpt lat="50.916078093488046" lon="6.714044499697386">
				<ele>131.0</ele>
				<time>2011-02-17T16:45:48Z</time>
			</trkpt>
			<trkpt lat="50.91607963063637" lon="6.714042577209062">
				<ele>131.0</ele>
				<time>2011-02-17T16:45:49Z</time>
			</trkpt>
			<trkpt lat="50.916081261655656" lon="6.714040834062553">
				<ele>131.0</ele>
				<time>2011-02-17T16:45:50Z</time>
			</trkpt>
			<trkpt lat="50.91608292644565" lon="6.714039450096366">
				<ele>131.0</ele>
				<time>2011-02-17T16:45:51Z</time>
			</trkpt>
			<trkpt lat="50.91608360891217" lon="6.714033995319599">
				<ele>131.0</ele>
				<time>2011-02-17T16:45:52Z</time>
			</trkpt>
			<trkpt lat="50.91608396370887" lon="6.714026328521893">
				<ele>131.0</ele>
				<time>2011-02-17T16:45:53Z</time>
			</trkpt>
			<trkpt lat="50.91608449940054" lon="6.714020226496533">
				<ele>131.0</ele>
				<time>2011-02-17T16:45:54Z</time>
			</trkpt>
			<trkpt lat="50.91608442788572" lon="6.71401448605763">
				<ele>131.0</ele>
				<time>2011-02-17T16:45:55Z</time>
			</trkpt>
			<trkpt lat="50.91608454658699" lon="6.714010041211665">
				<ele>131.0</ele>
				<time>2011-02-17T16:45:56Z</time>
			</trkpt>
			<trkpt lat="50.91608579201859" lon="6.71400608846683">
				<ele>131.0</ele>
				<time>2011-02-17T16:45:57Z</time>
			</trkpt>
			<trkpt lat="50.916088218807595" lon="6.7140031025433995">
				<ele>131.0</ele>
				<time>2011-02-17T16:45:58Z</time>
			</trkpt>
			<trkpt lat="50.916091328637116" lon="6.714001290175225">
				<ele>131.0</ele>
				<time>2011-02-17T16:45:59Z</time>
			</trkpt>
			<trkpt lat="50.916094640635556" lon="6.714000362326454">
				<ele>131.0</ele>
				<time>2011-02-17T16:46:00Z</time>
			</trkpt>
			<trkpt lat="50.91609805219135" lon="6.713996319713702">
				<ele>131.0</ele>
				<time>2011-02-17T16:46:01Z</time>
			</trkpt>
			<trkpt lat="50.91610221299423" lon="6.713991814151409">
				<ele>131.0</ele>
				<time>2011-02-17T16:46:02Z</time>
			</trkpt>
			<trkpt lat="50.916105217896735" lon="6.71398826496108">
				<ele>131.0</ele>
				<time>2011-02-17T16:46:03Z</time>
			</trkpt>
			<trkpt lat="50.91610856924536" lon="6.713985562649853">
				<ele>131.0</ele>
				<time>2011-02-17T16:46:04Z</time>
			</trkpt>
			<trkpt lat="50.91611157554488" lon="6.713982713756784">
				<ele>131.0</ele>
				<time>2011-02-17T16:46:05Z</time>
			</trkpt>
			<trkpt lat="50.91611292285313" lon="6.713981100698596">
				<ele>131.0</ele>
				<time>2011-02-17T16:46:06Z</time>
			</trkpt>
			<trkpt lat="50.916113336237395" lon="6.7139809135428825">
				<ele>131.0</ele>
				<time>2011-02-17T16:46:07Z</time>
			</trkpt>
			<trkpt lat="50.916111482707905" lon="6.713983064440906">
				<ele>131.0</ele>
				<time>2011-02-17T16:46:08Z</time>
			</trkpt>
			<trkpt lat="50.91610411396907" lon="6.713991271151154">
				<ele>131.0</ele>
				<time>2011-02-17T16:46:09Z</time>
			</trkpt>
			<trkpt lat="50.91609613040036" lon="6.7140001475172175">
				<ele>132.0</ele>
				<time>2011-02-17T16:46:10Z</time>
			</trkpt>
			<trkpt lat="50.91608911461781" lon="6.714009191551234">
				<ele>132.0</ele>
				<time>2011-02-17T16:46:11Z</time>
			</trkpt>
			<trkpt lat="50.916082506332394" lon="6.714019702259674">
				<ele>132.0</ele>
				<time>2011-02-17T16:46:12Z</time>
			</trkpt>
			<trkpt lat="50.91607693936742" lon="6.714030987644523">
				<ele>132.0</ele>
				<time>2011-02-17T16:46:13Z</time>
			</trkpt>
			<trkpt lat="50.91607185591855" lon="6.714041741558189">
				<ele>132.0</ele>
				<time>2011-02-17T16:46:14Z</time>
			</trkpt>
			<trkpt lat="50.91606714015506" lon="6.7140524369234456">
				<ele>132.0</ele>
				<time>2011-02-17T16:46:15Z</time>
			</trkpt>
			<trkpt lat="50.916068010967265" lon="6.714054388668891">
				<ele>132.0</ele>
				<time>2011-02-17T16:46:16Z</time>
			</trkpt>
			<trkpt lat="50.916068322793265" lon="6.714057764417761">
				<ele>132.0</ele>
				<time>2011-02-17T16:46:17Z</time>
			</trkpt>
			<trkpt lat="50.916068907555726" lon="6.7140628600252015">
				<ele>132.0</ele>
				<time>2011-02-17T16:46:18Z</time>
			</trkpt>
			<trkpt lat="50.91607067071149" lon="6.71406511059492">
				<ele>132.0</ele>
				<time>2011-02-17T16:46:19Z</time>
			</trkpt>
			<trkpt lat="50.91607228207962" lon="6.714067871885387">
				<ele>132.0</ele>
				<time>2011-02-17T16:46:20Z</time>
			</trkpt>
			<trkpt lat="50.916074551602065" lon="6.714071345410663">
				<ele>132.0</ele>
				<time>2011-02-17T16:46:21Z</time>
			</trkpt>
			<trkpt lat="50.91607679638017" lon="6.71407608859748">
				<ele>132.0</ele>
				<time>2011-02-17T16:46:22Z</time>
			</trkpt>
			<trkpt lat="50.916079547972025" lon="6.714077860046607">
				<ele>132.0</ele>
				<time>2011-02-17T16:46:23Z</time>
			</trkpt>
			<trkpt lat="50.916081780947266" lon="6.7140795333560135">
				<ele>132.0</ele>
				<time>2011-02-17T16:46:24Z</time>
			</trkpt>
			<trkpt lat="50.91608393725129" lon="6.714081631997421">
				<ele>132.0</ele>
				<time>2011-02-17T16:46:25Z</time>
			</trkpt>
			<trkpt lat="50.91608536010628" lon="6.714084072804984">
				<ele>132.0</ele>
				<time>2011-02-17T16:46:26Z</time>
			</trkpt>
			<trkpt lat="50.91608729120989" lon="6.714086592424957">
				<ele>132.0</ele>
				<time>2011-02-17T16:46:27Z</time>
			</trkpt>
			<trkpt lat="50.91608832260889" lon="6.714087537467849">
				<ele>132.0</ele>
				<time>2011-02-17T16:46:28Z</time>
			</trkpt>
			<trkpt lat="50.91608909912641" lon="6.7140888956762215">
				<ele>132.0</ele>
				<time>2011-02-17T16:46:29Z</time>
			</trkpt>
			<trkpt lat="50.91609014943684" lon="6.714090161162838">
				<ele>132.0</ele>
				<time>2011-02-17T16:46:30Z</time>
			</trkpt>
			<trkpt lat="50.91609054445187" lon="6.7140917731458964">
				<ele>132.0</ele>
				<time>2011-02-17T16:46:31Z</time>
			</trkpt>
			<trkpt lat="50.91609041336008" lon="6.714093436939207">
				<ele>132.0</ele>
				<time>2011-02-17T16:46:32Z</time>
			</trkpt>
			<trkpt lat="50.91609030475352" lon="6.71409464942825">
				<ele>132.0</ele>
				<time>2011-02-17T16:46:33Z</time>
			</trkpt>
			<trkpt lat="50.91609016612108" lon="6.714095329546714">
				<ele>132.0</ele>
				<time>2011-02-17T16:46:34Z</time>
			</trkpt>
			<trkpt lat="50.916089519004956" lon="6.714095973448464">
				<ele>132.0</ele>
				<time>2011-02-17T16:46:35Z</time>
			</trkpt>
			<trkpt lat="50.91608830453935" lon="6.714097191413689">
				<ele>132.0</ele>
				<time>2011-02-17T16:46:36Z</time>
			</trkpt>
			<trkpt lat="50.91608699705328" lon="6.7140982472705275">
				<ele>132.0</ele>
				<time>2011-02-17T16:46:37Z</time>
			</trkpt>
			<trkpt lat="50.91608602641847" lon="6.714098608291101">
				<ele>132.0</ele>
				<time>2011-02-17T16:46:38Z</time>
			</trkpt>
			<trkpt lat="50.91608525278306" lon="6.714098630973606">
				<ele>132.0</ele>
				<time>2011-02-17T16:46:39Z</time>
			</trkpt>
			<trkpt lat="50.91608423173748" lon="6.7140984891079905">
				<ele>132.0</ele>
				<time>2011-02-17T16:46:40Z</time>
			</trkpt>
			<trkpt lat="50.916080961464885" lon="6.714100598175634">
				<ele>132.0</ele>
				<time>2011-02-17T16:46:41Z</time>
			</trkpt>
			<trkpt lat="50.916076933978765" lon="6.714103116173208">
				<ele>132.0</ele>
				<time>2011-02-17T16:46:42Z</time>
			</trkpt>
			<trkpt lat="50.91607271862583" lon="6.714105327207511">
				<ele>132.0</ele>
				<time>2011-02-17T16:46:43Z</time>
			</trkpt>
			<trkpt lat="50.91606742561855" lon="6.714108722160917">
				<ele>132.0</ele>
				<time>2011-02-17T16:46:44Z</time>
			</trkpt>
			<trkpt lat="50.916062190181066" lon="6.714111977570797">
				<ele>132.0</ele>
				<time>2011-02-17T16:46:45Z</time>
			</trkpt>
			<trkpt lat="50.916057672318765" lon="6.714114607728481">
				<ele>132.0</ele>
				<time>2011-02-17T16:46:46Z</time>
			</trkpt>
			<trkpt lat="50.91605352476375" lon="6.714116743597429">
				<ele>132.0</ele>
				<time>2011-02-17T16:46:47Z</time>
			</trkpt>
			<trkpt lat="50.916049920421756" lon="6.7141183453707525">
				<ele>132.0</ele>
				<time>2011-02-17T16:46:48Z</time>
			</trkpt>
			<trkpt lat="50.91604688050485" lon="6.714119742216433">
				<ele>132.0</ele>
				<time>2011-02-17T16:46:49Z</time>
			</trkpt>
			<trkpt lat="50.916044239077905" lon="6.714120495388301">
				<ele>132.0</ele>
				<time>2011-02-17T16:46:50Z</time>
			</trkpt>
			<trkpt lat="50.91604160404574" lon="6.714121588468869">
				<ele>132.0</ele>
				<time>2011-02-17T16:46:51Z</time>
			</trkpt>
			<trkpt lat="50.91604049285092" lon="6.714121933209679">
				<ele>132.0</ele>
				<time>2011-02-17T16:46:52Z</time>
			</trkpt>
			<trkpt lat="50.91603938566149" lon="6.714121948597642">
				<ele>132.0</ele>
				<time>2011-02-17T16:46:53Z</time>
			</trkpt>
			<trkpt lat="50.916038782735725" lon="6.714122056571258">
				<ele>132.0</ele>
				<time>2011-02-17T16:46:54Z</time>
			</trkpt>
			<trkpt lat="50.91603821659564" lon="6.714121901921087">
				<ele>132.0</ele>
				<time>2011-02-17T16:46:55Z</time>
			</trkpt>
			<trkpt lat="50.91603846678243" lon="6.7141214119852055">
				<ele>132.0</ele>
				<time>2011-02-17T16:46:56Z</time>
			</trkpt>
			<trkpt lat="50.91603967414408" lon="6.714119958441036">
				<ele>132.0</ele>
				<time>2011-02-17T16:46:57Z</time>
			</trkpt>
			<trkpt lat="50.91604201543181" lon="6.714117390136342">
				<ele>132.0</ele>
				<time>2011-02-17T16:46:58Z</time>
			</trkpt>
			<trkpt lat="50.91604397272979" lon="6.71411597773191">
				<ele>132.0</ele>
				<time>2011-02-17T16:46:59Z</time>
			</trkpt>
			<trkpt lat="50.91604726785001" lon="6.714113313077955">
				<ele>132.0</ele>
				<time>2011-02-17T16:47:00Z</time>
			</trkpt>
			<trkpt lat="50.91605165658593" lon="6.714109597480176">
				<ele>132.0</ele>
				<time>2011-02-17T16:47:01Z</time>
			</trkpt>
			<trkpt lat="50.91605734234863" lon="6.714105140518694">
				<ele>132.0</ele>
				<time>2011-02-17T16:47:02Z</time>
			</trkpt>
			<trkpt lat="50.91606424650505" lon="6.714099603706196">
				<ele>132.0</ele>
				<time>2011-02-17T16:47:03Z</time>
			</trkpt>
			<trkpt lat="50.91607006393822" lon="6.714095602800394">
				<ele>132.0</ele>
				<time>2011-02-17T16:47:04Z</time>
			</trkpt>
			<trkpt lat="50.9160767047146" lon="6.714091467961053">
				<ele>132.0</ele>
				<time>2011-02-17T16:47:05Z</time>
			</trkpt>
			<trkpt lat="50.91608338397365" lon="6.714087368615671">
				<ele>132.0</ele>
				<time>2011-02-17T16:47:06Z</time>
			</trkpt>
			<trkpt lat="50.91608975963856" lon="6.714083186693774">
				<ele>132.0</ele>
				<time>2011-02-17T16:47:07Z</time>
			</trkpt>
			<trkpt lat="50.916095701912504" lon="6.714078902754919">
				<ele>132.0</ele>
				<time>2011-02-17T16:47:08Z</time>
			</trkpt>
			<trkpt lat="50.916101008384814" lon="6.714074856068929">
				<ele>132.0</ele>
				<time>2011-02-17T16:47:09Z</time>
			</trkpt>
			<trkpt lat="50.91610558639705" lon="6.71407135843883">
				<ele>132.0</ele>
				<time>2011-02-17T16:47:10Z</time>
			</trkpt>
			<trkpt lat="50.916109560852846" lon="6.714068274179898">
				<ele>132.0</ele>
				<time>2011-02-17T16:47:11Z</time>
			</trkpt>
			<trkpt lat="50.9161129924785" lon="6.714064874120073">
				<ele>133.0</ele>
				<time>2011-02-17T16:47:12Z</time>
			</trkpt>
			<trkpt lat="50.91611575280715" lon="6.7140606737173645">
				<ele>133.0</ele>
				<time>2011-02-17T16:47:13Z</time>
			</trkpt>
			<trkpt lat="50.91611837543641" lon="6.714054933499751">
				<ele>133.0</ele>
				<time>2011-02-17T16:47:14Z</time>
			</trkpt>
			<trkpt lat="50.91611966699469" lon="6.714047863372778">
				<ele>133.0</ele>
				<time>2011-02-17T16:47:15Z</time>
			</trkpt>
			<trkpt lat="50.91611883541288" lon="6.714035891875366">
				<ele>133.0</ele>
				<time>2011-02-17T16:47:16Z</time>
			</trkpt>
			<trkpt lat="50.91611599101039" lon="6.714020679316253">
				<ele>133.0</ele>
				<time>2011-02-17T16:47:17Z</time>
			</trkpt>
			<trkpt lat="50.91611270270945" lon="6.714005746839289">
				<ele>133.0</ele>
				<time>2011-02-17T16:47:18Z</time>
			</trkpt>
			<trkpt lat="50.9161102970141" lon="6.713990879519851">
				<ele>133.0</ele>
				<time>2011-02-17T16:47:19Z</time>
			</trkpt>
			<trkpt lat="50.91610855830924" lon="6.713969218736166">
				<ele>133.0</ele>
				<time>2011-02-17T16:47:20Z</time>
			</trkpt>
			<trkpt lat="50.91610718074665" lon="6.7139477389436575">
				<ele>133.0</ele>
				<time>2011-02-17T16:47:21Z</time>
			</trkpt>
			<trkpt lat="50.91610620526964" lon="6.713926800830934">
				<ele>133.0</ele>
				<time>2011-02-17T16:47:22Z</time>
			</trkpt>
			<trkpt lat="50.91610515628923" lon="6.713904512572132">
				<ele>133.0</ele>
				<time>2011-02-17T16:47:23Z</time>
			</trkpt>
			<trkpt lat="50.916103884618835" lon="6.713881626905644">
				<ele>133.0</ele>
				<time>2011-02-17T16:47:24Z</time>
			</trkpt>
			<trkpt lat="50.91610225281525" lon="6.713859206913472">
				<ele>133.0</ele>
				<time>2011-02-17T16:47:25Z</time>
			</trkpt>
			<trkpt lat="50.916100565550735" lon="6.7138380174636145">
				<ele>133.0</ele>
				<time>2011-02-17T16:47:26Z</time>
			</trkpt>
			<trkpt lat="50.9160992089006" lon="6.713818182257563">
				<ele>133.0</ele>
				<time>2011-02-17T16:47:27Z</time>
			</trkpt>
			<trkpt lat="50.916098316808515" lon="6.713799751283243">
				<ele>133.0</ele>
				<time>2011-02-17T16:47:28Z</time>
			</trkpt>
			<trkpt lat="50.91609538193067" lon="6.713780757466267">
				<ele>133.0</ele>
				<time>2011-02-17T16:47:29Z</time>
			</trkpt>
			<trkpt lat="50.916091396766944" lon="6.713761852888521">
				<ele>133.0</ele>
				<time>2011-02-17T16:47:30Z</time>
			</trkpt>
			<trkpt lat="50.916086569140255" lon="6.7137439003955395">
				<ele>133.0</ele>
				<time>2011-02-17T16:47:31Z</time>
			</trkpt>
			<trkpt lat="50.916080972935724" lon="6.713724340716725">
				<ele>133.0</ele>
				<time>2011-02-17T16:47:32Z</time>
			</trkpt>
			<trkpt lat="50.916074586182624" lon="6.713705281464006">
				<ele>133.0</ele>
				<time>2011-02-17T16:47:33Z</time>
			</trkpt>
			<trkpt lat="50.91606854197482" lon="6.713686114656432">
				<ele>133.0</ele>
				<time>2011-02-17T16:47:34Z</time>
			</trkpt>
			<trkpt lat="50.91606488360129" lon="6.713666406699488">
				<ele>133.0</ele>
				<time>2011-02-17T16:47:35Z</time>
			</trkpt>
			<trkpt lat="50.916060556121394" lon="6.7136471848456445">
				<ele>133.0</ele>
				<time>2011-02-17T16:47:36Z</time>
			</trkpt>
			<trkpt lat="50.91605462117845" lon="6.713628462590818">
				<ele>133.0</ele>
				<time>2011-02-17T16:47:37Z</time>
			</trkpt>
			<trkpt lat="50.916047202300305" lon="6.7136109690316985">
				<ele>133.0</ele>
				<time>2011-02-17T16:47:38Z</time>
			</trkpt>
			<trkpt lat="50.916038850944815" lon="6.7135933913446">
				<ele>132.0</ele>
				<time>2011-02-17T16:47:39Z</time>
			</trkpt>
			<trkpt lat="50.91602875596768" lon="6.713577579598052">
				<ele>132.0</ele>
				<time>2011-02-17T16:47:40Z</time>
			</trkpt>
			<trkpt lat="50.916017581686624" lon="6.713562072600726">
				<ele>132.0</ele>
				<time>2011-02-17T16:47:41Z</time>
			</trkpt>
			<trkpt lat="50.91600645114261" lon="6.713547875140744">
				<ele>132.0</ele>
				<time>2011-02-17T16:47:42Z</time>
			</trkpt>
			<trkpt lat="50.91599352755051" lon="6.713536122424634">
				<ele>132.0</ele>
				<time>2011-02-17T16:47:43Z</time>
			</trkpt>
			<trkpt lat="50.915980852039105" lon="6.71352423398214">
				<ele>132.0</ele>
				<time>2011-02-17T16:47:44Z</time>
			</trkpt>
			<trkpt lat="50.915970312721136" lon="6.713510496264769">
				<ele>132.0</ele>
				<time>2011-02-17T16:47:45Z</time>
			</trkpt>
			<trkpt lat="50.91596060173839" lon="6.713494799062746">
				<ele>132.0</ele>
				<time>2011-02-17T16:47:46Z</time>
			</trkpt>
			<trkpt lat="50.915951279128265" lon="6.713478035660282">
				<ele>132.0</ele>
				<time>2011-02-17T16:47:47Z</time>
			</trkpt>
			<trkpt lat="50.91594199257451" lon="6.713460728892212">
				<ele>132.0</ele>
				<time>2011-02-17T16:47:48Z</time>
			</trkpt>
			<trkpt lat="50.91593294502862" lon="6.71344353743696">
				<ele>132.0</ele>
				<time>2011-02-17T16:47:49Z</time>
			</trkpt>
			<trkpt lat="50.91592566045923" lon="6.713425399583342">
				<ele>132.0</ele>
				<time>2011-02-17T16:47:50Z</time>
			</trkpt>
			<trkpt lat="50.91591909471526" lon="6.713407013256184">
				<ele>132.0</ele>
				<time>2011-02-17T16:47:51Z</time>
			</trkpt>
			<trkpt lat="50.915912574320146" lon="6.713389655812972">
				<ele>132.0</ele>
				<time>2011-02-17T16:47:52Z</time>
			</trkpt>
			<trkpt lat="50.91590602327541" lon="6.713373935270182">
				<ele>132.0</ele>
				<time>2011-02-17T16:47:53Z</time>
			</trkpt>
			<trkpt lat="50.91589873169104" lon="6.713359128837105">
				<ele>132.0</ele>
				<time>2011-02-17T16:47:54Z</time>
			</trkpt>
			<trkpt lat="50.91589178230097" lon="6.713344506565665">
				<ele>132.0</ele>
				<time>2011-02-17T16:47:55Z</time>
			</trkpt>
			<trkpt lat="50.91588510678819" lon="6.713330963409493">
				<ele>132.0</ele>
				<time>2011-02-17T16:47:56Z</time>
			</trkpt>
			<trkpt lat="50.915878602448345" lon="6.713319975098267">
				<ele>132.0</ele>
				<time>2011-02-17T16:47:57Z</time>
			</trkpt>
			<trkpt lat="50.915873546157314" lon="6.713313178123454">
				<ele>131.0</ele>
				<time>2011-02-17T16:47:58Z</time>
			</trkpt>
			<trkpt lat="50.91586895440939" lon="6.713307802337456">
				<ele>131.0</ele>
				<time>2011-02-17T16:47:59Z</time>
			</trkpt>
			<trkpt lat="50.915865868089725" lon="6.713304982143183">
				<ele>131.0</ele>
				<time>2011-02-17T16:48:00Z</time>
			</trkpt>
			<trkpt lat="50.9158614222684" lon="6.713301885936366">
				<ele>131.0</ele>
				<time>2011-02-17T16:48:01Z</time>
			</trkpt>
			<trkpt lat="50.915856381763696" lon="6.713298407329786">
				<ele>131.0</ele>
				<time>2011-02-17T16:48:02Z</time>
			</trkpt>
			<trkpt lat="50.91585133297411" lon="6.713295101668669">
				<ele>131.0</ele>
				<time>2011-02-17T16:48:03Z</time>
			</trkpt>
			<trkpt lat="50.915846030881056" lon="6.713291779764975">
				<ele>131.0</ele>
				<time>2011-02-17T16:48:04Z</time>
			</trkpt>
			<trkpt lat="50.915840044568085" lon="6.713287277537111">
				<ele>131.0</ele>
				<time>2011-02-17T16:48:05Z</time>
			</trkpt>
			<trkpt lat="50.91583392754572" lon="6.713282513500015">
				<ele>131.0</ele>
				<time>2011-02-17T16:48:06Z</time>
			</trkpt>
			<trkpt lat="50.915828773892756" lon="6.713279891886488">
				<ele>131.0</ele>
				<time>2011-02-17T16:48:07Z</time>
			</trkpt>
			<trkpt lat="50.915827372889716" lon="6.713281650092487">
				<ele>131.0</ele>
				<time>2011-02-17T16:48:08Z</time>
			</trkpt>
			<trkpt lat="50.915825834198905" lon="6.713282834533765">
				<ele>131.0</ele>
				<time>2011-02-17T16:48:09Z</time>
			</trkpt>
			<trkpt lat="50.91582501786913" lon="6.713282937515959">
				<ele>131.0</ele>
				<time>2011-02-17T16:48:10Z</time>
			</trkpt>
			<trkpt lat="50.91582136915622" lon="6.713278610064644">
				<ele>131.0</ele>
				<time>2011-02-17T16:48:11Z</time>
			</trkpt>
			<trkpt lat="50.91581760486698" lon="6.713273864212028">
				<ele>131.0</ele>
				<time>2011-02-17T16:48:12Z</time>
			</trkpt>
			<trkpt lat="50.915813476047994" lon="6.713269124686158">
				<ele>131.0</ele>
				<time>2011-02-17T16:48:13Z</time>
			</trkpt>
			<trkpt lat="50.91580925572681" lon="6.7132647990372885">
				<ele>131.0</ele>
				<time>2011-02-17T16:48:14Z</time>
			</trkpt>
			<trkpt lat="50.915804690838876" lon="6.713260975238375">
				<ele>131.0</ele>
				<time>2011-02-17T16:48:15Z</time>
			</trkpt>
			<trkpt lat="50.91579923832993" lon="6.713258115075738">
				<ele>131.0</ele>
				<time>2011-02-17T16:48:16Z</time>
			</trkpt>
			<trkpt lat="50.91579352048288" lon="6.71325544916158">
				<ele>131.0</ele>
				<time>2011-02-17T16:48:17Z</time>
			</trkpt>
			<trkpt lat="50.91578741578604" lon="6.713253376603491">
				<ele>131.0</ele>
				<time>2011-02-17T16:48:18Z</time>
			</trkpt>
			<trkpt lat="50.915779252015895" lon="6.713248905107736">
				<ele>131.0</ele>
				<time>2011-02-17T16:48:19Z</time>
			</trkpt>
			<trkpt lat="50.91576952977786" lon="6.713239985141894">
				<ele>131.0</ele>
				<time>2011-02-17T16:48:20Z</time>
			</trkpt>
			<trkpt lat="50.915759295479354" lon="6.713228575413347">
				<ele>130.0</ele>
				<time>2011-02-17T16:48:21Z</time>
			</trkpt>
			<trkpt lat="50.9157496420143" lon="6.713216695766313">
				<ele>130.0</ele>
				<time>2011-02-17T16:48:22Z</time>
			</trkpt>
			<trkpt lat="50.915740855815635" lon="6.713205145408119">
				<ele>130.0</ele>
				<time>2011-02-17T16:48:23Z</time>
			</trkpt>
			<trkpt lat="50.915733238745666" lon="6.713192184074716">
				<ele>130.0</ele>
				<time>2011-02-17T16:48:24Z</time>
			</trkpt>
			<trkpt lat="50.9157274155945" lon="6.7131813888299225">
				<ele>130.0</ele>
				<time>2011-02-17T16:48:25Z</time>
			</trkpt>
			<trkpt lat="50.91572286230195" lon="6.713172420813763">
				<ele>130.0</ele>
				<time>2011-02-17T16:48:26Z</time>
			</trkpt>
			<trkpt lat="50.915719760378174" lon="6.713166004824752">
				<ele>130.0</ele>
				<time>2011-02-17T16:48:27Z</time>
			</trkpt>
			<trkpt lat="50.91571676801259" lon="6.7131600924836405">
				<ele>130.0</ele>
				<time>2011-02-17T16:48:28Z</time>
			</trkpt>
			<trkpt lat="50.91571234075149" lon="6.713153906818141">
				<ele>130.0</ele>
				<time>2011-02-17T16:48:29Z</time>
			</trkpt>
			<trkpt lat="50.91570630559537" lon="6.713144979362213">
				<ele>130.0</ele>
				<time>2011-02-17T16:48:30Z</time>
			</trkpt>
			<trkpt lat="50.91570027855138" lon="6.713136750147263">
				<ele>130.0</ele>
				<time>2011-02-17T16:48:31Z</time>
			</trkpt>
			<trkpt lat="50.91569944903132" lon="6.71313754756321">
				<ele>130.0</ele>
				<time>2011-02-17T16:48:32Z</time>
			</trkpt>
			<trkpt lat="50.915697418889366" lon="6.713138952617182">
				<ele>130.0</ele>
				<time>2011-02-17T16:48:33Z</time>
			</trkpt>
			<trkpt lat="50.91568881540908" lon="6.7131319420249715">
				<ele>130.0</ele>
				<time>2011-02-17T16:48:34Z</time>
			</trkpt>
			<trkpt lat="50.91567875174137" lon="6.713121817624304">
				<ele>130.0</ele>
				<time>2011-02-17T16:48:35Z</time>
			</trkpt>
			<trkpt lat="50.91566790627079" lon="6.71310785312597">
				<ele>130.0</ele>
				<time>2011-02-17T16:48:36Z</time>
			</trkpt>
			<trkpt lat="50.915657130344336" lon="6.713090337281525">
				<ele>130.0</ele>
				<time>2011-02-17T16:48:37Z</time>
			</trkpt>
			<trkpt lat="50.91564584933838" lon="6.713071821541106">
				<ele>130.0</ele>
				<time>2011-02-17T16:48:38Z</time>
			</trkpt>
			<trkpt lat="50.91563632092937" lon="6.713055853568046">
				<ele>130.0</ele>
				<time>2011-02-17T16:48:39Z</time>
			</trkpt>
			<trkpt lat="50.915624159109576" lon="6.713036902623591">
				<ele>130.0</ele>
				<time>2011-02-17T16:48:40Z</time>
			</trkpt>
			<trkpt lat="50.91560843762859" lon="6.713019466150914">
				<ele>130.0</ele>
				<time>2011-02-17T16:48:41Z</time>
			</trkpt>
			<trkpt lat="50.91558876904025" lon="6.713003917840842">
				<ele>130.0</ele>
				<time>2011-02-17T16:48:42Z</time>
			</trkpt>
			<trkpt lat="50.91556776057902" lon="6.712992215208796">
				<ele>130.0</ele>
				<time>2011-02-17T16:48:43Z</time>
			</trkpt>
			<trkpt lat="50.915547283847744" lon="6.712984837927375">
				<ele>129.0</ele>
				<time>2011-02-17T16:48:44Z</time>
			</trkpt>
			<trkpt lat="50.91552765187018" lon="6.712981477623436">
				<ele>129.0</ele>
				<time>2011-02-17T16:48:45Z</time>
			</trkpt>
			<trkpt lat="50.915509584259866" lon="6.71297992145713">
				<ele>129.0</ele>
				<time>2011-02-17T16:48:46Z</time>
			</trkpt>
			<trkpt lat="50.91549220880929" lon="6.71297948855196">
				<ele>129.0</ele>
				<time>2011-02-17T16:48:47Z</time>
			</trkpt>
			<trkpt lat="50.915475104184836" lon="6.712980590943028">
				<ele>129.0</ele>
				<time>2011-02-17T16:48:48Z</time>
			</trkpt>
			<trkpt lat="50.915458245399265" lon="6.712981778917441">
				<ele>129.0</ele>
				<time>2011-02-17T16:48:49Z</time>
			</trkpt>
			<trkpt lat="50.91544202875067" lon="6.712980012511357">
				<ele>129.0</ele>
				<time>2011-02-17T16:48:50Z</time>
			</trkpt>
			<trkpt lat="50.9154257699884" lon="6.712975605914524">
				<ele>129.0</ele>
				<time>2011-02-17T16:48:51Z</time>
			</trkpt>
			<trkpt lat="50.91541017838682" lon="6.712969866621504">
				<ele>129.0</ele>
				<time>2011-02-17T16:48:52Z</time>
			</trkpt>
			<trkpt lat="50.91539523587305" lon="6.7129620315739125">
				<ele>129.0</ele>
				<time>2011-02-17T16:48:53Z</time>
			</trkpt>
			<trkpt lat="50.91538056171087" lon="6.712949882458051">
				<ele>129.0</ele>
				<time>2011-02-17T16:48:54Z</time>
			</trkpt>
			<trkpt lat="50.91536574900852" lon="6.712936866936441">
				<ele>129.0</ele>
				<time>2011-02-17T16:48:55Z</time>
			</trkpt>
			<trkpt lat="50.91535091242578" lon="6.7129208661204185">
				<ele>129.0</ele>
				<time>2011-02-17T16:48:56Z</time>
			</trkpt>
			<trkpt lat="50.91533648036493" lon="6.712904694534557">
				<ele>129.0</ele>
				<time>2011-02-17T16:48:57Z</time>
			</trkpt>
			<trkpt lat="50.915322546604685" lon="6.712886721894399">
				<ele>129.0</ele>
				<time>2011-02-17T16:48:58Z</time>
			</trkpt>
			<trkpt lat="50.91530836992338" lon="6.712870623030267">
				<ele>129.0</ele>
				<time>2011-02-17T16:48:59Z</time>
			</trkpt>
			<trkpt lat="50.9152945037015" lon="6.712854929504286">
				<ele>128.0</ele>
				<time>2011-02-17T16:49:00Z</time>
			</trkpt>
			<trkpt lat="50.915280537480335" lon="6.712840528600763">
				<ele>128.0</ele>
				<time>2011-02-17T16:49:01Z</time>
			</trkpt>
			<trkpt lat="50.91526659923109" lon="6.712827542703367">
				<ele>128.0</ele>
				<time>2011-02-17T16:49:02Z</time>
			</trkpt>
			<trkpt lat="50.91525270923639" lon="6.71281635836353">
				<ele>128.0</ele>
				<time>2011-02-17T16:49:03Z</time>
			</trkpt>
			<trkpt lat="50.91524104181231" lon="6.712811367031463">
				<ele>128.0</ele>
				<time>2011-02-17T16:49:04Z</time>
			</trkpt>
			<trkpt lat="50.915230816794114" lon="6.71280934851321">
				<ele>128.0</ele>
				<time>2011-02-17T16:49:05Z</time>
			</trkpt>
			<trkpt lat="50.91522032348724" lon="6.712807966775418">
				<ele>128.0</ele>
				<time>2011-02-17T16:49:06Z</time>
			</trkpt>
			<trkpt lat="50.915210089165875" lon="6.712807352030879">
				<ele>128.0</ele>
				<time>2011-02-17T16:49:07Z</time>
			</trkpt>
			<trkpt lat="50.91519999605954" lon="6.712806602541325">
				<ele>128.0</ele>
				<time>2011-02-17T16:49:08Z</time>
			</trkpt>
			<trkpt lat="50.91519049632666" lon="6.71280557256583">
				<ele>128.0</ele>
				<time>2011-02-17T16:49:09Z</time>
			</trkpt>
			<trkpt lat="50.915182452674664" lon="6.712804715504647">
				<ele>128.0</ele>
				<time>2011-02-17T16:49:10Z</time>
			</trkpt>
			<trkpt lat="50.91517429826452" lon="6.712803324211087">
				<ele>128.0</ele>
				<time>2011-02-17T16:49:11Z</time>
			</trkpt>
			<trkpt lat="50.915166990227256" lon="6.71280116931946">
				<ele>128.0</ele>
				<time>2011-02-17T16:49:12Z</time>
			</trkpt>
			<trkpt lat="50.91516035551435" lon="6.712798587558652">
				<ele>128.0</ele>
				<time>2011-02-17T16:49:13Z</time>
			</trkpt>
			<trkpt lat="50.915154490956354" lon="6.712795551384907">
				<ele>128.0</ele>
				<time>2011-02-17T16:49:14Z</time>
			</trkpt>
			<trkpt lat="50.91514916289762" lon="6.712792473145243">
				<ele>128.0</ele>
				<time>2011-02-17T16:49:15Z</time>
			</trkpt>
			<trkpt lat="50.91514433324426" lon="6.712788955682135">
				<ele>128.0</ele>
				<time>2011-02-17T16:49:16Z</time>
			</trkpt>
			<trkpt lat="50.91514058574341" lon="6.712786309788889">
				<ele>128.0</ele>
				<time>2011-02-17T16:49:17Z</time>
			</trkpt>
			<trkpt lat="50.91513844689336" lon="6.712783932252847">
				<ele>128.0</ele>
				<time>2011-02-17T16:49:18Z</time>
			</trkpt>
			<trkpt lat="50.915142491652524" lon="6.712783132348937">
				<ele>128.0</ele>
				<time>2011-02-17T16:49:19Z</time>
			</trkpt>
			<trkpt lat="50.91514687508696" lon="6.71278226163326">
				<ele>128.0</ele>
				<time>2011-02-17T16:49:20Z</time>
			</trkpt>
			<trkpt lat="50.91515134694561" lon="6.712780852849602">
				<ele>128.0</ele>
				<time>2011-02-17T16:49:21Z</time>
			</trkpt>
			<trkpt lat="50.91515617155164" lon="6.712778961231963">
				<ele>128.0</ele>
				<time>2011-02-17T16:49:22Z</time>
			</trkpt>
			<trkpt lat="50.91516070578699" lon="6.712776822496292">
				<ele>128.0</ele>
				<time>2011-02-17T16:49:23Z</time>
			</trkpt>
			<trkpt lat="50.915165548454624" lon="6.7127747961048465">
				<ele>128.0</ele>
				<time>2011-02-17T16:49:24Z</time>
			</trkpt>
			<trkpt lat="50.9151707062226" lon="6.712772553066282">
				<ele>128.0</ele>
				<time>2011-02-17T16:49:25Z</time>
			</trkpt>
			<trkpt lat="50.91517608187158" lon="6.712769954080717">
				<ele>128.0</ele>
				<time>2011-02-17T16:49:26Z</time>
			</trkpt>
			<trkpt lat="50.915182107085265" lon="6.712767668062375">
				<ele>128.0</ele>
				<time>2011-02-17T16:49:27Z</time>
			</trkpt>
			<trkpt lat="50.91518868724671" lon="6.712765545455899">
				<ele>128.0</ele>
				<time>2011-02-17T16:49:28Z</time>
			</trkpt>
			<trkpt lat="50.91519570138132" lon="6.71276526835613">
				<ele>128.0</ele>
				<time>2011-02-17T16:49:29Z</time>
			</trkpt>
			<trkpt lat="50.91520387335808" lon="6.712767254743917">
				<ele>128.0</ele>
				<time>2011-02-17T16:49:30Z</time>
			</trkpt>
			<trkpt lat="50.91521275922917" lon="6.712769725662422">
				<ele>128.0</ele>
				<time>2011-02-17T16:49:31Z</time>
			</trkpt>
			<trkpt lat="50.91522243592795" lon="6.712773991464317">
				<ele>128.0</ele>
				<time>2011-02-17T16:49:32Z</time>
			</trkpt>
			<trkpt lat="50.9152331036671" lon="6.71278828430629">
				<ele>128.0</ele>
				<time>2011-02-17T16:49:33Z</time>
			</trkpt>
			<trkpt lat="50.915243993584824" lon="6.712802065425812">
				<ele>128.0</ele>
				<time>2011-02-17T16:49:34Z</time>
			</trkpt>
			<trkpt lat="50.9152559847351" lon="6.712814086797401">
				<ele>128.0</ele>
				<time>2011-02-17T16:49:35Z</time>
			</trkpt>
			<trkpt lat="50.915268824829425" lon="6.712825618108957">
				<ele>129.0</ele>
				<time>2011-02-17T16:49:36Z</time>
			</trkpt>
			<trkpt lat="50.91528273472215" lon="6.7128377658275795">
				<ele>129.0</ele>
				<time>2011-02-17T16:49:37Z</time>
			</trkpt>
			<trkpt lat="50.91529949288519" lon="6.7128532157914975">
				<ele>129.0</ele>
				<time>2011-02-17T16:49:38Z</time>
			</trkpt>
			<trkpt lat="50.91531938615418" lon="6.712866769742516">
				<ele>129.0</ele>
				<time>2011-02-17T16:49:39Z</time>
			</trkpt>
			<trkpt lat="50.91534055733316" lon="6.712880272462791">
				<ele>129.0</ele>
				<time>2011-02-17T16:49:40Z</time>
			</trkpt>
			<trkpt lat="50.91536160734893" lon="6.712894209780481">
				<ele>129.0</ele>
				<time>2011-02-17T16:49:41Z</time>
			</trkpt>
			<trkpt lat="50.91538123313427" lon="6.712908500458605">
				<ele>129.0</ele>
				<time>2011-02-17T16:49:42Z</time>
			</trkpt>
			<trkpt lat="50.91540023323668" lon="6.712928448514067">
				<ele>129.0</ele>
				<time>2011-02-17T16:49:43Z</time>
			</trkpt>
			<trkpt lat="50.91541882872554" lon="6.712948568851218">
				<ele>129.0</ele>
				<time>2011-02-17T16:49:44Z</time>
			</trkpt>
			<trkpt lat="50.91543652356635" lon="6.712967088495931">
				<ele>129.0</ele>
				<time>2011-02-17T16:49:45Z</time>
			</trkpt>
			<trkpt lat="50.91545415414781" lon="6.712984687508361">
				<ele>129.0</ele>
				<time>2011-02-17T16:49:46Z</time>
			</trkpt>
			<trkpt lat="50.915471412399825" lon="6.713002253138612">
				<ele>128.0</ele>
				<time>2011-02-17T16:49:47Z</time>
			</trkpt>
			<trkpt lat="50.91548858316444" lon="6.713023834547246">
				<ele>128.0</ele>
				<time>2011-02-17T16:49:48Z</time>
			</trkpt>
			<trkpt lat="50.91550489391676" lon="6.713045893331829">
				<ele>128.0</ele>
				<time>2011-02-17T16:49:49Z</time>
			</trkpt>
			<trkpt lat="50.91551901591443" lon="6.713062346341527">
				<ele>128.0</ele>
				<time>2011-02-17T16:49:50Z</time>
			</trkpt>
			<trkpt lat="50.9155315583715" lon="6.7130740151808475">
				<ele>128.0</ele>
				<time>2011-02-17T16:49:51Z</time>
			</trkpt>
			<trkpt lat="50.915540998524754" lon="6.713083642662275">
				<ele>128.0</ele>
				<time>2011-02-17T16:49:52Z</time>
			</trkpt>
			<trkpt lat="50.915552768015154" lon="6.713089287741507">
				<ele>128.0</ele>
				<time>2011-02-17T16:49:53Z</time>
			</trkpt>
			<trkpt lat="50.91556279348068" lon="6.713094887729179">
				<ele>128.0</ele>
				<time>2011-02-17T16:49:54Z</time>
			</trkpt>
			<trkpt lat="50.915570237131135" lon="6.7130986420908">
				<ele>128.0</ele>
				<time>2011-02-17T16:49:55Z</time>
			</trkpt>
			<trkpt lat="50.91557535926238" lon="6.713101416957263">
				<ele>128.0</ele>
				<time>2011-02-17T16:49:56Z</time>
			</trkpt>
			<trkpt lat="50.91557932295921" lon="6.713103269045918">
				<ele>128.0</ele>
				<time>2011-02-17T16:49:57Z</time>
			</trkpt>
			<trkpt lat="50.91558051274898" lon="6.71310448165589">
				<ele>128.0</ele>
				<time>2011-02-17T16:49:58Z</time>
			</trkpt>
			<trkpt lat="50.91558100030567" lon="6.713104759152746">
				<ele>128.0</ele>
				<time>2011-02-17T16:49:59Z</time>
			</trkpt>
			<trkpt lat="50.91558175551147" lon="6.7131065435995225">
				<ele>128.0</ele>
				<time>2011-02-17T16:50:00Z</time>
			</trkpt>
			<trkpt lat="50.91558339029199" lon="6.7131100298126665">
				<ele>128.0</ele>
				<time>2011-02-17T16:50:01Z</time>
			</trkpt>
			<trkpt lat="50.91558488487974" lon="6.713114302981214">
				<ele>129.0</ele>
				<time>2011-02-17T16:50:02Z</time>
			</trkpt>
			<trkpt lat="50.91558611110867" lon="6.713119137602425">
				<ele>129.0</ele>
				<time>2011-02-17T16:50:03Z</time>
			</trkpt>
			<trkpt lat="50.915582262398715" lon="6.713121332609382">
				<ele>129.0</ele>
				<time>2011-02-17T16:50:04Z</time>
			</trkpt>
			<trkpt lat="50.9155780123653" lon="6.713123430698967">
				<ele>129.0</ele>
				<time>2011-02-17T16:50:05Z</time>
			</trkpt>
			<trkpt lat="50.915574861758834" lon="6.713124746739697">
				<ele>129.0</ele>
				<time>2011-02-17T16:50:06Z</time>
			</trkpt>
		</trkseg>
	</trk>
	<wpt lat="50.87181972610446" lon="6.6893163122969845">
		<ele>133.0</ele>
		<time>2011-02-17T15:39:04Z</time>
		<name><![CDATA[Bushaltestelle]]></name>
		<sat>11</sat>
	</wpt>
	<wpt lat="50.86697634689034" lon="6.677882127268529">
		<ele>124.0</ele>
		<time>2011-02-17T15:42:16Z</time>
		<name><![CDATA[Bushaltestelle]]></name>
		<sat>11</sat>
	</wpt>
	<wpt lat="50.865924655127955" lon="6.671077528478044">
		<ele>125.0</ele>
		<time>2011-02-17T15:43:08Z</time>
		<name><![CDATA[Bushaltestelle]]></name>
		<sat>11</sat>
	</wpt>
	<wpt lat="50.86244935814661" lon="6.647247279196336">
		<ele>137.0</ele>
		<time>2011-02-17T15:46:36Z</time>
		<name><![CDATA[Bushaltestelle]]></name>
		<sat>11</sat>
	</wpt>
	<wpt lat="50.86244935814661" lon="6.647247279196336">
		<ele>137.0</ele>
		<time>2011-02-17T15:46:40Z</time>
		<name><![CDATA[Briefkasten]]></name>
		<sat>11</sat>
	</wpt>
	<wpt lat="50.85896551045151" lon="6.639084986123569">
		<ele>140.0</ele>
		<time>2011-02-17T15:48:11Z</time>
		<name><![CDATA[Bushaltestelle]]></name>
		<sat>9</sat>
	</wpt>
	<wpt lat="50.85527771209746" lon="6.631581348266686">
		<ele>135.0</ele>
		<time>2011-02-17T15:49:14Z</time>
		<name><![CDATA[Briefkasten]]></name>
		<sat>8</sat>
	</wpt>
	<wpt lat="50.85449548982225" lon="6.630640574451628">
		<ele>135.0</ele>
		<time>2011-02-17T15:49:25Z</time>
		<name><![CDATA[Bushaltestelle]]></name>
		<sat>9</sat>
	</wpt>
	<wpt lat="50.85379214889315" lon="6.629953859043286">
		<ele>136.0</ele>
		<time>2011-02-17T15:49:35Z</time>
		<name><![CDATA[Bushaltestelle]]></name>
		<sat>9</sat>
	</wpt>
	<wpt lat="50.851859361965" lon="6.628004624453208">
		<ele>139.0</ele>
		<time>2011-02-17T15:50:01Z</time>
		<name><![CDATA[Briefkasten]]></name>
		<sat>9</sat>
	</wpt>
	<wpt lat="50.85132060132603" lon="6.626583404459406">
		<ele>139.0</ele>
		<time>2011-02-17T15:50:13Z</time>
		<name><![CDATA[Bushaltestelle]]></name>
		<sat>8</sat>
	</wpt>
	<wpt lat="50.843918489118224" lon="6.603361370240999">
		<ele>152.0</ele>
		<time>2011-02-17T15:52:14Z</time>
		<name><![CDATA[Bushaltestelle]]></name>
		<sat>11</sat>
	</wpt>
	<wpt lat="50.83620402531805" lon="6.579022673329323">
		<ele>156.0</ele>
		<time>2011-02-17T15:54:17Z</time>
		<name><![CDATA[Bushaltestelle]]></name>
		<sat>10</sat>
	</wpt>
	<wpt lat="50.83873532682009" lon="6.5804200503149675">
		<ele>153.0</ele>
		<time>2011-02-17T15:57:25Z</time>
		<name><![CDATA[Bushaltestelle]]></name>
		<sat>9</sat>
	</wpt>
	<wpt lat="50.839591427604375" lon="6.57989475776715">
		<ele>151.0</ele>
		<time>2011-02-17T15:57:44Z</time>
		<name><![CDATA[Briefkasten]]></name>
		<sat>9</sat>
	</wpt>
	<wpt lat="50.840044998095436" lon="6.579051857840775">
		<ele>154.0</ele>
		<time>2011-02-17T15:57:54Z</time>
		<name><![CDATA[Telefon]]></name>
		<sat>10</sat>
	</wpt>
	<wpt lat="50.85690417181048" lon="6.5860794051496185">
		<ele>148.0</ele>
		<time>2011-02-17T16:00:02Z</time>
		<name><![CDATA[Bushaltestelle]]></name>
		<sat>9</sat>
	</wpt>
	<wpt lat="50.856484944018916" lon="6.591390036570367">
		<ele>151.0</ele>
		<time>2011-02-17T16:00:58Z</time>
		<name><![CDATA[Bushaltestelle]]></name>
		<sat>10</sat>
	</wpt>
	<wpt lat="50.85613584999567" lon="6.594733631336077">
		<ele>150.0</ele>
		<time>2011-02-17T16:01:39Z</time>
		<name><![CDATA[Bushaltestelle]]></name>
		<sat>10</sat>
	</wpt>
	<wpt lat="50.85614068634194" lon="6.59518291652104">
		<ele>150.0</ele>
		<time>2011-02-17T16:02:02Z</time>
		<name><![CDATA[Bushaltestelle]]></name>
		<sat>11</sat>
	</wpt>
	<wpt lat="50.85650897711199" lon="6.59142127172302">
		<ele>150.0</ele>
		<time>2011-02-17T16:02:30Z</time>
		<name><![CDATA[Bushaltestelle]]></name>
		<sat>10</sat>
	</wpt>
	<wpt lat="50.85692109859666" lon="6.58954631728424">
		<ele>150.0</ele>
		<time>2011-02-17T16:02:45Z</time>
		<name><![CDATA[Briefkasten]]></name>
		<sat>9</sat>
	</wpt>
	<wpt lat="50.85995862417839" lon="6.5820920696143475">
		<ele>152.0</ele>
		<time>2011-02-17T16:04:16Z</time>
		<name><![CDATA[Bushaltestelle]]></name>
		<sat>10</sat>
	</wpt>
	<wpt lat="50.85989614532107" lon="6.582089490223237">
		<ele>152.0</ele>
		<time>2011-02-17T16:04:25Z</time>
		<name><![CDATA[Telefon]]></name>
		<sat>10</sat>
	</wpt>
	<wpt lat="50.88197277501824" lon="6.601480460833245">
		<ele>138.0</ele>
		<time>2011-02-17T16:10:04Z</time>
		<name><![CDATA[Bushaltestelle]]></name>
		<sat>9</sat>
	</wpt>
	<wpt lat="50.891118084077554" lon="6.610064393014674">
		<ele>133.0</ele>
		<time>2011-02-17T16:11:42Z</time>
		<name><![CDATA[Bushaltestelle]]></name>
		<sat>11</sat>
	</wpt>
	<wpt lat="50.89470314215352" lon="6.61139699155434">
		<ele>133.0</ele>
		<time>2011-02-17T16:12:04Z</time>
		<name><![CDATA[Bushaltestelle]]></name>
		<sat>9</sat>
	</wpt>
	<wpt lat="50.911519359072415" lon="6.617229903557687">
		<ele>126.0</ele>
		<time>2011-02-17T16:13:52Z</time>
		<name><![CDATA[Bushaltestelle]]></name>
		<sat>9</sat>
	</wpt>
	<wpt lat="50.91323786868466" lon="6.638967097017521">
		<ele>119.0</ele>
		<time>2011-02-17T16:16:44Z</time>
		<name><![CDATA[Briefkasten]]></name>
		<sat>7</sat>
	</wpt>
	<wpt lat="50.91385501397792" lon="6.640391110032084">
		<ele>119.0</ele>
		<time>2011-02-17T16:17:13Z</time>
		<name><![CDATA[Bushaltestelle]]></name>
		<sat>8</sat>
	</wpt>
	<wpt lat="50.9116039275174" lon="6.669151939926554">
		<ele>123.0</ele>
		<time>2011-02-17T16:21:13Z</time>
		<name><![CDATA[Bushaltestelle]]></name>
		<sat>10</sat>
	</wpt>
	<wpt lat="50.913979194252164" lon="6.67365411059708">
		<ele>116.0</ele>
		<time>2011-02-17T16:22:24Z</time>
		<name><![CDATA[Briefkasten]]></name>
		<sat>8</sat>
	</wpt>
	<wpt lat="50.91441160427479" lon="6.676388354804771">
		<ele>118.0</ele>
		<time>2011-02-17T16:23:21Z</time>
		<name><![CDATA[Bushaltestelle]]></name>
		<sat>9</sat>
	</wpt>
	<wpt lat="50.91345318465513" lon="6.679418415788402">
		<ele>119.0</ele>
		<time>2011-02-17T16:23:51Z</time>
		<name><![CDATA[Bushaltestelle]]></name>
		<sat>9</sat>
	</wpt>
	<wpt lat="50.91487438659122" lon="6.7039541854562135">
		<ele>119.0</ele>
		<time>2011-02-17T16:26:48Z</time>
		<name><![CDATA[Briefkasten]]></name>
		<sat>7</sat>
	</wpt>
	<wpt lat="50.91536659973212" lon="6.7083290696923665">
		<ele>121.0</ele>
		<time>2011-02-17T16:28:17Z</time>
		<name><![CDATA[Bushaltestelle]]></name>
		<sat>9</sat>
	</wpt>
	<wpt lat="50.91107376451368" lon="6.711637681376339">
		<ele>121.0</ele>
		<time>2011-02-17T16:30:32Z</time>
		<name><![CDATA[Bushaltestelle]]></name>
		<sat>8</sat>
	</wpt>
	<wpt lat="50.909590509423445" lon="6.713530699731719">
		<ele>124.0</ele>
		<time>2011-02-17T16:31:36Z</time>
		<name><![CDATA[Bushaltestelle]]></name>
		<sat>8</sat>
	</wpt>
	<wpt lat="50.91316312269078" lon="6.730403829129978">
		<ele>148.0</ele>
		<time>2011-02-17T16:33:52Z</time>
		<name><![CDATA[Bushaltestelle]]></name>
		<sat>9</sat>
	</wpt>
	<wpt lat="50.91523862312281" lon="6.727134064225125">
		<ele>152.0</ele>
		<time>2011-02-17T16:34:54Z</time>
		<name><![CDATA[Bushaltestelle]]></name>
		<sat>9</sat>
	</wpt>
	<wpt lat="50.91603675371005" lon="6.726140994791417">
		<ele>155.0</ele>
		<time>2011-02-17T16:35:15Z</time>
		<name><![CDATA[Briefkasten]]></name>
		<sat>9</sat>
	</wpt>
	<wpt lat="50.91545125050677" lon="6.721529846982526">
		<ele>161.0</ele>
		<time>2011-02-17T16:36:03Z</time>
		<name><![CDATA[Bushaltestelle]]></name>
		<sat>8</sat>
	</wpt>
	<wpt lat="50.91531938202651" lon="6.71945048872885">
		<ele>161.0</ele>
		<time>2011-02-17T16:36:25Z</time>
		<name><![CDATA[Bushaltestelle]]></name>
		<sat>7</sat>
	</wpt>
	<wpt lat="50.916541171128145" lon="6.714867807408899">
		<ele>149.0</ele>
		<time>2011-02-17T16:38:04Z</time>
		<name><![CDATA[Bushaltestelle]]></name>
		<sat>7</sat>
	</wpt>
	<wpt lat="50.91585543880677" lon="6.713397301470794">
		<ele>147.0</ele>
		<time>2011-02-17T16:38:31Z</time>
		<name><![CDATA[Briefkasten]]></name>
		<sat>9</sat>
	</wpt>
	<wpt lat="50.91553765760521" lon="6.713054304146038">
		<ele>144.0</ele>
		<time>2011-02-17T16:38:42Z</time>
		<name><![CDATA[Telefon]]></name>
		<sat>8</sat>
	</wpt>
	<wpt lat="50.91382046880152" lon="6.714415161728046">
		<ele>139.0</ele>
		<time>2011-02-17T16:39:13Z</time>
		<name><![CDATA[Bushaltestelle]]></name>
		<sat>8</sat>
	</wpt>
	<wpt lat="50.91356890207377" lon="6.714581408420193">
		<ele>139.0</ele>
		<time>2011-02-17T16:39:30Z</time>
		<name><![CDATA[Bushaltestelle]]></name>
		<sat>8</sat>
	</wpt>
	<wpt lat="50.915796321422704" lon="6.713489787983937">
		<ele>132.0</ele>
		<time>2011-02-17T16:43:08Z</time>
		<name><![CDATA[Briefkasten]]></name>
		<sat>9</sat>
	</wpt>
	<wpt lat="50.91584995007904" lon="6.713505800853993">
		<ele>132.0</ele>
		<time>2011-02-17T16:43:11Z</time>
		<name><![CDATA[Telefon]]></name>
		<sat>9</sat>
	</wpt>
	<wpt lat="50.9160440213295" lon="6.713777505073422">
		<ele>131.0</ele>
		<time>2011-02-17T16:43:30Z</time>
		<name><![CDATA[Wartehalle]]></name>
		<sat>9</sat>
	</wpt>
	<wpt lat="50.91630774643488" lon="6.714020294239271">
		<ele>130.0</ele>
		<time>2011-02-17T16:44:18Z</time>
		<name><![CDATA[Eisenbahn]]></name>
		<sat>9</sat>
	</wpt>
	<wpt lat="50.9162536605444" lon="6.713981678575901">
		<ele>130.0</ele>
		<time>2011-02-17T16:44:32Z</time>
		<name><![CDATA[Bushaltestelle]]></name>
		<sat>9</sat>
	</wpt>
	<wpt lat="50.91619092589604" lon="6.7140040812523">
		<ele>130.0</ele>
		<time>2011-02-17T16:45:01Z</time>
		<name><![CDATA[Bild]]></name>
		<link href="2011-02-17_17-45-01.jpg">
			<text>2011-02-17_17-45-01.jpg</text>
		</link>
		<sat>9</sat>
	</wpt>
	<wpt lat="50.91581760486698" lon="6.713273864212028">
		<ele>131.0</ele>
		<time>2011-02-17T16:48:12Z</time>
		<name><![CDATA[Fast food]]></name>
		<sat>8</sat>
	</wpt>
	<wpt lat="50.91514687508696" lon="6.71278226163326">
		<ele>128.0</ele>
		<time>2011-02-17T16:49:20Z</time>
		<name><![CDATA[Apotheke]]></name>
		<sat>6</sat>
	</wpt>
</gpx>